<?xml version="1.0" encoding="UTF-8" standalone="no" ?>
<gpx xmlns="http://www.topografix.com/GPX/1/1" xmlns:xsi="http://www.w3.org/2001/XMLSchema-instance" xsi:schemaLocation="http://www.topografix.com/GPX/1/1 http://www.topografix.com/GPX/1/1/gpx.xsd" version="1.1" creator="VisuGPX - https://www.visugpx.com">
  <metadata>
    <name>Sortie Vanade</name>
    <desc><![CDATA[Sortie superbe entre ville et sentier]]></desc>
  </metadata>
  <trk>
    <name><![CDATA[Villeneuve-Loubet Sans catégorie]]></name>
    <trkseg>
      <trkpt lat="43.66083" lon="7.09583">
        <ele>44</ele>
        <time>2015-03-31T15:15:15.000Z</time>
      </trkpt>
      <trkpt lat="43.66089" lon="7.09587">
        <ele>44</ele>
        <time>2015-03-31T15:15:47.000Z</time>
      </trkpt>
      <trkpt lat="43.6608" lon="7.09577">
        <ele>44</ele>
        <time>2015-03-31T15:15:49.000Z</time>
      </trkpt>
      <trkpt lat="43.66088" lon="7.09582">
        <ele>44</ele>
        <time>2015-03-31T15:18:02.000Z</time>
      </trkpt>
      <trkpt lat="43.66097" lon="7.09585">
        <ele>44.200000762939</ele>
        <time>2015-03-31T15:18:08.000Z</time>
      </trkpt>
      <trkpt lat="43.66097" lon="7.0957">
        <ele>43.599998474121</ele>
        <time>2015-03-31T15:18:12.000Z</time>
      </trkpt>
      <trkpt lat="43.6609" lon="7.09554">
        <ele>43</ele>
        <time>2015-03-31T15:18:15.000Z</time>
      </trkpt>
      <trkpt lat="43.6608" lon="7.09542">
        <ele>42.200000762939</ele>
        <time>2015-03-31T15:18:17.000Z</time>
      </trkpt>
      <trkpt lat="43.66069" lon="7.09537">
        <ele>41.599998474121</ele>
        <time>2015-03-31T15:18:19.000Z</time>
      </trkpt>
      <trkpt lat="43.66059" lon="7.0954">
        <ele>41</ele>
        <time>2015-03-31T15:18:20.000Z</time>
      </trkpt>
      <trkpt lat="43.66044" lon="7.09545">
        <ele>40.400001525879</ele>
        <time>2015-03-31T15:18:22.000Z</time>
      </trkpt>
      <trkpt lat="43.66028" lon="7.09551">
        <ele>39.799999237061</ele>
        <time>2015-03-31T15:18:24.000Z</time>
      </trkpt>
      <trkpt lat="43.6602" lon="7.09554">
        <ele>39</ele>
        <time>2015-03-31T15:18:25.000Z</time>
      </trkpt>
      <trkpt lat="43.66011" lon="7.09558">
        <ele>38.599998474121</ele>
        <time>2015-03-31T15:18:26.000Z</time>
      </trkpt>
      <trkpt lat="43.66002" lon="7.09562">
        <ele>36.799999237061</ele>
        <time>2015-03-31T15:18:27.000Z</time>
      </trkpt>
      <trkpt lat="43.65994" lon="7.09566">
        <ele>35.200000762939</ele>
        <time>2015-03-31T15:18:28.000Z</time>
      </trkpt>
      <trkpt lat="43.65986" lon="7.09571">
        <ele>34.200000762939</ele>
        <time>2015-03-31T15:18:29.000Z</time>
      </trkpt>
      <trkpt lat="43.65973" lon="7.09583">
        <ele>33.400001525879</ele>
        <time>2015-03-31T15:18:31.000Z</time>
      </trkpt>
      <trkpt lat="43.65964" lon="7.09594">
        <ele>32.599998474121</ele>
        <time>2015-03-31T15:18:33.000Z</time>
      </trkpt>
      <trkpt lat="43.65957" lon="7.09601">
        <ele>31.60000038147</ele>
        <time>2015-03-31T15:18:35.000Z</time>
      </trkpt>
      <trkpt lat="43.65948" lon="7.09602">
        <ele>30.60000038147</ele>
        <time>2015-03-31T15:19:05.000Z</time>
      </trkpt>
      <trkpt lat="43.65938" lon="7.09605">
        <ele>29.799999237061</ele>
        <time>2015-03-31T15:19:08.000Z</time>
      </trkpt>
      <trkpt lat="43.65927" lon="7.09602">
        <ele>28.799999237061</ele>
        <time>2015-03-31T15:19:10.000Z</time>
      </trkpt>
      <trkpt lat="43.65918" lon="7.096">
        <ele>28.39999961853</ele>
        <time>2015-03-31T15:19:12.000Z</time>
      </trkpt>
      <trkpt lat="43.65909" lon="7.09598">
        <ele>27.799999237061</ele>
        <time>2015-03-31T15:19:15.000Z</time>
      </trkpt>
      <trkpt lat="43.659" lon="7.09597">
        <ele>28.39999961853</ele>
        <time>2015-03-31T15:19:18.000Z</time>
      </trkpt>
      <trkpt lat="43.65892" lon="7.09598">
        <ele>28.799999237061</ele>
        <time>2015-03-31T15:19:23.000Z</time>
      </trkpt>
      <trkpt lat="43.65882" lon="7.09595">
        <ele>29.200000762939</ele>
        <time>2015-03-31T15:19:30.000Z</time>
      </trkpt>
      <trkpt lat="43.65876" lon="7.09587">
        <ele>29.799999237061</ele>
        <time>2015-03-31T15:19:35.000Z</time>
      </trkpt>
      <trkpt lat="43.6587" lon="7.09595">
        <ele>30.200000762939</ele>
        <time>2015-03-31T15:19:43.000Z</time>
      </trkpt>
      <trkpt lat="43.65862" lon="7.09598">
        <ele>30.60000038147</ele>
        <time>2015-03-31T15:20:02.000Z</time>
      </trkpt>
      <trkpt lat="43.65854" lon="7.09603">
        <ele>31.799999237061</ele>
        <time>2015-03-31T15:20:15.000Z</time>
      </trkpt>
      <trkpt lat="43.65847" lon="7.0961">
        <ele>33</ele>
        <time>2015-03-31T15:20:24.000Z</time>
      </trkpt>
      <trkpt lat="43.6584" lon="7.09618">
        <ele>34.200000762939</ele>
        <time>2015-03-31T15:20:32.000Z</time>
      </trkpt>
      <trkpt lat="43.65834" lon="7.09626">
        <ele>35</ele>
        <time>2015-03-31T15:20:41.000Z</time>
      </trkpt>
      <trkpt lat="43.65827" lon="7.09632">
        <ele>35.599998474121</ele>
        <time>2015-03-31T15:20:51.000Z</time>
      </trkpt>
      <trkpt lat="43.6582" lon="7.0964">
        <ele>36.400001525879</ele>
        <time>2015-03-31T15:21:00.000Z</time>
      </trkpt>
      <trkpt lat="43.65821" lon="7.09652">
        <ele>37</ele>
        <time>2015-03-31T15:21:12.000Z</time>
      </trkpt>
      <trkpt lat="43.6582" lon="7.09667">
        <ele>39</ele>
        <time>2015-03-31T15:21:16.000Z</time>
      </trkpt>
      <trkpt lat="43.65819" lon="7.0968">
        <ele>41</ele>
        <time>2015-03-31T15:21:19.000Z</time>
      </trkpt>
      <trkpt lat="43.65817" lon="7.09694">
        <ele>43</ele>
        <time>2015-03-31T15:21:22.000Z</time>
      </trkpt>
      <trkpt lat="43.65811" lon="7.09706">
        <ele>45</ele>
        <time>2015-03-31T15:21:25.000Z</time>
      </trkpt>
      <trkpt lat="43.65804" lon="7.09713">
        <ele>46.400001525879</ele>
        <time>2015-03-31T15:21:28.000Z</time>
      </trkpt>
      <trkpt lat="43.65798" lon="7.09721">
        <ele>47.599998474121</ele>
        <time>2015-03-31T15:21:34.000Z</time>
      </trkpt>
      <trkpt lat="43.65791" lon="7.09727">
        <ele>49</ele>
        <time>2015-03-31T15:21:38.000Z</time>
      </trkpt>
      <trkpt lat="43.65782" lon="7.0973">
        <ele>50.200000762939</ele>
        <time>2015-03-31T15:21:46.000Z</time>
      </trkpt>
      <trkpt lat="43.65774" lon="7.09736">
        <ele>51.599998474121</ele>
        <time>2015-03-31T15:21:50.000Z</time>
      </trkpt>
      <trkpt lat="43.65767" lon="7.09742">
        <ele>52.799999237061</ele>
        <time>2015-03-31T15:21:54.000Z</time>
      </trkpt>
      <trkpt lat="43.65763" lon="7.09753">
        <ele>54</ele>
        <time>2015-03-31T15:21:59.000Z</time>
      </trkpt>
      <trkpt lat="43.65755" lon="7.09755">
        <ele>54</ele>
        <time>2015-03-31T15:22:13.000Z</time>
      </trkpt>
      <trkpt lat="43.65746" lon="7.09759">
        <ele>54</ele>
        <time>2015-03-31T15:22:23.000Z</time>
      </trkpt>
      <trkpt lat="43.6574" lon="7.09752">
        <ele>54</ele>
        <time>2015-03-31T15:22:35.000Z</time>
      </trkpt>
      <trkpt lat="43.65734" lon="7.09745">
        <ele>54</ele>
        <time>2015-03-31T15:22:46.000Z</time>
      </trkpt>
      <trkpt lat="43.65725" lon="7.0975">
        <ele>54.599998474121</ele>
        <time>2015-03-31T15:22:56.000Z</time>
      </trkpt>
      <trkpt lat="43.65718" lon="7.09758">
        <ele>55</ele>
        <time>2015-03-31T15:23:08.000Z</time>
      </trkpt>
      <trkpt lat="43.65713" lon="7.09767">
        <ele>55.599998474121</ele>
        <time>2015-03-31T15:23:22.000Z</time>
      </trkpt>
      <trkpt lat="43.65711" lon="7.09779">
        <ele>56.200000762939</ele>
        <time>2015-03-31T15:23:37.000Z</time>
      </trkpt>
      <trkpt lat="43.65709" lon="7.09791">
        <ele>59</ele>
        <time>2015-03-31T15:23:42.000Z</time>
      </trkpt>
      <trkpt lat="43.65709" lon="7.09803">
        <ele>61.599998474121</ele>
        <time>2015-03-31T15:23:47.000Z</time>
      </trkpt>
      <trkpt lat="43.65712" lon="7.09815">
        <ele>64.400001525879</ele>
        <time>2015-03-31T15:23:52.000Z</time>
      </trkpt>
      <trkpt lat="43.65712" lon="7.09827">
        <ele>67</ele>
        <time>2015-03-31T15:23:58.000Z</time>
      </trkpt>
      <trkpt lat="43.65712" lon="7.09838">
        <ele>69.800003051758</ele>
        <time>2015-03-31T15:24:10.000Z</time>
      </trkpt>
      <trkpt lat="43.65707" lon="7.09848">
        <ele>72.599998474121</ele>
        <time>2015-03-31T15:24:22.000Z</time>
      </trkpt>
      <trkpt lat="43.65699" lon="7.09849">
        <ele>75.400001525879</ele>
        <time>2015-03-31T15:24:41.000Z</time>
      </trkpt>
      <trkpt lat="43.65692" lon="7.09841">
        <ele>76.599998474121</ele>
        <time>2015-03-31T15:25:00.000Z</time>
      </trkpt>
      <trkpt lat="43.65687" lon="7.09832">
        <ele>77.800003051758</ele>
        <time>2015-03-31T15:25:04.000Z</time>
      </trkpt>
      <trkpt lat="43.65683" lon="7.0982">
        <ele>79</ele>
        <time>2015-03-31T15:25:09.000Z</time>
      </trkpt>
      <trkpt lat="43.65677" lon="7.09812">
        <ele>80.400001525879</ele>
        <time>2015-03-31T15:25:20.000Z</time>
      </trkpt>
      <trkpt lat="43.65672" lon="7.09803">
        <ele>79.599998474121</ele>
        <time>2015-03-31T15:25:30.000Z</time>
      </trkpt>
      <trkpt lat="43.65668" lon="7.0979">
        <ele>78.599998474121</ele>
        <time>2015-03-31T15:25:34.000Z</time>
      </trkpt>
      <trkpt lat="43.65665" lon="7.09779">
        <ele>77</ele>
        <time>2015-03-31T15:25:37.000Z</time>
      </trkpt>
      <trkpt lat="43.6566" lon="7.09769">
        <ele>75.400001525879</ele>
        <time>2015-03-31T15:25:40.000Z</time>
      </trkpt>
      <trkpt lat="43.65656" lon="7.09756">
        <ele>73.599998474121</ele>
        <time>2015-03-31T15:25:44.000Z</time>
      </trkpt>
      <trkpt lat="43.65651" lon="7.09743">
        <ele>72</ele>
        <time>2015-03-31T15:25:48.000Z</time>
      </trkpt>
      <trkpt lat="43.65648" lon="7.0973">
        <ele>70.400001525879</ele>
        <time>2015-03-31T15:25:52.000Z</time>
      </trkpt>
      <trkpt lat="43.65645" lon="7.09715">
        <ele>69.599998474121</ele>
        <time>2015-03-31T15:25:56.000Z</time>
      </trkpt>
      <trkpt lat="43.65641" lon="7.09703">
        <ele>69</ele>
        <time>2015-03-31T15:25:58.000Z</time>
      </trkpt>
      <trkpt lat="43.6564" lon="7.09691">
        <ele>67.199996948242</ele>
        <time>2015-03-31T15:26:00.000Z</time>
      </trkpt>
      <trkpt lat="43.65637" lon="7.09679">
        <ele>65.599998474121</ele>
        <time>2015-03-31T15:26:03.000Z</time>
      </trkpt>
      <trkpt lat="43.65635" lon="7.09668">
        <ele>65.599998474121</ele>
        <time>2015-03-31T15:26:06.000Z</time>
      </trkpt>
      <trkpt lat="43.65633" lon="7.09654">
        <ele>65.800003051758</ele>
        <time>2015-03-31T15:26:10.000Z</time>
      </trkpt>
      <trkpt lat="43.65634" lon="7.09642">
        <ele>66.599998474121</ele>
        <time>2015-03-31T15:26:14.000Z</time>
      </trkpt>
      <trkpt lat="43.65632" lon="7.09626">
        <ele>67.599998474121</ele>
        <time>2015-03-31T15:26:17.000Z</time>
      </trkpt>
      <trkpt lat="43.65628" lon="7.09612">
        <ele>68.599998474121</ele>
        <time>2015-03-31T15:26:19.000Z</time>
      </trkpt>
      <trkpt lat="43.65621" lon="7.09602">
        <ele>67.599998474121</ele>
        <time>2015-03-31T15:26:20.000Z</time>
      </trkpt>
      <trkpt lat="43.65612" lon="7.09592">
        <ele>67</ele>
        <time>2015-03-31T15:26:22.000Z</time>
      </trkpt>
      <trkpt lat="43.65602" lon="7.09583">
        <ele>66</ele>
        <time>2015-03-31T15:26:24.000Z</time>
      </trkpt>
      <trkpt lat="43.6559" lon="7.09573">
        <ele>65.400001525879</ele>
        <time>2015-03-31T15:26:28.000Z</time>
      </trkpt>
      <trkpt lat="43.65576" lon="7.0955">
        <ele>68</ele>
        <time>2015-03-31T15:26:30.000Z</time>
      </trkpt>
      <trkpt lat="43.65572" lon="7.09541">
        <ele>71</ele>
        <time>2015-03-31T15:26:31.000Z</time>
      </trkpt>
      <trkpt lat="43.65567" lon="7.09531">
        <ele>71.800003051758</ele>
        <time>2015-03-31T15:26:31.000Z</time>
      </trkpt>
      <trkpt lat="43.65562" lon="7.09522">
        <ele>72.599998474121</ele>
        <time>2015-03-31T15:26:32.000Z</time>
      </trkpt>
      <trkpt lat="43.65553" lon="7.09504">
        <ele>72.199996948242</ele>
        <time>2015-03-31T15:26:34.000Z</time>
      </trkpt>
      <trkpt lat="43.65543" lon="7.09487">
        <ele>71.599998474121</ele>
        <time>2015-03-31T15:26:36.000Z</time>
      </trkpt>
      <trkpt lat="43.65535" lon="7.09473">
        <ele>71</ele>
        <time>2015-03-31T15:26:38.000Z</time>
      </trkpt>
      <trkpt lat="43.65529" lon="7.09465">
        <ele>72.400001525879</ele>
        <time>2015-03-31T15:26:40.000Z</time>
      </trkpt>
      <trkpt lat="43.65521" lon="7.09461">
        <ele>73.599998474121</ele>
        <time>2015-03-31T15:26:42.000Z</time>
      </trkpt>
      <trkpt lat="43.65512" lon="7.09459">
        <ele>74.599998474121</ele>
        <time>2015-03-31T15:26:44.000Z</time>
      </trkpt>
      <trkpt lat="43.65504" lon="7.09457">
        <ele>75.800003051758</ele>
        <time>2015-03-31T15:26:46.000Z</time>
      </trkpt>
      <trkpt lat="43.65494" lon="7.09453">
        <ele>74.400001525879</ele>
        <time>2015-03-31T15:26:49.000Z</time>
      </trkpt>
      <trkpt lat="43.65485" lon="7.09447">
        <ele>73</ele>
        <time>2015-03-31T15:26:52.000Z</time>
      </trkpt>
      <trkpt lat="43.65478" lon="7.09439">
        <ele>70.400001525879</ele>
        <time>2015-03-31T15:26:55.000Z</time>
      </trkpt>
      <trkpt lat="43.65473" lon="7.09428">
        <ele>67.599998474121</ele>
        <time>2015-03-31T15:26:58.000Z</time>
      </trkpt>
      <trkpt lat="43.65473" lon="7.09415">
        <ele>68.599998474121</ele>
        <time>2015-03-31T15:27:02.000Z</time>
      </trkpt>
      <trkpt lat="43.65473" lon="7.094">
        <ele>69.599998474121</ele>
        <time>2015-03-31T15:27:06.000Z</time>
      </trkpt>
      <trkpt lat="43.65472" lon="7.09388">
        <ele>70.400001525879</ele>
        <time>2015-03-31T15:27:09.000Z</time>
      </trkpt>
      <trkpt lat="43.65469" lon="7.09377">
        <ele>71.400001525879</ele>
        <time>2015-03-31T15:27:12.000Z</time>
      </trkpt>
      <trkpt lat="43.65464" lon="7.09368">
        <ele>72.199996948242</ele>
        <time>2015-03-31T15:27:15.000Z</time>
      </trkpt>
      <trkpt lat="43.65458" lon="7.09356">
        <ele>73</ele>
        <time>2015-03-31T15:27:19.000Z</time>
      </trkpt>
      <trkpt lat="43.65451" lon="7.09347">
        <ele>74</ele>
        <time>2015-03-31T15:27:22.000Z</time>
      </trkpt>
      <trkpt lat="43.65445" lon="7.09336">
        <ele>75</ele>
        <time>2015-03-31T15:27:25.000Z</time>
      </trkpt>
      <trkpt lat="43.65434" lon="7.0933">
        <ele>75.800003051758</ele>
        <time>2015-03-31T15:27:28.000Z</time>
      </trkpt>
      <trkpt lat="43.65424" lon="7.09325">
        <ele>79.199996948242</ele>
        <time>2015-03-31T15:27:31.000Z</time>
      </trkpt>
      <trkpt lat="43.65416" lon="7.0932">
        <ele>82.599998474121</ele>
        <time>2015-03-31T15:27:34.000Z</time>
      </trkpt>
      <trkpt lat="43.65405" lon="7.09317">
        <ele>82.599998474121</ele>
        <time>2015-03-31T15:27:37.000Z</time>
      </trkpt>
      <trkpt lat="43.65393" lon="7.09314">
        <ele>82.400001525879</ele>
        <time>2015-03-31T15:27:40.000Z</time>
      </trkpt>
      <trkpt lat="43.65382" lon="7.09309">
        <ele>82.400001525879</ele>
        <time>2015-03-31T15:27:43.000Z</time>
      </trkpt>
      <trkpt lat="43.65373" lon="7.09304">
        <ele>82.199996948242</ele>
        <time>2015-03-31T15:27:46.000Z</time>
      </trkpt>
      <trkpt lat="43.65362" lon="7.09297">
        <ele>82</ele>
        <time>2015-03-31T15:27:49.000Z</time>
      </trkpt>
      <trkpt lat="43.65354" lon="7.09292">
        <ele>82</ele>
        <time>2015-03-31T15:27:52.000Z</time>
      </trkpt>
      <trkpt lat="43.65347" lon="7.09285">
        <ele>82</ele>
        <time>2015-03-31T15:27:55.000Z</time>
      </trkpt>
      <trkpt lat="43.65338" lon="7.0928">
        <ele>81.800003051758</ele>
        <time>2015-03-31T15:27:58.000Z</time>
      </trkpt>
      <trkpt lat="43.6533" lon="7.09273">
        <ele>80.599998474121</ele>
        <time>2015-03-31T15:28:01.000Z</time>
      </trkpt>
      <trkpt lat="43.65323" lon="7.09264">
        <ele>78</ele>
        <time>2015-03-31T15:28:04.000Z</time>
      </trkpt>
      <trkpt lat="43.6532" lon="7.09251">
        <ele>75.599998474121</ele>
        <time>2015-03-31T15:28:08.000Z</time>
      </trkpt>
      <trkpt lat="43.65321" lon="7.09237">
        <ele>76.599998474121</ele>
        <time>2015-03-31T15:28:12.000Z</time>
      </trkpt>
      <trkpt lat="43.65321" lon="7.09223">
        <ele>77.599998474121</ele>
        <time>2015-03-31T15:28:16.000Z</time>
      </trkpt>
      <trkpt lat="43.65315" lon="7.09211">
        <ele>78.599998474121</ele>
        <time>2015-03-31T15:28:19.000Z</time>
      </trkpt>
      <trkpt lat="43.65311" lon="7.09199">
        <ele>79.800003051758</ele>
        <time>2015-03-31T15:28:22.000Z</time>
      </trkpt>
      <trkpt lat="43.65305" lon="7.0919">
        <ele>81</ele>
        <time>2015-03-31T15:28:24.000Z</time>
      </trkpt>
      <trkpt lat="43.65297" lon="7.09182">
        <ele>82</ele>
        <time>2015-03-31T15:28:26.000Z</time>
      </trkpt>
      <trkpt lat="43.6529" lon="7.09173">
        <ele>83</ele>
        <time>2015-03-31T15:28:28.000Z</time>
      </trkpt>
      <trkpt lat="43.65284" lon="7.09166">
        <ele>82.599998474121</ele>
        <time>2015-03-31T15:28:30.000Z</time>
      </trkpt>
      <trkpt lat="43.65277" lon="7.09158">
        <ele>83.199996948242</ele>
        <time>2015-03-31T15:28:33.000Z</time>
      </trkpt>
      <trkpt lat="43.6527" lon="7.09151">
        <ele>83.800003051758</ele>
        <time>2015-03-31T15:28:36.000Z</time>
      </trkpt>
      <trkpt lat="43.65261" lon="7.09143">
        <ele>84.599998474121</ele>
        <time>2015-03-31T15:28:39.000Z</time>
      </trkpt>
      <trkpt lat="43.65252" lon="7.09136">
        <ele>82.800003051758</ele>
        <time>2015-03-31T15:28:42.000Z</time>
      </trkpt>
      <trkpt lat="43.65244" lon="7.09128">
        <ele>81.199996948242</ele>
        <time>2015-03-31T15:28:45.000Z</time>
      </trkpt>
      <trkpt lat="43.65237" lon="7.0912">
        <ele>82</ele>
        <time>2015-03-31T15:28:48.000Z</time>
      </trkpt>
      <trkpt lat="43.65231" lon="7.09112">
        <ele>82.599998474121</ele>
        <time>2015-03-31T15:28:51.000Z</time>
      </trkpt>
      <trkpt lat="43.65225" lon="7.09099">
        <ele>83.400001525879</ele>
        <time>2015-03-31T15:28:55.000Z</time>
      </trkpt>
      <trkpt lat="43.6522" lon="7.0909">
        <ele>84</ele>
        <time>2015-03-31T15:28:58.000Z</time>
      </trkpt>
      <trkpt lat="43.65214" lon="7.0908">
        <ele>82.800003051758</ele>
        <time>2015-03-31T15:29:01.000Z</time>
      </trkpt>
      <trkpt lat="43.65205" lon="7.09072">
        <ele>83.199996948242</ele>
        <time>2015-03-31T15:29:04.000Z</time>
      </trkpt>
      <trkpt lat="43.65197" lon="7.09066">
        <ele>83.599998474121</ele>
        <time>2015-03-31T15:29:07.000Z</time>
      </trkpt>
      <trkpt lat="43.65188" lon="7.0906">
        <ele>84</ele>
        <time>2015-03-31T15:29:10.000Z</time>
      </trkpt>
      <trkpt lat="43.65182" lon="7.09052">
        <ele>84.400001525879</ele>
        <time>2015-03-31T15:29:13.000Z</time>
      </trkpt>
      <trkpt lat="43.65175" lon="7.09044">
        <ele>84.599998474121</ele>
        <time>2015-03-31T15:29:16.000Z</time>
      </trkpt>
      <trkpt lat="43.65165" lon="7.09038">
        <ele>85</ele>
        <time>2015-03-31T15:29:19.000Z</time>
      </trkpt>
      <trkpt lat="43.65156" lon="7.09031">
        <ele>85</ele>
        <time>2015-03-31T15:29:22.000Z</time>
      </trkpt>
      <trkpt lat="43.65148" lon="7.09024">
        <ele>84.800003051758</ele>
        <time>2015-03-31T15:29:25.000Z</time>
      </trkpt>
      <trkpt lat="43.65143" lon="7.09015">
        <ele>84.599998474121</ele>
        <time>2015-03-31T15:29:28.000Z</time>
      </trkpt>
      <trkpt lat="43.65135" lon="7.09007">
        <ele>84.599998474121</ele>
        <time>2015-03-31T15:29:32.000Z</time>
      </trkpt>
      <trkpt lat="43.65129" lon="7.08997">
        <ele>86.599998474121</ele>
        <time>2015-03-31T15:29:36.000Z</time>
      </trkpt>
      <trkpt lat="43.65122" lon="7.0899">
        <ele>87</ele>
        <time>2015-03-31T15:29:40.000Z</time>
      </trkpt>
      <trkpt lat="43.65114" lon="7.08983">
        <ele>87.400001525879</ele>
        <time>2015-03-31T15:29:44.000Z</time>
      </trkpt>
      <trkpt lat="43.65105" lon="7.08977">
        <ele>87.599998474121</ele>
        <time>2015-03-31T15:29:48.000Z</time>
      </trkpt>
      <trkpt lat="43.65096" lon="7.08973">
        <ele>88</ele>
        <time>2015-03-31T15:29:51.000Z</time>
      </trkpt>
      <trkpt lat="43.65087" lon="7.08969">
        <ele>90</ele>
        <time>2015-03-31T15:29:54.000Z</time>
      </trkpt>
      <trkpt lat="43.65078" lon="7.08966">
        <ele>91.800003051758</ele>
        <time>2015-03-31T15:29:57.000Z</time>
      </trkpt>
      <trkpt lat="43.65069" lon="7.08964">
        <ele>91.800003051758</ele>
        <time>2015-03-31T15:30:00.000Z</time>
      </trkpt>
      <trkpt lat="43.6506" lon="7.08963">
        <ele>91.800003051758</ele>
        <time>2015-03-31T15:30:03.000Z</time>
      </trkpt>
      <trkpt lat="43.65052" lon="7.08963">
        <ele>91.800003051758</ele>
        <time>2015-03-31T15:30:06.000Z</time>
      </trkpt>
      <trkpt lat="43.65043" lon="7.0896">
        <ele>91.800003051758</ele>
        <time>2015-03-31T15:30:09.000Z</time>
      </trkpt>
      <trkpt lat="43.65035" lon="7.08956">
        <ele>91.800003051758</ele>
        <time>2015-03-31T15:30:12.000Z</time>
      </trkpt>
      <trkpt lat="43.65027" lon="7.08948">
        <ele>93.400001525879</ele>
        <time>2015-03-31T15:30:16.000Z</time>
      </trkpt>
      <trkpt lat="43.65017" lon="7.08941">
        <ele>95</ele>
        <time>2015-03-31T15:30:20.000Z</time>
      </trkpt>
      <trkpt lat="43.65009" lon="7.08934">
        <ele>96.599998474121</ele>
        <time>2015-03-31T15:30:24.000Z</time>
      </trkpt>
      <trkpt lat="43.65001" lon="7.08934">
        <ele>98</ele>
        <time>2015-03-31T15:30:27.000Z</time>
      </trkpt>
      <trkpt lat="43.64991" lon="7.08935">
        <ele>98</ele>
        <time>2015-03-31T15:30:31.000Z</time>
      </trkpt>
      <trkpt lat="43.64982" lon="7.08933">
        <ele>97.400001525879</ele>
        <time>2015-03-31T15:30:35.000Z</time>
      </trkpt>
      <trkpt lat="43.64978" lon="7.08922">
        <ele>98.599998474121</ele>
        <time>2015-03-31T15:30:39.000Z</time>
      </trkpt>
      <trkpt lat="43.64975" lon="7.08911">
        <ele>99.599998474121</ele>
        <time>2015-03-31T15:30:43.000Z</time>
      </trkpt>
      <trkpt lat="43.64972" lon="7.089">
        <ele>101</ele>
        <time>2015-03-31T15:30:47.000Z</time>
      </trkpt>
      <trkpt lat="43.64969" lon="7.0889">
        <ele>102</ele>
        <time>2015-03-31T15:30:51.000Z</time>
      </trkpt>
      <trkpt lat="43.64965" lon="7.08879">
        <ele>103.40000152588</ele>
        <time>2015-03-31T15:30:55.000Z</time>
      </trkpt>
      <trkpt lat="43.64961" lon="7.08869">
        <ele>104.59999847412</ele>
        <time>2015-03-31T15:30:59.000Z</time>
      </trkpt>
      <trkpt lat="43.64957" lon="7.08858">
        <ele>105.59999847412</ele>
        <time>2015-03-31T15:31:03.000Z</time>
      </trkpt>
      <trkpt lat="43.6495" lon="7.08847">
        <ele>106.80000305176</ele>
        <time>2015-03-31T15:31:07.000Z</time>
      </trkpt>
      <trkpt lat="43.64943" lon="7.0884">
        <ele>108</ele>
        <time>2015-03-31T15:31:12.000Z</time>
      </trkpt>
      <trkpt lat="43.64934" lon="7.08841">
        <ele>109.19999694824</ele>
        <time>2015-03-31T15:31:17.000Z</time>
      </trkpt>
      <trkpt lat="43.64925" lon="7.08842">
        <ele>111</ele>
        <time>2015-03-31T15:31:22.000Z</time>
      </trkpt>
      <trkpt lat="43.64918" lon="7.08834">
        <ele>111</ele>
        <time>2015-03-31T15:31:28.000Z</time>
      </trkpt>
      <trkpt lat="43.64917" lon="7.08822">
        <ele>111</ele>
        <time>2015-03-31T15:31:35.000Z</time>
      </trkpt>
      <trkpt lat="43.64914" lon="7.08811">
        <ele>111</ele>
        <time>2015-03-31T15:31:42.000Z</time>
      </trkpt>
      <trkpt lat="43.64906" lon="7.08803">
        <ele>111</ele>
        <time>2015-03-31T15:31:47.000Z</time>
      </trkpt>
      <trkpt lat="43.64899" lon="7.08796">
        <ele>113</ele>
        <time>2015-03-31T15:31:51.000Z</time>
      </trkpt>
      <trkpt lat="43.64894" lon="7.08786">
        <ele>114.80000305176</ele>
        <time>2015-03-31T15:31:57.000Z</time>
      </trkpt>
      <trkpt lat="43.6489" lon="7.08775">
        <ele>116.40000152588</ele>
        <time>2015-03-31T15:32:03.000Z</time>
      </trkpt>
      <trkpt lat="43.64885" lon="7.08764">
        <ele>118</ele>
        <time>2015-03-31T15:32:10.000Z</time>
      </trkpt>
      <trkpt lat="43.64881" lon="7.08754">
        <ele>119.59999847412</ele>
        <time>2015-03-31T15:32:16.000Z</time>
      </trkpt>
      <trkpt lat="43.64878" lon="7.08742">
        <ele>121</ele>
        <time>2015-03-31T15:32:22.000Z</time>
      </trkpt>
      <trkpt lat="43.64873" lon="7.08732">
        <ele>122.59999847412</ele>
        <time>2015-03-31T15:32:28.000Z</time>
      </trkpt>
      <trkpt lat="43.64869" lon="7.0872">
        <ele>124</ele>
        <time>2015-03-31T15:32:34.000Z</time>
      </trkpt>
      <trkpt lat="43.64863" lon="7.08711">
        <ele>125.59999847412</ele>
        <time>2015-03-31T15:32:39.000Z</time>
      </trkpt>
      <trkpt lat="43.64857" lon="7.08702">
        <ele>127.19999694824</ele>
        <time>2015-03-31T15:32:44.000Z</time>
      </trkpt>
      <trkpt lat="43.6485" lon="7.08695">
        <ele>128.60000610352</ele>
        <time>2015-03-31T15:32:49.000Z</time>
      </trkpt>
      <trkpt lat="43.64843" lon="7.08686">
        <ele>128</ele>
        <time>2015-03-31T15:32:55.000Z</time>
      </trkpt>
      <trkpt lat="43.64838" lon="7.08677">
        <ele>127</ele>
        <time>2015-03-31T15:33:00.000Z</time>
      </trkpt>
      <trkpt lat="43.64832" lon="7.08667">
        <ele>126.59999847412</ele>
        <time>2015-03-31T15:33:06.000Z</time>
      </trkpt>
      <trkpt lat="43.64827" lon="7.08657">
        <ele>126.19999694824</ele>
        <time>2015-03-31T15:33:10.000Z</time>
      </trkpt>
      <trkpt lat="43.64823" lon="7.08647">
        <ele>125.59999847412</ele>
        <time>2015-03-31T15:33:14.000Z</time>
      </trkpt>
      <trkpt lat="43.64822" lon="7.08635">
        <ele>125.40000152588</ele>
        <time>2015-03-31T15:33:18.000Z</time>
      </trkpt>
      <trkpt lat="43.64823" lon="7.08624">
        <ele>124.80000305176</ele>
        <time>2015-03-31T15:33:23.000Z</time>
      </trkpt>
      <trkpt lat="43.64825" lon="7.08612">
        <ele>124.40000152588</ele>
        <time>2015-03-31T15:33:27.000Z</time>
      </trkpt>
      <trkpt lat="43.64823" lon="7.086">
        <ele>124</ele>
        <time>2015-03-31T15:33:31.000Z</time>
      </trkpt>
      <trkpt lat="43.64821" lon="7.08589">
        <ele>125.19999694824</ele>
        <time>2015-03-31T15:33:35.000Z</time>
      </trkpt>
      <trkpt lat="43.64816" lon="7.08577">
        <ele>126.59999847412</ele>
        <time>2015-03-31T15:33:39.000Z</time>
      </trkpt>
      <trkpt lat="43.6481" lon="7.08565">
        <ele>128.19999694824</ele>
        <time>2015-03-31T15:33:43.000Z</time>
      </trkpt>
      <trkpt lat="43.64804" lon="7.08555">
        <ele>129.80000305176</ele>
        <time>2015-03-31T15:33:46.000Z</time>
      </trkpt>
      <trkpt lat="43.64799" lon="7.08546">
        <ele>131.60000610352</ele>
        <time>2015-03-31T15:33:49.000Z</time>
      </trkpt>
      <trkpt lat="43.64792" lon="7.08536">
        <ele>133.39999389648</ele>
        <time>2015-03-31T15:33:53.000Z</time>
      </trkpt>
      <trkpt lat="43.64784" lon="7.08527">
        <ele>135.19999694824</ele>
        <time>2015-03-31T15:33:57.000Z</time>
      </trkpt>
      <trkpt lat="43.64776" lon="7.08521">
        <ele>136.80000305176</ele>
        <time>2015-03-31T15:34:00.000Z</time>
      </trkpt>
      <trkpt lat="43.64768" lon="7.08516">
        <ele>138.60000610352</ele>
        <time>2015-03-31T15:34:04.000Z</time>
      </trkpt>
      <trkpt lat="43.64759" lon="7.08508">
        <ele>139.19999694824</ele>
        <time>2015-03-31T15:34:07.000Z</time>
      </trkpt>
      <trkpt lat="43.64752" lon="7.085">
        <ele>139.60000610352</ele>
        <time>2015-03-31T15:34:10.000Z</time>
      </trkpt>
      <trkpt lat="43.64746" lon="7.0849">
        <ele>138.60000610352</ele>
        <time>2015-03-31T15:34:13.000Z</time>
      </trkpt>
      <trkpt lat="43.64741" lon="7.08478">
        <ele>137.39999389648</ele>
        <time>2015-03-31T15:34:16.000Z</time>
      </trkpt>
      <trkpt lat="43.64736" lon="7.08465">
        <ele>136.19999694824</ele>
        <time>2015-03-31T15:34:19.000Z</time>
      </trkpt>
      <trkpt lat="43.64737" lon="7.0845">
        <ele>134.80000305176</ele>
        <time>2015-03-31T15:34:22.000Z</time>
      </trkpt>
      <trkpt lat="43.64739" lon="7.08435">
        <ele>133.60000610352</ele>
        <time>2015-03-31T15:34:25.000Z</time>
      </trkpt>
      <trkpt lat="43.64733" lon="7.08424">
        <ele>132.60000610352</ele>
        <time>2015-03-31T15:34:28.000Z</time>
      </trkpt>
      <trkpt lat="43.64728" lon="7.08414">
        <ele>131.60000610352</ele>
        <time>2015-03-31T15:34:32.000Z</time>
      </trkpt>
      <trkpt lat="43.64722" lon="7.08405">
        <ele>130.60000610352</ele>
        <time>2015-03-31T15:34:48.000Z</time>
      </trkpt>
      <trkpt lat="43.64718" lon="7.08393">
        <ele>129.39999389648</ele>
        <time>2015-03-31T15:34:52.000Z</time>
      </trkpt>
      <trkpt lat="43.64711" lon="7.08379">
        <ele>129.60000610352</ele>
        <time>2015-03-31T15:34:55.000Z</time>
      </trkpt>
      <trkpt lat="43.64705" lon="7.08371">
        <ele>129.60000610352</ele>
        <time>2015-03-31T15:34:57.000Z</time>
      </trkpt>
      <trkpt lat="43.64697" lon="7.08362">
        <ele>129.60000610352</ele>
        <time>2015-03-31T15:34:59.000Z</time>
      </trkpt>
      <trkpt lat="43.64689" lon="7.08352">
        <ele>129.60000610352</ele>
        <time>2015-03-31T15:35:01.000Z</time>
      </trkpt>
      <trkpt lat="43.64682" lon="7.08346">
        <ele>129.80000305176</ele>
        <time>2015-03-31T15:35:03.000Z</time>
      </trkpt>
      <trkpt lat="43.6467" lon="7.08341">
        <ele>130.19999694824</ele>
        <time>2015-03-31T15:35:06.000Z</time>
      </trkpt>
      <trkpt lat="43.64662" lon="7.0834">
        <ele>130.39999389648</ele>
        <time>2015-03-31T15:35:08.000Z</time>
      </trkpt>
      <trkpt lat="43.64651" lon="7.0834">
        <ele>130.60000610352</ele>
        <time>2015-03-31T15:35:11.000Z</time>
      </trkpt>
      <trkpt lat="43.64643" lon="7.0834">
        <ele>130.60000610352</ele>
        <time>2015-03-31T15:35:13.000Z</time>
      </trkpt>
      <trkpt lat="43.64634" lon="7.0834">
        <ele>130.80000305176</ele>
        <time>2015-03-31T15:35:15.000Z</time>
      </trkpt>
      <trkpt lat="43.64626" lon="7.08341">
        <ele>131.19999694824</ele>
        <time>2015-03-31T15:35:17.000Z</time>
      </trkpt>
      <trkpt lat="43.64617" lon="7.08342">
        <ele>131.39999389648</ele>
        <time>2015-03-31T15:35:19.000Z</time>
      </trkpt>
      <trkpt lat="43.64608" lon="7.08342">
        <ele>131.60000610352</ele>
        <time>2015-03-31T15:35:21.000Z</time>
      </trkpt>
      <trkpt lat="43.646" lon="7.08342">
        <ele>131.60000610352</ele>
        <time>2015-03-31T15:35:23.000Z</time>
      </trkpt>
      <trkpt lat="43.64591" lon="7.08343">
        <ele>131.80000305176</ele>
        <time>2015-03-31T15:35:25.000Z</time>
      </trkpt>
      <trkpt lat="43.64583" lon="7.08343">
        <ele>132.60000610352</ele>
        <time>2015-03-31T15:35:27.000Z</time>
      </trkpt>
      <trkpt lat="43.64574" lon="7.08343">
        <ele>133.60000610352</ele>
        <time>2015-03-31T15:35:29.000Z</time>
      </trkpt>
      <trkpt lat="43.64566" lon="7.08343">
        <ele>134.19999694824</ele>
        <time>2015-03-31T15:35:31.000Z</time>
      </trkpt>
      <trkpt lat="43.64558" lon="7.08344">
        <ele>134.80000305176</ele>
        <time>2015-03-31T15:35:33.000Z</time>
      </trkpt>
      <trkpt lat="43.64549" lon="7.08344">
        <ele>135.60000610352</ele>
        <time>2015-03-31T15:35:35.000Z</time>
      </trkpt>
      <trkpt lat="43.64541" lon="7.08344">
        <ele>136.39999389648</ele>
        <time>2015-03-31T15:35:37.000Z</time>
      </trkpt>
      <trkpt lat="43.64532" lon="7.08343">
        <ele>137.19999694824</ele>
        <time>2015-03-31T15:35:39.000Z</time>
      </trkpt>
      <trkpt lat="43.64524" lon="7.08341">
        <ele>137.80000305176</ele>
        <time>2015-03-31T15:35:41.000Z</time>
      </trkpt>
      <trkpt lat="43.64516" lon="7.08338">
        <ele>138.60000610352</ele>
        <time>2015-03-31T15:35:43.000Z</time>
      </trkpt>
      <trkpt lat="43.64508" lon="7.08335">
        <ele>139.39999389648</ele>
        <time>2015-03-31T15:35:45.000Z</time>
      </trkpt>
      <trkpt lat="43.645" lon="7.0833">
        <ele>141.39999389648</ele>
        <time>2015-03-31T15:35:47.000Z</time>
      </trkpt>
      <trkpt lat="43.6449" lon="7.08321">
        <ele>141.60000610352</ele>
        <time>2015-03-31T15:35:50.000Z</time>
      </trkpt>
      <trkpt lat="43.6448" lon="7.08314">
        <ele>142</ele>
        <time>2015-03-31T15:35:53.000Z</time>
      </trkpt>
      <trkpt lat="43.64471" lon="7.08307">
        <ele>142.39999389648</ele>
        <time>2015-03-31T15:35:56.000Z</time>
      </trkpt>
      <trkpt lat="43.64463" lon="7.08302">
        <ele>142.60000610352</ele>
        <time>2015-03-31T15:35:59.000Z</time>
      </trkpt>
      <trkpt lat="43.64455" lon="7.08297">
        <ele>143.19999694824</ele>
        <time>2015-03-31T15:36:02.000Z</time>
      </trkpt>
      <trkpt lat="43.64446" lon="7.08292">
        <ele>143.60000610352</ele>
        <time>2015-03-31T15:36:05.000Z</time>
      </trkpt>
      <trkpt lat="43.64438" lon="7.08288">
        <ele>143.80000305176</ele>
        <time>2015-03-31T15:36:09.000Z</time>
      </trkpt>
      <trkpt lat="43.64429" lon="7.08281">
        <ele>144.19999694824</ele>
        <time>2015-03-31T15:36:13.000Z</time>
      </trkpt>
      <trkpt lat="43.64425" lon="7.08268">
        <ele>144.80000305176</ele>
        <time>2015-03-31T15:36:17.000Z</time>
      </trkpt>
      <trkpt lat="43.64428" lon="7.08256">
        <ele>145.60000610352</ele>
        <time>2015-03-31T15:36:21.000Z</time>
      </trkpt>
      <trkpt lat="43.64433" lon="7.08245">
        <ele>145.19999694824</ele>
        <time>2015-03-31T15:36:24.000Z</time>
      </trkpt>
      <trkpt lat="43.64438" lon="7.08234">
        <ele>145.60000610352</ele>
        <time>2015-03-31T15:36:27.000Z</time>
      </trkpt>
      <trkpt lat="43.64443" lon="7.08223">
        <ele>145.80000305176</ele>
        <time>2015-03-31T15:36:30.000Z</time>
      </trkpt>
      <trkpt lat="43.64447" lon="7.0821">
        <ele>146.19999694824</ele>
        <time>2015-03-31T15:36:34.000Z</time>
      </trkpt>
      <trkpt lat="43.6445" lon="7.08197">
        <ele>146.60000610352</ele>
        <time>2015-03-31T15:36:36.000Z</time>
      </trkpt>
      <trkpt lat="43.64452" lon="7.08184">
        <ele>146.60000610352</ele>
        <time>2015-03-31T15:36:39.000Z</time>
      </trkpt>
      <trkpt lat="43.64454" lon="7.08171">
        <ele>146.60000610352</ele>
        <time>2015-03-31T15:36:42.000Z</time>
      </trkpt>
      <trkpt lat="43.64456" lon="7.08159">
        <ele>146.80000305176</ele>
        <time>2015-03-31T15:36:45.000Z</time>
      </trkpt>
      <trkpt lat="43.64459" lon="7.08146">
        <ele>146.80000305176</ele>
        <time>2015-03-31T15:36:50.000Z</time>
      </trkpt>
      <trkpt lat="43.6446" lon="7.08135">
        <ele>146.60000610352</ele>
        <time>2015-03-31T15:36:53.000Z</time>
      </trkpt>
      <trkpt lat="43.64459" lon="7.08123">
        <ele>146.39999389648</ele>
        <time>2015-03-31T15:36:56.000Z</time>
      </trkpt>
      <trkpt lat="43.64456" lon="7.08112">
        <ele>146.19999694824</ele>
        <time>2015-03-31T15:36:59.000Z</time>
      </trkpt>
      <trkpt lat="43.64455" lon="7.081">
        <ele>145.80000305176</ele>
        <time>2015-03-31T15:37:03.000Z</time>
      </trkpt>
      <trkpt lat="43.64454" lon="7.08088">
        <ele>145.60000610352</ele>
        <time>2015-03-31T15:37:07.000Z</time>
      </trkpt>
      <trkpt lat="43.6445" lon="7.08078">
        <ele>145.39999389648</ele>
        <time>2015-03-31T15:37:11.000Z</time>
      </trkpt>
      <trkpt lat="43.64441" lon="7.08072">
        <ele>145</ele>
        <time>2015-03-31T15:37:15.000Z</time>
      </trkpt>
      <trkpt lat="43.64431" lon="7.08068">
        <ele>145</ele>
        <time>2015-03-31T15:37:19.000Z</time>
      </trkpt>
      <trkpt lat="43.64422" lon="7.08064">
        <ele>145.19999694824</ele>
        <time>2015-03-31T15:37:23.000Z</time>
      </trkpt>
      <trkpt lat="43.64414" lon="7.0806">
        <ele>145.39999389648</ele>
        <time>2015-03-31T15:37:26.000Z</time>
      </trkpt>
      <trkpt lat="43.64406" lon="7.08057">
        <ele>145.60000610352</ele>
        <time>2015-03-31T15:37:29.000Z</time>
      </trkpt>
      <trkpt lat="43.64398" lon="7.08056">
        <ele>145.60000610352</ele>
        <time>2015-03-31T15:37:32.000Z</time>
      </trkpt>
      <trkpt lat="43.64388" lon="7.08056">
        <ele>145.80000305176</ele>
        <time>2015-03-31T15:37:35.000Z</time>
      </trkpt>
      <trkpt lat="43.64378" lon="7.08056">
        <ele>146.19999694824</ele>
        <time>2015-03-31T15:37:38.000Z</time>
      </trkpt>
      <trkpt lat="43.64369" lon="7.08057">
        <ele>146.39999389648</ele>
        <time>2015-03-31T15:37:41.000Z</time>
      </trkpt>
      <trkpt lat="43.6436" lon="7.08058">
        <ele>146.60000610352</ele>
        <time>2015-03-31T15:37:44.000Z</time>
      </trkpt>
      <trkpt lat="43.64351" lon="7.08057">
        <ele>146.60000610352</ele>
        <time>2015-03-31T15:37:47.000Z</time>
      </trkpt>
      <trkpt lat="43.64341" lon="7.08059">
        <ele>146.80000305176</ele>
        <time>2015-03-31T15:37:50.000Z</time>
      </trkpt>
      <trkpt lat="43.64332" lon="7.0806">
        <ele>146.80000305176</ele>
        <time>2015-03-31T15:37:53.000Z</time>
      </trkpt>
      <trkpt lat="43.64323" lon="7.08059">
        <ele>146.60000610352</ele>
        <time>2015-03-31T15:37:56.000Z</time>
      </trkpt>
      <trkpt lat="43.64315" lon="7.08057">
        <ele>146.60000610352</ele>
        <time>2015-03-31T15:37:59.000Z</time>
      </trkpt>
      <trkpt lat="43.64307" lon="7.08054">
        <ele>146.39999389648</ele>
        <time>2015-03-31T15:38:02.000Z</time>
      </trkpt>
      <trkpt lat="43.64298" lon="7.0805">
        <ele>146.19999694824</ele>
        <time>2015-03-31T15:38:05.000Z</time>
      </trkpt>
      <trkpt lat="43.6429" lon="7.08046">
        <ele>145.80000305176</ele>
        <time>2015-03-31T15:38:08.000Z</time>
      </trkpt>
      <trkpt lat="43.64281" lon="7.08047">
        <ele>145.60000610352</ele>
        <time>2015-03-31T15:38:11.000Z</time>
      </trkpt>
      <trkpt lat="43.64273" lon="7.08043">
        <ele>145.60000610352</ele>
        <time>2015-03-31T15:38:14.000Z</time>
      </trkpt>
      <trkpt lat="43.64266" lon="7.08036">
        <ele>145.39999389648</ele>
        <time>2015-03-31T15:38:17.000Z</time>
      </trkpt>
      <trkpt lat="43.64256" lon="7.08029">
        <ele>145.19999694824</ele>
        <time>2015-03-31T15:38:21.000Z</time>
      </trkpt>
      <trkpt lat="43.6425" lon="7.08021">
        <ele>145</ele>
        <time>2015-03-31T15:38:24.000Z</time>
      </trkpt>
      <trkpt lat="43.6424" lon="7.08014">
        <ele>144.80000305176</ele>
        <time>2015-03-31T15:38:28.000Z</time>
      </trkpt>
      <trkpt lat="43.64232" lon="7.08009">
        <ele>144.60000610352</ele>
        <time>2015-03-31T15:38:32.000Z</time>
      </trkpt>
      <trkpt lat="43.64226" lon="7.08001">
        <ele>144.60000610352</ele>
        <time>2015-03-31T15:38:37.000Z</time>
      </trkpt>
      <trkpt lat="43.64222" lon="7.0799">
        <ele>144.39999389648</ele>
        <time>2015-03-31T15:38:42.000Z</time>
      </trkpt>
      <trkpt lat="43.64219" lon="7.07979">
        <ele>144.19999694824</ele>
        <time>2015-03-31T15:38:46.000Z</time>
      </trkpt>
      <trkpt lat="43.64217" lon="7.07965">
        <ele>143.80000305176</ele>
        <time>2015-03-31T15:38:50.000Z</time>
      </trkpt>
      <trkpt lat="43.64216" lon="7.07953">
        <ele>143.60000610352</ele>
        <time>2015-03-31T15:38:53.000Z</time>
      </trkpt>
      <trkpt lat="43.64215" lon="7.07937">
        <ele>143.80000305176</ele>
        <time>2015-03-31T15:38:56.000Z</time>
      </trkpt>
      <trkpt lat="43.64216" lon="7.07925">
        <ele>144.19999694824</ele>
        <time>2015-03-31T15:38:58.000Z</time>
      </trkpt>
      <trkpt lat="43.64215" lon="7.07912">
        <ele>144.39999389648</ele>
        <time>2015-03-31T15:39:00.000Z</time>
      </trkpt>
      <trkpt lat="43.64213" lon="7.079">
        <ele>144.60000610352</ele>
        <time>2015-03-31T15:39:02.000Z</time>
      </trkpt>
      <trkpt lat="43.64209" lon="7.07888">
        <ele>144.80000305176</ele>
        <time>2015-03-31T15:39:04.000Z</time>
      </trkpt>
      <trkpt lat="43.64204" lon="7.07876">
        <ele>145.19999694824</ele>
        <time>2015-03-31T15:39:06.000Z</time>
      </trkpt>
      <trkpt lat="43.642" lon="7.07864">
        <ele>145.80000305176</ele>
        <time>2015-03-31T15:39:08.000Z</time>
      </trkpt>
      <trkpt lat="43.64197" lon="7.07852">
        <ele>146.60000610352</ele>
        <time>2015-03-31T15:39:10.000Z</time>
      </trkpt>
      <trkpt lat="43.64195" lon="7.07841">
        <ele>147.39999389648</ele>
        <time>2015-03-31T15:39:12.000Z</time>
      </trkpt>
      <trkpt lat="43.64194" lon="7.07825">
        <ele>148.19999694824</ele>
        <time>2015-03-31T15:39:15.000Z</time>
      </trkpt>
      <trkpt lat="43.64193" lon="7.07809">
        <ele>148.60000610352</ele>
        <time>2015-03-31T15:39:18.000Z</time>
      </trkpt>
      <trkpt lat="43.64193" lon="7.07793">
        <ele>149</ele>
        <time>2015-03-31T15:39:21.000Z</time>
      </trkpt>
      <trkpt lat="43.64194" lon="7.0778">
        <ele>149.39999389648</ele>
        <time>2015-03-31T15:39:24.000Z</time>
      </trkpt>
      <trkpt lat="43.64198" lon="7.0777">
        <ele>149.60000610352</ele>
        <time>2015-03-31T15:39:28.000Z</time>
      </trkpt>
      <trkpt lat="43.64206" lon="7.07773">
        <ele>149.80000305176</ele>
        <time>2015-03-31T15:39:32.000Z</time>
      </trkpt>
      <trkpt lat="43.64214" lon="7.07783">
        <ele>150.19999694824</ele>
        <time>2015-03-31T15:41:55.000Z</time>
      </trkpt>
      <trkpt lat="43.64221" lon="7.07789">
        <ele>150.39999389648</ele>
        <time>2015-03-31T15:41:57.000Z</time>
      </trkpt>
      <trkpt lat="43.64229" lon="7.07795">
        <ele>150.39999389648</ele>
        <time>2015-03-31T15:41:59.000Z</time>
      </trkpt>
      <trkpt lat="43.6424" lon="7.078">
        <ele>150.19999694824</ele>
        <time>2015-03-31T15:42:02.000Z</time>
      </trkpt>
      <trkpt lat="43.64248" lon="7.07796">
        <ele>150.19999694824</ele>
        <time>2015-03-31T15:42:07.000Z</time>
      </trkpt>
      <trkpt lat="43.64247" lon="7.07785">
        <ele>150</ele>
        <time>2015-03-31T15:42:10.000Z</time>
      </trkpt>
      <trkpt lat="43.64247" lon="7.07768">
        <ele>150</ele>
        <time>2015-03-31T15:42:13.000Z</time>
      </trkpt>
      <trkpt lat="43.64251" lon="7.07757">
        <ele>150</ele>
        <time>2015-03-31T15:42:15.000Z</time>
      </trkpt>
      <trkpt lat="43.64259" lon="7.07752">
        <ele>148.39999389648</ele>
        <time>2015-03-31T15:42:17.000Z</time>
      </trkpt>
      <trkpt lat="43.64267" lon="7.07748">
        <ele>146.60000610352</ele>
        <time>2015-03-31T15:42:19.000Z</time>
      </trkpt>
      <trkpt lat="43.64275" lon="7.07745">
        <ele>144.80000305176</ele>
        <time>2015-03-31T15:42:21.000Z</time>
      </trkpt>
      <trkpt lat="43.64285" lon="7.07741">
        <ele>143.19999694824</ele>
        <time>2015-03-31T15:42:24.000Z</time>
      </trkpt>
      <trkpt lat="43.64293" lon="7.07739">
        <ele>141.39999389648</ele>
        <time>2015-03-31T15:42:28.000Z</time>
      </trkpt>
      <trkpt lat="43.64303" lon="7.0774">
        <ele>140.60000610352</ele>
        <time>2015-03-31T15:42:33.000Z</time>
      </trkpt>
      <trkpt lat="43.64313" lon="7.07739">
        <ele>140.19999694824</ele>
        <time>2015-03-31T15:42:36.000Z</time>
      </trkpt>
      <trkpt lat="43.64322" lon="7.07733">
        <ele>139.60000610352</ele>
        <time>2015-03-31T15:42:39.000Z</time>
      </trkpt>
      <trkpt lat="43.64331" lon="7.07725">
        <ele>137.60000610352</ele>
        <time>2015-03-31T15:42:42.000Z</time>
      </trkpt>
      <trkpt lat="43.64339" lon="7.0772">
        <ele>135.60000610352</ele>
        <time>2015-03-31T15:42:44.000Z</time>
      </trkpt>
      <trkpt lat="43.64353" lon="7.07714">
        <ele>133.60000610352</ele>
        <time>2015-03-31T15:42:46.000Z</time>
      </trkpt>
      <trkpt lat="43.64362" lon="7.07712">
        <ele>133.19999694824</ele>
        <time>2015-03-31T15:42:48.000Z</time>
      </trkpt>
      <trkpt lat="43.6437" lon="7.07706">
        <ele>132.80000305176</ele>
        <time>2015-03-31T15:42:50.000Z</time>
      </trkpt>
      <trkpt lat="43.64381" lon="7.077">
        <ele>132.60000610352</ele>
        <time>2015-03-31T15:42:53.000Z</time>
      </trkpt>
      <trkpt lat="43.64389" lon="7.07694">
        <ele>132.39999389648</ele>
        <time>2015-03-31T15:42:55.000Z</time>
      </trkpt>
      <trkpt lat="43.64397" lon="7.07686">
        <ele>132.60000610352</ele>
        <time>2015-03-31T15:42:57.000Z</time>
      </trkpt>
      <trkpt lat="43.64405" lon="7.07676">
        <ele>131.60000610352</ele>
        <time>2015-03-31T15:42:59.000Z</time>
      </trkpt>
      <trkpt lat="43.64409" lon="7.07666">
        <ele>130.60000610352</ele>
        <time>2015-03-31T15:43:03.000Z</time>
      </trkpt>
      <trkpt lat="43.64413" lon="7.07653">
        <ele>129.80000305176</ele>
        <time>2015-03-31T15:43:08.000Z</time>
      </trkpt>
      <trkpt lat="43.64418" lon="7.07642">
        <ele>130.39999389648</ele>
        <time>2015-03-31T15:43:12.000Z</time>
      </trkpt>
      <trkpt lat="43.64424" lon="7.07631">
        <ele>130</ele>
        <time>2015-03-31T15:43:17.000Z</time>
      </trkpt>
      <trkpt lat="43.64431" lon="7.07621">
        <ele>129.60000610352</ele>
        <time>2015-03-31T15:43:20.000Z</time>
      </trkpt>
      <trkpt lat="43.6444" lon="7.07611">
        <ele>129.60000610352</ele>
        <time>2015-03-31T15:43:23.000Z</time>
      </trkpt>
      <trkpt lat="43.64449" lon="7.076">
        <ele>129.19999694824</ele>
        <time>2015-03-31T15:43:26.000Z</time>
      </trkpt>
      <trkpt lat="43.64458" lon="7.07593">
        <ele>128.80000305176</ele>
        <time>2015-03-31T15:43:29.000Z</time>
      </trkpt>
      <trkpt lat="43.64465" lon="7.07584">
        <ele>128.60000610352</ele>
        <time>2015-03-31T15:43:32.000Z</time>
      </trkpt>
      <trkpt lat="43.64473" lon="7.07586">
        <ele>128</ele>
        <time>2015-03-31T15:43:36.000Z</time>
      </trkpt>
      <trkpt lat="43.64481" lon="7.07588">
        <ele>127.19999694824</ele>
        <time>2015-03-31T15:43:41.000Z</time>
      </trkpt>
      <trkpt lat="43.6449" lon="7.07591">
        <ele>126.59999847412</ele>
        <time>2015-03-31T15:43:47.000Z</time>
      </trkpt>
      <trkpt lat="43.64498" lon="7.07595">
        <ele>125.59999847412</ele>
        <time>2015-03-31T15:43:52.000Z</time>
      </trkpt>
      <trkpt lat="43.64507" lon="7.07604">
        <ele>124.59999847412</ele>
        <time>2015-03-31T15:43:55.000Z</time>
      </trkpt>
      <trkpt lat="43.64514" lon="7.07612">
        <ele>123.59999847412</ele>
        <time>2015-03-31T15:43:57.000Z</time>
      </trkpt>
      <trkpt lat="43.64519" lon="7.07622">
        <ele>122.59999847412</ele>
        <time>2015-03-31T15:43:59.000Z</time>
      </trkpt>
      <trkpt lat="43.64522" lon="7.07637">
        <ele>121.40000152588</ele>
        <time>2015-03-31T15:44:02.000Z</time>
      </trkpt>
      <trkpt lat="43.64528" lon="7.07651">
        <ele>120.40000152588</ele>
        <time>2015-03-31T15:44:05.000Z</time>
      </trkpt>
      <trkpt lat="43.64539" lon="7.07665">
        <ele>119.19999694824</ele>
        <time>2015-03-31T15:44:07.000Z</time>
      </trkpt>
      <trkpt lat="43.64547" lon="7.07674">
        <ele>118</ele>
        <time>2015-03-31T15:44:10.000Z</time>
      </trkpt>
      <trkpt lat="43.64558" lon="7.0768">
        <ele>117</ele>
        <time>2015-03-31T15:44:13.000Z</time>
      </trkpt>
      <trkpt lat="43.64568" lon="7.0768">
        <ele>116</ele>
        <time>2015-03-31T15:44:16.000Z</time>
      </trkpt>
      <trkpt lat="43.64578" lon="7.07681">
        <ele>114.80000305176</ele>
        <time>2015-03-31T15:44:18.000Z</time>
      </trkpt>
      <trkpt lat="43.64588" lon="7.07681">
        <ele>113</ele>
        <time>2015-03-31T15:44:21.000Z</time>
      </trkpt>
      <trkpt lat="43.64598" lon="7.07685">
        <ele>111</ele>
        <time>2015-03-31T15:44:28.000Z</time>
      </trkpt>
      <trkpt lat="43.64605" lon="7.07691">
        <ele>110</ele>
        <time>2015-03-31T15:44:41.000Z</time>
      </trkpt>
      <trkpt lat="43.64606" lon="7.07704">
        <ele>109</ele>
        <time>2015-03-31T15:44:54.000Z</time>
      </trkpt>
      <trkpt lat="43.64609" lon="7.07715">
        <ele>108</ele>
        <time>2015-03-31T15:44:58.000Z</time>
      </trkpt>
      <trkpt lat="43.64618" lon="7.07726">
        <ele>106.59999847412</ele>
        <time>2015-03-31T15:45:01.000Z</time>
      </trkpt>
      <trkpt lat="43.64621" lon="7.07737">
        <ele>105.40000152588</ele>
        <time>2015-03-31T15:45:03.000Z</time>
      </trkpt>
      <trkpt lat="43.64622" lon="7.07749">
        <ele>104</ele>
        <time>2015-03-31T15:45:05.000Z</time>
      </trkpt>
      <trkpt lat="43.64622" lon="7.0776">
        <ele>102.59999847412</ele>
        <time>2015-03-31T15:45:08.000Z</time>
      </trkpt>
      <trkpt lat="43.64623" lon="7.07775">
        <ele>101.19999694824</ele>
        <time>2015-03-31T15:45:10.000Z</time>
      </trkpt>
      <trkpt lat="43.64632" lon="7.07779">
        <ele>99</ele>
        <time>2015-03-31T15:45:13.000Z</time>
      </trkpt>
      <trkpt lat="43.6464" lon="7.07786">
        <ele>97.800003051758</ele>
        <time>2015-03-31T15:45:17.000Z</time>
      </trkpt>
      <trkpt lat="43.64649" lon="7.07794">
        <ele>96.599998474121</ele>
        <time>2015-03-31T15:45:20.000Z</time>
      </trkpt>
      <trkpt lat="43.64659" lon="7.078">
        <ele>95.599998474121</ele>
        <time>2015-03-31T15:45:23.000Z</time>
      </trkpt>
      <trkpt lat="43.6467" lon="7.07801">
        <ele>94.400001525879</ele>
        <time>2015-03-31T15:45:26.000Z</time>
      </trkpt>
      <trkpt lat="43.64672" lon="7.07812">
        <ele>93</ele>
        <time>2015-03-31T15:45:29.000Z</time>
      </trkpt>
      <trkpt lat="43.64667" lon="7.07824">
        <ele>92.400001525879</ele>
        <time>2015-03-31T15:45:33.000Z</time>
      </trkpt>
      <trkpt lat="43.64661" lon="7.07833">
        <ele>91.599998474121</ele>
        <time>2015-03-31T15:45:36.000Z</time>
      </trkpt>
      <trkpt lat="43.64654" lon="7.07842">
        <ele>90.599998474121</ele>
        <time>2015-03-31T15:45:40.000Z</time>
      </trkpt>
      <trkpt lat="43.64652" lon="7.07853">
        <ele>89.599998474121</ele>
        <time>2015-03-31T15:45:49.000Z</time>
      </trkpt>
      <trkpt lat="43.64648" lon="7.07865">
        <ele>88.599998474121</ele>
        <time>2015-03-31T15:45:59.000Z</time>
      </trkpt>
      <trkpt lat="43.6464" lon="7.07872">
        <ele>88</ele>
        <time>2015-03-31T15:46:09.000Z</time>
      </trkpt>
      <trkpt lat="43.64632" lon="7.0787">
        <ele>87.599998474121</ele>
        <time>2015-03-31T15:46:14.000Z</time>
      </trkpt>
      <trkpt lat="43.64623" lon="7.07868">
        <ele>87</ele>
        <time>2015-03-31T15:46:20.000Z</time>
      </trkpt>
      <trkpt lat="43.64615" lon="7.07875">
        <ele>86</ele>
        <time>2015-03-31T15:46:25.000Z</time>
      </trkpt>
      <trkpt lat="43.64615" lon="7.07887">
        <ele>85.400001525879</ele>
        <time>2015-03-31T15:46:29.000Z</time>
      </trkpt>
      <trkpt lat="43.64618" lon="7.07899">
        <ele>84.599998474121</ele>
        <time>2015-03-31T15:46:33.000Z</time>
      </trkpt>
      <trkpt lat="43.64622" lon="7.0791">
        <ele>83.599998474121</ele>
        <time>2015-03-31T15:46:37.000Z</time>
      </trkpt>
      <trkpt lat="43.64628" lon="7.07921">
        <ele>82.800003051758</ele>
        <time>2015-03-31T15:46:40.000Z</time>
      </trkpt>
      <trkpt lat="43.64639" lon="7.07933">
        <ele>81.800003051758</ele>
        <time>2015-03-31T15:46:43.000Z</time>
      </trkpt>
      <trkpt lat="43.64649" lon="7.07939">
        <ele>80.800003051758</ele>
        <time>2015-03-31T15:46:45.000Z</time>
      </trkpt>
      <trkpt lat="43.64656" lon="7.07948">
        <ele>80</ele>
        <time>2015-03-31T15:46:48.000Z</time>
      </trkpt>
      <trkpt lat="43.64664" lon="7.07954">
        <ele>79.400001525879</ele>
        <time>2015-03-31T15:46:50.000Z</time>
      </trkpt>
      <trkpt lat="43.64672" lon="7.07963">
        <ele>77.599998474121</ele>
        <time>2015-03-31T15:46:52.000Z</time>
      </trkpt>
      <trkpt lat="43.64681" lon="7.07971">
        <ele>76.599998474121</ele>
        <time>2015-03-31T15:46:55.000Z</time>
      </trkpt>
      <trkpt lat="43.64688" lon="7.0798">
        <ele>75.400001525879</ele>
        <time>2015-03-31T15:46:58.000Z</time>
      </trkpt>
      <trkpt lat="43.64696" lon="7.07991">
        <ele>74.199996948242</ele>
        <time>2015-03-31T15:47:01.000Z</time>
      </trkpt>
      <trkpt lat="43.64705" lon="7.07994">
        <ele>73</ele>
        <time>2015-03-31T15:47:03.000Z</time>
      </trkpt>
      <trkpt lat="43.64721" lon="7.07992">
        <ele>71.800003051758</ele>
        <time>2015-03-31T15:47:04.000Z</time>
      </trkpt>
      <trkpt lat="43.6473" lon="7.07997">
        <ele>70.599998474121</ele>
        <time>2015-03-31T15:47:06.000Z</time>
      </trkpt>
      <trkpt lat="43.64741" lon="7.08005">
        <ele>69.599998474121</ele>
        <time>2015-03-31T15:47:08.000Z</time>
      </trkpt>
      <trkpt lat="43.64751" lon="7.08013">
        <ele>68</ele>
        <time>2015-03-31T15:47:10.000Z</time>
      </trkpt>
      <trkpt lat="43.64759" lon="7.08018">
        <ele>67.199996948242</ele>
        <time>2015-03-31T15:47:12.000Z</time>
      </trkpt>
      <trkpt lat="43.64771" lon="7.08021">
        <ele>66.599998474121</ele>
        <time>2015-03-31T15:47:14.000Z</time>
      </trkpt>
      <trkpt lat="43.64783" lon="7.08025">
        <ele>67</ele>
        <time>2015-03-31T15:47:16.000Z</time>
      </trkpt>
      <trkpt lat="43.64792" lon="7.08027">
        <ele>67.400001525879</ele>
        <time>2015-03-31T15:47:18.000Z</time>
      </trkpt>
      <trkpt lat="43.648" lon="7.08035">
        <ele>66.400001525879</ele>
        <time>2015-03-31T15:47:22.000Z</time>
      </trkpt>
      <trkpt lat="43.64797" lon="7.08047">
        <ele>65.400001525879</ele>
        <time>2015-03-31T15:47:26.000Z</time>
      </trkpt>
      <trkpt lat="43.64791" lon="7.08057">
        <ele>64.400001525879</ele>
        <time>2015-03-31T15:47:29.000Z</time>
      </trkpt>
      <trkpt lat="43.64791" lon="7.08069">
        <ele>63.400001525879</ele>
        <time>2015-03-31T15:47:36.000Z</time>
      </trkpt>
      <trkpt lat="43.64795" lon="7.08078">
        <ele>62.400001525879</ele>
        <time>2015-03-31T15:48:12.000Z</time>
      </trkpt>
      <trkpt lat="43.64799" lon="7.08088">
        <ele>62.200000762939</ele>
        <time>2015-03-31T15:48:33.000Z</time>
      </trkpt>
      <trkpt lat="43.64804" lon="7.08099">
        <ele>63</ele>
        <time>2015-03-31T15:48:37.000Z</time>
      </trkpt>
      <trkpt lat="43.64808" lon="7.0811">
        <ele>62.799999237061</ele>
        <time>2015-03-31T15:48:41.000Z</time>
      </trkpt>
      <trkpt lat="43.64814" lon="7.08118">
        <ele>62.400001525879</ele>
        <time>2015-03-31T15:48:45.000Z</time>
      </trkpt>
      <trkpt lat="43.64821" lon="7.08128">
        <ele>62</ele>
        <time>2015-03-31T15:48:48.000Z</time>
      </trkpt>
      <trkpt lat="43.64829" lon="7.08137">
        <ele>60.599998474121</ele>
        <time>2015-03-31T15:48:51.000Z</time>
      </trkpt>
      <trkpt lat="43.64837" lon="7.08143">
        <ele>60.799999237061</ele>
        <time>2015-03-31T15:48:53.000Z</time>
      </trkpt>
      <trkpt lat="43.64848" lon="7.08149">
        <ele>60.799999237061</ele>
        <time>2015-03-31T15:48:56.000Z</time>
      </trkpt>
      <trkpt lat="43.64858" lon="7.08146">
        <ele>61</ele>
        <time>2015-03-31T15:49:02.000Z</time>
      </trkpt>
      <trkpt lat="43.64869" lon="7.08141">
        <ele>61</ele>
        <time>2015-03-31T15:49:04.000Z</time>
      </trkpt>
      <trkpt lat="43.64881" lon="7.0814">
        <ele>61</ele>
        <time>2015-03-31T15:49:05.000Z</time>
      </trkpt>
      <trkpt lat="43.6489" lon="7.08139">
        <ele>60.200000762939</ele>
        <time>2015-03-31T15:49:07.000Z</time>
      </trkpt>
      <trkpt lat="43.649" lon="7.08139">
        <ele>59.599998474121</ele>
        <time>2015-03-31T15:49:09.000Z</time>
      </trkpt>
      <trkpt lat="43.64909" lon="7.08143">
        <ele>58.599998474121</ele>
        <time>2015-03-31T15:49:12.000Z</time>
      </trkpt>
      <trkpt lat="43.64917" lon="7.08148">
        <ele>57.799999237061</ele>
        <time>2015-03-31T15:49:15.000Z</time>
      </trkpt>
      <trkpt lat="43.64927" lon="7.0816">
        <ele>57</ele>
        <time>2015-03-31T15:49:18.000Z</time>
      </trkpt>
      <trkpt lat="43.64933" lon="7.08167">
        <ele>57</ele>
        <time>2015-03-31T15:49:20.000Z</time>
      </trkpt>
      <trkpt lat="43.64941" lon="7.08176">
        <ele>57</ele>
        <time>2015-03-31T15:49:23.000Z</time>
      </trkpt>
      <trkpt lat="43.6495" lon="7.08183">
        <ele>56.799999237061</ele>
        <time>2015-03-31T15:49:26.000Z</time>
      </trkpt>
      <trkpt lat="43.64958" lon="7.08196">
        <ele>56.799999237061</ele>
        <time>2015-03-31T15:49:29.000Z</time>
      </trkpt>
      <trkpt lat="43.64964" lon="7.08207">
        <ele>56.599998474121</ele>
        <time>2015-03-31T15:49:31.000Z</time>
      </trkpt>
      <trkpt lat="43.64972" lon="7.08218">
        <ele>56.599998474121</ele>
        <time>2015-03-31T15:49:33.000Z</time>
      </trkpt>
      <trkpt lat="43.64977" lon="7.08228">
        <ele>56.599998474121</ele>
        <time>2015-03-31T15:49:35.000Z</time>
      </trkpt>
      <trkpt lat="43.64983" lon="7.08242">
        <ele>56.400001525879</ele>
        <time>2015-03-31T15:49:38.000Z</time>
      </trkpt>
      <trkpt lat="43.64991" lon="7.08251">
        <ele>57</ele>
        <time>2015-03-31T15:49:40.000Z</time>
      </trkpt>
      <trkpt lat="43.65" lon="7.08262">
        <ele>57.599998474121</ele>
        <time>2015-03-31T15:49:42.000Z</time>
      </trkpt>
      <trkpt lat="43.6501" lon="7.0827">
        <ele>56.799999237061</ele>
        <time>2015-03-31T15:49:45.000Z</time>
      </trkpt>
      <trkpt lat="43.65018" lon="7.08278">
        <ele>56</ele>
        <time>2015-03-31T15:49:49.000Z</time>
      </trkpt>
      <trkpt lat="43.65024" lon="7.08288">
        <ele>55.200000762939</ele>
        <time>2015-03-31T15:49:53.000Z</time>
      </trkpt>
      <trkpt lat="43.65033" lon="7.083">
        <ele>54.599998474121</ele>
        <time>2015-03-31T15:49:56.000Z</time>
      </trkpt>
      <trkpt lat="43.6504" lon="7.08309">
        <ele>53.799999237061</ele>
        <time>2015-03-31T15:49:58.000Z</time>
      </trkpt>
      <trkpt lat="43.65047" lon="7.08317">
        <ele>54.599998474121</ele>
        <time>2015-03-31T15:50:00.000Z</time>
      </trkpt>
      <trkpt lat="43.65053" lon="7.08328">
        <ele>55.200000762939</ele>
        <time>2015-03-31T15:50:04.000Z</time>
      </trkpt>
      <trkpt lat="43.65056" lon="7.08338">
        <ele>56</ele>
        <time>2015-03-31T15:50:10.000Z</time>
      </trkpt>
      <trkpt lat="43.65054" lon="7.08349">
        <ele>56.799999237061</ele>
        <time>2015-03-31T15:50:27.000Z</time>
      </trkpt>
      <trkpt lat="43.65047" lon="7.08344">
        <ele>56.799999237061</ele>
        <time>2015-03-31T15:50:54.000Z</time>
      </trkpt>
      <trkpt lat="43.65043" lon="7.08334">
        <ele>56.799999237061</ele>
        <time>2015-03-31T15:51:04.000Z</time>
      </trkpt>
      <trkpt lat="43.65039" lon="7.08323">
        <ele>58.200000762939</ele>
        <time>2015-03-31T15:51:16.000Z</time>
      </trkpt>
      <trkpt lat="43.6503" lon="7.08318">
        <ele>59.599998474121</ele>
        <time>2015-03-31T15:51:26.000Z</time>
      </trkpt>
      <trkpt lat="43.65023" lon="7.08313">
        <ele>61</ele>
        <time>2015-03-31T15:51:32.000Z</time>
      </trkpt>
      <trkpt lat="43.65015" lon="7.08311">
        <ele>62.599998474121</ele>
        <time>2015-03-31T15:51:42.000Z</time>
      </trkpt>
      <trkpt lat="43.65006" lon="7.08309">
        <ele>64</ele>
        <time>2015-03-31T15:51:56.000Z</time>
      </trkpt>
      <trkpt lat="43.64999" lon="7.08303">
        <ele>65</ele>
        <time>2015-03-31T15:52:16.000Z</time>
      </trkpt>
      <trkpt lat="43.64991" lon="7.08301">
        <ele>66</ele>
        <time>2015-03-31T15:52:25.000Z</time>
      </trkpt>
      <trkpt lat="43.64983" lon="7.08301">
        <ele>67</ele>
        <time>2015-03-31T15:52:34.000Z</time>
      </trkpt>
      <trkpt lat="43.64974" lon="7.08301">
        <ele>68</ele>
        <time>2015-03-31T15:52:48.000Z</time>
      </trkpt>
      <trkpt lat="43.64966" lon="7.08297">
        <ele>69</ele>
        <time>2015-03-31T15:53:26.000Z</time>
      </trkpt>
      <trkpt lat="43.64957" lon="7.08292">
        <ele>70.800003051758</ele>
        <time>2015-03-31T15:53:36.000Z</time>
      </trkpt>
      <trkpt lat="43.6495" lon="7.08286">
        <ele>72.599998474121</ele>
        <time>2015-03-31T15:53:45.000Z</time>
      </trkpt>
      <trkpt lat="43.64941" lon="7.08287">
        <ele>74.599998474121</ele>
        <time>2015-03-31T15:53:53.000Z</time>
      </trkpt>
      <trkpt lat="43.64933" lon="7.08288">
        <ele>76.400001525879</ele>
        <time>2015-03-31T15:54:07.000Z</time>
      </trkpt>
      <trkpt lat="43.64924" lon="7.08287">
        <ele>78</ele>
        <time>2015-03-31T15:54:14.000Z</time>
      </trkpt>
      <trkpt lat="43.64918" lon="7.08297">
        <ele>81.400001525879</ele>
        <time>2015-03-31T15:54:21.000Z</time>
      </trkpt>
      <trkpt lat="43.6491" lon="7.08301">
        <ele>83.599998474121</ele>
        <time>2015-03-31T15:54:28.000Z</time>
      </trkpt>
      <trkpt lat="43.64903" lon="7.08307">
        <ele>86</ele>
        <time>2015-03-31T15:54:40.000Z</time>
      </trkpt>
      <trkpt lat="43.64895" lon="7.08312">
        <ele>88.199996948242</ele>
        <time>2015-03-31T15:54:56.000Z</time>
      </trkpt>
      <trkpt lat="43.64887" lon="7.08315">
        <ele>90.599998474121</ele>
        <time>2015-03-31T15:55:09.000Z</time>
      </trkpt>
      <trkpt lat="43.6488" lon="7.08319">
        <ele>92.599998474121</ele>
        <time>2015-03-31T15:55:17.000Z</time>
      </trkpt>
      <trkpt lat="43.64873" lon="7.08326">
        <ele>94.199996948242</ele>
        <time>2015-03-31T15:55:26.000Z</time>
      </trkpt>
      <trkpt lat="43.64867" lon="7.08335">
        <ele>95.599998474121</ele>
        <time>2015-03-31T15:55:35.000Z</time>
      </trkpt>
      <trkpt lat="43.64862" lon="7.08344">
        <ele>97</ele>
        <time>2015-03-31T15:55:46.000Z</time>
      </trkpt>
      <trkpt lat="43.64856" lon="7.08352">
        <ele>98.599998474121</ele>
        <time>2015-03-31T15:56:01.000Z</time>
      </trkpt>
      <trkpt lat="43.64848" lon="7.08357">
        <ele>100.59999847412</ele>
        <time>2015-03-31T15:56:19.000Z</time>
      </trkpt>
      <trkpt lat="43.64844" lon="7.08347">
        <ele>101</ele>
        <time>2015-03-31T15:56:26.000Z</time>
      </trkpt>
      <trkpt lat="43.64836" lon="7.08352">
        <ele>101.40000152588</ele>
        <time>2015-03-31T15:56:41.000Z</time>
      </trkpt>
      <trkpt lat="43.6483" lon="7.08361">
        <ele>101.80000305176</ele>
        <time>2015-03-31T15:56:51.000Z</time>
      </trkpt>
      <trkpt lat="43.64824" lon="7.08368">
        <ele>102.40000152588</ele>
        <time>2015-03-31T15:57:07.000Z</time>
      </trkpt>
      <trkpt lat="43.6482" lon="7.08378">
        <ele>105</ele>
        <time>2015-03-31T15:57:20.000Z</time>
      </trkpt>
      <trkpt lat="43.64814" lon="7.08388">
        <ele>107.59999847412</ele>
        <time>2015-03-31T15:57:34.000Z</time>
      </trkpt>
      <trkpt lat="43.6481" lon="7.08397">
        <ele>110.19999694824</ele>
        <time>2015-03-31T15:57:44.000Z</time>
      </trkpt>
      <trkpt lat="43.64807" lon="7.08409">
        <ele>112.80000305176</ele>
        <time>2015-03-31T15:57:55.000Z</time>
      </trkpt>
      <trkpt lat="43.64802" lon="7.08419">
        <ele>115.59999847412</ele>
        <time>2015-03-31T15:58:04.000Z</time>
      </trkpt>
      <trkpt lat="43.64797" lon="7.08428">
        <ele>119.40000152588</ele>
        <time>2015-03-31T15:58:17.000Z</time>
      </trkpt>
      <trkpt lat="43.64791" lon="7.08436">
        <ele>122.59999847412</ele>
        <time>2015-03-31T15:58:44.000Z</time>
      </trkpt>
      <trkpt lat="43.64784" lon="7.08441">
        <ele>126</ele>
        <time>2015-03-31T15:58:55.000Z</time>
      </trkpt>
      <trkpt lat="43.64777" lon="7.08447">
        <ele>129.39999389648</ele>
        <time>2015-03-31T15:59:09.000Z</time>
      </trkpt>
      <trkpt lat="43.6477" lon="7.08454">
        <ele>132.60000610352</ele>
        <time>2015-03-31T15:59:20.000Z</time>
      </trkpt>
      <trkpt lat="43.64763" lon="7.08461">
        <ele>136.19999694824</ele>
        <time>2015-03-31T15:59:35.000Z</time>
      </trkpt>
      <trkpt lat="43.64758" lon="7.08471">
        <ele>137.39999389648</ele>
        <time>2015-03-31T16:00:09.000Z</time>
      </trkpt>
      <trkpt lat="43.64755" lon="7.08481">
        <ele>138.60000610352</ele>
        <time>2015-03-31T16:00:17.000Z</time>
      </trkpt>
      <trkpt lat="43.64754" lon="7.08493">
        <ele>140.80000305176</ele>
        <time>2015-03-31T16:00:29.000Z</time>
      </trkpt>
      <trkpt lat="43.6476" lon="7.08502">
        <ele>143.19999694824</ele>
        <time>2015-03-31T16:00:40.000Z</time>
      </trkpt>
      <trkpt lat="43.64765" lon="7.08512">
        <ele>145.60000610352</ele>
        <time>2015-03-31T16:00:47.000Z</time>
      </trkpt>
      <trkpt lat="43.64769" lon="7.08522">
        <ele>146.60000610352</ele>
        <time>2015-03-31T16:00:57.000Z</time>
      </trkpt>
      <trkpt lat="43.64776" lon="7.08533">
        <ele>145</ele>
        <time>2015-03-31T16:01:00.000Z</time>
      </trkpt>
      <trkpt lat="43.64782" lon="7.08546">
        <ele>143.39999389648</ele>
        <time>2015-03-31T16:01:03.000Z</time>
      </trkpt>
      <trkpt lat="43.64786" lon="7.08557">
        <ele>141.60000610352</ele>
        <time>2015-03-31T16:01:05.000Z</time>
      </trkpt>
      <trkpt lat="43.6479" lon="7.08569">
        <ele>140.39999389648</ele>
        <time>2015-03-31T16:01:07.000Z</time>
      </trkpt>
      <trkpt lat="43.64794" lon="7.08584">
        <ele>139</ele>
        <time>2015-03-31T16:01:09.000Z</time>
      </trkpt>
      <trkpt lat="43.64799" lon="7.08597">
        <ele>137.60000610352</ele>
        <time>2015-03-31T16:01:11.000Z</time>
      </trkpt>
      <trkpt lat="43.64803" lon="7.08612">
        <ele>136.60000610352</ele>
        <time>2015-03-31T16:01:13.000Z</time>
      </trkpt>
      <trkpt lat="43.64807" lon="7.0863">
        <ele>134</ele>
        <time>2015-03-31T16:01:15.000Z</time>
      </trkpt>
      <trkpt lat="43.64813" lon="7.0865">
        <ele>131.60000610352</ele>
        <time>2015-03-31T16:01:17.000Z</time>
      </trkpt>
      <trkpt lat="43.64817" lon="7.0866">
        <ele>129.19999694824</ele>
        <time>2015-03-31T16:01:18.000Z</time>
      </trkpt>
      <trkpt lat="43.64827" lon="7.08677">
        <ele>127</ele>
        <time>2015-03-31T16:01:20.000Z</time>
      </trkpt>
      <trkpt lat="43.64833" lon="7.08684">
        <ele>127.80000305176</ele>
        <time>2015-03-31T16:01:21.000Z</time>
      </trkpt>
      <trkpt lat="43.64839" lon="7.08692">
        <ele>128.60000610352</ele>
        <time>2015-03-31T16:01:22.000Z</time>
      </trkpt>
      <trkpt lat="43.64847" lon="7.08701">
        <ele>129.60000610352</ele>
        <time>2015-03-31T16:01:23.000Z</time>
      </trkpt>
      <trkpt lat="43.64855" lon="7.08711">
        <ele>129.80000305176</ele>
        <time>2015-03-31T16:01:24.000Z</time>
      </trkpt>
      <trkpt lat="43.6486" lon="7.08722">
        <ele>130.19999694824</ele>
        <time>2015-03-31T16:01:25.000Z</time>
      </trkpt>
      <trkpt lat="43.64865" lon="7.08731">
        <ele>130.60000610352</ele>
        <time>2015-03-31T16:01:26.000Z</time>
      </trkpt>
      <trkpt lat="43.64873" lon="7.08745">
        <ele>130.80000305176</ele>
        <time>2015-03-31T16:01:28.000Z</time>
      </trkpt>
      <trkpt lat="43.64877" lon="7.08755">
        <ele>131</ele>
        <time>2015-03-31T16:01:30.000Z</time>
      </trkpt>
      <trkpt lat="43.64878" lon="7.08767">
        <ele>131.19999694824</ele>
        <time>2015-03-31T16:01:32.000Z</time>
      </trkpt>
      <trkpt lat="43.64875" lon="7.08778">
        <ele>131.19999694824</ele>
        <time>2015-03-31T16:01:34.000Z</time>
      </trkpt>
      <trkpt lat="43.64869" lon="7.08791">
        <ele>130.80000305176</ele>
        <time>2015-03-31T16:01:37.000Z</time>
      </trkpt>
      <trkpt lat="43.64864" lon="7.08801">
        <ele>130.60000610352</ele>
        <time>2015-03-31T16:01:40.000Z</time>
      </trkpt>
      <trkpt lat="43.64863" lon="7.08814">
        <ele>130.39999389648</ele>
        <time>2015-03-31T16:01:44.000Z</time>
      </trkpt>
      <trkpt lat="43.64864" lon="7.08826">
        <ele>129.60000610352</ele>
        <time>2015-03-31T16:01:48.000Z</time>
      </trkpt>
      <trkpt lat="43.64867" lon="7.08838">
        <ele>129.19999694824</ele>
        <time>2015-03-31T16:01:52.000Z</time>
      </trkpt>
      <trkpt lat="43.6487" lon="7.08848">
        <ele>128.60000610352</ele>
        <time>2015-03-31T16:01:56.000Z</time>
      </trkpt>
      <trkpt lat="43.64874" lon="7.0886">
        <ele>127.80000305176</ele>
        <time>2015-03-31T16:02:00.000Z</time>
      </trkpt>
      <trkpt lat="43.64877" lon="7.08872">
        <ele>127.19999694824</ele>
        <time>2015-03-31T16:02:04.000Z</time>
      </trkpt>
      <trkpt lat="43.64875" lon="7.08885">
        <ele>126.80000305176</ele>
        <time>2015-03-31T16:02:10.000Z</time>
      </trkpt>
      <trkpt lat="43.64874" lon="7.08897">
        <ele>125.80000305176</ele>
        <time>2015-03-31T16:02:15.000Z</time>
      </trkpt>
      <trkpt lat="43.64872" lon="7.08909">
        <ele>124.80000305176</ele>
        <time>2015-03-31T16:02:18.000Z</time>
      </trkpt>
      <trkpt lat="43.64872" lon="7.08928">
        <ele>123.80000305176</ele>
        <time>2015-03-31T16:02:21.000Z</time>
      </trkpt>
      <trkpt lat="43.64874" lon="7.08947">
        <ele>122.80000305176</ele>
        <time>2015-03-31T16:02:23.000Z</time>
      </trkpt>
      <trkpt lat="43.64875" lon="7.08964">
        <ele>121.59999847412</ele>
        <time>2015-03-31T16:02:25.000Z</time>
      </trkpt>
      <trkpt lat="43.64876" lon="7.08979">
        <ele>120.80000305176</ele>
        <time>2015-03-31T16:02:27.000Z</time>
      </trkpt>
      <trkpt lat="43.64877" lon="7.08994">
        <ele>120</ele>
        <time>2015-03-31T16:02:30.000Z</time>
      </trkpt>
      <trkpt lat="43.64879" lon="7.09008">
        <ele>119.19999694824</ele>
        <time>2015-03-31T16:02:31.000Z</time>
      </trkpt>
      <trkpt lat="43.64879" lon="7.09021">
        <ele>118.40000152588</ele>
        <time>2015-03-31T16:02:33.000Z</time>
      </trkpt>
      <trkpt lat="43.64882" lon="7.09032">
        <ele>117.59999847412</ele>
        <time>2015-03-31T16:02:37.000Z</time>
      </trkpt>
      <trkpt lat="43.64891" lon="7.09031">
        <ele>116.59999847412</ele>
        <time>2015-03-31T16:02:44.000Z</time>
      </trkpt>
      <trkpt lat="43.64899" lon="7.09036">
        <ele>116.59999847412</ele>
        <time>2015-03-31T16:02:49.000Z</time>
      </trkpt>
      <trkpt lat="43.64909" lon="7.09039">
        <ele>116.40000152588</ele>
        <time>2015-03-31T16:02:55.000Z</time>
      </trkpt>
      <trkpt lat="43.64919" lon="7.09037">
        <ele>116.19999694824</ele>
        <time>2015-03-31T16:02:59.000Z</time>
      </trkpt>
      <trkpt lat="43.64927" lon="7.09037">
        <ele>115.40000152588</ele>
        <time>2015-03-31T16:03:02.000Z</time>
      </trkpt>
      <trkpt lat="43.64935" lon="7.09035">
        <ele>114.59999847412</ele>
        <time>2015-03-31T16:03:05.000Z</time>
      </trkpt>
      <trkpt lat="43.64944" lon="7.09037">
        <ele>114</ele>
        <time>2015-03-31T16:03:08.000Z</time>
      </trkpt>
      <trkpt lat="43.64953" lon="7.09037">
        <ele>113.59999847412</ele>
        <time>2015-03-31T16:03:11.000Z</time>
      </trkpt>
      <trkpt lat="43.64962" lon="7.09031">
        <ele>112.80000305176</ele>
        <time>2015-03-31T16:03:14.000Z</time>
      </trkpt>
      <trkpt lat="43.64971" lon="7.09032">
        <ele>113.59999847412</ele>
        <time>2015-03-31T16:03:17.000Z</time>
      </trkpt>
      <trkpt lat="43.64982" lon="7.09032">
        <ele>114.59999847412</ele>
        <time>2015-03-31T16:03:20.000Z</time>
      </trkpt>
      <trkpt lat="43.6499" lon="7.09036">
        <ele>115.59999847412</ele>
        <time>2015-03-31T16:03:23.000Z</time>
      </trkpt>
      <trkpt lat="43.64998" lon="7.09042">
        <ele>115.80000305176</ele>
        <time>2015-03-31T16:03:26.000Z</time>
      </trkpt>
      <trkpt lat="43.65007" lon="7.09047">
        <ele>116</ele>
        <time>2015-03-31T16:03:29.000Z</time>
      </trkpt>
      <trkpt lat="43.65017" lon="7.0905">
        <ele>116.40000152588</ele>
        <time>2015-03-31T16:03:32.000Z</time>
      </trkpt>
      <trkpt lat="43.65027" lon="7.09052">
        <ele>117.40000152588</ele>
        <time>2015-03-31T16:03:35.000Z</time>
      </trkpt>
      <trkpt lat="43.65037" lon="7.09054">
        <ele>118.19999694824</ele>
        <time>2015-03-31T16:03:38.000Z</time>
      </trkpt>
      <trkpt lat="43.65047" lon="7.09059">
        <ele>119</ele>
        <time>2015-03-31T16:03:41.000Z</time>
      </trkpt>
      <trkpt lat="43.65057" lon="7.09065">
        <ele>120</ele>
        <time>2015-03-31T16:03:45.000Z</time>
      </trkpt>
      <trkpt lat="43.65065" lon="7.09072">
        <ele>121</ele>
        <time>2015-03-31T16:03:47.000Z</time>
      </trkpt>
      <trkpt lat="43.65073" lon="7.09077">
        <ele>120.40000152588</ele>
        <time>2015-03-31T16:04:42.000Z</time>
      </trkpt>
      <trkpt lat="43.6508" lon="7.09084">
        <ele>119.59999847412</ele>
        <time>2015-03-31T16:04:46.000Z</time>
      </trkpt>
      <trkpt lat="43.65089" lon="7.09094">
        <ele>117.19999694824</ele>
        <time>2015-03-31T16:04:49.000Z</time>
      </trkpt>
      <trkpt lat="43.65097" lon="7.09102">
        <ele>116.59999847412</ele>
        <time>2015-03-31T16:04:51.000Z</time>
      </trkpt>
      <trkpt lat="43.65107" lon="7.09109">
        <ele>116</ele>
        <time>2015-03-31T16:04:53.000Z</time>
      </trkpt>
      <trkpt lat="43.65116" lon="7.09116">
        <ele>115.40000152588</ele>
        <time>2015-03-31T16:04:55.000Z</time>
      </trkpt>
      <trkpt lat="43.65124" lon="7.09122">
        <ele>114.59999847412</ele>
        <time>2015-03-31T16:04:57.000Z</time>
      </trkpt>
      <trkpt lat="43.65132" lon="7.0913">
        <ele>114</ele>
        <time>2015-03-31T16:04:59.000Z</time>
      </trkpt>
      <trkpt lat="43.6514" lon="7.09137">
        <ele>113.40000152588</ele>
        <time>2015-03-31T16:05:01.000Z</time>
      </trkpt>
      <trkpt lat="43.65145" lon="7.09146">
        <ele>112.59999847412</ele>
        <time>2015-03-31T16:05:03.000Z</time>
      </trkpt>
      <trkpt lat="43.65149" lon="7.09157">
        <ele>112</ele>
        <time>2015-03-31T16:05:05.000Z</time>
      </trkpt>
      <trkpt lat="43.65154" lon="7.09167">
        <ele>112.59999847412</ele>
        <time>2015-03-31T16:05:07.000Z</time>
      </trkpt>
      <trkpt lat="43.65158" lon="7.09177">
        <ele>112.80000305176</ele>
        <time>2015-03-31T16:05:09.000Z</time>
      </trkpt>
      <trkpt lat="43.65166" lon="7.09184">
        <ele>115</ele>
        <time>2015-03-31T16:05:12.000Z</time>
      </trkpt>
      <trkpt lat="43.65173" lon="7.09193">
        <ele>116</ele>
        <time>2015-03-31T16:05:15.000Z</time>
      </trkpt>
      <trkpt lat="43.65178" lon="7.09209">
        <ele>115.40000152588</ele>
        <time>2015-03-31T16:05:17.000Z</time>
      </trkpt>
      <trkpt lat="43.65183" lon="7.0922">
        <ele>114.59999847412</ele>
        <time>2015-03-31T16:05:19.000Z</time>
      </trkpt>
      <trkpt lat="43.6519" lon="7.09233">
        <ele>113.80000305176</ele>
        <time>2015-03-31T16:05:22.000Z</time>
      </trkpt>
      <trkpt lat="43.65195" lon="7.09242">
        <ele>113</ele>
        <time>2015-03-31T16:05:24.000Z</time>
      </trkpt>
      <trkpt lat="43.65201" lon="7.09251">
        <ele>113.40000152588</ele>
        <time>2015-03-31T16:05:26.000Z</time>
      </trkpt>
      <trkpt lat="43.65209" lon="7.09262">
        <ele>113.59999847412</ele>
        <time>2015-03-31T16:05:29.000Z</time>
      </trkpt>
      <trkpt lat="43.65217" lon="7.09272">
        <ele>113.59999847412</ele>
        <time>2015-03-31T16:05:32.000Z</time>
      </trkpt>
      <trkpt lat="43.65224" lon="7.09279">
        <ele>112.80000305176</ele>
        <time>2015-03-31T16:05:36.000Z</time>
      </trkpt>
      <trkpt lat="43.65232" lon="7.09287">
        <ele>112</ele>
        <time>2015-03-31T16:05:40.000Z</time>
      </trkpt>
      <trkpt lat="43.65236" lon="7.09297">
        <ele>111.19999694824</ele>
        <time>2015-03-31T16:06:14.000Z</time>
      </trkpt>
      <trkpt lat="43.65245" lon="7.09298">
        <ele>110.40000152588</ele>
        <time>2015-03-31T16:06:26.000Z</time>
      </trkpt>
      <trkpt lat="43.65255" lon="7.09297">
        <ele>111.40000152588</ele>
        <time>2015-03-31T16:06:29.000Z</time>
      </trkpt>
      <trkpt lat="43.65263" lon="7.09305">
        <ele>112.19999694824</ele>
        <time>2015-03-31T16:06:32.000Z</time>
      </trkpt>
      <trkpt lat="43.6527" lon="7.09313">
        <ele>111.40000152588</ele>
        <time>2015-03-31T16:06:34.000Z</time>
      </trkpt>
      <trkpt lat="43.65276" lon="7.09321">
        <ele>110.40000152588</ele>
        <time>2015-03-31T16:06:36.000Z</time>
      </trkpt>
      <trkpt lat="43.65283" lon="7.0933">
        <ele>110</ele>
        <time>2015-03-31T16:06:38.000Z</time>
      </trkpt>
      <trkpt lat="43.65291" lon="7.09338">
        <ele>109.59999847412</ele>
        <time>2015-03-31T16:06:40.000Z</time>
      </trkpt>
      <trkpt lat="43.65297" lon="7.09346">
        <ele>109</ele>
        <time>2015-03-31T16:06:45.000Z</time>
      </trkpt>
      <trkpt lat="43.65303" lon="7.09356">
        <ele>108.59999847412</ele>
        <time>2015-03-31T16:06:46.000Z</time>
      </trkpt>
      <trkpt lat="43.6531" lon="7.09377">
        <ele>108</ele>
        <time>2015-03-31T16:06:53.000Z</time>
      </trkpt>
      <trkpt lat="43.65315" lon="7.09389">
        <ele>107.59999847412</ele>
        <time>2015-03-31T16:06:58.000Z</time>
      </trkpt>
      <trkpt lat="43.65324" lon="7.09391">
        <ele>107.19999694824</ele>
        <time>2015-03-31T16:07:01.000Z</time>
      </trkpt>
      <trkpt lat="43.65334" lon="7.09395">
        <ele>106.59999847412</ele>
        <time>2015-03-31T16:07:04.000Z</time>
      </trkpt>
      <trkpt lat="43.65343" lon="7.09404">
        <ele>105</ele>
        <time>2015-03-31T16:07:07.000Z</time>
      </trkpt>
      <trkpt lat="43.65351" lon="7.0941">
        <ele>105</ele>
        <time>2015-03-31T16:07:09.000Z</time>
      </trkpt>
      <trkpt lat="43.65361" lon="7.09417">
        <ele>105.19999694824</ele>
        <time>2015-03-31T16:07:11.000Z</time>
      </trkpt>
      <trkpt lat="43.65368" lon="7.09421">
        <ele>104</ele>
        <time>2015-03-31T16:07:13.000Z</time>
      </trkpt>
      <trkpt lat="43.65377" lon="7.09429">
        <ele>103.59999847412</ele>
        <time>2015-03-31T16:07:16.000Z</time>
      </trkpt>
      <trkpt lat="43.65384" lon="7.09436">
        <ele>103.59999847412</ele>
        <time>2015-03-31T16:07:18.000Z</time>
      </trkpt>
      <trkpt lat="43.65391" lon="7.09443">
        <ele>103.40000152588</ele>
        <time>2015-03-31T16:07:20.000Z</time>
      </trkpt>
      <trkpt lat="43.65399" lon="7.09449">
        <ele>103.19999694824</ele>
        <time>2015-03-31T16:07:22.000Z</time>
      </trkpt>
      <trkpt lat="43.65405" lon="7.09456">
        <ele>103</ele>
        <time>2015-03-31T16:07:24.000Z</time>
      </trkpt>
      <trkpt lat="43.65412" lon="7.09463">
        <ele>102.80000305176</ele>
        <time>2015-03-31T16:07:26.000Z</time>
      </trkpt>
      <trkpt lat="43.6542" lon="7.09471">
        <ele>102.59999847412</ele>
        <time>2015-03-31T16:07:28.000Z</time>
      </trkpt>
      <trkpt lat="43.65428" lon="7.09479">
        <ele>101.80000305176</ele>
        <time>2015-03-31T16:07:30.000Z</time>
      </trkpt>
      <trkpt lat="43.65435" lon="7.09486">
        <ele>101</ele>
        <time>2015-03-31T16:07:32.000Z</time>
      </trkpt>
      <trkpt lat="43.65445" lon="7.09495">
        <ele>100.19999694824</ele>
        <time>2015-03-31T16:07:35.000Z</time>
      </trkpt>
      <trkpt lat="43.65455" lon="7.09504">
        <ele>99.400001525879</ele>
        <time>2015-03-31T16:07:38.000Z</time>
      </trkpt>
      <trkpt lat="43.65462" lon="7.09509">
        <ele>99</ele>
        <time>2015-03-31T16:07:40.000Z</time>
      </trkpt>
      <trkpt lat="43.65473" lon="7.09516">
        <ele>98.599998474121</ele>
        <time>2015-03-31T16:07:43.000Z</time>
      </trkpt>
      <trkpt lat="43.65482" lon="7.09525">
        <ele>98.400001525879</ele>
        <time>2015-03-31T16:07:46.000Z</time>
      </trkpt>
      <trkpt lat="43.65488" lon="7.09533">
        <ele>98</ele>
        <time>2015-03-31T16:07:48.000Z</time>
      </trkpt>
      <trkpt lat="43.65496" lon="7.09542">
        <ele>97.599998474121</ele>
        <time>2015-03-31T16:07:50.000Z</time>
      </trkpt>
      <trkpt lat="43.65503" lon="7.09551">
        <ele>97.199996948242</ele>
        <time>2015-03-31T16:07:52.000Z</time>
      </trkpt>
      <trkpt lat="43.65509" lon="7.0956">
        <ele>96.800003051758</ele>
        <time>2015-03-31T16:07:53.000Z</time>
      </trkpt>
      <trkpt lat="43.65514" lon="7.09573">
        <ele>96</ele>
        <time>2015-03-31T16:07:55.000Z</time>
      </trkpt>
      <trkpt lat="43.6552" lon="7.09583">
        <ele>95</ele>
        <time>2015-03-31T16:07:57.000Z</time>
      </trkpt>
      <trkpt lat="43.65527" lon="7.09594">
        <ele>95.599998474121</ele>
        <time>2015-03-31T16:07:59.000Z</time>
      </trkpt>
      <trkpt lat="43.65533" lon="7.09603">
        <ele>96</ele>
        <time>2015-03-31T16:08:01.000Z</time>
      </trkpt>
      <trkpt lat="43.65543" lon="7.09608">
        <ele>95</ele>
        <time>2015-03-31T16:08:03.000Z</time>
      </trkpt>
      <trkpt lat="43.65549" lon="7.09619">
        <ele>94</ele>
        <time>2015-03-31T16:08:07.000Z</time>
      </trkpt>
      <trkpt lat="43.65556" lon="7.09632">
        <ele>93</ele>
        <time>2015-03-31T16:08:11.000Z</time>
      </trkpt>
      <trkpt lat="43.65561" lon="7.09647">
        <ele>92</ele>
        <time>2015-03-31T16:08:14.000Z</time>
      </trkpt>
      <trkpt lat="43.65565" lon="7.0966">
        <ele>92.199996948242</ele>
        <time>2015-03-31T16:08:17.000Z</time>
      </trkpt>
      <trkpt lat="43.65568" lon="7.09675">
        <ele>92.400001525879</ele>
        <time>2015-03-31T16:08:20.000Z</time>
      </trkpt>
      <trkpt lat="43.65571" lon="7.09688">
        <ele>92.400001525879</ele>
        <time>2015-03-31T16:08:22.000Z</time>
      </trkpt>
      <trkpt lat="43.65576" lon="7.09698">
        <ele>95</ele>
        <time>2015-03-31T16:08:26.000Z</time>
      </trkpt>
      <trkpt lat="43.65576" lon="7.09709">
        <ele>97.599998474121</ele>
        <time>2015-03-31T16:08:32.000Z</time>
      </trkpt>
      <trkpt lat="43.65582" lon="7.09721">
        <ele>98.599998474121</ele>
        <time>2015-03-31T16:08:36.000Z</time>
      </trkpt>
      <trkpt lat="43.65587" lon="7.09731">
        <ele>99.599998474121</ele>
        <time>2015-03-31T16:08:39.000Z</time>
      </trkpt>
      <trkpt lat="43.65591" lon="7.09741">
        <ele>100.59999847412</ele>
        <time>2015-03-31T16:08:42.000Z</time>
      </trkpt>
      <trkpt lat="43.65596" lon="7.09751">
        <ele>103</ele>
        <time>2015-03-31T16:08:45.000Z</time>
      </trkpt>
      <trkpt lat="43.65599" lon="7.09763">
        <ele>105</ele>
        <time>2015-03-31T16:08:48.000Z</time>
      </trkpt>
      <trkpt lat="43.65599" lon="7.09776">
        <ele>107.40000152588</ele>
        <time>2015-03-31T16:08:52.000Z</time>
      </trkpt>
      <trkpt lat="43.65602" lon="7.09786">
        <ele>108.40000152588</ele>
        <time>2015-03-31T16:08:59.000Z</time>
      </trkpt>
      <trkpt lat="43.65607" lon="7.09796">
        <ele>106.59999847412</ele>
        <time>2015-03-31T16:09:13.000Z</time>
      </trkpt>
      <trkpt lat="43.65611" lon="7.09807">
        <ele>104.59999847412</ele>
        <time>2015-03-31T16:09:31.000Z</time>
      </trkpt>
      <trkpt lat="43.65616" lon="7.09817">
        <ele>103</ele>
        <time>2015-03-31T16:09:42.000Z</time>
      </trkpt>
      <trkpt lat="43.65621" lon="7.09826">
        <ele>101</ele>
        <time>2015-03-31T16:09:51.000Z</time>
      </trkpt>
      <trkpt lat="43.65625" lon="7.0984">
        <ele>100</ele>
        <time>2015-03-31T16:10:02.000Z</time>
      </trkpt>
      <trkpt lat="43.6563" lon="7.0985">
        <ele>98.599998474121</ele>
        <time>2015-03-31T16:10:06.000Z</time>
      </trkpt>
      <trkpt lat="43.65638" lon="7.09857">
        <ele>97.599998474121</ele>
        <time>2015-03-31T16:10:11.000Z</time>
      </trkpt>
      <trkpt lat="43.65645" lon="7.09864">
        <ele>95.400001525879</ele>
        <time>2015-03-31T16:10:20.000Z</time>
      </trkpt>
      <trkpt lat="43.65649" lon="7.09876">
        <ele>93</ele>
        <time>2015-03-31T16:10:25.000Z</time>
      </trkpt>
      <trkpt lat="43.65649" lon="7.09888">
        <ele>90.599998474121</ele>
        <time>2015-03-31T16:10:33.000Z</time>
      </trkpt>
      <trkpt lat="43.65645" lon="7.09898">
        <ele>88.599998474121</ele>
        <time>2015-03-31T16:10:39.000Z</time>
      </trkpt>
      <trkpt lat="43.65639" lon="7.09906">
        <ele>89</ele>
        <time>2015-03-31T16:11:22.000Z</time>
      </trkpt>
      <trkpt lat="43.6564" lon="7.09917">
        <ele>89.599998474121</ele>
        <time>2015-03-31T16:11:28.000Z</time>
      </trkpt>
      <trkpt lat="43.65646" lon="7.09925">
        <ele>90.400001525879</ele>
        <time>2015-03-31T16:11:34.000Z</time>
      </trkpt>
      <trkpt lat="43.65655" lon="7.09931">
        <ele>91</ele>
        <time>2015-03-31T16:11:40.000Z</time>
      </trkpt>
      <trkpt lat="43.65658" lon="7.09941">
        <ele>91</ele>
        <time>2015-03-31T16:11:45.000Z</time>
      </trkpt>
      <trkpt lat="43.65665" lon="7.09949">
        <ele>91</ele>
        <time>2015-03-31T16:11:50.000Z</time>
      </trkpt>
      <trkpt lat="43.65673" lon="7.09951">
        <ele>89</ele>
        <time>2015-03-31T16:11:56.000Z</time>
      </trkpt>
      <trkpt lat="43.65682" lon="7.09955">
        <ele>86.800003051758</ele>
        <time>2015-03-31T16:11:59.000Z</time>
      </trkpt>
      <trkpt lat="43.65693" lon="7.09955">
        <ele>84.599998474121</ele>
        <time>2015-03-31T16:12:02.000Z</time>
      </trkpt>
      <trkpt lat="43.65701" lon="7.0995">
        <ele>84.599998474121</ele>
        <time>2015-03-31T16:12:04.000Z</time>
      </trkpt>
      <trkpt lat="43.65709" lon="7.09946">
        <ele>84.599998474121</ele>
        <time>2015-03-31T16:12:06.000Z</time>
      </trkpt>
      <trkpt lat="43.65717" lon="7.09944">
        <ele>84.599998474121</ele>
        <time>2015-03-31T16:12:09.000Z</time>
      </trkpt>
      <trkpt lat="43.65714" lon="7.09933">
        <ele>84</ele>
        <time>2015-03-31T16:12:42.000Z</time>
      </trkpt>
      <trkpt lat="43.65711" lon="7.0992">
        <ele>83.599998474121</ele>
        <time>2015-03-31T16:12:45.000Z</time>
      </trkpt>
      <trkpt lat="43.65707" lon="7.0991">
        <ele>82.800003051758</ele>
        <time>2015-03-31T16:12:48.000Z</time>
      </trkpt>
      <trkpt lat="43.65702" lon="7.099">
        <ele>80</ele>
        <time>2015-03-31T16:12:51.000Z</time>
      </trkpt>
      <trkpt lat="43.65699" lon="7.09889">
        <ele>77.199996948242</ele>
        <time>2015-03-31T16:12:54.000Z</time>
      </trkpt>
      <trkpt lat="43.65695" lon="7.0988">
        <ele>76.599998474121</ele>
        <time>2015-03-31T16:12:57.000Z</time>
      </trkpt>
      <trkpt lat="43.65698" lon="7.09869">
        <ele>75.599998474121</ele>
        <time>2015-03-31T16:13:06.000Z</time>
      </trkpt>
      <trkpt lat="43.65704" lon="7.09861">
        <ele>74.599998474121</ele>
        <time>2015-03-31T16:13:11.000Z</time>
      </trkpt>
      <trkpt lat="43.65711" lon="7.09853">
        <ele>71</ele>
        <time>2015-03-31T16:13:15.000Z</time>
      </trkpt>
      <trkpt lat="43.65719" lon="7.09843">
        <ele>67.599998474121</ele>
        <time>2015-03-31T16:13:18.000Z</time>
      </trkpt>
      <trkpt lat="43.6572" lon="7.09827">
        <ele>64.400001525879</ele>
        <time>2015-03-31T16:13:21.000Z</time>
      </trkpt>
      <trkpt lat="43.65721" lon="7.09812">
        <ele>61.599998474121</ele>
        <time>2015-03-31T16:13:24.000Z</time>
      </trkpt>
      <trkpt lat="43.65723" lon="7.09797">
        <ele>59</ele>
        <time>2015-03-31T16:13:27.000Z</time>
      </trkpt>
      <trkpt lat="43.65721" lon="7.09784">
        <ele>56.200000762939</ele>
        <time>2015-03-31T16:13:41.000Z</time>
      </trkpt>
      <trkpt lat="43.65722" lon="7.09768">
        <ele>55.599998474121</ele>
        <time>2015-03-31T16:13:45.000Z</time>
      </trkpt>
      <trkpt lat="43.65728" lon="7.09757">
        <ele>55</ele>
        <time>2015-03-31T16:13:47.000Z</time>
      </trkpt>
      <trkpt lat="43.65735" lon="7.09764">
        <ele>54.599998474121</ele>
        <time>2015-03-31T16:13:50.000Z</time>
      </trkpt>
      <trkpt lat="43.65744" lon="7.0977">
        <ele>54</ele>
        <time>2015-03-31T16:13:54.000Z</time>
      </trkpt>
      <trkpt lat="43.65751" lon="7.09764">
        <ele>52.799999237061</ele>
        <time>2015-03-31T16:13:57.000Z</time>
      </trkpt>
      <trkpt lat="43.65758" lon="7.09756">
        <ele>51.599998474121</ele>
        <time>2015-03-31T16:14:02.000Z</time>
      </trkpt>
      <trkpt lat="43.65764" lon="7.09744">
        <ele>50.200000762939</ele>
        <time>2015-03-31T16:14:06.000Z</time>
      </trkpt>
      <trkpt lat="43.65779" lon="7.09739">
        <ele>49</ele>
        <time>2015-03-31T16:14:09.000Z</time>
      </trkpt>
      <trkpt lat="43.65789" lon="7.09733">
        <ele>47.799999237061</ele>
        <time>2015-03-31T16:14:11.000Z</time>
      </trkpt>
      <trkpt lat="43.65798" lon="7.09724">
        <ele>46.599998474121</ele>
        <time>2015-03-31T16:14:13.000Z</time>
      </trkpt>
      <trkpt lat="43.65807" lon="7.09718">
        <ele>45.200000762939</ele>
        <time>2015-03-31T16:14:15.000Z</time>
      </trkpt>
      <trkpt lat="43.65815" lon="7.09711">
        <ele>44</ele>
        <time>2015-03-31T16:14:17.000Z</time>
      </trkpt>
      <trkpt lat="43.6582" lon="7.09701">
        <ele>42.599998474121</ele>
        <time>2015-03-31T16:14:19.000Z</time>
      </trkpt>
      <trkpt lat="43.65825" lon="7.09689">
        <ele>40.599998474121</ele>
        <time>2015-03-31T16:14:22.000Z</time>
      </trkpt>
      <trkpt lat="43.65827" lon="7.09672">
        <ele>38.599998474121</ele>
        <time>2015-03-31T16:14:25.000Z</time>
      </trkpt>
      <trkpt lat="43.65822" lon="7.0966">
        <ele>37.799999237061</ele>
        <time>2015-03-31T16:14:28.000Z</time>
      </trkpt>
      <trkpt lat="43.65819" lon="7.09649">
        <ele>37</ele>
        <time>2015-03-31T16:14:31.000Z</time>
      </trkpt>
      <trkpt lat="43.65825" lon="7.0964">
        <ele>36.400001525879</ele>
        <time>2015-03-31T16:14:36.000Z</time>
      </trkpt>
      <trkpt lat="43.65832" lon="7.09629">
        <ele>35.599998474121</ele>
        <time>2015-03-31T16:14:40.000Z</time>
      </trkpt>
      <trkpt lat="43.65839" lon="7.09618">
        <ele>35</ele>
        <time>2015-03-31T16:14:43.000Z</time>
      </trkpt>
      <trkpt lat="43.65845" lon="7.09608">
        <ele>33.799999237061</ele>
        <time>2015-03-31T16:14:46.000Z</time>
      </trkpt>
      <trkpt lat="43.65853" lon="7.09601">
        <ele>32.599998474121</ele>
        <time>2015-03-31T16:14:51.000Z</time>
      </trkpt>
      <trkpt lat="43.65859" lon="7.09593">
        <ele>31.39999961853</ele>
        <time>2015-03-31T16:14:58.000Z</time>
      </trkpt>
      <trkpt lat="43.65869" lon="7.09599">
        <ele>30.200000762939</ele>
        <time>2015-03-31T16:15:02.000Z</time>
      </trkpt>
      <trkpt lat="43.65878" lon="7.096">
        <ele>29.799999237061</ele>
        <time>2015-03-31T16:15:05.000Z</time>
      </trkpt>
      <trkpt lat="43.65889" lon="7.09597">
        <ele>29.200000762939</ele>
        <time>2015-03-31T16:15:08.000Z</time>
      </trkpt>
      <trkpt lat="43.65898" lon="7.09596">
        <ele>28.799999237061</ele>
        <time>2015-03-31T16:15:11.000Z</time>
      </trkpt>
      <trkpt lat="43.65907" lon="7.09597">
        <ele>28.39999961853</ele>
        <time>2015-03-31T16:15:17.000Z</time>
      </trkpt>
      <trkpt lat="43.65916" lon="7.09598">
        <ele>27.799999237061</ele>
        <time>2015-03-31T16:15:22.000Z</time>
      </trkpt>
      <trkpt lat="43.65924" lon="7.096">
        <ele>28.39999961853</ele>
        <time>2015-03-31T16:15:27.000Z</time>
      </trkpt>
      <trkpt lat="43.65932" lon="7.09601">
        <ele>28.799999237061</ele>
        <time>2015-03-31T16:15:32.000Z</time>
      </trkpt>
      <trkpt lat="43.6594" lon="7.09605">
        <ele>29.799999237061</ele>
        <time>2015-03-31T16:15:39.000Z</time>
      </trkpt>
      <trkpt lat="43.65948" lon="7.09605">
        <ele>30.60000038147</ele>
        <time>2015-03-31T16:15:53.000Z</time>
      </trkpt>
      <trkpt lat="43.65957" lon="7.09598">
        <ele>31.60000038147</ele>
        <time>2015-03-31T16:15:57.000Z</time>
      </trkpt>
      <trkpt lat="43.65964" lon="7.09591">
        <ele>32.599998474121</ele>
        <time>2015-03-31T16:16:01.000Z</time>
      </trkpt>
      <trkpt lat="43.65971" lon="7.09584">
        <ele>33.400001525879</ele>
        <time>2015-03-31T16:16:05.000Z</time>
      </trkpt>
      <trkpt lat="43.65978" lon="7.09577">
        <ele>34.200000762939</ele>
        <time>2015-03-31T16:16:09.000Z</time>
      </trkpt>
      <trkpt lat="43.65986" lon="7.09571">
        <ele>35.200000762939</ele>
        <time>2015-03-31T16:16:13.000Z</time>
      </trkpt>
      <trkpt lat="43.65996" lon="7.09567">
        <ele>36</ele>
        <time>2015-03-31T16:16:17.000Z</time>
      </trkpt>
      <trkpt lat="43.66004" lon="7.09562">
        <ele>37.799999237061</ele>
        <time>2015-03-31T16:16:21.000Z</time>
      </trkpt>
      <trkpt lat="43.66013" lon="7.09557">
        <ele>38.599998474121</ele>
        <time>2015-03-31T16:16:25.000Z</time>
      </trkpt>
      <trkpt lat="43.66022" lon="7.09552">
        <ele>39.200000762939</ele>
        <time>2015-03-31T16:16:29.000Z</time>
      </trkpt>
      <trkpt lat="43.6603" lon="7.09547">
        <ele>40</ele>
        <time>2015-03-31T16:16:33.000Z</time>
      </trkpt>
      <trkpt lat="43.66037" lon="7.09543">
        <ele>40.599998474121</ele>
        <time>2015-03-31T16:16:37.000Z</time>
      </trkpt>
      <trkpt lat="43.66046" lon="7.09538">
        <ele>41.200000762939</ele>
        <time>2015-03-31T16:16:42.000Z</time>
      </trkpt>
      <trkpt lat="43.66055" lon="7.09533">
        <ele>41.799999237061</ele>
        <time>2015-03-31T16:16:49.000Z</time>
      </trkpt>
      <trkpt lat="43.66064" lon="7.09533">
        <ele>42.599998474121</ele>
        <time>2015-03-31T16:16:51.000Z</time>
      </trkpt>
      <trkpt lat="43.66072" lon="7.09538">
        <ele>43</ele>
        <time>2015-03-31T16:16:55.000Z</time>
      </trkpt>
      <trkpt lat="43.6608" lon="7.09544">
        <ele>43.799999237061</ele>
        <time>2015-03-31T16:16:59.000Z</time>
      </trkpt>
      <trkpt lat="43.66086" lon="7.09551">
        <ele>44.400001525879</ele>
        <time>2015-03-31T16:17:03.000Z</time>
      </trkpt>
      <trkpt lat="43.66092" lon="7.09561">
        <ele>44.200000762939</ele>
        <time>2015-03-31T16:17:08.000Z</time>
      </trkpt>
      <trkpt lat="43.66096" lon="7.09574">
        <ele>44.200000762939</ele>
        <time>2015-03-31T16:17:13.000Z</time>
      </trkpt>
      <trkpt lat="43.66088" lon="7.0958">
        <ele>44.200000762939</ele>
        <time>2015-03-31T16:17:20.000Z</time>
      </trkpt>
      <trkpt lat="43.66095" lon="7.09588">
        <ele>44.200000762939</ele>
        <time>2015-03-31T16:19:00.000Z</time>
      </trkpt>
      <trkpt lat="43.66105" lon="7.09587">
        <ele>44.200000762939</ele>
        <time>2015-03-31T16:19:05.000Z</time>
      </trkpt>
      <trkpt lat="43.66114" lon="7.09584">
        <ele>44.400001525879</ele>
        <time>2015-03-31T16:19:10.000Z</time>
      </trkpt>
      <trkpt lat="43.66123" lon="7.0958">
        <ele>44.599998474121</ele>
        <time>2015-03-31T16:19:14.000Z</time>
      </trkpt>
      <trkpt lat="43.66131" lon="7.09575">
        <ele>44.599998474121</ele>
        <time>2015-03-31T16:19:18.000Z</time>
      </trkpt>
      <trkpt lat="43.6614" lon="7.09569">
        <ele>45.200000762939</ele>
        <time>2015-03-31T16:19:22.000Z</time>
      </trkpt>
      <trkpt lat="43.66149" lon="7.09564">
        <ele>46</ele>
        <time>2015-03-31T16:19:26.000Z</time>
      </trkpt>
      <trkpt lat="43.66157" lon="7.09556">
        <ele>46.799999237061</ele>
        <time>2015-03-31T16:19:30.000Z</time>
      </trkpt>
      <trkpt lat="43.66166" lon="7.09549">
        <ele>47.599998474121</ele>
        <time>2015-03-31T16:19:34.000Z</time>
      </trkpt>
      <trkpt lat="43.66174" lon="7.09543">
        <ele>48.200000762939</ele>
        <time>2015-03-31T16:19:38.000Z</time>
      </trkpt>
      <trkpt lat="43.66184" lon="7.09538">
        <ele>48.799999237061</ele>
        <time>2015-03-31T16:19:43.000Z</time>
      </trkpt>
      <trkpt lat="43.66192" lon="7.09533">
        <ele>49.599998474121</ele>
        <time>2015-03-31T16:19:47.000Z</time>
      </trkpt>
      <trkpt lat="43.662" lon="7.09525">
        <ele>50</ele>
        <time>2015-03-31T16:19:51.000Z</time>
      </trkpt>
      <trkpt lat="43.66205" lon="7.09512">
        <ele>50.799999237061</ele>
        <time>2015-03-31T16:19:55.000Z</time>
      </trkpt>
      <trkpt lat="43.66208" lon="7.09501">
        <ele>51.400001525879</ele>
        <time>2015-03-31T16:19:59.000Z</time>
      </trkpt>
      <trkpt lat="43.66215" lon="7.09493">
        <ele>52</ele>
        <time>2015-03-31T16:20:03.000Z</time>
      </trkpt>
      <trkpt lat="43.66222" lon="7.09488">
        <ele>52.599998474121</ele>
        <time>2015-03-31T16:20:06.000Z</time>
      </trkpt>
      <trkpt lat="43.66231" lon="7.0948">
        <ele>53</ele>
        <time>2015-03-31T16:20:09.000Z</time>
      </trkpt>
      <trkpt lat="43.66239" lon="7.09474">
        <ele>53.599998474121</ele>
        <time>2015-03-31T16:20:12.000Z</time>
      </trkpt>
      <trkpt lat="43.66247" lon="7.09467">
        <ele>54.200000762939</ele>
        <time>2015-03-31T16:20:15.000Z</time>
      </trkpt>
      <trkpt lat="43.66254" lon="7.09461">
        <ele>54.799999237061</ele>
        <time>2015-03-31T16:20:18.000Z</time>
      </trkpt>
      <trkpt lat="43.66262" lon="7.09456">
        <ele>55.599998474121</ele>
        <time>2015-03-31T16:20:21.000Z</time>
      </trkpt>
      <trkpt lat="43.6627" lon="7.09452">
        <ele>56.599998474121</ele>
        <time>2015-03-31T16:20:24.000Z</time>
      </trkpt>
      <trkpt lat="43.66279" lon="7.09446">
        <ele>57.200000762939</ele>
        <time>2015-03-31T16:20:28.000Z</time>
      </trkpt>
      <trkpt lat="43.66287" lon="7.09442">
        <ele>57.799999237061</ele>
        <time>2015-03-31T16:20:31.000Z</time>
      </trkpt>
      <trkpt lat="43.66295" lon="7.09438">
        <ele>58.599998474121</ele>
        <time>2015-03-31T16:20:34.000Z</time>
      </trkpt>
      <trkpt lat="43.66305" lon="7.09434">
        <ele>59</ele>
        <time>2015-03-31T16:20:38.000Z</time>
      </trkpt>
      <trkpt lat="43.66308" lon="7.09446">
        <ele>59.200000762939</ele>
        <time>2015-03-31T16:20:44.000Z</time>
      </trkpt>
      <trkpt lat="43.6631" lon="7.09462">
        <ele>59.200000762939</ele>
        <time>2015-03-31T16:20:47.000Z</time>
      </trkpt>
      <trkpt lat="43.66311" lon="7.09476">
        <ele>59.400001525879</ele>
        <time>2015-03-31T16:20:50.000Z</time>
      </trkpt>
      <trkpt lat="43.66313" lon="7.09488">
        <ele>59.599998474121</ele>
        <time>2015-03-31T16:20:52.000Z</time>
      </trkpt>
      <trkpt lat="43.66314" lon="7.095">
        <ele>59.599998474121</ele>
        <time>2015-03-31T16:20:54.000Z</time>
      </trkpt>
      <trkpt lat="43.66319" lon="7.0951">
        <ele>59.200000762939</ele>
        <time>2015-03-31T16:20:56.000Z</time>
      </trkpt>
      <trkpt lat="43.66323" lon="7.09519">
        <ele>59</ele>
        <time>2015-03-31T16:20:58.000Z</time>
      </trkpt>
      <trkpt lat="43.66327" lon="7.09532">
        <ele>59</ele>
        <time>2015-03-31T16:21:01.000Z</time>
      </trkpt>
      <trkpt lat="43.66328" lon="7.09545">
        <ele>59</ele>
        <time>2015-03-31T16:21:04.000Z</time>
      </trkpt>
      <trkpt lat="43.66329" lon="7.09559">
        <ele>59</ele>
        <time>2015-03-31T16:21:07.000Z</time>
      </trkpt>
      <trkpt lat="43.66328" lon="7.09572">
        <ele>59</ele>
        <time>2015-03-31T16:21:10.000Z</time>
      </trkpt>
      <trkpt lat="43.66326" lon="7.09584">
        <ele>59</ele>
        <time>2015-03-31T16:21:13.000Z</time>
      </trkpt>
      <trkpt lat="43.66325" lon="7.09596">
        <ele>59</ele>
        <time>2015-03-31T16:21:16.000Z</time>
      </trkpt>
      <trkpt lat="43.66335" lon="7.09599">
        <ele>59</ele>
        <time>2015-03-31T16:21:20.000Z</time>
      </trkpt>
      <trkpt lat="43.66343" lon="7.09594">
        <ele>59.799999237061</ele>
        <time>2015-03-31T16:21:23.000Z</time>
      </trkpt>
      <trkpt lat="43.66351" lon="7.09585">
        <ele>60.599998474121</ele>
        <time>2015-03-31T16:21:27.000Z</time>
      </trkpt>
      <trkpt lat="43.66359" lon="7.09579">
        <ele>61.200000762939</ele>
        <time>2015-03-31T16:21:31.000Z</time>
      </trkpt>
      <trkpt lat="43.66369" lon="7.09582">
        <ele>62</ele>
        <time>2015-03-31T16:21:35.000Z</time>
      </trkpt>
      <trkpt lat="43.66376" lon="7.09591">
        <ele>62.599998474121</ele>
        <time>2015-03-31T16:21:39.000Z</time>
      </trkpt>
      <trkpt lat="43.66384" lon="7.09599">
        <ele>63.400001525879</ele>
        <time>2015-03-31T16:21:43.000Z</time>
      </trkpt>
      <trkpt lat="43.66393" lon="7.09596">
        <ele>64</ele>
        <time>2015-03-31T16:21:47.000Z</time>
      </trkpt>
      <trkpt lat="43.664" lon="7.09588">
        <ele>64.800003051758</ele>
        <time>2015-03-31T16:21:51.000Z</time>
      </trkpt>
      <trkpt lat="43.66407" lon="7.09581">
        <ele>65.599998474121</ele>
        <time>2015-03-31T16:21:55.000Z</time>
      </trkpt>
      <trkpt lat="43.66414" lon="7.09573">
        <ele>66.599998474121</ele>
        <time>2015-03-31T16:21:59.000Z</time>
      </trkpt>
      <trkpt lat="43.66421" lon="7.09567">
        <ele>67.400001525879</ele>
        <time>2015-03-31T16:22:04.000Z</time>
      </trkpt>
      <trkpt lat="43.66428" lon="7.09559">
        <ele>67.400001525879</ele>
        <time>2015-03-31T16:22:09.000Z</time>
      </trkpt>
      <trkpt lat="43.66434" lon="7.0955">
        <ele>67.599998474121</ele>
        <time>2015-03-31T16:22:13.000Z</time>
      </trkpt>
      <trkpt lat="43.6644" lon="7.09539">
        <ele>67.599998474121</ele>
        <time>2015-03-31T16:22:17.000Z</time>
      </trkpt>
      <trkpt lat="43.66445" lon="7.09527">
        <ele>67.599998474121</ele>
        <time>2015-03-31T16:22:21.000Z</time>
      </trkpt>
      <trkpt lat="43.66447" lon="7.09513">
        <ele>67.599998474121</ele>
        <time>2015-03-31T16:22:25.000Z</time>
      </trkpt>
      <trkpt lat="43.66445" lon="7.095">
        <ele>67.800003051758</ele>
        <time>2015-03-31T16:22:29.000Z</time>
      </trkpt>
      <trkpt lat="43.66444" lon="7.09488">
        <ele>68</ele>
        <time>2015-03-31T16:22:33.000Z</time>
      </trkpt>
      <trkpt lat="43.66442" lon="7.09472">
        <ele>68</ele>
        <time>2015-03-31T16:22:37.000Z</time>
      </trkpt>
      <trkpt lat="43.66442" lon="7.0946">
        <ele>68</ele>
        <time>2015-03-31T16:22:40.000Z</time>
      </trkpt>
      <trkpt lat="43.66443" lon="7.09445">
        <ele>69.400001525879</ele>
        <time>2015-03-31T16:22:43.000Z</time>
      </trkpt>
      <trkpt lat="43.66451" lon="7.09436">
        <ele>70.599998474121</ele>
        <time>2015-03-31T16:22:46.000Z</time>
      </trkpt>
      <trkpt lat="43.66455" lon="7.09449">
        <ele>72</ele>
        <time>2015-03-31T16:22:48.000Z</time>
      </trkpt>
      <trkpt lat="43.66457" lon="7.09463">
        <ele>73.599998474121</ele>
        <time>2015-03-31T16:22:51.000Z</time>
      </trkpt>
      <trkpt lat="43.66462" lon="7.09474">
        <ele>74.800003051758</ele>
        <time>2015-03-31T16:22:55.000Z</time>
      </trkpt>
      <trkpt lat="43.66466" lon="7.09486">
        <ele>76.199996948242</ele>
        <time>2015-03-31T16:22:59.000Z</time>
      </trkpt>
      <trkpt lat="43.66472" lon="7.09494">
        <ele>77</ele>
        <time>2015-03-31T16:23:04.000Z</time>
      </trkpt>
      <trkpt lat="43.66479" lon="7.09505">
        <ele>77.800003051758</ele>
        <time>2015-03-31T16:23:09.000Z</time>
      </trkpt>
      <trkpt lat="43.66484" lon="7.09516">
        <ele>78.599998474121</ele>
        <time>2015-03-31T16:23:12.000Z</time>
      </trkpt>
      <trkpt lat="43.66488" lon="7.09528">
        <ele>79.599998474121</ele>
        <time>2015-03-31T16:23:15.000Z</time>
      </trkpt>
      <trkpt lat="43.66492" lon="7.0954">
        <ele>80.400001525879</ele>
        <time>2015-03-31T16:23:18.000Z</time>
      </trkpt>
      <trkpt lat="43.66496" lon="7.09552">
        <ele>79.599998474121</ele>
        <time>2015-03-31T16:23:21.000Z</time>
      </trkpt>
      <trkpt lat="43.66502" lon="7.09563">
        <ele>79.199996948242</ele>
        <time>2015-03-31T16:23:24.000Z</time>
      </trkpt>
      <trkpt lat="43.66508" lon="7.09573">
        <ele>79.599998474121</ele>
        <time>2015-03-31T16:23:28.000Z</time>
      </trkpt>
      <trkpt lat="43.66517" lon="7.09575">
        <ele>80.400001525879</ele>
        <time>2015-03-31T16:23:32.000Z</time>
      </trkpt>
      <trkpt lat="43.66525" lon="7.09571">
        <ele>81.400001525879</ele>
        <time>2015-03-31T16:23:36.000Z</time>
      </trkpt>
      <trkpt lat="43.66533" lon="7.09563">
        <ele>82.199996948242</ele>
        <time>2015-03-31T16:23:41.000Z</time>
      </trkpt>
      <trkpt lat="43.6654" lon="7.09556">
        <ele>83.599998474121</ele>
        <time>2015-03-31T16:23:46.000Z</time>
      </trkpt>
      <trkpt lat="43.66547" lon="7.09546">
        <ele>85</ele>
        <time>2015-03-31T16:23:52.000Z</time>
      </trkpt>
      <trkpt lat="43.6655" lon="7.09533">
        <ele>86.599998474121</ele>
        <time>2015-03-31T16:23:57.000Z</time>
      </trkpt>
      <trkpt lat="43.66557" lon="7.09527">
        <ele>88</ele>
        <time>2015-03-31T16:24:01.000Z</time>
      </trkpt>
      <trkpt lat="43.66565" lon="7.09524">
        <ele>89.599998474121</ele>
        <time>2015-03-31T16:24:05.000Z</time>
      </trkpt>
      <trkpt lat="43.66574" lon="7.09523">
        <ele>91</ele>
        <time>2015-03-31T16:24:09.000Z</time>
      </trkpt>
      <trkpt lat="43.66583" lon="7.09522">
        <ele>92.400001525879</ele>
        <time>2015-03-31T16:24:13.000Z</time>
      </trkpt>
      <trkpt lat="43.66592" lon="7.09523">
        <ele>93</ele>
        <time>2015-03-31T16:24:17.000Z</time>
      </trkpt>
      <trkpt lat="43.66601" lon="7.09524">
        <ele>93</ele>
        <time>2015-03-31T16:24:20.000Z</time>
      </trkpt>
      <trkpt lat="43.66609" lon="7.09522">
        <ele>93</ele>
        <time>2015-03-31T16:24:23.000Z</time>
      </trkpt>
      <trkpt lat="43.66614" lon="7.09511">
        <ele>93.400001525879</ele>
        <time>2015-03-31T16:24:27.000Z</time>
      </trkpt>
      <trkpt lat="43.66612" lon="7.095">
        <ele>93.599998474121</ele>
        <time>2015-03-31T16:24:31.000Z</time>
      </trkpt>
      <trkpt lat="43.66606" lon="7.09489">
        <ele>93.800003051758</ele>
        <time>2015-03-31T16:24:36.000Z</time>
      </trkpt>
      <trkpt lat="43.66603" lon="7.09477">
        <ele>94</ele>
        <time>2015-03-31T16:24:41.000Z</time>
      </trkpt>
      <trkpt lat="43.66601" lon="7.09464">
        <ele>94.400001525879</ele>
        <time>2015-03-31T16:24:45.000Z</time>
      </trkpt>
      <trkpt lat="43.666" lon="7.09452">
        <ele>94.599998474121</ele>
        <time>2015-03-31T16:24:49.000Z</time>
      </trkpt>
      <trkpt lat="43.666" lon="7.09439">
        <ele>95.400001525879</ele>
        <time>2015-03-31T16:24:53.000Z</time>
      </trkpt>
      <trkpt lat="43.666" lon="7.09425">
        <ele>96</ele>
        <time>2015-03-31T16:24:57.000Z</time>
      </trkpt>
      <trkpt lat="43.66601" lon="7.09412">
        <ele>96.599998474121</ele>
        <time>2015-03-31T16:25:01.000Z</time>
      </trkpt>
      <trkpt lat="43.66603" lon="7.094">
        <ele>97.199996948242</ele>
        <time>2015-03-31T16:25:05.000Z</time>
      </trkpt>
      <trkpt lat="43.66604" lon="7.09388">
        <ele>97.800003051758</ele>
        <time>2015-03-31T16:25:09.000Z</time>
      </trkpt>
      <trkpt lat="43.66606" lon="7.09376">
        <ele>98.199996948242</ele>
        <time>2015-03-31T16:25:13.000Z</time>
      </trkpt>
      <trkpt lat="43.66607" lon="7.09364">
        <ele>98.599998474121</ele>
        <time>2015-03-31T16:25:17.000Z</time>
      </trkpt>
      <trkpt lat="43.66608" lon="7.09352">
        <ele>99.400001525879</ele>
        <time>2015-03-31T16:25:21.000Z</time>
      </trkpt>
      <trkpt lat="43.66611" lon="7.0934">
        <ele>100.59999847412</ele>
        <time>2015-03-31T16:25:25.000Z</time>
      </trkpt>
      <trkpt lat="43.66614" lon="7.09329">
        <ele>102.19999694824</ele>
        <time>2015-03-31T16:25:29.000Z</time>
      </trkpt>
      <trkpt lat="43.66619" lon="7.09319">
        <ele>103.59999847412</ele>
        <time>2015-03-31T16:25:33.000Z</time>
      </trkpt>
      <trkpt lat="43.66625" lon="7.09308">
        <ele>104.59999847412</ele>
        <time>2015-03-31T16:25:38.000Z</time>
      </trkpt>
      <trkpt lat="43.6663" lon="7.09298">
        <ele>105.80000305176</ele>
        <time>2015-03-31T16:25:43.000Z</time>
      </trkpt>
      <trkpt lat="43.66637" lon="7.09288">
        <ele>107</ele>
        <time>2015-03-31T16:25:48.000Z</time>
      </trkpt>
      <trkpt lat="43.66643" lon="7.09278">
        <ele>108</ele>
        <time>2015-03-31T16:25:53.000Z</time>
      </trkpt>
      <trkpt lat="43.66649" lon="7.09267">
        <ele>109</ele>
        <time>2015-03-31T16:25:58.000Z</time>
      </trkpt>
      <trkpt lat="43.66653" lon="7.09257">
        <ele>110.59999847412</ele>
        <time>2015-03-31T16:26:02.000Z</time>
      </trkpt>
      <trkpt lat="43.66657" lon="7.09247">
        <ele>112.19999694824</ele>
        <time>2015-03-31T16:26:06.000Z</time>
      </trkpt>
      <trkpt lat="43.66661" lon="7.09237">
        <ele>113.40000152588</ele>
        <time>2015-03-31T16:26:10.000Z</time>
      </trkpt>
      <trkpt lat="43.66664" lon="7.09227">
        <ele>113.80000305176</ele>
        <time>2015-03-31T16:26:14.000Z</time>
      </trkpt>
      <trkpt lat="43.66668" lon="7.09215">
        <ele>114.40000152588</ele>
        <time>2015-03-31T16:26:19.000Z</time>
      </trkpt>
      <trkpt lat="43.66673" lon="7.09203">
        <ele>114.59999847412</ele>
        <time>2015-03-31T16:26:24.000Z</time>
      </trkpt>
      <trkpt lat="43.66678" lon="7.09194">
        <ele>116.59999847412</ele>
        <time>2015-03-31T16:26:28.000Z</time>
      </trkpt>
      <trkpt lat="43.66684" lon="7.09186">
        <ele>118.19999694824</ele>
        <time>2015-03-31T16:26:32.000Z</time>
      </trkpt>
      <trkpt lat="43.66689" lon="7.09177">
        <ele>120</ele>
        <time>2015-03-31T16:26:36.000Z</time>
      </trkpt>
      <trkpt lat="43.66696" lon="7.09171">
        <ele>121.59999847412</ele>
        <time>2015-03-31T16:26:40.000Z</time>
      </trkpt>
      <trkpt lat="43.66704" lon="7.09167">
        <ele>123.59999847412</ele>
        <time>2015-03-31T16:26:44.000Z</time>
      </trkpt>
      <trkpt lat="43.66712" lon="7.0916">
        <ele>125</ele>
        <time>2015-03-31T16:26:49.000Z</time>
      </trkpt>
      <trkpt lat="43.66718" lon="7.0915">
        <ele>126.40000152588</ele>
        <time>2015-03-31T16:26:54.000Z</time>
      </trkpt>
      <trkpt lat="43.66722" lon="7.0914">
        <ele>127.59999847412</ele>
        <time>2015-03-31T16:26:58.000Z</time>
      </trkpt>
      <trkpt lat="43.66723" lon="7.09128">
        <ele>129</ele>
        <time>2015-03-31T16:27:02.000Z</time>
      </trkpt>
      <trkpt lat="43.66722" lon="7.09115">
        <ele>130.39999389648</ele>
        <time>2015-03-31T16:27:06.000Z</time>
      </trkpt>
      <trkpt lat="43.66721" lon="7.09101">
        <ele>131.60000610352</ele>
        <time>2015-03-31T16:27:10.000Z</time>
      </trkpt>
      <trkpt lat="43.66723" lon="7.09088">
        <ele>131.60000610352</ele>
        <time>2015-03-31T16:27:14.000Z</time>
      </trkpt>
      <trkpt lat="43.66725" lon="7.09077">
        <ele>131.39999389648</ele>
        <time>2015-03-31T16:27:18.000Z</time>
      </trkpt>
      <trkpt lat="43.66731" lon="7.09067">
        <ele>131.39999389648</ele>
        <time>2015-03-31T16:27:22.000Z</time>
      </trkpt>
      <trkpt lat="43.66735" lon="7.09057">
        <ele>131.19999694824</ele>
        <time>2015-03-31T16:27:26.000Z</time>
      </trkpt>
      <trkpt lat="43.6674" lon="7.09047">
        <ele>130.80000305176</ele>
        <time>2015-03-31T16:27:30.000Z</time>
      </trkpt>
      <trkpt lat="43.66745" lon="7.09036">
        <ele>130.60000610352</ele>
        <time>2015-03-31T16:27:34.000Z</time>
      </trkpt>
      <trkpt lat="43.66752" lon="7.09028">
        <ele>130.60000610352</ele>
        <time>2015-03-31T16:27:38.000Z</time>
      </trkpt>
      <trkpt lat="43.6676" lon="7.09022">
        <ele>131.19999694824</ele>
        <time>2015-03-31T16:27:42.000Z</time>
      </trkpt>
      <trkpt lat="43.66768" lon="7.09017">
        <ele>131.80000305176</ele>
        <time>2015-03-31T16:27:46.000Z</time>
      </trkpt>
      <trkpt lat="43.66776" lon="7.09014">
        <ele>132.60000610352</ele>
        <time>2015-03-31T16:27:50.000Z</time>
      </trkpt>
      <trkpt lat="43.66784" lon="7.0901">
        <ele>133.39999389648</ele>
        <time>2015-03-31T16:27:54.000Z</time>
      </trkpt>
      <trkpt lat="43.66793" lon="7.09006">
        <ele>134.19999694824</ele>
        <time>2015-03-31T16:27:58.000Z</time>
      </trkpt>
      <trkpt lat="43.66801" lon="7.09003">
        <ele>134.80000305176</ele>
        <time>2015-03-31T16:28:02.000Z</time>
      </trkpt>
      <trkpt lat="43.66809" lon="7.09">
        <ele>135.60000610352</ele>
        <time>2015-03-31T16:28:06.000Z</time>
      </trkpt>
      <trkpt lat="43.66818" lon="7.08996">
        <ele>136.60000610352</ele>
        <time>2015-03-31T16:28:10.000Z</time>
      </trkpt>
      <trkpt lat="43.66826" lon="7.08992">
        <ele>137.39999389648</ele>
        <time>2015-03-31T16:28:14.000Z</time>
      </trkpt>
      <trkpt lat="43.66835" lon="7.08987">
        <ele>138.19999694824</ele>
        <time>2015-03-31T16:28:19.000Z</time>
      </trkpt>
      <trkpt lat="43.66842" lon="7.08982">
        <ele>139</ele>
        <time>2015-03-31T16:28:23.000Z</time>
      </trkpt>
      <trkpt lat="43.66848" lon="7.08974">
        <ele>139</ele>
        <time>2015-03-31T16:28:27.000Z</time>
      </trkpt>
      <trkpt lat="43.66853" lon="7.08964">
        <ele>139</ele>
        <time>2015-03-31T16:28:31.000Z</time>
      </trkpt>
      <trkpt lat="43.66858" lon="7.08956">
        <ele>139.39999389648</ele>
        <time>2015-03-31T16:28:35.000Z</time>
      </trkpt>
      <trkpt lat="43.66864" lon="7.08945">
        <ele>139.60000610352</ele>
        <time>2015-03-31T16:28:40.000Z</time>
      </trkpt>
      <trkpt lat="43.6687" lon="7.08937">
        <ele>140.80000305176</ele>
        <time>2015-03-31T16:28:44.000Z</time>
      </trkpt>
      <trkpt lat="43.66875" lon="7.08928">
        <ele>141.80000305176</ele>
        <time>2015-03-31T16:28:48.000Z</time>
      </trkpt>
      <trkpt lat="43.66878" lon="7.08915">
        <ele>143</ele>
        <time>2015-03-31T16:28:53.000Z</time>
      </trkpt>
      <trkpt lat="43.66881" lon="7.08903">
        <ele>144.19999694824</ele>
        <time>2015-03-31T16:28:58.000Z</time>
      </trkpt>
      <trkpt lat="43.66883" lon="7.08892">
        <ele>145.19999694824</ele>
        <time>2015-03-31T16:29:03.000Z</time>
      </trkpt>
      <trkpt lat="43.66887" lon="7.0888">
        <ele>146.39999389648</ele>
        <time>2015-03-31T16:29:09.000Z</time>
      </trkpt>
      <trkpt lat="43.6689" lon="7.08869">
        <ele>147.39999389648</ele>
        <time>2015-03-31T16:29:14.000Z</time>
      </trkpt>
      <trkpt lat="43.66892" lon="7.08856">
        <ele>149.19999694824</ele>
        <time>2015-03-31T16:29:20.000Z</time>
      </trkpt>
      <trkpt lat="43.66894" lon="7.08844">
        <ele>151</ele>
        <time>2015-03-31T16:29:26.000Z</time>
      </trkpt>
      <trkpt lat="43.66897" lon="7.08832">
        <ele>152.60000610352</ele>
        <time>2015-03-31T16:29:32.000Z</time>
      </trkpt>
      <trkpt lat="43.66901" lon="7.08821">
        <ele>153.80000305176</ele>
        <time>2015-03-31T16:29:39.000Z</time>
      </trkpt>
      <trkpt lat="43.66902" lon="7.08808">
        <ele>154.60000610352</ele>
        <time>2015-03-31T16:29:45.000Z</time>
      </trkpt>
      <trkpt lat="43.66903" lon="7.08796">
        <ele>155.39999389648</ele>
        <time>2015-03-31T16:29:50.000Z</time>
      </trkpt>
      <trkpt lat="43.66903" lon="7.08784">
        <ele>156.19999694824</ele>
        <time>2015-03-31T16:29:55.000Z</time>
      </trkpt>
      <trkpt lat="43.66904" lon="7.08772">
        <ele>157.39999389648</ele>
        <time>2015-03-31T16:30:00.000Z</time>
      </trkpt>
      <trkpt lat="43.66903" lon="7.0876">
        <ele>158.60000610352</ele>
        <time>2015-03-31T16:30:05.000Z</time>
      </trkpt>
      <trkpt lat="43.66902" lon="7.08747">
        <ele>159.60000610352</ele>
        <time>2015-03-31T16:30:13.000Z</time>
      </trkpt>
      <trkpt lat="43.669" lon="7.08735">
        <ele>160.80000305176</ele>
        <time>2015-03-31T16:30:19.000Z</time>
      </trkpt>
      <trkpt lat="43.66897" lon="7.08723">
        <ele>161.39999389648</ele>
        <time>2015-03-31T16:30:26.000Z</time>
      </trkpt>
      <trkpt lat="43.66897" lon="7.08711">
        <ele>161.60000610352</ele>
        <time>2015-03-31T16:30:32.000Z</time>
      </trkpt>
      <trkpt lat="43.66895" lon="7.087">
        <ele>162.60000610352</ele>
        <time>2015-03-31T16:30:38.000Z</time>
      </trkpt>
      <trkpt lat="43.66896" lon="7.08688">
        <ele>163.19999694824</ele>
        <time>2015-03-31T16:30:42.000Z</time>
      </trkpt>
      <trkpt lat="43.66897" lon="7.08674">
        <ele>163.80000305176</ele>
        <time>2015-03-31T16:30:46.000Z</time>
      </trkpt>
      <trkpt lat="43.66898" lon="7.0866">
        <ele>164.60000610352</ele>
        <time>2015-03-31T16:30:49.000Z</time>
      </trkpt>
      <trkpt lat="43.66899" lon="7.08646">
        <ele>165.39999389648</ele>
        <time>2015-03-31T16:30:52.000Z</time>
      </trkpt>
      <trkpt lat="43.66901" lon="7.08632">
        <ele>165.60000610352</ele>
        <time>2015-03-31T16:30:55.000Z</time>
      </trkpt>
      <trkpt lat="43.66906" lon="7.08622">
        <ele>165.80000305176</ele>
        <time>2015-03-31T16:31:12.000Z</time>
      </trkpt>
      <trkpt lat="43.66909" lon="7.0861">
        <ele>166.19999694824</ele>
        <time>2015-03-31T16:32:24.000Z</time>
      </trkpt>
      <trkpt lat="43.66908" lon="7.08598">
        <ele>166.80000305176</ele>
        <time>2015-03-31T16:32:27.000Z</time>
      </trkpt>
      <trkpt lat="43.6691" lon="7.08584">
        <ele>167.60000610352</ele>
        <time>2015-03-31T16:32:31.000Z</time>
      </trkpt>
      <trkpt lat="43.66911" lon="7.08571">
        <ele>168.19999694824</ele>
        <time>2015-03-31T16:32:36.000Z</time>
      </trkpt>
      <trkpt lat="43.66908" lon="7.08557">
        <ele>168.60000610352</ele>
        <time>2015-03-31T16:32:40.000Z</time>
      </trkpt>
      <trkpt lat="43.66904" lon="7.08544">
        <ele>168.80000305176</ele>
        <time>2015-03-31T16:32:43.000Z</time>
      </trkpt>
      <trkpt lat="43.66901" lon="7.08532">
        <ele>169.19999694824</ele>
        <time>2015-03-31T16:32:46.000Z</time>
      </trkpt>
      <trkpt lat="43.66896" lon="7.08523">
        <ele>169.60000610352</ele>
        <time>2015-03-31T16:32:49.000Z</time>
      </trkpt>
      <trkpt lat="43.66892" lon="7.08512">
        <ele>170.60000610352</ele>
        <time>2015-03-31T16:32:53.000Z</time>
      </trkpt>
      <trkpt lat="43.66894" lon="7.085">
        <ele>171.60000610352</ele>
        <time>2015-03-31T16:32:59.000Z</time>
      </trkpt>
      <trkpt lat="43.66898" lon="7.08489">
        <ele>172.60000610352</ele>
        <time>2015-03-31T16:33:03.000Z</time>
      </trkpt>
      <trkpt lat="43.66901" lon="7.08478">
        <ele>173.60000610352</ele>
        <time>2015-03-31T16:33:09.000Z</time>
      </trkpt>
      <trkpt lat="43.66898" lon="7.08467">
        <ele>174.80000305176</ele>
        <time>2015-03-31T16:33:14.000Z</time>
      </trkpt>
      <trkpt lat="43.66895" lon="7.08454">
        <ele>176.19999694824</ele>
        <time>2015-03-31T16:33:19.000Z</time>
      </trkpt>
      <trkpt lat="43.66891" lon="7.08444">
        <ele>177.39999389648</ele>
        <time>2015-03-31T16:33:23.000Z</time>
      </trkpt>
      <trkpt lat="43.66886" lon="7.08434">
        <ele>178.60000610352</ele>
        <time>2015-03-31T16:33:27.000Z</time>
      </trkpt>
      <trkpt lat="43.66882" lon="7.08421">
        <ele>179.60000610352</ele>
        <time>2015-03-31T16:33:32.000Z</time>
      </trkpt>
      <trkpt lat="43.66878" lon="7.0841">
        <ele>180.60000610352</ele>
        <time>2015-03-31T16:33:37.000Z</time>
      </trkpt>
      <trkpt lat="43.66873" lon="7.08399">
        <ele>181.60000610352</ele>
        <time>2015-03-31T16:33:42.000Z</time>
      </trkpt>
      <trkpt lat="43.6687" lon="7.08386">
        <ele>182.19999694824</ele>
        <time>2015-03-31T16:33:47.000Z</time>
      </trkpt>
      <trkpt lat="43.66866" lon="7.08374">
        <ele>182.60000610352</ele>
        <time>2015-03-31T16:33:52.000Z</time>
      </trkpt>
      <trkpt lat="43.66862" lon="7.08364">
        <ele>183.19999694824</ele>
        <time>2015-03-31T16:33:57.000Z</time>
      </trkpt>
      <trkpt lat="43.66858" lon="7.08352">
        <ele>183.60000610352</ele>
        <time>2015-03-31T16:34:02.000Z</time>
      </trkpt>
      <trkpt lat="43.66854" lon="7.0834">
        <ele>183.60000610352</ele>
        <time>2015-03-31T16:34:07.000Z</time>
      </trkpt>
      <trkpt lat="43.66853" lon="7.08327">
        <ele>183.60000610352</ele>
        <time>2015-03-31T16:34:12.000Z</time>
      </trkpt>
      <trkpt lat="43.66852" lon="7.08315">
        <ele>183.39999389648</ele>
        <time>2015-03-31T16:34:16.000Z</time>
      </trkpt>
      <trkpt lat="43.66852" lon="7.08303">
        <ele>183.60000610352</ele>
        <time>2015-03-31T16:34:19.000Z</time>
      </trkpt>
      <trkpt lat="43.66852" lon="7.08292">
        <ele>183.39999389648</ele>
        <time>2015-03-31T16:34:22.000Z</time>
      </trkpt>
      <trkpt lat="43.66848" lon="7.08277">
        <ele>183.19999694824</ele>
        <time>2015-03-31T16:34:24.000Z</time>
      </trkpt>
      <trkpt lat="43.66844" lon="7.08264">
        <ele>182.80000305176</ele>
        <time>2015-03-31T16:34:25.000Z</time>
      </trkpt>
      <trkpt lat="43.6684" lon="7.08248">
        <ele>182.60000610352</ele>
        <time>2015-03-31T16:34:27.000Z</time>
      </trkpt>
      <trkpt lat="43.66837" lon="7.0823">
        <ele>182.60000610352</ele>
        <time>2015-03-31T16:34:29.000Z</time>
      </trkpt>
      <trkpt lat="43.66835" lon="7.08212">
        <ele>182.39999389648</ele>
        <time>2015-03-31T16:34:31.000Z</time>
      </trkpt>
      <trkpt lat="43.66833" lon="7.08194">
        <ele>181.80000305176</ele>
        <time>2015-03-31T16:34:33.000Z</time>
      </trkpt>
      <trkpt lat="43.66832" lon="7.08177">
        <ele>181.60000610352</ele>
        <time>2015-03-31T16:34:35.000Z</time>
      </trkpt>
      <trkpt lat="43.66831" lon="7.0816">
        <ele>181.19999694824</ele>
        <time>2015-03-31T16:34:37.000Z</time>
      </trkpt>
      <trkpt lat="43.66829" lon="7.08145">
        <ele>180.80000305176</ele>
        <time>2015-03-31T16:34:39.000Z</time>
      </trkpt>
      <trkpt lat="43.66828" lon="7.0813">
        <ele>180.60000610352</ele>
        <time>2015-03-31T16:34:41.000Z</time>
      </trkpt>
      <trkpt lat="43.66827" lon="7.08117">
        <ele>180.39999389648</ele>
        <time>2015-03-31T16:34:43.000Z</time>
      </trkpt>
      <trkpt lat="43.66826" lon="7.08104">
        <ele>180.60000610352</ele>
        <time>2015-03-31T16:34:45.000Z</time>
      </trkpt>
      <trkpt lat="43.66826" lon="7.08091">
        <ele>180.60000610352</ele>
        <time>2015-03-31T16:34:47.000Z</time>
      </trkpt>
      <trkpt lat="43.66824" lon="7.08076">
        <ele>180.80000305176</ele>
        <time>2015-03-31T16:34:50.000Z</time>
      </trkpt>
      <trkpt lat="43.6682" lon="7.08064">
        <ele>181.19999694824</ele>
        <time>2015-03-31T16:34:53.000Z</time>
      </trkpt>
      <trkpt lat="43.66816" lon="7.08052">
        <ele>181.39999389648</ele>
        <time>2015-03-31T16:34:56.000Z</time>
      </trkpt>
      <trkpt lat="43.66811" lon="7.08039">
        <ele>181.60000610352</ele>
        <time>2015-03-31T16:34:59.000Z</time>
      </trkpt>
      <trkpt lat="43.66808" lon="7.08025">
        <ele>182</ele>
        <time>2015-03-31T16:35:02.000Z</time>
      </trkpt>
      <trkpt lat="43.66806" lon="7.08014">
        <ele>183</ele>
        <time>2015-03-31T16:35:05.000Z</time>
      </trkpt>
      <trkpt lat="43.66803" lon="7.08003">
        <ele>184</ele>
        <time>2015-03-31T16:35:08.000Z</time>
      </trkpt>
      <trkpt lat="43.66802" lon="7.07991">
        <ele>185</ele>
        <time>2015-03-31T16:35:11.000Z</time>
      </trkpt>
      <trkpt lat="43.66801" lon="7.07976">
        <ele>186</ele>
        <time>2015-03-31T16:35:14.000Z</time>
      </trkpt>
      <trkpt lat="43.66799" lon="7.07964">
        <ele>186.19999694824</ele>
        <time>2015-03-31T16:35:16.000Z</time>
      </trkpt>
      <trkpt lat="43.66797" lon="7.07953">
        <ele>186.60000610352</ele>
        <time>2015-03-31T16:35:18.000Z</time>
      </trkpt>
      <trkpt lat="43.66795" lon="7.07937">
        <ele>186.80000305176</ele>
        <time>2015-03-31T16:35:21.000Z</time>
      </trkpt>
      <trkpt lat="43.66795" lon="7.07921">
        <ele>187.19999694824</ele>
        <time>2015-03-31T16:35:25.000Z</time>
      </trkpt>
      <trkpt lat="43.66797" lon="7.07905">
        <ele>187.60000610352</ele>
        <time>2015-03-31T16:35:27.000Z</time>
      </trkpt>
      <trkpt lat="43.668" lon="7.07889">
        <ele>187.80000305176</ele>
        <time>2015-03-31T16:35:30.000Z</time>
      </trkpt>
      <trkpt lat="43.66804" lon="7.07873">
        <ele>188.19999694824</ele>
        <time>2015-03-31T16:35:33.000Z</time>
      </trkpt>
      <trkpt lat="43.66809" lon="7.07859">
        <ele>188.60000610352</ele>
        <time>2015-03-31T16:35:36.000Z</time>
      </trkpt>
      <trkpt lat="43.66814" lon="7.07845">
        <ele>188.80000305176</ele>
        <time>2015-03-31T16:35:39.000Z</time>
      </trkpt>
      <trkpt lat="43.66818" lon="7.07832">
        <ele>189.39999389648</ele>
        <time>2015-03-31T16:35:42.000Z</time>
      </trkpt>
      <trkpt lat="43.66824" lon="7.07819">
        <ele>189.60000610352</ele>
        <time>2015-03-31T16:35:45.000Z</time>
      </trkpt>
      <trkpt lat="43.66829" lon="7.07808">
        <ele>190.60000610352</ele>
        <time>2015-03-31T16:35:48.000Z</time>
      </trkpt>
      <trkpt lat="43.66835" lon="7.07796">
        <ele>191.39999389648</ele>
        <time>2015-03-31T16:35:51.000Z</time>
      </trkpt>
      <trkpt lat="43.66841" lon="7.07785">
        <ele>192.19999694824</ele>
        <time>2015-03-31T16:35:54.000Z</time>
      </trkpt>
      <trkpt lat="43.66846" lon="7.07775">
        <ele>192.80000305176</ele>
        <time>2015-03-31T16:35:57.000Z</time>
      </trkpt>
      <trkpt lat="43.6685" lon="7.07765">
        <ele>194.39999389648</ele>
        <time>2015-03-31T16:36:00.000Z</time>
      </trkpt>
      <trkpt lat="43.66853" lon="7.07755">
        <ele>195.80000305176</ele>
        <time>2015-03-31T16:36:03.000Z</time>
      </trkpt>
      <trkpt lat="43.66859" lon="7.07742">
        <ele>197.39999389648</ele>
        <time>2015-03-31T16:36:07.000Z</time>
      </trkpt>
      <trkpt lat="43.66864" lon="7.07733">
        <ele>198.19999694824</ele>
        <time>2015-03-31T16:36:10.000Z</time>
      </trkpt>
      <trkpt lat="43.6687" lon="7.07725">
        <ele>199</ele>
        <time>2015-03-31T16:36:13.000Z</time>
      </trkpt>
      <trkpt lat="43.66876" lon="7.07718">
        <ele>199.60000610352</ele>
        <time>2015-03-31T16:36:16.000Z</time>
      </trkpt>
      <trkpt lat="43.66882" lon="7.07706">
        <ele>200.60000610352</ele>
        <time>2015-03-31T16:36:20.000Z</time>
      </trkpt>
      <trkpt lat="43.66885" lon="7.07693">
        <ele>201.60000610352</ele>
        <time>2015-03-31T16:36:24.000Z</time>
      </trkpt>
      <trkpt lat="43.66884" lon="7.07679">
        <ele>202.60000610352</ele>
        <time>2015-03-31T16:36:28.000Z</time>
      </trkpt>
      <trkpt lat="43.66882" lon="7.07665">
        <ele>204</ele>
        <time>2015-03-31T16:36:32.000Z</time>
      </trkpt>
      <trkpt lat="43.66879" lon="7.07652">
        <ele>205.39999389648</ele>
        <time>2015-03-31T16:36:36.000Z</time>
      </trkpt>
      <trkpt lat="43.66877" lon="7.07639">
        <ele>205.80000305176</ele>
        <time>2015-03-31T16:36:41.000Z</time>
      </trkpt>
      <trkpt lat="43.66878" lon="7.07625">
        <ele>206.39999389648</ele>
        <time>2015-03-31T16:36:45.000Z</time>
      </trkpt>
      <trkpt lat="43.66883" lon="7.07612">
        <ele>206.60000610352</ele>
        <time>2015-03-31T16:36:49.000Z</time>
      </trkpt>
      <trkpt lat="43.66887" lon="7.07602">
        <ele>207.19999694824</ele>
        <time>2015-03-31T16:36:52.000Z</time>
      </trkpt>
      <trkpt lat="43.66898" lon="7.07588">
        <ele>207.80000305176</ele>
        <time>2015-03-31T16:36:59.000Z</time>
      </trkpt>
      <trkpt lat="43.66906" lon="7.0758">
        <ele>208.60000610352</ele>
        <time>2015-03-31T16:37:02.000Z</time>
      </trkpt>
      <trkpt lat="43.66912" lon="7.07569">
        <ele>209.39999389648</ele>
        <time>2015-03-31T16:37:06.000Z</time>
      </trkpt>
      <trkpt lat="43.66915" lon="7.07556">
        <ele>209.60000610352</ele>
        <time>2015-03-31T16:37:10.000Z</time>
      </trkpt>
      <trkpt lat="43.66913" lon="7.07543">
        <ele>209.80000305176</ele>
        <time>2015-03-31T16:37:14.000Z</time>
      </trkpt>
      <trkpt lat="43.66911" lon="7.07529">
        <ele>209.39999389648</ele>
        <time>2015-03-31T16:37:18.000Z</time>
      </trkpt>
      <trkpt lat="43.66908" lon="7.07515">
        <ele>208.80000305176</ele>
        <time>2015-03-31T16:37:22.000Z</time>
      </trkpt>
      <trkpt lat="43.66907" lon="7.07504">
        <ele>208.39999389648</ele>
        <time>2015-03-31T16:37:25.000Z</time>
      </trkpt>
      <trkpt lat="43.66905" lon="7.07492">
        <ele>207.19999694824</ele>
        <time>2015-03-31T16:37:28.000Z</time>
      </trkpt>
      <trkpt lat="43.66906" lon="7.07475">
        <ele>205.80000305176</ele>
        <time>2015-03-31T16:37:31.000Z</time>
      </trkpt>
      <trkpt lat="43.66902" lon="7.07454">
        <ele>204.60000610352</ele>
        <time>2015-03-31T16:37:33.000Z</time>
      </trkpt>
      <trkpt lat="43.66892" lon="7.07439">
        <ele>203.39999389648</ele>
        <time>2015-03-31T16:37:35.000Z</time>
      </trkpt>
      <trkpt lat="43.66886" lon="7.0743">
        <ele>202</ele>
        <time>2015-03-31T16:37:36.000Z</time>
      </trkpt>
      <trkpt lat="43.66879" lon="7.07422">
        <ele>200.60000610352</ele>
        <time>2015-03-31T16:37:37.000Z</time>
      </trkpt>
      <trkpt lat="43.66872" lon="7.07414">
        <ele>198.80000305176</ele>
        <time>2015-03-31T16:37:38.000Z</time>
      </trkpt>
      <trkpt lat="43.66864" lon="7.07404">
        <ele>197.39999389648</ele>
        <time>2015-03-31T16:37:39.000Z</time>
      </trkpt>
      <trkpt lat="43.66857" lon="7.07394">
        <ele>196.60000610352</ele>
        <time>2015-03-31T16:37:40.000Z</time>
      </trkpt>
      <trkpt lat="43.66849" lon="7.07384">
        <ele>195.60000610352</ele>
        <time>2015-03-31T16:37:41.000Z</time>
      </trkpt>
      <trkpt lat="43.6684" lon="7.07375">
        <ele>194.80000305176</ele>
        <time>2015-03-31T16:37:42.000Z</time>
      </trkpt>
      <trkpt lat="43.66832" lon="7.07365">
        <ele>194.19999694824</ele>
        <time>2015-03-31T16:37:43.000Z</time>
      </trkpt>
      <trkpt lat="43.66824" lon="7.07356">
        <ele>193.60000610352</ele>
        <time>2015-03-31T16:37:44.000Z</time>
      </trkpt>
      <trkpt lat="43.66816" lon="7.07346">
        <ele>192.60000610352</ele>
        <time>2015-03-31T16:37:45.000Z</time>
      </trkpt>
      <trkpt lat="43.66808" lon="7.07337">
        <ele>192</ele>
        <time>2015-03-31T16:37:46.000Z</time>
      </trkpt>
      <trkpt lat="43.668" lon="7.07328">
        <ele>191.39999389648</ele>
        <time>2015-03-31T16:37:47.000Z</time>
      </trkpt>
      <trkpt lat="43.66793" lon="7.07318">
        <ele>190.60000610352</ele>
        <time>2015-03-31T16:37:48.000Z</time>
      </trkpt>
      <trkpt lat="43.66785" lon="7.07308">
        <ele>190.19999694824</ele>
        <time>2015-03-31T16:37:49.000Z</time>
      </trkpt>
      <trkpt lat="43.66778" lon="7.07299">
        <ele>189.60000610352</ele>
        <time>2015-03-31T16:37:50.000Z</time>
      </trkpt>
      <trkpt lat="43.6677" lon="7.07291">
        <ele>189.19999694824</ele>
        <time>2015-03-31T16:37:51.000Z</time>
      </trkpt>
      <trkpt lat="43.66762" lon="7.07283">
        <ele>188.60000610352</ele>
        <time>2015-03-31T16:37:52.000Z</time>
      </trkpt>
      <trkpt lat="43.66755" lon="7.07273">
        <ele>188</ele>
        <time>2015-03-31T16:37:53.000Z</time>
      </trkpt>
      <trkpt lat="43.66749" lon="7.07264">
        <ele>187.80000305176</ele>
        <time>2015-03-31T16:37:54.000Z</time>
      </trkpt>
      <trkpt lat="43.66742" lon="7.07254">
        <ele>187.60000610352</ele>
        <time>2015-03-31T16:37:55.000Z</time>
      </trkpt>
      <trkpt lat="43.66736" lon="7.07245">
        <ele>187.60000610352</ele>
        <time>2015-03-31T16:37:56.000Z</time>
      </trkpt>
      <trkpt lat="43.66731" lon="7.07236">
        <ele>187.39999389648</ele>
        <time>2015-03-31T16:37:57.000Z</time>
      </trkpt>
      <trkpt lat="43.66725" lon="7.07227">
        <ele>187.60000610352</ele>
        <time>2015-03-31T16:37:58.000Z</time>
      </trkpt>
      <trkpt lat="43.66717" lon="7.0721">
        <ele>187.80000305176</ele>
        <time>2015-03-31T16:38:00.000Z</time>
      </trkpt>
      <trkpt lat="43.66713" lon="7.07192">
        <ele>188.19999694824</ele>
        <time>2015-03-31T16:38:02.000Z</time>
      </trkpt>
      <trkpt lat="43.6671" lon="7.07176">
        <ele>188.39999389648</ele>
        <time>2015-03-31T16:38:04.000Z</time>
      </trkpt>
      <trkpt lat="43.66709" lon="7.0716">
        <ele>188.60000610352</ele>
        <time>2015-03-31T16:38:06.000Z</time>
      </trkpt>
      <trkpt lat="43.66709" lon="7.07143">
        <ele>188.60000610352</ele>
        <time>2015-03-31T16:38:08.000Z</time>
      </trkpt>
      <trkpt lat="43.66707" lon="7.07124">
        <ele>188.80000305176</ele>
        <time>2015-03-31T16:38:10.000Z</time>
      </trkpt>
      <trkpt lat="43.66706" lon="7.07106">
        <ele>189.39999389648</ele>
        <time>2015-03-31T16:38:12.000Z</time>
      </trkpt>
      <trkpt lat="43.66704" lon="7.07089">
        <ele>189.80000305176</ele>
        <time>2015-03-31T16:38:14.000Z</time>
      </trkpt>
      <trkpt lat="43.66701" lon="7.07072">
        <ele>189.80000305176</ele>
        <time>2015-03-31T16:38:16.000Z</time>
      </trkpt>
      <trkpt lat="43.66697" lon="7.0706">
        <ele>190</ele>
        <time>2015-03-31T16:38:18.000Z</time>
      </trkpt>
      <trkpt lat="43.66695" lon="7.07047">
        <ele>189.39999389648</ele>
        <time>2015-03-31T16:38:20.000Z</time>
      </trkpt>
      <trkpt lat="43.66699" lon="7.07037">
        <ele>188.80000305176</ele>
        <time>2015-03-31T16:38:24.000Z</time>
      </trkpt>
      <trkpt lat="43.66708" lon="7.07037">
        <ele>188.39999389648</ele>
        <time>2015-03-31T16:38:26.000Z</time>
      </trkpt>
      <trkpt lat="43.66717" lon="7.07041">
        <ele>187.80000305176</ele>
        <time>2015-03-31T16:38:28.000Z</time>
      </trkpt>
      <trkpt lat="43.66727" lon="7.07047">
        <ele>187.60000610352</ele>
        <time>2015-03-31T16:38:30.000Z</time>
      </trkpt>
      <trkpt lat="43.66736" lon="7.07053">
        <ele>187</ele>
        <time>2015-03-31T16:38:32.000Z</time>
      </trkpt>
      <trkpt lat="43.66746" lon="7.07059">
        <ele>186.60000610352</ele>
        <time>2015-03-31T16:38:34.000Z</time>
      </trkpt>
      <trkpt lat="43.66756" lon="7.07065">
        <ele>185.39999389648</ele>
        <time>2015-03-31T16:38:36.000Z</time>
      </trkpt>
      <trkpt lat="43.66765" lon="7.07069">
        <ele>184.19999694824</ele>
        <time>2015-03-31T16:38:38.000Z</time>
      </trkpt>
      <trkpt lat="43.66773" lon="7.07074">
        <ele>183.60000610352</ele>
        <time>2015-03-31T16:38:40.000Z</time>
      </trkpt>
      <trkpt lat="43.66782" lon="7.07073">
        <ele>182.60000610352</ele>
        <time>2015-03-31T16:38:42.000Z</time>
      </trkpt>
      <trkpt lat="43.66791" lon="7.07065">
        <ele>182.19999694824</ele>
        <time>2015-03-31T16:38:44.000Z</time>
      </trkpt>
      <trkpt lat="43.66799" lon="7.07056">
        <ele>181.60000610352</ele>
        <time>2015-03-31T16:38:46.000Z</time>
      </trkpt>
      <trkpt lat="43.66806" lon="7.07045">
        <ele>181.19999694824</ele>
        <time>2015-03-31T16:38:48.000Z</time>
      </trkpt>
      <trkpt lat="43.66814" lon="7.07033">
        <ele>180.60000610352</ele>
        <time>2015-03-31T16:38:50.000Z</time>
      </trkpt>
      <trkpt lat="43.66823" lon="7.07021">
        <ele>180</ele>
        <time>2015-03-31T16:38:52.000Z</time>
      </trkpt>
      <trkpt lat="43.66834" lon="7.07008">
        <ele>179.60000610352</ele>
        <time>2015-03-31T16:38:54.000Z</time>
      </trkpt>
      <trkpt lat="43.66845" lon="7.06996">
        <ele>178.60000610352</ele>
        <time>2015-03-31T16:38:56.000Z</time>
      </trkpt>
      <trkpt lat="43.66856" lon="7.06986">
        <ele>178.60000610352</ele>
        <time>2015-03-31T16:38:58.000Z</time>
      </trkpt>
      <trkpt lat="43.66864" lon="7.06979">
        <ele>178.19999694824</ele>
        <time>2015-03-31T16:39:00.000Z</time>
      </trkpt>
      <trkpt lat="43.66872" lon="7.06972">
        <ele>177.80000305176</ele>
        <time>2015-03-31T16:39:02.000Z</time>
      </trkpt>
      <trkpt lat="43.6688" lon="7.06964">
        <ele>177.60000610352</ele>
        <time>2015-03-31T16:39:04.000Z</time>
      </trkpt>
      <trkpt lat="43.66887" lon="7.06955">
        <ele>177.39999389648</ele>
        <time>2015-03-31T16:39:06.000Z</time>
      </trkpt>
      <trkpt lat="43.66892" lon="7.06943">
        <ele>177</ele>
        <time>2015-03-31T16:39:08.000Z</time>
      </trkpt>
      <trkpt lat="43.66897" lon="7.06929">
        <ele>176.60000610352</ele>
        <time>2015-03-31T16:39:10.000Z</time>
      </trkpt>
      <trkpt lat="43.66901" lon="7.06915">
        <ele>176.39999389648</ele>
        <time>2015-03-31T16:39:12.000Z</time>
      </trkpt>
      <trkpt lat="43.66902" lon="7.06901">
        <ele>175.80000305176</ele>
        <time>2015-03-31T16:39:14.000Z</time>
      </trkpt>
      <trkpt lat="43.66902" lon="7.06886">
        <ele>175.60000610352</ele>
        <time>2015-03-31T16:39:16.000Z</time>
      </trkpt>
      <trkpt lat="43.66899" lon="7.06871">
        <ele>175.60000610352</ele>
        <time>2015-03-31T16:39:18.000Z</time>
      </trkpt>
      <trkpt lat="43.66903" lon="7.06857">
        <ele>175.39999389648</ele>
        <time>2015-03-31T16:39:20.000Z</time>
      </trkpt>
      <trkpt lat="43.66914" lon="7.06852">
        <ele>175</ele>
        <time>2015-03-31T16:39:22.000Z</time>
      </trkpt>
      <trkpt lat="43.66925" lon="7.06852">
        <ele>174.60000610352</ele>
        <time>2015-03-31T16:39:24.000Z</time>
      </trkpt>
      <trkpt lat="43.66935" lon="7.06853">
        <ele>174.39999389648</ele>
        <time>2015-03-31T16:39:26.000Z</time>
      </trkpt>
      <trkpt lat="43.66946" lon="7.06852">
        <ele>173.80000305176</ele>
        <time>2015-03-31T16:39:28.000Z</time>
      </trkpt>
      <trkpt lat="43.66956" lon="7.06842">
        <ele>173.60000610352</ele>
        <time>2015-03-31T16:39:30.000Z</time>
      </trkpt>
      <trkpt lat="43.66969" lon="7.06832">
        <ele>173.60000610352</ele>
        <time>2015-03-31T16:39:32.000Z</time>
      </trkpt>
      <trkpt lat="43.66979" lon="7.06825">
        <ele>173.39999389648</ele>
        <time>2015-03-31T16:39:34.000Z</time>
      </trkpt>
      <trkpt lat="43.66985" lon="7.06816">
        <ele>173.19999694824</ele>
        <time>2015-03-31T16:39:36.000Z</time>
      </trkpt>
      <trkpt lat="43.66985" lon="7.06804">
        <ele>173</ele>
        <time>2015-03-31T16:39:38.000Z</time>
      </trkpt>
      <trkpt lat="43.66985" lon="7.06788">
        <ele>172.80000305176</ele>
        <time>2015-03-31T16:39:42.000Z</time>
      </trkpt>
      <trkpt lat="43.66988" lon="7.06777">
        <ele>172.60000610352</ele>
        <time>2015-03-31T16:39:43.000Z</time>
      </trkpt>
      <trkpt lat="43.66997" lon="7.06774">
        <ele>172.60000610352</ele>
        <time>2015-03-31T16:39:45.000Z</time>
      </trkpt>
      <trkpt lat="43.67006" lon="7.06772">
        <ele>172.60000610352</ele>
        <time>2015-03-31T16:39:47.000Z</time>
      </trkpt>
      <trkpt lat="43.67014" lon="7.06772">
        <ele>172.60000610352</ele>
        <time>2015-03-31T16:39:49.000Z</time>
      </trkpt>
      <trkpt lat="43.67026" lon="7.0677">
        <ele>172.60000610352</ele>
        <time>2015-03-31T16:39:52.000Z</time>
      </trkpt>
      <trkpt lat="43.67035" lon="7.06771">
        <ele>172.60000610352</ele>
        <time>2015-03-31T16:39:54.000Z</time>
      </trkpt>
      <trkpt lat="43.67044" lon="7.0677">
        <ele>172.60000610352</ele>
        <time>2015-03-31T16:39:56.000Z</time>
      </trkpt>
      <trkpt lat="43.67052" lon="7.0677">
        <ele>172.60000610352</ele>
        <time>2015-03-31T16:39:58.000Z</time>
      </trkpt>
      <trkpt lat="43.67062" lon="7.0677">
        <ele>172.39999389648</ele>
        <time>2015-03-31T16:40:00.000Z</time>
      </trkpt>
      <trkpt lat="43.67072" lon="7.06772">
        <ele>172.60000610352</ele>
        <time>2015-03-31T16:40:02.000Z</time>
      </trkpt>
      <trkpt lat="43.67084" lon="7.06772">
        <ele>172.60000610352</ele>
        <time>2015-03-31T16:40:04.000Z</time>
      </trkpt>
      <trkpt lat="43.67096" lon="7.06774">
        <ele>172.60000610352</ele>
        <time>2015-03-31T16:40:06.000Z</time>
      </trkpt>
      <trkpt lat="43.67108" lon="7.06774">
        <ele>172.60000610352</ele>
        <time>2015-03-31T16:40:08.000Z</time>
      </trkpt>
      <trkpt lat="43.67118" lon="7.06776">
        <ele>172.80000305176</ele>
        <time>2015-03-31T16:40:10.000Z</time>
      </trkpt>
      <trkpt lat="43.67128" lon="7.06777">
        <ele>173.19999694824</ele>
        <time>2015-03-31T16:40:12.000Z</time>
      </trkpt>
      <trkpt lat="43.67139" lon="7.06777">
        <ele>173.39999389648</ele>
        <time>2015-03-31T16:40:14.000Z</time>
      </trkpt>
      <trkpt lat="43.67149" lon="7.06775">
        <ele>173.60000610352</ele>
        <time>2015-03-31T16:40:16.000Z</time>
      </trkpt>
      <trkpt lat="43.67158" lon="7.06771">
        <ele>173.60000610352</ele>
        <time>2015-03-31T16:40:18.000Z</time>
      </trkpt>
      <trkpt lat="43.67165" lon="7.06767">
        <ele>174.80000305176</ele>
        <time>2015-03-31T16:40:20.000Z</time>
      </trkpt>
      <trkpt lat="43.67175" lon="7.06761">
        <ele>176</ele>
        <time>2015-03-31T16:40:23.000Z</time>
      </trkpt>
      <trkpt lat="43.67184" lon="7.06758">
        <ele>177</ele>
        <time>2015-03-31T16:40:27.000Z</time>
      </trkpt>
      <trkpt lat="43.67193" lon="7.06757">
        <ele>178</ele>
        <time>2015-03-31T16:40:32.000Z</time>
      </trkpt>
      <trkpt lat="43.67202" lon="7.06757">
        <ele>179</ele>
        <time>2015-03-31T16:40:36.000Z</time>
      </trkpt>
      <trkpt lat="43.67211" lon="7.06757">
        <ele>180</ele>
        <time>2015-03-31T16:40:40.000Z</time>
      </trkpt>
      <trkpt lat="43.67219" lon="7.06757">
        <ele>181</ele>
        <time>2015-03-31T16:40:44.000Z</time>
      </trkpt>
      <trkpt lat="43.67229" lon="7.06759">
        <ele>182</ele>
        <time>2015-03-31T16:40:49.000Z</time>
      </trkpt>
      <trkpt lat="43.67237" lon="7.06756">
        <ele>183</ele>
        <time>2015-03-31T16:40:53.000Z</time>
      </trkpt>
      <trkpt lat="43.67247" lon="7.06758">
        <ele>184</ele>
        <time>2015-03-31T16:40:58.000Z</time>
      </trkpt>
      <trkpt lat="43.67257" lon="7.06761">
        <ele>185.60000610352</ele>
        <time>2015-03-31T16:41:03.000Z</time>
      </trkpt>
      <trkpt lat="43.67266" lon="7.06767">
        <ele>186.39999389648</ele>
        <time>2015-03-31T16:41:08.000Z</time>
      </trkpt>
      <trkpt lat="43.67275" lon="7.0677">
        <ele>186.80000305176</ele>
        <time>2015-03-31T16:41:13.000Z</time>
      </trkpt>
      <trkpt lat="43.67285" lon="7.06774">
        <ele>187.60000610352</ele>
        <time>2015-03-31T16:41:18.000Z</time>
      </trkpt>
      <trkpt lat="43.67294" lon="7.06776">
        <ele>188.19999694824</ele>
        <time>2015-03-31T16:41:23.000Z</time>
      </trkpt>
      <trkpt lat="43.67303" lon="7.06777">
        <ele>188.80000305176</ele>
        <time>2015-03-31T16:41:27.000Z</time>
      </trkpt>
      <trkpt lat="43.67311" lon="7.06775">
        <ele>189.60000610352</ele>
        <time>2015-03-31T16:41:31.000Z</time>
      </trkpt>
      <trkpt lat="43.67321" lon="7.06773">
        <ele>190.19999694824</ele>
        <time>2015-03-31T16:41:36.000Z</time>
      </trkpt>
      <trkpt lat="43.6733" lon="7.06771">
        <ele>190.60000610352</ele>
        <time>2015-03-31T16:41:40.000Z</time>
      </trkpt>
      <trkpt lat="43.67338" lon="7.06768">
        <ele>191.39999389648</ele>
        <time>2015-03-31T16:41:43.000Z</time>
      </trkpt>
      <trkpt lat="43.67346" lon="7.06765">
        <ele>191.60000610352</ele>
        <time>2015-03-31T16:41:46.000Z</time>
      </trkpt>
      <trkpt lat="43.67354" lon="7.06759">
        <ele>191.60000610352</ele>
        <time>2015-03-31T16:41:49.000Z</time>
      </trkpt>
      <trkpt lat="43.67361" lon="7.06753">
        <ele>192.39999389648</ele>
        <time>2015-03-31T16:41:52.000Z</time>
      </trkpt>
      <trkpt lat="43.6737" lon="7.06746">
        <ele>193.19999694824</ele>
        <time>2015-03-31T16:41:56.000Z</time>
      </trkpt>
      <trkpt lat="43.67379" lon="7.06739">
        <ele>193.80000305176</ele>
        <time>2015-03-31T16:42:00.000Z</time>
      </trkpt>
      <trkpt lat="43.67389" lon="7.06732">
        <ele>194.60000610352</ele>
        <time>2015-03-31T16:42:04.000Z</time>
      </trkpt>
      <trkpt lat="43.67397" lon="7.06723">
        <ele>195.60000610352</ele>
        <time>2015-03-31T16:42:08.000Z</time>
      </trkpt>
      <trkpt lat="43.67403" lon="7.06715">
        <ele>196.39999389648</ele>
        <time>2015-03-31T16:42:11.000Z</time>
      </trkpt>
      <trkpt lat="43.67411" lon="7.06709">
        <ele>197.19999694824</ele>
        <time>2015-03-31T16:42:14.000Z</time>
      </trkpt>
      <trkpt lat="43.67417" lon="7.06702">
        <ele>198</ele>
        <time>2015-03-31T16:42:17.000Z</time>
      </trkpt>
      <trkpt lat="43.67424" lon="7.06695">
        <ele>198.80000305176</ele>
        <time>2015-03-31T16:42:20.000Z</time>
      </trkpt>
      <trkpt lat="43.67431" lon="7.06688">
        <ele>199.80000305176</ele>
        <time>2015-03-31T16:42:23.000Z</time>
      </trkpt>
      <trkpt lat="43.67437" lon="7.06679">
        <ele>200.80000305176</ele>
        <time>2015-03-31T16:42:26.000Z</time>
      </trkpt>
      <trkpt lat="43.67443" lon="7.0667">
        <ele>200.60000610352</ele>
        <time>2015-03-31T16:42:29.000Z</time>
      </trkpt>
      <trkpt lat="43.67451" lon="7.06662">
        <ele>201</ele>
        <time>2015-03-31T16:42:33.000Z</time>
      </trkpt>
      <trkpt lat="43.6746" lon="7.06657">
        <ele>201.39999389648</ele>
        <time>2015-03-31T16:42:38.000Z</time>
      </trkpt>
      <trkpt lat="43.67468" lon="7.0665">
        <ele>201.60000610352</ele>
        <time>2015-03-31T16:42:43.000Z</time>
      </trkpt>
      <trkpt lat="43.67477" lon="7.06645">
        <ele>201.80000305176</ele>
        <time>2015-03-31T16:42:48.000Z</time>
      </trkpt>
      <trkpt lat="43.67485" lon="7.06639">
        <ele>202.19999694824</ele>
        <time>2015-03-31T16:42:53.000Z</time>
      </trkpt>
      <trkpt lat="43.67493" lon="7.06633">
        <ele>202.39999389648</ele>
        <time>2015-03-31T16:42:58.000Z</time>
      </trkpt>
      <trkpt lat="43.67502" lon="7.06629">
        <ele>202.60000610352</ele>
        <time>2015-03-31T16:43:04.000Z</time>
      </trkpt>
      <trkpt lat="43.6751" lon="7.06626">
        <ele>203.60000610352</ele>
        <time>2015-03-31T16:43:10.000Z</time>
      </trkpt>
      <trkpt lat="43.67518" lon="7.0662">
        <ele>204.80000305176</ele>
        <time>2015-03-31T16:43:16.000Z</time>
      </trkpt>
      <trkpt lat="43.67527" lon="7.06621">
        <ele>206.19999694824</ele>
        <time>2015-03-31T16:43:21.000Z</time>
      </trkpt>
      <trkpt lat="43.67536" lon="7.06621">
        <ele>207.39999389648</ele>
        <time>2015-03-31T16:43:27.000Z</time>
      </trkpt>
      <trkpt lat="43.67544" lon="7.06619">
        <ele>208.19999694824</ele>
        <time>2015-03-31T16:43:34.000Z</time>
      </trkpt>
      <trkpt lat="43.67553" lon="7.06616">
        <ele>208.80000305176</ele>
        <time>2015-03-31T16:43:41.000Z</time>
      </trkpt>
      <trkpt lat="43.67562" lon="7.06613">
        <ele>209.60000610352</ele>
        <time>2015-03-31T16:43:49.000Z</time>
      </trkpt>
      <trkpt lat="43.6757" lon="7.06609">
        <ele>210.60000610352</ele>
        <time>2015-03-31T16:43:56.000Z</time>
      </trkpt>
      <trkpt lat="43.67578" lon="7.06608">
        <ele>211.39999389648</ele>
        <time>2015-03-31T16:44:03.000Z</time>
      </trkpt>
      <trkpt lat="43.67587" lon="7.06605">
        <ele>212.19999694824</ele>
        <time>2015-03-31T16:44:09.000Z</time>
      </trkpt>
      <trkpt lat="43.67595" lon="7.066">
        <ele>213</ele>
        <time>2015-03-31T16:44:15.000Z</time>
      </trkpt>
      <trkpt lat="43.67602" lon="7.06592">
        <ele>213.19999694824</ele>
        <time>2015-03-31T16:44:20.000Z</time>
      </trkpt>
      <trkpt lat="43.67606" lon="7.0658">
        <ele>214.39999389648</ele>
        <time>2015-03-31T16:44:25.000Z</time>
      </trkpt>
      <trkpt lat="43.6761" lon="7.06568">
        <ele>215.39999389648</ele>
        <time>2015-03-31T16:44:30.000Z</time>
      </trkpt>
      <trkpt lat="43.67615" lon="7.06556">
        <ele>216.60000610352</ele>
        <time>2015-03-31T16:44:35.000Z</time>
      </trkpt>
      <trkpt lat="43.67619" lon="7.06546">
        <ele>217.60000610352</ele>
        <time>2015-03-31T16:44:39.000Z</time>
      </trkpt>
      <trkpt lat="43.67624" lon="7.06535">
        <ele>218.60000610352</ele>
        <time>2015-03-31T16:44:43.000Z</time>
      </trkpt>
      <trkpt lat="43.67627" lon="7.06522">
        <ele>218.80000305176</ele>
        <time>2015-03-31T16:44:48.000Z</time>
      </trkpt>
      <trkpt lat="43.67629" lon="7.0651">
        <ele>220.60000610352</ele>
        <time>2015-03-31T16:44:52.000Z</time>
      </trkpt>
      <trkpt lat="43.6763" lon="7.06498">
        <ele>222.19999694824</ele>
        <time>2015-03-31T16:44:56.000Z</time>
      </trkpt>
      <trkpt lat="43.6763" lon="7.06486">
        <ele>223.60000610352</ele>
        <time>2015-03-31T16:45:00.000Z</time>
      </trkpt>
      <trkpt lat="43.67629" lon="7.06475">
        <ele>225.39999389648</ele>
        <time>2015-03-31T16:45:04.000Z</time>
      </trkpt>
      <trkpt lat="43.67627" lon="7.06464">
        <ele>226.80000305176</ele>
        <time>2015-03-31T16:45:08.000Z</time>
      </trkpt>
      <trkpt lat="43.67628" lon="7.0645">
        <ele>227.39999389648</ele>
        <time>2015-03-31T16:45:13.000Z</time>
      </trkpt>
      <trkpt lat="43.67632" lon="7.0644">
        <ele>228.60000610352</ele>
        <time>2015-03-31T16:45:17.000Z</time>
      </trkpt>
      <trkpt lat="43.67635" lon="7.0643">
        <ele>229.60000610352</ele>
        <time>2015-03-31T16:45:21.000Z</time>
      </trkpt>
      <trkpt lat="43.67638" lon="7.06417">
        <ele>230.60000610352</ele>
        <time>2015-03-31T16:45:27.000Z</time>
      </trkpt>
      <trkpt lat="43.6764" lon="7.06404">
        <ele>231.60000610352</ele>
        <time>2015-03-31T16:45:32.000Z</time>
      </trkpt>
      <trkpt lat="43.67639" lon="7.06391">
        <ele>233.60000610352</ele>
        <time>2015-03-31T16:45:37.000Z</time>
      </trkpt>
      <trkpt lat="43.67638" lon="7.06378">
        <ele>234.39999389648</ele>
        <time>2015-03-31T16:45:42.000Z</time>
      </trkpt>
      <trkpt lat="43.67638" lon="7.06365">
        <ele>234.80000305176</ele>
        <time>2015-03-31T16:45:47.000Z</time>
      </trkpt>
      <trkpt lat="43.67637" lon="7.06352">
        <ele>235.60000610352</ele>
        <time>2015-03-31T16:45:52.000Z</time>
      </trkpt>
      <trkpt lat="43.67636" lon="7.06338">
        <ele>236.19999694824</ele>
        <time>2015-03-31T16:45:57.000Z</time>
      </trkpt>
      <trkpt lat="43.67635" lon="7.06324">
        <ele>236.60000610352</ele>
        <time>2015-03-31T16:46:01.000Z</time>
      </trkpt>
      <trkpt lat="43.67634" lon="7.06311">
        <ele>237.39999389648</ele>
        <time>2015-03-31T16:46:05.000Z</time>
      </trkpt>
      <trkpt lat="43.67632" lon="7.06299">
        <ele>237.60000610352</ele>
        <time>2015-03-31T16:46:09.000Z</time>
      </trkpt>
      <trkpt lat="43.67628" lon="7.06287">
        <ele>237.60000610352</ele>
        <time>2015-03-31T16:46:16.000Z</time>
      </trkpt>
      <trkpt lat="43.67629" lon="7.06276">
        <ele>237.60000610352</ele>
        <time>2015-03-31T16:46:25.000Z</time>
      </trkpt>
      <trkpt lat="43.67632" lon="7.06264">
        <ele>237.60000610352</ele>
        <time>2015-03-31T16:46:37.000Z</time>
      </trkpt>
      <trkpt lat="43.67638" lon="7.06256">
        <ele>237.60000610352</ele>
        <time>2015-03-31T16:46:45.000Z</time>
      </trkpt>
      <trkpt lat="43.67643" lon="7.06245">
        <ele>237.60000610352</ele>
        <time>2015-03-31T16:46:52.000Z</time>
      </trkpt>
      <trkpt lat="43.67648" lon="7.06232">
        <ele>237.60000610352</ele>
        <time>2015-03-31T16:46:55.000Z</time>
      </trkpt>
      <trkpt lat="43.67653" lon="7.06221">
        <ele>237.60000610352</ele>
        <time>2015-03-31T16:46:58.000Z</time>
      </trkpt>
      <trkpt lat="43.6766" lon="7.062">
        <ele>237.60000610352</ele>
        <time>2015-03-31T16:47:02.000Z</time>
      </trkpt>
      <trkpt lat="43.67663" lon="7.06188">
        <ele>237.39999389648</ele>
        <time>2015-03-31T16:47:04.000Z</time>
      </trkpt>
      <trkpt lat="43.67665" lon="7.06176">
        <ele>237.39999389648</ele>
        <time>2015-03-31T16:47:06.000Z</time>
      </trkpt>
      <trkpt lat="43.67669" lon="7.06166">
        <ele>237.19999694824</ele>
        <time>2015-03-31T16:47:08.000Z</time>
      </trkpt>
      <trkpt lat="43.67673" lon="7.06155">
        <ele>237.19999694824</ele>
        <time>2015-03-31T16:47:10.000Z</time>
      </trkpt>
      <trkpt lat="43.67678" lon="7.0614">
        <ele>237</ele>
        <time>2015-03-31T16:47:12.000Z</time>
      </trkpt>
      <trkpt lat="43.67681" lon="7.06127">
        <ele>237.39999389648</ele>
        <time>2015-03-31T16:47:14.000Z</time>
      </trkpt>
      <trkpt lat="43.67685" lon="7.06112">
        <ele>237.60000610352</ele>
        <time>2015-03-31T16:47:16.000Z</time>
      </trkpt>
      <trkpt lat="43.67687" lon="7.06096">
        <ele>238.19999694824</ele>
        <time>2015-03-31T16:47:18.000Z</time>
      </trkpt>
      <trkpt lat="43.67691" lon="7.06078">
        <ele>238.60000610352</ele>
        <time>2015-03-31T16:47:20.000Z</time>
      </trkpt>
      <trkpt lat="43.67696" lon="7.0606">
        <ele>238.39999389648</ele>
        <time>2015-03-31T16:47:22.000Z</time>
      </trkpt>
      <trkpt lat="43.677" lon="7.06044">
        <ele>238.39999389648</ele>
        <time>2015-03-31T16:47:24.000Z</time>
      </trkpt>
      <trkpt lat="43.67704" lon="7.06028">
        <ele>238.19999694824</ele>
        <time>2015-03-31T16:47:26.000Z</time>
      </trkpt>
      <trkpt lat="43.67706" lon="7.06013">
        <ele>238.19999694824</ele>
        <time>2015-03-31T16:47:28.000Z</time>
      </trkpt>
      <trkpt lat="43.67709" lon="7.06002">
        <ele>238</ele>
        <time>2015-03-31T16:47:32.000Z</time>
      </trkpt>
      <trkpt lat="43.67717" lon="7.05993">
        <ele>237.80000305176</ele>
        <time>2015-03-31T16:47:55.000Z</time>
      </trkpt>
      <trkpt lat="43.67726" lon="7.05988">
        <ele>237.80000305176</ele>
        <time>2015-03-31T16:47:58.000Z</time>
      </trkpt>
      <trkpt lat="43.67735" lon="7.05993">
        <ele>237.39999389648</ele>
        <time>2015-03-31T16:48:01.000Z</time>
      </trkpt>
      <trkpt lat="43.67745" lon="7.05991">
        <ele>236.80000305176</ele>
        <time>2015-03-31T16:48:04.000Z</time>
      </trkpt>
      <trkpt lat="43.67752" lon="7.05985">
        <ele>236.60000610352</ele>
        <time>2015-03-31T16:48:06.000Z</time>
      </trkpt>
      <trkpt lat="43.67761" lon="7.05984">
        <ele>235.80000305176</ele>
        <time>2015-03-31T16:48:08.000Z</time>
      </trkpt>
      <trkpt lat="43.6777" lon="7.05985">
        <ele>235.60000610352</ele>
        <time>2015-03-31T16:48:10.000Z</time>
      </trkpt>
      <trkpt lat="43.67778" lon="7.0598">
        <ele>235.39999389648</ele>
        <time>2015-03-31T16:48:12.000Z</time>
      </trkpt>
      <trkpt lat="43.67786" lon="7.05971">
        <ele>235</ele>
        <time>2015-03-31T16:48:14.000Z</time>
      </trkpt>
      <trkpt lat="43.67795" lon="7.05967">
        <ele>234.60000610352</ele>
        <time>2015-03-31T16:48:16.000Z</time>
      </trkpt>
      <trkpt lat="43.67804" lon="7.05962">
        <ele>234.60000610352</ele>
        <time>2015-03-31T16:48:18.000Z</time>
      </trkpt>
      <trkpt lat="43.67814" lon="7.05956">
        <ele>234.19999694824</ele>
        <time>2015-03-31T16:48:20.000Z</time>
      </trkpt>
      <trkpt lat="43.67823" lon="7.05949">
        <ele>233.80000305176</ele>
        <time>2015-03-31T16:48:22.000Z</time>
      </trkpt>
      <trkpt lat="43.67832" lon="7.05948">
        <ele>233.60000610352</ele>
        <time>2015-03-31T16:48:24.000Z</time>
      </trkpt>
      <trkpt lat="43.67841" lon="7.0595">
        <ele>232.80000305176</ele>
        <time>2015-03-31T16:48:26.000Z</time>
      </trkpt>
      <trkpt lat="43.67849" lon="7.05951">
        <ele>232.19999694824</ele>
        <time>2015-03-31T16:48:28.000Z</time>
      </trkpt>
      <trkpt lat="43.67858" lon="7.05953">
        <ele>231.60000610352</ele>
        <time>2015-03-31T16:48:30.000Z</time>
      </trkpt>
      <trkpt lat="43.67867" lon="7.0595">
        <ele>231.19999694824</ele>
        <time>2015-03-31T16:48:32.000Z</time>
      </trkpt>
      <trkpt lat="43.67875" lon="7.05944">
        <ele>230.60000610352</ele>
        <time>2015-03-31T16:48:34.000Z</time>
      </trkpt>
      <trkpt lat="43.67884" lon="7.05937">
        <ele>230.39999389648</ele>
        <time>2015-03-31T16:48:36.000Z</time>
      </trkpt>
      <trkpt lat="43.67893" lon="7.05927">
        <ele>229.80000305176</ele>
        <time>2015-03-31T16:48:38.000Z</time>
      </trkpt>
      <trkpt lat="43.67903" lon="7.05918">
        <ele>229.39999389648</ele>
        <time>2015-03-31T16:48:40.000Z</time>
      </trkpt>
      <trkpt lat="43.67912" lon="7.05909">
        <ele>228.80000305176</ele>
        <time>2015-03-31T16:48:42.000Z</time>
      </trkpt>
      <trkpt lat="43.67921" lon="7.05903">
        <ele>228.60000610352</ele>
        <time>2015-03-31T16:48:44.000Z</time>
      </trkpt>
      <trkpt lat="43.67929" lon="7.05898">
        <ele>228</ele>
        <time>2015-03-31T16:48:47.000Z</time>
      </trkpt>
      <trkpt lat="43.67933" lon="7.0591">
        <ele>228.60000610352</ele>
        <time>2015-03-31T16:48:51.000Z</time>
      </trkpt>
      <trkpt lat="43.67939" lon="7.05922">
        <ele>228.80000305176</ele>
        <time>2015-03-31T16:48:54.000Z</time>
      </trkpt>
      <trkpt lat="43.67941" lon="7.05939">
        <ele>229.39999389648</ele>
        <time>2015-03-31T16:48:57.000Z</time>
      </trkpt>
      <trkpt lat="43.67943" lon="7.0595">
        <ele>229.80000305176</ele>
        <time>2015-03-31T16:48:59.000Z</time>
      </trkpt>
      <trkpt lat="43.67949" lon="7.05962">
        <ele>230.39999389648</ele>
        <time>2015-03-31T16:49:02.000Z</time>
      </trkpt>
      <trkpt lat="43.67951" lon="7.05974">
        <ele>230.19999694824</ele>
        <time>2015-03-31T16:49:05.000Z</time>
      </trkpt>
      <trkpt lat="43.6795" lon="7.05988">
        <ele>230.60000610352</ele>
        <time>2015-03-31T16:49:08.000Z</time>
      </trkpt>
      <trkpt lat="43.67949" lon="7.06003">
        <ele>231.39999389648</ele>
        <time>2015-03-31T16:49:11.000Z</time>
      </trkpt>
      <trkpt lat="43.67953" lon="7.06019">
        <ele>231.80000305176</ele>
        <time>2015-03-31T16:49:14.000Z</time>
      </trkpt>
      <trkpt lat="43.6796" lon="7.06032">
        <ele>232.39999389648</ele>
        <time>2015-03-31T16:49:17.000Z</time>
      </trkpt>
      <trkpt lat="43.67965" lon="7.06041">
        <ele>232.80000305176</ele>
        <time>2015-03-31T16:49:19.000Z</time>
      </trkpt>
      <trkpt lat="43.67973" lon="7.06054">
        <ele>233</ele>
        <time>2015-03-31T16:49:22.000Z</time>
      </trkpt>
      <trkpt lat="43.67978" lon="7.06068">
        <ele>233.80000305176</ele>
        <time>2015-03-31T16:49:25.000Z</time>
      </trkpt>
      <trkpt lat="43.67983" lon="7.06081">
        <ele>234.80000305176</ele>
        <time>2015-03-31T16:49:28.000Z</time>
      </trkpt>
      <trkpt lat="43.67989" lon="7.06095">
        <ele>235.60000610352</ele>
        <time>2015-03-31T16:49:31.000Z</time>
      </trkpt>
      <trkpt lat="43.67993" lon="7.0611">
        <ele>236.60000610352</ele>
        <time>2015-03-31T16:49:34.000Z</time>
      </trkpt>
      <trkpt lat="43.67998" lon="7.06123">
        <ele>238.19999694824</ele>
        <time>2015-03-31T16:49:37.000Z</time>
      </trkpt>
      <trkpt lat="43.68004" lon="7.06137">
        <ele>238.80000305176</ele>
        <time>2015-03-31T16:49:40.000Z</time>
      </trkpt>
      <trkpt lat="43.68009" lon="7.06151">
        <ele>239.60000610352</ele>
        <time>2015-03-31T16:49:43.000Z</time>
      </trkpt>
      <trkpt lat="43.68015" lon="7.06164">
        <ele>240.19999694824</ele>
        <time>2015-03-31T16:49:46.000Z</time>
      </trkpt>
      <trkpt lat="43.68023" lon="7.06175">
        <ele>241.19999694824</ele>
        <time>2015-03-31T16:49:49.000Z</time>
      </trkpt>
      <trkpt lat="43.68029" lon="7.06184">
        <ele>242.19999694824</ele>
        <time>2015-03-31T16:49:52.000Z</time>
      </trkpt>
      <trkpt lat="43.68037" lon="7.06191">
        <ele>243.19999694824</ele>
        <time>2015-03-31T16:49:55.000Z</time>
      </trkpt>
      <trkpt lat="43.68043" lon="7.06199">
        <ele>243.39999389648</ele>
        <time>2015-03-31T16:49:58.000Z</time>
      </trkpt>
      <trkpt lat="43.68048" lon="7.06208">
        <ele>243.60000610352</ele>
        <time>2015-03-31T16:50:02.000Z</time>
      </trkpt>
      <trkpt lat="43.68051" lon="7.06221">
        <ele>243.60000610352</ele>
        <time>2015-03-31T16:50:07.000Z</time>
      </trkpt>
      <trkpt lat="43.68051" lon="7.06233">
        <ele>243.80000305176</ele>
        <time>2015-03-31T16:50:12.000Z</time>
      </trkpt>
      <trkpt lat="43.68053" lon="7.06244">
        <ele>244</ele>
        <time>2015-03-31T16:50:18.000Z</time>
      </trkpt>
      <trkpt lat="43.68057" lon="7.06256">
        <ele>244.60000610352</ele>
        <time>2015-03-31T16:50:24.000Z</time>
      </trkpt>
      <trkpt lat="43.68064" lon="7.06265">
        <ele>245.39999389648</ele>
        <time>2015-03-31T16:50:30.000Z</time>
      </trkpt>
      <trkpt lat="43.68074" lon="7.06273">
        <ele>246.39999389648</ele>
        <time>2015-03-31T16:50:34.000Z</time>
      </trkpt>
      <trkpt lat="43.68082" lon="7.06282">
        <ele>246.80000305176</ele>
        <time>2015-03-31T16:50:37.000Z</time>
      </trkpt>
      <trkpt lat="43.68089" lon="7.06294">
        <ele>247.39999389648</ele>
        <time>2015-03-31T16:50:40.000Z</time>
      </trkpt>
      <trkpt lat="43.68098" lon="7.06303">
        <ele>247.60000610352</ele>
        <time>2015-03-31T16:50:43.000Z</time>
      </trkpt>
      <trkpt lat="43.68108" lon="7.06307">
        <ele>248.19999694824</ele>
        <time>2015-03-31T16:50:46.000Z</time>
      </trkpt>
      <trkpt lat="43.68119" lon="7.06316">
        <ele>248.60000610352</ele>
        <time>2015-03-31T16:50:49.000Z</time>
      </trkpt>
      <trkpt lat="43.68125" lon="7.06324">
        <ele>249.19999694824</ele>
        <time>2015-03-31T16:50:51.000Z</time>
      </trkpt>
      <trkpt lat="43.68126" lon="7.06335">
        <ele>249.60000610352</ele>
        <time>2015-03-31T16:50:54.000Z</time>
      </trkpt>
      <trkpt lat="43.6812" lon="7.06344">
        <ele>250.39999389648</ele>
        <time>2015-03-31T16:50:57.000Z</time>
      </trkpt>
      <trkpt lat="43.68113" lon="7.06351">
        <ele>250.60000610352</ele>
        <time>2015-03-31T16:51:00.000Z</time>
      </trkpt>
      <trkpt lat="43.68111" lon="7.06362">
        <ele>250.60000610352</ele>
        <time>2015-03-31T16:51:03.000Z</time>
      </trkpt>
      <trkpt lat="43.68113" lon="7.06374">
        <ele>250.80000305176</ele>
        <time>2015-03-31T16:51:06.000Z</time>
      </trkpt>
      <trkpt lat="43.68113" lon="7.06387">
        <ele>251.19999694824</ele>
        <time>2015-03-31T16:51:09.000Z</time>
      </trkpt>
      <trkpt lat="43.68112" lon="7.064">
        <ele>251.39999389648</ele>
        <time>2015-03-31T16:51:12.000Z</time>
      </trkpt>
      <trkpt lat="43.68109" lon="7.06411">
        <ele>251.39999389648</ele>
        <time>2015-03-31T16:51:15.000Z</time>
      </trkpt>
      <trkpt lat="43.68106" lon="7.06422">
        <ele>251.39999389648</ele>
        <time>2015-03-31T16:51:19.000Z</time>
      </trkpt>
      <trkpt lat="43.68102" lon="7.06433">
        <ele>251.39999389648</ele>
        <time>2015-03-31T16:51:24.000Z</time>
      </trkpt>
      <trkpt lat="43.68099" lon="7.06445">
        <ele>251.39999389648</ele>
        <time>2015-03-31T16:52:24.000Z</time>
      </trkpt>
      <trkpt lat="43.68097" lon="7.06459">
        <ele>251.19999694824</ele>
        <time>2015-03-31T16:52:27.000Z</time>
      </trkpt>
      <trkpt lat="43.68095" lon="7.06476">
        <ele>250.39999389648</ele>
        <time>2015-03-31T16:52:29.000Z</time>
      </trkpt>
      <trkpt lat="43.68091" lon="7.06492">
        <ele>249.60000610352</ele>
        <time>2015-03-31T16:52:31.000Z</time>
      </trkpt>
      <trkpt lat="43.68083" lon="7.06505">
        <ele>248.80000305176</ele>
        <time>2015-03-31T16:52:33.000Z</time>
      </trkpt>
      <trkpt lat="43.68077" lon="7.06517">
        <ele>248.19999694824</ele>
        <time>2015-03-31T16:52:35.000Z</time>
      </trkpt>
      <trkpt lat="43.68071" lon="7.06529">
        <ele>248</ele>
        <time>2015-03-31T16:52:37.000Z</time>
      </trkpt>
      <trkpt lat="43.68066" lon="7.06543">
        <ele>247.80000305176</ele>
        <time>2015-03-31T16:52:39.000Z</time>
      </trkpt>
      <trkpt lat="43.6806" lon="7.06556">
        <ele>247.80000305176</ele>
        <time>2015-03-31T16:52:41.000Z</time>
      </trkpt>
      <trkpt lat="43.68054" lon="7.06569">
        <ele>247.80000305176</ele>
        <time>2015-03-31T16:52:43.000Z</time>
      </trkpt>
      <trkpt lat="43.68047" lon="7.06583">
        <ele>246.80000305176</ele>
        <time>2015-03-31T16:52:45.000Z</time>
      </trkpt>
      <trkpt lat="43.6804" lon="7.06599">
        <ele>246</ele>
        <time>2015-03-31T16:52:47.000Z</time>
      </trkpt>
      <trkpt lat="43.68032" lon="7.06613">
        <ele>245.19999694824</ele>
        <time>2015-03-31T16:52:49.000Z</time>
      </trkpt>
      <trkpt lat="43.68024" lon="7.06622">
        <ele>244.60000610352</ele>
        <time>2015-03-31T16:52:51.000Z</time>
      </trkpt>
      <trkpt lat="43.68019" lon="7.06633">
        <ele>244.39999389648</ele>
        <time>2015-03-31T16:52:56.000Z</time>
      </trkpt>
      <trkpt lat="43.68022" lon="7.06649">
        <ele>243.80000305176</ele>
        <time>2015-03-31T16:52:59.000Z</time>
      </trkpt>
      <trkpt lat="43.68026" lon="7.06662">
        <ele>243.39999389648</ele>
        <time>2015-03-31T16:53:01.000Z</time>
      </trkpt>
      <trkpt lat="43.68031" lon="7.06672">
        <ele>242.19999694824</ele>
        <time>2015-03-31T16:53:03.000Z</time>
      </trkpt>
      <trkpt lat="43.68033" lon="7.06684">
        <ele>241.19999694824</ele>
        <time>2015-03-31T16:53:05.000Z</time>
      </trkpt>
      <trkpt lat="43.6804" lon="7.06691">
        <ele>240</ele>
        <time>2015-03-31T16:53:08.000Z</time>
      </trkpt>
      <trkpt lat="43.68051" lon="7.06689">
        <ele>238.80000305176</ele>
        <time>2015-03-31T16:53:11.000Z</time>
      </trkpt>
      <trkpt lat="43.6806" lon="7.06691">
        <ele>238.60000610352</ele>
        <time>2015-03-31T16:53:13.000Z</time>
      </trkpt>
      <trkpt lat="43.6807" lon="7.06694">
        <ele>238.60000610352</ele>
        <time>2015-03-31T16:53:15.000Z</time>
      </trkpt>
      <trkpt lat="43.68078" lon="7.06703">
        <ele>237.60000610352</ele>
        <time>2015-03-31T16:53:17.000Z</time>
      </trkpt>
      <trkpt lat="43.68086" lon="7.06708">
        <ele>236.60000610352</ele>
        <time>2015-03-31T16:53:19.000Z</time>
      </trkpt>
      <trkpt lat="43.68095" lon="7.0671">
        <ele>235.80000305176</ele>
        <time>2015-03-31T16:53:21.000Z</time>
      </trkpt>
      <trkpt lat="43.68108" lon="7.06713">
        <ele>234.60000610352</ele>
        <time>2015-03-31T16:53:23.000Z</time>
      </trkpt>
      <trkpt lat="43.68117" lon="7.06714">
        <ele>233.39999389648</ele>
        <time>2015-03-31T16:53:25.000Z</time>
      </trkpt>
      <trkpt lat="43.68128" lon="7.06712">
        <ele>232</ele>
        <time>2015-03-31T16:53:27.000Z</time>
      </trkpt>
      <trkpt lat="43.6814" lon="7.06714">
        <ele>230.60000610352</ele>
        <time>2015-03-31T16:53:29.000Z</time>
      </trkpt>
      <trkpt lat="43.68148" lon="7.06718">
        <ele>229.60000610352</ele>
        <time>2015-03-31T16:53:31.000Z</time>
      </trkpt>
      <trkpt lat="43.68145" lon="7.06732">
        <ele>227.39999389648</ele>
        <time>2015-03-31T16:53:33.000Z</time>
      </trkpt>
      <trkpt lat="43.68148" lon="7.06748">
        <ele>225.39999389648</ele>
        <time>2015-03-31T16:53:36.000Z</time>
      </trkpt>
      <trkpt lat="43.68152" lon="7.06762">
        <ele>223.19999694824</ele>
        <time>2015-03-31T16:53:38.000Z</time>
      </trkpt>
      <trkpt lat="43.68152" lon="7.06777">
        <ele>221.80000305176</ele>
        <time>2015-03-31T16:53:40.000Z</time>
      </trkpt>
      <trkpt lat="43.6815" lon="7.06793">
        <ele>220.60000610352</ele>
        <time>2015-03-31T16:53:42.000Z</time>
      </trkpt>
      <trkpt lat="43.68147" lon="7.06807">
        <ele>219.19999694824</ele>
        <time>2015-03-31T16:53:45.000Z</time>
      </trkpt>
      <trkpt lat="43.68143" lon="7.06819">
        <ele>218.39999389648</ele>
        <time>2015-03-31T16:53:46.000Z</time>
      </trkpt>
      <trkpt lat="43.68141" lon="7.06831">
        <ele>217.60000610352</ele>
        <time>2015-03-31T16:53:48.000Z</time>
      </trkpt>
      <trkpt lat="43.68146" lon="7.06842">
        <ele>216.60000610352</ele>
        <time>2015-03-31T16:53:51.000Z</time>
      </trkpt>
      <trkpt lat="43.68154" lon="7.06852">
        <ele>215.80000305176</ele>
        <time>2015-03-31T16:53:53.000Z</time>
      </trkpt>
      <trkpt lat="43.68161" lon="7.06862">
        <ele>213.80000305176</ele>
        <time>2015-03-31T16:53:55.000Z</time>
      </trkpt>
      <trkpt lat="43.6817" lon="7.06866">
        <ele>212.80000305176</ele>
        <time>2015-03-31T16:53:57.000Z</time>
      </trkpt>
      <trkpt lat="43.68181" lon="7.06872">
        <ele>211.60000610352</ele>
        <time>2015-03-31T16:53:59.000Z</time>
      </trkpt>
      <trkpt lat="43.68194" lon="7.06874">
        <ele>210.60000610352</ele>
        <time>2015-03-31T16:54:01.000Z</time>
      </trkpt>
      <trkpt lat="43.68208" lon="7.06875">
        <ele>209.60000610352</ele>
        <time>2015-03-31T16:54:03.000Z</time>
      </trkpt>
      <trkpt lat="43.68222" lon="7.06874">
        <ele>208.60000610352</ele>
        <time>2015-03-31T16:54:05.000Z</time>
      </trkpt>
      <trkpt lat="43.68232" lon="7.06875">
        <ele>207.39999389648</ele>
        <time>2015-03-31T16:54:07.000Z</time>
      </trkpt>
      <trkpt lat="43.68241" lon="7.06871">
        <ele>206.39999389648</ele>
        <time>2015-03-31T16:54:09.000Z</time>
      </trkpt>
      <trkpt lat="43.68251" lon="7.06872">
        <ele>203</ele>
        <time>2015-03-31T16:54:12.000Z</time>
      </trkpt>
      <trkpt lat="43.6826" lon="7.06875">
        <ele>199.60000610352</ele>
        <time>2015-03-31T16:54:15.000Z</time>
      </trkpt>
      <trkpt lat="43.68272" lon="7.06876">
        <ele>196.60000610352</ele>
        <time>2015-03-31T16:54:18.000Z</time>
      </trkpt>
      <trkpt lat="43.68283" lon="7.06883">
        <ele>194.39999389648</ele>
        <time>2015-03-31T16:54:20.000Z</time>
      </trkpt>
      <trkpt lat="43.68294" lon="7.06883">
        <ele>192.19999694824</ele>
        <time>2015-03-31T16:54:23.000Z</time>
      </trkpt>
      <trkpt lat="43.68301" lon="7.06888">
        <ele>191.39999389648</ele>
        <time>2015-03-31T16:54:25.000Z</time>
      </trkpt>
      <trkpt lat="43.68307" lon="7.06902">
        <ele>190.60000610352</ele>
        <time>2015-03-31T16:54:28.000Z</time>
      </trkpt>
      <trkpt lat="43.68309" lon="7.06915">
        <ele>189.60000610352</ele>
        <time>2015-03-31T16:54:30.000Z</time>
      </trkpt>
      <trkpt lat="43.68313" lon="7.06925">
        <ele>188.80000305176</ele>
        <time>2015-03-31T16:54:50.000Z</time>
      </trkpt>
      <trkpt lat="43.68306" lon="7.06931">
        <ele>188</ele>
        <time>2015-03-31T16:55:18.000Z</time>
      </trkpt>
      <trkpt lat="43.68297" lon="7.06936">
        <ele>187.19999694824</ele>
        <time>2015-03-31T16:55:21.000Z</time>
      </trkpt>
      <trkpt lat="43.68286" lon="7.0694">
        <ele>188.60000610352</ele>
        <time>2015-03-31T16:55:24.000Z</time>
      </trkpt>
      <trkpt lat="43.68275" lon="7.06945">
        <ele>189.80000305176</ele>
        <time>2015-03-31T16:55:27.000Z</time>
      </trkpt>
      <trkpt lat="43.68263" lon="7.06949">
        <ele>191.80000305176</ele>
        <time>2015-03-31T16:55:30.000Z</time>
      </trkpt>
      <trkpt lat="43.68253" lon="7.06953">
        <ele>193.80000305176</ele>
        <time>2015-03-31T16:55:33.000Z</time>
      </trkpt>
      <trkpt lat="43.68242" lon="7.06957">
        <ele>195.80000305176</ele>
        <time>2015-03-31T16:55:36.000Z</time>
      </trkpt>
      <trkpt lat="43.6823" lon="7.06961">
        <ele>196.60000610352</ele>
        <time>2015-03-31T16:55:39.000Z</time>
      </trkpt>
      <trkpt lat="43.68219" lon="7.06963">
        <ele>197.19999694824</ele>
        <time>2015-03-31T16:55:42.000Z</time>
      </trkpt>
      <trkpt lat="43.68208" lon="7.06964">
        <ele>197.80000305176</ele>
        <time>2015-03-31T16:55:45.000Z</time>
      </trkpt>
      <trkpt lat="43.68199" lon="7.06966">
        <ele>198.60000610352</ele>
        <time>2015-03-31T16:55:47.000Z</time>
      </trkpt>
      <trkpt lat="43.68188" lon="7.06966">
        <ele>199.19999694824</ele>
        <time>2015-03-31T16:55:49.000Z</time>
      </trkpt>
      <trkpt lat="43.68178" lon="7.06966">
        <ele>199.60000610352</ele>
        <time>2015-03-31T16:55:51.000Z</time>
      </trkpt>
      <trkpt lat="43.68169" lon="7.06967">
        <ele>200.39999389648</ele>
        <time>2015-03-31T16:55:53.000Z</time>
      </trkpt>
      <trkpt lat="43.68158" lon="7.06966">
        <ele>201</ele>
        <time>2015-03-31T16:55:55.000Z</time>
      </trkpt>
      <trkpt lat="43.68148" lon="7.06964">
        <ele>201</ele>
        <time>2015-03-31T16:55:57.000Z</time>
      </trkpt>
      <trkpt lat="43.68139" lon="7.06966">
        <ele>201</ele>
        <time>2015-03-31T16:55:59.000Z</time>
      </trkpt>
      <trkpt lat="43.68127" lon="7.06964">
        <ele>201</ele>
        <time>2015-03-31T16:56:01.000Z</time>
      </trkpt>
      <trkpt lat="43.68118" lon="7.06964">
        <ele>201</ele>
        <time>2015-03-31T16:56:03.000Z</time>
      </trkpt>
      <trkpt lat="43.68108" lon="7.06963">
        <ele>201</ele>
        <time>2015-03-31T16:56:05.000Z</time>
      </trkpt>
      <trkpt lat="43.68098" lon="7.06961">
        <ele>201</ele>
        <time>2015-03-31T16:56:07.000Z</time>
      </trkpt>
      <trkpt lat="43.68086" lon="7.0696">
        <ele>201</ele>
        <time>2015-03-31T16:56:09.000Z</time>
      </trkpt>
      <trkpt lat="43.68074" lon="7.06959">
        <ele>199.39999389648</ele>
        <time>2015-03-31T16:56:11.000Z</time>
      </trkpt>
      <trkpt lat="43.68063" lon="7.06961">
        <ele>199.39999389648</ele>
        <time>2015-03-31T16:56:13.000Z</time>
      </trkpt>
      <trkpt lat="43.68051" lon="7.06961">
        <ele>199.39999389648</ele>
        <time>2015-03-31T16:56:15.000Z</time>
      </trkpt>
      <trkpt lat="43.6804" lon="7.06964">
        <ele>199.39999389648</ele>
        <time>2015-03-31T16:56:17.000Z</time>
      </trkpt>
      <trkpt lat="43.68029" lon="7.06966">
        <ele>199.39999389648</ele>
        <time>2015-03-31T16:56:19.000Z</time>
      </trkpt>
      <trkpt lat="43.68018" lon="7.06967">
        <ele>199.39999389648</ele>
        <time>2015-03-31T16:56:21.000Z</time>
      </trkpt>
      <trkpt lat="43.68008" lon="7.06967">
        <ele>199</ele>
        <time>2015-03-31T16:56:23.000Z</time>
      </trkpt>
      <trkpt lat="43.67998" lon="7.06964">
        <ele>198.60000610352</ele>
        <time>2015-03-31T16:56:25.000Z</time>
      </trkpt>
      <trkpt lat="43.67987" lon="7.06962">
        <ele>198.60000610352</ele>
        <time>2015-03-31T16:56:27.000Z</time>
      </trkpt>
      <trkpt lat="43.67978" lon="7.06961">
        <ele>198.19999694824</ele>
        <time>2015-03-31T16:56:29.000Z</time>
      </trkpt>
      <trkpt lat="43.67969" lon="7.06961">
        <ele>197.80000305176</ele>
        <time>2015-03-31T16:56:31.000Z</time>
      </trkpt>
      <trkpt lat="43.6796" lon="7.06962">
        <ele>199.39999389648</ele>
        <time>2015-03-31T16:56:33.000Z</time>
      </trkpt>
      <trkpt lat="43.67951" lon="7.0696">
        <ele>199.19999694824</ele>
        <time>2015-03-31T16:56:35.000Z</time>
      </trkpt>
      <trkpt lat="43.67937" lon="7.06959">
        <ele>198.80000305176</ele>
        <time>2015-03-31T16:56:38.000Z</time>
      </trkpt>
      <trkpt lat="43.67927" lon="7.06957">
        <ele>198.39999389648</ele>
        <time>2015-03-31T16:56:40.000Z</time>
      </trkpt>
      <trkpt lat="43.67919" lon="7.06956">
        <ele>197.80000305176</ele>
        <time>2015-03-31T16:56:42.000Z</time>
      </trkpt>
      <trkpt lat="43.6791" lon="7.06956">
        <ele>197.60000610352</ele>
        <time>2015-03-31T16:56:44.000Z</time>
      </trkpt>
      <trkpt lat="43.67901" lon="7.06955">
        <ele>197.39999389648</ele>
        <time>2015-03-31T16:56:46.000Z</time>
      </trkpt>
      <trkpt lat="43.6789" lon="7.06954">
        <ele>197.19999694824</ele>
        <time>2015-03-31T16:56:49.000Z</time>
      </trkpt>
      <trkpt lat="43.67879" lon="7.06953">
        <ele>196.80000305176</ele>
        <time>2015-03-31T16:56:52.000Z</time>
      </trkpt>
      <trkpt lat="43.67867" lon="7.06951">
        <ele>196.60000610352</ele>
        <time>2015-03-31T16:56:55.000Z</time>
      </trkpt>
      <trkpt lat="43.67855" lon="7.06949">
        <ele>196.60000610352</ele>
        <time>2015-03-31T16:56:58.000Z</time>
      </trkpt>
      <trkpt lat="43.67843" lon="7.06947">
        <ele>196.60000610352</ele>
        <time>2015-03-31T16:57:01.000Z</time>
      </trkpt>
      <trkpt lat="43.67824" lon="7.06944">
        <ele>196.60000610352</ele>
        <time>2015-03-31T16:57:06.000Z</time>
      </trkpt>
      <trkpt lat="43.67813" lon="7.06942">
        <ele>196.39999389648</ele>
        <time>2015-03-31T16:57:09.000Z</time>
      </trkpt>
      <trkpt lat="43.67803" lon="7.0694">
        <ele>196.60000610352</ele>
        <time>2015-03-31T16:57:12.000Z</time>
      </trkpt>
      <trkpt lat="43.67793" lon="7.06938">
        <ele>196.60000610352</ele>
        <time>2015-03-31T16:57:15.000Z</time>
      </trkpt>
      <trkpt lat="43.67783" lon="7.06935">
        <ele>196.60000610352</ele>
        <time>2015-03-31T16:57:18.000Z</time>
      </trkpt>
      <trkpt lat="43.67774" lon="7.06931">
        <ele>196.60000610352</ele>
        <time>2015-03-31T16:57:21.000Z</time>
      </trkpt>
      <trkpt lat="43.67764" lon="7.06926">
        <ele>196.80000305176</ele>
        <time>2015-03-31T16:57:24.000Z</time>
      </trkpt>
      <trkpt lat="43.67754" lon="7.0692">
        <ele>196.39999389648</ele>
        <time>2015-03-31T16:57:27.000Z</time>
      </trkpt>
      <trkpt lat="43.67744" lon="7.06915">
        <ele>195.60000610352</ele>
        <time>2015-03-31T16:57:30.000Z</time>
      </trkpt>
      <trkpt lat="43.67734" lon="7.06908">
        <ele>196.60000610352</ele>
        <time>2015-03-31T16:57:33.000Z</time>
      </trkpt>
      <trkpt lat="43.67723" lon="7.06903">
        <ele>197.39999389648</ele>
        <time>2015-03-31T16:57:36.000Z</time>
      </trkpt>
      <trkpt lat="43.67713" lon="7.06897">
        <ele>198.19999694824</ele>
        <time>2015-03-31T16:57:39.000Z</time>
      </trkpt>
      <trkpt lat="43.67702" lon="7.06891">
        <ele>199</ele>
        <time>2015-03-31T16:57:42.000Z</time>
      </trkpt>
      <trkpt lat="43.67692" lon="7.06886">
        <ele>199.80000305176</ele>
        <time>2015-03-31T16:57:45.000Z</time>
      </trkpt>
      <trkpt lat="43.67682" lon="7.0688">
        <ele>200.60000610352</ele>
        <time>2015-03-31T16:57:48.000Z</time>
      </trkpt>
      <trkpt lat="43.67672" lon="7.06875">
        <ele>200.60000610352</ele>
        <time>2015-03-31T16:57:51.000Z</time>
      </trkpt>
      <trkpt lat="43.67662" lon="7.06868">
        <ele>200.60000610352</ele>
        <time>2015-03-31T16:57:54.000Z</time>
      </trkpt>
      <trkpt lat="43.67653" lon="7.0686">
        <ele>200.60000610352</ele>
        <time>2015-03-31T16:57:57.000Z</time>
      </trkpt>
      <trkpt lat="43.67644" lon="7.06852">
        <ele>201.39999389648</ele>
        <time>2015-03-31T16:58:00.000Z</time>
      </trkpt>
      <trkpt lat="43.67635" lon="7.06842">
        <ele>202.80000305176</ele>
        <time>2015-03-31T16:58:03.000Z</time>
      </trkpt>
      <trkpt lat="43.67626" lon="7.06835">
        <ele>203.19999694824</ele>
        <time>2015-03-31T16:58:06.000Z</time>
      </trkpt>
      <trkpt lat="43.67617" lon="7.06826">
        <ele>203.39999389648</ele>
        <time>2015-03-31T16:58:09.000Z</time>
      </trkpt>
      <trkpt lat="43.67608" lon="7.06817">
        <ele>203.60000610352</ele>
        <time>2015-03-31T16:58:12.000Z</time>
      </trkpt>
      <trkpt lat="43.67599" lon="7.06807">
        <ele>203.60000610352</ele>
        <time>2015-03-31T16:58:15.000Z</time>
      </trkpt>
      <trkpt lat="43.67589" lon="7.06797">
        <ele>203.80000305176</ele>
        <time>2015-03-31T16:58:18.000Z</time>
      </trkpt>
      <trkpt lat="43.67582" lon="7.0679">
        <ele>202.80000305176</ele>
        <time>2015-03-31T16:58:20.000Z</time>
      </trkpt>
      <trkpt lat="43.67575" lon="7.06783">
        <ele>202.60000610352</ele>
        <time>2015-03-31T16:58:22.000Z</time>
      </trkpt>
      <trkpt lat="43.67566" lon="7.06773">
        <ele>202.80000305176</ele>
        <time>2015-03-31T16:58:25.000Z</time>
      </trkpt>
      <trkpt lat="43.67557" lon="7.06762">
        <ele>203.19999694824</ele>
        <time>2015-03-31T16:58:28.000Z</time>
      </trkpt>
      <trkpt lat="43.67548" lon="7.06752">
        <ele>203.60000610352</ele>
        <time>2015-03-31T16:58:31.000Z</time>
      </trkpt>
      <trkpt lat="43.67542" lon="7.06739">
        <ele>202.60000610352</ele>
        <time>2015-03-31T16:58:34.000Z</time>
      </trkpt>
      <trkpt lat="43.67539" lon="7.06728">
        <ele>202</ele>
        <time>2015-03-31T16:58:36.000Z</time>
      </trkpt>
      <trkpt lat="43.67538" lon="7.06716">
        <ele>201.39999389648</ele>
        <time>2015-03-31T16:58:38.000Z</time>
      </trkpt>
      <trkpt lat="43.67537" lon="7.06704">
        <ele>200.80000305176</ele>
        <time>2015-03-31T16:58:40.000Z</time>
      </trkpt>
      <trkpt lat="43.67537" lon="7.06692">
        <ele>201.39999389648</ele>
        <time>2015-03-31T16:58:42.000Z</time>
      </trkpt>
      <trkpt lat="43.67537" lon="7.06681">
        <ele>201.80000305176</ele>
        <time>2015-03-31T16:58:44.000Z</time>
      </trkpt>
      <trkpt lat="43.67538" lon="7.06664">
        <ele>203.60000610352</ele>
        <time>2015-03-31T16:58:47.000Z</time>
      </trkpt>
      <trkpt lat="43.67537" lon="7.06648">
        <ele>205.19999694824</ele>
        <time>2015-03-31T16:58:50.000Z</time>
      </trkpt>
      <trkpt lat="43.67538" lon="7.06633">
        <ele>206.39999389648</ele>
        <time>2015-03-31T16:58:53.000Z</time>
      </trkpt>
      <trkpt lat="43.67545" lon="7.06625">
        <ele>207.60000610352</ele>
        <time>2015-03-31T16:58:59.000Z</time>
      </trkpt>
      <trkpt lat="43.67553" lon="7.06621">
        <ele>208.60000610352</ele>
        <time>2015-03-31T16:59:05.000Z</time>
      </trkpt>
      <trkpt lat="43.67562" lon="7.06618">
        <ele>209.80000305176</ele>
        <time>2015-03-31T16:59:11.000Z</time>
      </trkpt>
      <trkpt lat="43.67571" lon="7.06613">
        <ele>211</ele>
        <time>2015-03-31T16:59:17.000Z</time>
      </trkpt>
      <trkpt lat="43.67581" lon="7.0661">
        <ele>212.19999694824</ele>
        <time>2015-03-31T16:59:22.000Z</time>
      </trkpt>
      <trkpt lat="43.67589" lon="7.06608">
        <ele>213</ele>
        <time>2015-03-31T16:59:27.000Z</time>
      </trkpt>
      <trkpt lat="43.67597" lon="7.06602">
        <ele>213</ele>
        <time>2015-03-31T16:59:32.000Z</time>
      </trkpt>
      <trkpt lat="43.67602" lon="7.06592">
        <ele>213.19999694824</ele>
        <time>2015-03-31T16:59:37.000Z</time>
      </trkpt>
      <trkpt lat="43.67606" lon="7.06581">
        <ele>213.39999389648</ele>
        <time>2015-03-31T16:59:43.000Z</time>
      </trkpt>
      <trkpt lat="43.67611" lon="7.06572">
        <ele>213.60000610352</ele>
        <time>2015-03-31T16:59:56.000Z</time>
      </trkpt>
      <trkpt lat="43.67615" lon="7.06561">
        <ele>214.60000610352</ele>
        <time>2015-03-31T17:00:05.000Z</time>
      </trkpt>
      <trkpt lat="43.67619" lon="7.06551">
        <ele>215.60000610352</ele>
        <time>2015-03-31T17:00:11.000Z</time>
      </trkpt>
      <trkpt lat="43.67623" lon="7.06539">
        <ele>216.80000305176</ele>
        <time>2015-03-31T17:00:17.000Z</time>
      </trkpt>
      <trkpt lat="43.67624" lon="7.06527">
        <ele>217.80000305176</ele>
        <time>2015-03-31T17:00:23.000Z</time>
      </trkpt>
      <trkpt lat="43.67626" lon="7.06514">
        <ele>219.60000610352</ele>
        <time>2015-03-31T17:00:29.000Z</time>
      </trkpt>
      <trkpt lat="43.67627" lon="7.06501">
        <ele>221.19999694824</ele>
        <time>2015-03-31T17:00:35.000Z</time>
      </trkpt>
      <trkpt lat="43.67628" lon="7.06488">
        <ele>222.80000305176</ele>
        <time>2015-03-31T17:00:41.000Z</time>
      </trkpt>
      <trkpt lat="43.67627" lon="7.06475">
        <ele>224.60000610352</ele>
        <time>2015-03-31T17:00:47.000Z</time>
      </trkpt>
      <trkpt lat="43.67628" lon="7.06462">
        <ele>225.80000305176</ele>
        <time>2015-03-31T17:00:53.000Z</time>
      </trkpt>
      <trkpt lat="43.6763" lon="7.06451">
        <ele>227.39999389648</ele>
        <time>2015-03-31T17:00:58.000Z</time>
      </trkpt>
      <trkpt lat="43.67633" lon="7.0644">
        <ele>228.80000305176</ele>
        <time>2015-03-31T17:01:03.000Z</time>
      </trkpt>
      <trkpt lat="43.67636" lon="7.06428">
        <ele>229.80000305176</ele>
        <time>2015-03-31T17:01:09.000Z</time>
      </trkpt>
      <trkpt lat="43.67638" lon="7.06415">
        <ele>231</ele>
        <time>2015-03-31T17:01:16.000Z</time>
      </trkpt>
      <trkpt lat="43.67639" lon="7.06403">
        <ele>232.19999694824</ele>
        <time>2015-03-31T17:01:23.000Z</time>
      </trkpt>
      <trkpt lat="43.6764" lon="7.06391">
        <ele>233.19999694824</ele>
        <time>2015-03-31T17:01:30.000Z</time>
      </trkpt>
      <trkpt lat="43.6764" lon="7.06379">
        <ele>233.60000610352</ele>
        <time>2015-03-31T17:01:37.000Z</time>
      </trkpt>
      <trkpt lat="43.6764" lon="7.06367">
        <ele>234.39999389648</ele>
        <time>2015-03-31T17:01:43.000Z</time>
      </trkpt>
      <trkpt lat="43.67639" lon="7.06355">
        <ele>234.80000305176</ele>
        <time>2015-03-31T17:01:50.000Z</time>
      </trkpt>
      <trkpt lat="43.6764" lon="7.06343">
        <ele>235.60000610352</ele>
        <time>2015-03-31T17:01:58.000Z</time>
      </trkpt>
      <trkpt lat="43.67638" lon="7.0633">
        <ele>236.39999389648</ele>
        <time>2015-03-31T17:02:04.000Z</time>
      </trkpt>
      <trkpt lat="43.67637" lon="7.06319">
        <ele>237.19999694824</ele>
        <time>2015-03-31T17:02:14.000Z</time>
      </trkpt>
      <trkpt lat="43.67634" lon="7.06308">
        <ele>237.80000305176</ele>
        <time>2015-03-31T17:02:22.000Z</time>
      </trkpt>
      <trkpt lat="43.67634" lon="7.06296">
        <ele>238.19999694824</ele>
        <time>2015-03-31T17:02:34.000Z</time>
      </trkpt>
      <trkpt lat="43.67631" lon="7.06286">
        <ele>238.60000610352</ele>
        <time>2015-03-31T17:03:30.000Z</time>
      </trkpt>
      <trkpt lat="43.67625" lon="7.06276">
        <ele>238.60000610352</ele>
        <time>2015-03-31T17:05:13.000Z</time>
      </trkpt>
      <trkpt lat="43.67614" lon="7.06274">
        <ele>238.60000610352</ele>
        <time>2015-03-31T17:05:17.000Z</time>
      </trkpt>
      <trkpt lat="43.67602" lon="7.06275">
        <ele>238.60000610352</ele>
        <time>2015-03-31T17:05:20.000Z</time>
      </trkpt>
      <trkpt lat="43.67591" lon="7.06281">
        <ele>238.60000610352</ele>
        <time>2015-03-31T17:05:23.000Z</time>
      </trkpt>
      <trkpt lat="43.67581" lon="7.06288">
        <ele>238.60000610352</ele>
        <time>2015-03-31T17:05:26.000Z</time>
      </trkpt>
      <trkpt lat="43.67574" lon="7.06295">
        <ele>238.60000610352</ele>
        <time>2015-03-31T17:05:28.000Z</time>
      </trkpt>
      <trkpt lat="43.67568" lon="7.06302">
        <ele>238.19999694824</ele>
        <time>2015-03-31T17:05:30.000Z</time>
      </trkpt>
      <trkpt lat="43.67559" lon="7.06313">
        <ele>237.60000610352</ele>
        <time>2015-03-31T17:05:33.000Z</time>
      </trkpt>
      <trkpt lat="43.6755" lon="7.06322">
        <ele>237.39999389648</ele>
        <time>2015-03-31T17:05:36.000Z</time>
      </trkpt>
      <trkpt lat="43.67542" lon="7.06327">
        <ele>237.39999389648</ele>
        <time>2015-03-31T17:05:38.000Z</time>
      </trkpt>
      <trkpt lat="43.67534" lon="7.0633">
        <ele>237.39999389648</ele>
        <time>2015-03-31T17:05:40.000Z</time>
      </trkpt>
      <trkpt lat="43.67526" lon="7.06326">
        <ele>237.39999389648</ele>
        <time>2015-03-31T17:05:42.000Z</time>
      </trkpt>
      <trkpt lat="43.6752" lon="7.06315">
        <ele>237.60000610352</ele>
        <time>2015-03-31T17:05:45.000Z</time>
      </trkpt>
      <trkpt lat="43.67516" lon="7.06304">
        <ele>237.80000305176</ele>
        <time>2015-03-31T17:05:51.000Z</time>
      </trkpt>
      <trkpt lat="43.67513" lon="7.0629">
        <ele>238.19999694824</ele>
        <time>2015-03-31T17:05:54.000Z</time>
      </trkpt>
      <trkpt lat="43.6751" lon="7.06279">
        <ele>238.60000610352</ele>
        <time>2015-03-31T17:05:57.000Z</time>
      </trkpt>
      <trkpt lat="43.67508" lon="7.06267">
        <ele>238.80000305176</ele>
        <time>2015-03-31T17:06:00.000Z</time>
      </trkpt>
      <trkpt lat="43.67505" lon="7.06255">
        <ele>239.60000610352</ele>
        <time>2015-03-31T17:06:03.000Z</time>
      </trkpt>
      <trkpt lat="43.67502" lon="7.06244">
        <ele>240.19999694824</ele>
        <time>2015-03-31T17:06:06.000Z</time>
      </trkpt>
      <trkpt lat="43.675" lon="7.06232">
        <ele>241.60000610352</ele>
        <time>2015-03-31T17:06:09.000Z</time>
      </trkpt>
      <trkpt lat="43.67495" lon="7.06222">
        <ele>242.60000610352</ele>
        <time>2015-03-31T17:06:12.000Z</time>
      </trkpt>
      <trkpt lat="43.67487" lon="7.06217">
        <ele>243.80000305176</ele>
        <time>2015-03-31T17:06:15.000Z</time>
      </trkpt>
      <trkpt lat="43.67478" lon="7.06213">
        <ele>244.80000305176</ele>
        <time>2015-03-31T17:06:18.000Z</time>
      </trkpt>
      <trkpt lat="43.67469" lon="7.06207">
        <ele>246</ele>
        <time>2015-03-31T17:06:21.000Z</time>
      </trkpt>
      <trkpt lat="43.67461" lon="7.06201">
        <ele>247.19999694824</ele>
        <time>2015-03-31T17:06:24.000Z</time>
      </trkpt>
      <trkpt lat="43.67453" lon="7.06195">
        <ele>248.19999694824</ele>
        <time>2015-03-31T17:06:27.000Z</time>
      </trkpt>
      <trkpt lat="43.67445" lon="7.06187">
        <ele>249.39999389648</ele>
        <time>2015-03-31T17:06:31.000Z</time>
      </trkpt>
      <trkpt lat="43.67438" lon="7.06176">
        <ele>250.39999389648</ele>
        <time>2015-03-31T17:06:35.000Z</time>
      </trkpt>
      <trkpt lat="43.67435" lon="7.06165">
        <ele>251.19999694824</ele>
        <time>2015-03-31T17:06:38.000Z</time>
      </trkpt>
      <trkpt lat="43.67433" lon="7.06153">
        <ele>252</ele>
        <time>2015-03-31T17:06:41.000Z</time>
      </trkpt>
      <trkpt lat="43.6743" lon="7.06142">
        <ele>252</ele>
        <time>2015-03-31T17:06:44.000Z</time>
      </trkpt>
      <trkpt lat="43.67427" lon="7.06129">
        <ele>252</ele>
        <time>2015-03-31T17:06:48.000Z</time>
      </trkpt>
      <trkpt lat="43.67423" lon="7.06118">
        <ele>252</ele>
        <time>2015-03-31T17:06:51.000Z</time>
      </trkpt>
      <trkpt lat="43.6742" lon="7.06108">
        <ele>252</ele>
        <time>2015-03-31T17:06:54.000Z</time>
      </trkpt>
      <trkpt lat="43.67416" lon="7.06098">
        <ele>252</ele>
        <time>2015-03-31T17:06:57.000Z</time>
      </trkpt>
      <trkpt lat="43.67411" lon="7.06087">
        <ele>251.60000610352</ele>
        <time>2015-03-31T17:07:00.000Z</time>
      </trkpt>
      <trkpt lat="43.67407" lon="7.06077">
        <ele>251.60000610352</ele>
        <time>2015-03-31T17:07:03.000Z</time>
      </trkpt>
      <trkpt lat="43.67402" lon="7.06069">
        <ele>251.19999694824</ele>
        <time>2015-03-31T17:07:06.000Z</time>
      </trkpt>
      <trkpt lat="43.67394" lon="7.06058">
        <ele>250.80000305176</ele>
        <time>2015-03-31T17:07:10.000Z</time>
      </trkpt>
      <trkpt lat="43.67384" lon="7.06052">
        <ele>250.60000610352</ele>
        <time>2015-03-31T17:07:13.000Z</time>
      </trkpt>
      <trkpt lat="43.6738" lon="7.06038">
        <ele>250.39999389648</ele>
        <time>2015-03-31T17:07:16.000Z</time>
      </trkpt>
      <trkpt lat="43.67378" lon="7.06026">
        <ele>250.19999694824</ele>
        <time>2015-03-31T17:07:19.000Z</time>
      </trkpt>
      <trkpt lat="43.67374" lon="7.06015">
        <ele>249.80000305176</ele>
        <time>2015-03-31T17:07:23.000Z</time>
      </trkpt>
      <trkpt lat="43.67368" lon="7.06006">
        <ele>249.60000610352</ele>
        <time>2015-03-31T17:09:01.000Z</time>
      </trkpt>
      <trkpt lat="43.67363" lon="7.05994">
        <ele>249.39999389648</ele>
        <time>2015-03-31T17:09:05.000Z</time>
      </trkpt>
      <trkpt lat="43.67356" lon="7.05983">
        <ele>249</ele>
        <time>2015-03-31T17:09:09.000Z</time>
      </trkpt>
      <trkpt lat="43.67348" lon="7.05979">
        <ele>249</ele>
        <time>2015-03-31T17:09:11.000Z</time>
      </trkpt>
      <trkpt lat="43.6734" lon="7.05973">
        <ele>249</ele>
        <time>2015-03-31T17:09:13.000Z</time>
      </trkpt>
      <trkpt lat="43.67336" lon="7.05963">
        <ele>249</ele>
        <time>2015-03-31T17:09:15.000Z</time>
      </trkpt>
      <trkpt lat="43.6733" lon="7.05954">
        <ele>248.80000305176</ele>
        <time>2015-03-31T17:09:17.000Z</time>
      </trkpt>
      <trkpt lat="43.67321" lon="7.05944">
        <ele>248.80000305176</ele>
        <time>2015-03-31T17:09:20.000Z</time>
      </trkpt>
      <trkpt lat="43.67317" lon="7.05934">
        <ele>248.60000610352</ele>
        <time>2015-03-31T17:09:23.000Z</time>
      </trkpt>
      <trkpt lat="43.67309" lon="7.05934">
        <ele>248.60000610352</ele>
        <time>2015-03-31T17:09:58.000Z</time>
      </trkpt>
      <trkpt lat="43.67298" lon="7.05934">
        <ele>248.60000610352</ele>
        <time>2015-03-31T17:10:01.000Z</time>
      </trkpt>
      <trkpt lat="43.67288" lon="7.05927">
        <ele>248.60000610352</ele>
        <time>2015-03-31T17:10:04.000Z</time>
      </trkpt>
      <trkpt lat="43.67279" lon="7.05919">
        <ele>248.39999389648</ele>
        <time>2015-03-31T17:10:07.000Z</time>
      </trkpt>
      <trkpt lat="43.6727" lon="7.05914">
        <ele>248.39999389648</ele>
        <time>2015-03-31T17:10:10.000Z</time>
      </trkpt>
      <trkpt lat="43.67261" lon="7.05914">
        <ele>248.19999694824</ele>
        <time>2015-03-31T17:10:13.000Z</time>
      </trkpt>
      <trkpt lat="43.67252" lon="7.05912">
        <ele>248.60000610352</ele>
        <time>2015-03-31T17:10:16.000Z</time>
      </trkpt>
      <trkpt lat="43.67241" lon="7.0591">
        <ele>248.60000610352</ele>
        <time>2015-03-31T17:10:19.000Z</time>
      </trkpt>
      <trkpt lat="43.67232" lon="7.05907">
        <ele>249.19999694824</ele>
        <time>2015-03-31T17:10:22.000Z</time>
      </trkpt>
      <trkpt lat="43.67222" lon="7.05902">
        <ele>249.60000610352</ele>
        <time>2015-03-31T17:10:26.000Z</time>
      </trkpt>
      <trkpt lat="43.67213" lon="7.05901">
        <ele>249.80000305176</ele>
        <time>2015-03-31T17:10:30.000Z</time>
      </trkpt>
      <trkpt lat="43.67204" lon="7.05902">
        <ele>250.19999694824</ele>
        <time>2015-03-31T17:10:35.000Z</time>
      </trkpt>
      <trkpt lat="43.67197" lon="7.05906">
        <ele>250.60000610352</ele>
        <time>2015-03-31T17:10:38.000Z</time>
      </trkpt>
      <trkpt lat="43.67186" lon="7.05904">
        <ele>250.80000305176</ele>
        <time>2015-03-31T17:10:42.000Z</time>
      </trkpt>
      <trkpt lat="43.67179" lon="7.059">
        <ele>251.39999389648</ele>
        <time>2015-03-31T17:10:45.000Z</time>
      </trkpt>
      <trkpt lat="43.67171" lon="7.05896">
        <ele>251.60000610352</ele>
        <time>2015-03-31T17:10:48.000Z</time>
      </trkpt>
      <trkpt lat="43.67161" lon="7.05896">
        <ele>252</ele>
        <time>2015-03-31T17:10:51.000Z</time>
      </trkpt>
      <trkpt lat="43.6715" lon="7.05898">
        <ele>252.39999389648</ele>
        <time>2015-03-31T17:10:54.000Z</time>
      </trkpt>
      <trkpt lat="43.6714" lon="7.05897">
        <ele>252.60000610352</ele>
        <time>2015-03-31T17:10:56.000Z</time>
      </trkpt>
      <trkpt lat="43.67129" lon="7.05898">
        <ele>253.19999694824</ele>
        <time>2015-03-31T17:10:58.000Z</time>
      </trkpt>
      <trkpt lat="43.67121" lon="7.05898">
        <ele>253.60000610352</ele>
        <time>2015-03-31T17:11:00.000Z</time>
      </trkpt>
      <trkpt lat="43.67112" lon="7.05891">
        <ele>253.80000305176</ele>
        <time>2015-03-31T17:11:03.000Z</time>
      </trkpt>
      <trkpt lat="43.67108" lon="7.05881">
        <ele>254.19999694824</ele>
        <time>2015-03-31T17:11:06.000Z</time>
      </trkpt>
      <trkpt lat="43.67106" lon="7.05869">
        <ele>254.60000610352</ele>
        <time>2015-03-31T17:11:09.000Z</time>
      </trkpt>
      <trkpt lat="43.67105" lon="7.05856">
        <ele>254.80000305176</ele>
        <time>2015-03-31T17:11:12.000Z</time>
      </trkpt>
      <trkpt lat="43.67104" lon="7.05845">
        <ele>255.39999389648</ele>
        <time>2015-03-31T17:11:15.000Z</time>
      </trkpt>
      <trkpt lat="43.67092" lon="7.05838">
        <ele>255.60000610352</ele>
        <time>2015-03-31T17:11:18.000Z</time>
      </trkpt>
      <trkpt lat="43.67084" lon="7.05833">
        <ele>255.60000610352</ele>
        <time>2015-03-31T17:11:20.000Z</time>
      </trkpt>
      <trkpt lat="43.67076" lon="7.05822">
        <ele>255.60000610352</ele>
        <time>2015-03-31T17:11:23.000Z</time>
      </trkpt>
      <trkpt lat="43.67065" lon="7.05817">
        <ele>255.19999694824</ele>
        <time>2015-03-31T17:11:26.000Z</time>
      </trkpt>
      <trkpt lat="43.67056" lon="7.05817">
        <ele>254.80000305176</ele>
        <time>2015-03-31T17:11:28.000Z</time>
      </trkpt>
      <trkpt lat="43.67046" lon="7.05812">
        <ele>254.60000610352</ele>
        <time>2015-03-31T17:11:30.000Z</time>
      </trkpt>
      <trkpt lat="43.67029" lon="7.05805">
        <ele>254.39999389648</ele>
        <time>2015-03-31T17:11:32.000Z</time>
      </trkpt>
      <trkpt lat="43.67017" lon="7.05807">
        <ele>254.19999694824</ele>
        <time>2015-03-31T17:11:34.000Z</time>
      </trkpt>
      <trkpt lat="43.67007" lon="7.05807">
        <ele>253.80000305176</ele>
        <time>2015-03-31T17:11:36.000Z</time>
      </trkpt>
      <trkpt lat="43.66998" lon="7.05809">
        <ele>253.60000610352</ele>
        <time>2015-03-31T17:11:38.000Z</time>
      </trkpt>
      <trkpt lat="43.66988" lon="7.0581">
        <ele>253.39999389648</ele>
        <time>2015-03-31T17:11:40.000Z</time>
      </trkpt>
      <trkpt lat="43.66977" lon="7.05809">
        <ele>253</ele>
        <time>2015-03-31T17:11:43.000Z</time>
      </trkpt>
      <trkpt lat="43.66972" lon="7.0582">
        <ele>252.80000305176</ele>
        <time>2015-03-31T17:11:46.000Z</time>
      </trkpt>
      <trkpt lat="43.66972" lon="7.05836">
        <ele>252.80000305176</ele>
        <time>2015-03-31T17:11:49.000Z</time>
      </trkpt>
      <trkpt lat="43.66973" lon="7.05849">
        <ele>252.60000610352</ele>
        <time>2015-03-31T17:11:53.000Z</time>
      </trkpt>
      <trkpt lat="43.66969" lon="7.05859">
        <ele>252.60000610352</ele>
        <time>2015-03-31T17:12:03.000Z</time>
      </trkpt>
      <trkpt lat="43.66969" lon="7.05871">
        <ele>252.60000610352</ele>
        <time>2015-03-31T17:12:08.000Z</time>
      </trkpt>
      <trkpt lat="43.66971" lon="7.05886">
        <ele>252.19999694824</ele>
        <time>2015-03-31T17:12:11.000Z</time>
      </trkpt>
      <trkpt lat="43.66972" lon="7.05906">
        <ele>251.60000610352</ele>
        <time>2015-03-31T17:12:13.000Z</time>
      </trkpt>
      <trkpt lat="43.66972" lon="7.05924">
        <ele>251.19999694824</ele>
        <time>2015-03-31T17:12:15.000Z</time>
      </trkpt>
      <trkpt lat="43.66975" lon="7.05944">
        <ele>250.60000610352</ele>
        <time>2015-03-31T17:12:17.000Z</time>
      </trkpt>
      <trkpt lat="43.66979" lon="7.0596">
        <ele>250.39999389648</ele>
        <time>2015-03-31T17:12:19.000Z</time>
      </trkpt>
      <trkpt lat="43.66987" lon="7.05972">
        <ele>249.80000305176</ele>
        <time>2015-03-31T17:12:21.000Z</time>
      </trkpt>
      <trkpt lat="43.66992" lon="7.05989">
        <ele>249</ele>
        <time>2015-03-31T17:12:23.000Z</time>
      </trkpt>
      <trkpt lat="43.66995" lon="7.06006">
        <ele>248.19999694824</ele>
        <time>2015-03-31T17:12:25.000Z</time>
      </trkpt>
      <trkpt lat="43.66998" lon="7.06017">
        <ele>247.39999389648</ele>
        <time>2015-03-31T17:12:26.000Z</time>
      </trkpt>
      <trkpt lat="43.67002" lon="7.06028">
        <ele>246.60000610352</ele>
        <time>2015-03-31T17:12:27.000Z</time>
      </trkpt>
      <trkpt lat="43.67005" lon="7.06038">
        <ele>245.60000610352</ele>
        <time>2015-03-31T17:12:28.000Z</time>
      </trkpt>
      <trkpt lat="43.67009" lon="7.06059">
        <ele>245.39999389648</ele>
        <time>2015-03-31T17:12:30.000Z</time>
      </trkpt>
      <trkpt lat="43.67012" lon="7.06071">
        <ele>244.19999694824</ele>
        <time>2015-03-31T17:12:31.000Z</time>
      </trkpt>
      <trkpt lat="43.67013" lon="7.06083">
        <ele>243.19999694824</ele>
        <time>2015-03-31T17:12:32.000Z</time>
      </trkpt>
      <trkpt lat="43.67013" lon="7.06096">
        <ele>242</ele>
        <time>2015-03-31T17:12:33.000Z</time>
      </trkpt>
      <trkpt lat="43.67014" lon="7.06107">
        <ele>240.80000305176</ele>
        <time>2015-03-31T17:12:34.000Z</time>
      </trkpt>
      <trkpt lat="43.67016" lon="7.06128">
        <ele>239.80000305176</ele>
        <time>2015-03-31T17:12:36.000Z</time>
      </trkpt>
      <trkpt lat="43.67018" lon="7.06148">
        <ele>238.39999389648</ele>
        <time>2015-03-31T17:12:38.000Z</time>
      </trkpt>
      <trkpt lat="43.67016" lon="7.06171">
        <ele>236.60000610352</ele>
        <time>2015-03-31T17:12:40.000Z</time>
      </trkpt>
      <trkpt lat="43.67014" lon="7.06183">
        <ele>235.19999694824</ele>
        <time>2015-03-31T17:12:41.000Z</time>
      </trkpt>
      <trkpt lat="43.67013" lon="7.06194">
        <ele>233.60000610352</ele>
        <time>2015-03-31T17:12:42.000Z</time>
      </trkpt>
      <trkpt lat="43.67011" lon="7.06206">
        <ele>232.19999694824</ele>
        <time>2015-03-31T17:12:43.000Z</time>
      </trkpt>
      <trkpt lat="43.67008" lon="7.06217">
        <ele>229.60000610352</ele>
        <time>2015-03-31T17:12:44.000Z</time>
      </trkpt>
      <trkpt lat="43.67005" lon="7.06238">
        <ele>227.60000610352</ele>
        <time>2015-03-31T17:12:46.000Z</time>
      </trkpt>
      <trkpt lat="43.67002" lon="7.06258">
        <ele>225.60000610352</ele>
        <time>2015-03-31T17:12:48.000Z</time>
      </trkpt>
      <trkpt lat="43.66995" lon="7.06275">
        <ele>223.80000305176</ele>
        <time>2015-03-31T17:12:50.000Z</time>
      </trkpt>
      <trkpt lat="43.66992" lon="7.06287">
        <ele>221.80000305176</ele>
        <time>2015-03-31T17:12:52.000Z</time>
      </trkpt>
      <trkpt lat="43.66993" lon="7.06299">
        <ele>220</ele>
        <time>2015-03-31T17:12:54.000Z</time>
      </trkpt>
      <trkpt lat="43.66995" lon="7.06313">
        <ele>218.39999389648</ele>
        <time>2015-03-31T17:12:57.000Z</time>
      </trkpt>
      <trkpt lat="43.66992" lon="7.06327">
        <ele>216.60000610352</ele>
        <time>2015-03-31T17:13:00.000Z</time>
      </trkpt>
      <trkpt lat="43.66991" lon="7.06342">
        <ele>215.19999694824</ele>
        <time>2015-03-31T17:13:03.000Z</time>
      </trkpt>
      <trkpt lat="43.66987" lon="7.06353">
        <ele>213.60000610352</ele>
        <time>2015-03-31T17:13:06.000Z</time>
      </trkpt>
      <trkpt lat="43.66986" lon="7.06366">
        <ele>212.60000610352</ele>
        <time>2015-03-31T17:13:10.000Z</time>
      </trkpt>
      <trkpt lat="43.66983" lon="7.06379">
        <ele>212.80000305176</ele>
        <time>2015-03-31T17:13:13.000Z</time>
      </trkpt>
      <trkpt lat="43.66977" lon="7.06393">
        <ele>213</ele>
        <time>2015-03-31T17:13:16.000Z</time>
      </trkpt>
      <trkpt lat="43.66973" lon="7.06403">
        <ele>211.80000305176</ele>
        <time>2015-03-31T17:13:18.000Z</time>
      </trkpt>
      <trkpt lat="43.66969" lon="7.06414">
        <ele>210.80000305176</ele>
        <time>2015-03-31T17:13:19.000Z</time>
      </trkpt>
      <trkpt lat="43.66962" lon="7.06428">
        <ele>209.60000610352</ele>
        <time>2015-03-31T17:13:21.000Z</time>
      </trkpt>
      <trkpt lat="43.66958" lon="7.06442">
        <ele>208.60000610352</ele>
        <time>2015-03-31T17:13:23.000Z</time>
      </trkpt>
      <trkpt lat="43.66956" lon="7.06453">
        <ele>208.19999694824</ele>
        <time>2015-03-31T17:13:25.000Z</time>
      </trkpt>
      <trkpt lat="43.66952" lon="7.06468">
        <ele>207.60000610352</ele>
        <time>2015-03-31T17:13:27.000Z</time>
      </trkpt>
      <trkpt lat="43.66951" lon="7.06481">
        <ele>205.80000305176</ele>
        <time>2015-03-31T17:13:29.000Z</time>
      </trkpt>
      <trkpt lat="43.66949" lon="7.06496">
        <ele>204.19999694824</ele>
        <time>2015-03-31T17:13:32.000Z</time>
      </trkpt>
      <trkpt lat="43.66948" lon="7.06508">
        <ele>201.60000610352</ele>
        <time>2015-03-31T17:13:35.000Z</time>
      </trkpt>
      <trkpt lat="43.6695" lon="7.06523">
        <ele>198.80000305176</ele>
        <time>2015-03-31T17:13:38.000Z</time>
      </trkpt>
      <trkpt lat="43.66952" lon="7.06535">
        <ele>196.19999694824</ele>
        <time>2015-03-31T17:13:40.000Z</time>
      </trkpt>
      <trkpt lat="43.66953" lon="7.06547">
        <ele>194.80000305176</ele>
        <time>2015-03-31T17:13:42.000Z</time>
      </trkpt>
      <trkpt lat="43.66953" lon="7.0656">
        <ele>193.60000610352</ele>
        <time>2015-03-31T17:13:45.000Z</time>
      </trkpt>
      <trkpt lat="43.66953" lon="7.06576">
        <ele>191.39999389648</ele>
        <time>2015-03-31T17:13:46.000Z</time>
      </trkpt>
      <trkpt lat="43.66952" lon="7.06589">
        <ele>189</ele>
        <time>2015-03-31T17:13:48.000Z</time>
      </trkpt>
      <trkpt lat="43.66953" lon="7.06605">
        <ele>186.60000610352</ele>
        <time>2015-03-31T17:13:51.000Z</time>
      </trkpt>
      <trkpt lat="43.66954" lon="7.06622">
        <ele>184.60000610352</ele>
        <time>2015-03-31T17:13:54.000Z</time>
      </trkpt>
      <trkpt lat="43.66958" lon="7.06638">
        <ele>183.60000610352</ele>
        <time>2015-03-31T17:13:56.000Z</time>
      </trkpt>
      <trkpt lat="43.66962" lon="7.0665">
        <ele>182.60000610352</ele>
        <time>2015-03-31T17:13:58.000Z</time>
      </trkpt>
      <trkpt lat="43.66963" lon="7.06663">
        <ele>181.39999389648</ele>
        <time>2015-03-31T17:14:29.000Z</time>
      </trkpt>
      <trkpt lat="43.66964" lon="7.06675">
        <ele>179.80000305176</ele>
        <time>2015-03-31T17:14:32.000Z</time>
      </trkpt>
      <trkpt lat="43.66965" lon="7.06688">
        <ele>178.60000610352</ele>
        <time>2015-03-31T17:14:35.000Z</time>
      </trkpt>
      <trkpt lat="43.6697" lon="7.067">
        <ele>177.19999694824</ele>
        <time>2015-03-31T17:14:37.000Z</time>
      </trkpt>
      <trkpt lat="43.66977" lon="7.06717">
        <ele>175.60000610352</ele>
        <time>2015-03-31T17:14:40.000Z</time>
      </trkpt>
      <trkpt lat="43.66979" lon="7.06736">
        <ele>175.19999694824</ele>
        <time>2015-03-31T17:14:41.000Z</time>
      </trkpt>
      <trkpt lat="43.6698" lon="7.06748">
        <ele>174.60000610352</ele>
        <time>2015-03-31T17:14:42.000Z</time>
      </trkpt>
      <trkpt lat="43.6698" lon="7.06768">
        <ele>174</ele>
        <time>2015-03-31T17:14:44.000Z</time>
      </trkpt>
      <trkpt lat="43.66982" lon="7.06789">
        <ele>173.60000610352</ele>
        <time>2015-03-31T17:14:46.000Z</time>
      </trkpt>
      <trkpt lat="43.66984" lon="7.06807">
        <ele>172.80000305176</ele>
        <time>2015-03-31T17:14:48.000Z</time>
      </trkpt>
      <trkpt lat="43.6699" lon="7.06825">
        <ele>172.60000610352</ele>
        <time>2015-03-31T17:14:50.000Z</time>
      </trkpt>
      <trkpt lat="43.66995" lon="7.06841">
        <ele>172.60000610352</ele>
        <time>2015-03-31T17:14:52.000Z</time>
      </trkpt>
      <trkpt lat="43.66999" lon="7.06855">
        <ele>172.60000610352</ele>
        <time>2015-03-31T17:14:54.000Z</time>
      </trkpt>
      <trkpt lat="43.67003" lon="7.0687">
        <ele>172.60000610352</ele>
        <time>2015-03-31T17:14:56.000Z</time>
      </trkpt>
      <trkpt lat="43.67006" lon="7.06883">
        <ele>172.60000610352</ele>
        <time>2015-03-31T17:14:58.000Z</time>
      </trkpt>
      <trkpt lat="43.67008" lon="7.06895">
        <ele>172.60000610352</ele>
        <time>2015-03-31T17:15:00.000Z</time>
      </trkpt>
      <trkpt lat="43.67011" lon="7.06907">
        <ele>172.60000610352</ele>
        <time>2015-03-31T17:15:02.000Z</time>
      </trkpt>
      <trkpt lat="43.67014" lon="7.06918">
        <ele>172.60000610352</ele>
        <time>2015-03-31T17:15:04.000Z</time>
      </trkpt>
      <trkpt lat="43.67016" lon="7.06929">
        <ele>172.80000305176</ele>
        <time>2015-03-31T17:15:06.000Z</time>
      </trkpt>
      <trkpt lat="43.6702" lon="7.06943">
        <ele>172.80000305176</ele>
        <time>2015-03-31T17:15:09.000Z</time>
      </trkpt>
      <trkpt lat="43.67024" lon="7.06957">
        <ele>173</ele>
        <time>2015-03-31T17:15:12.000Z</time>
      </trkpt>
      <trkpt lat="43.67027" lon="7.06971">
        <ele>173</ele>
        <time>2015-03-31T17:15:15.000Z</time>
      </trkpt>
      <trkpt lat="43.67031" lon="7.06985">
        <ele>172.19999694824</ele>
        <time>2015-03-31T17:15:18.000Z</time>
      </trkpt>
      <trkpt lat="43.67035" lon="7.06998">
        <ele>171.19999694824</ele>
        <time>2015-03-31T17:15:21.000Z</time>
      </trkpt>
      <trkpt lat="43.67039" lon="7.0701">
        <ele>170.39999389648</ele>
        <time>2015-03-31T17:15:25.000Z</time>
      </trkpt>
      <trkpt lat="43.67041" lon="7.07023">
        <ele>169.39999389648</ele>
        <time>2015-03-31T17:15:34.000Z</time>
      </trkpt>
      <trkpt lat="43.67041" lon="7.07042">
        <ele>168.60000610352</ele>
        <time>2015-03-31T17:15:36.000Z</time>
      </trkpt>
      <trkpt lat="43.67046" lon="7.07061">
        <ele>167.39999389648</ele>
        <time>2015-03-31T17:15:38.000Z</time>
      </trkpt>
      <trkpt lat="43.67049" lon="7.07072">
        <ele>166.39999389648</ele>
        <time>2015-03-31T17:15:39.000Z</time>
      </trkpt>
      <trkpt lat="43.67052" lon="7.07085">
        <ele>165.19999694824</ele>
        <time>2015-03-31T17:15:40.000Z</time>
      </trkpt>
      <trkpt lat="43.67054" lon="7.071">
        <ele>164.19999694824</ele>
        <time>2015-03-31T17:15:41.000Z</time>
      </trkpt>
      <trkpt lat="43.67057" lon="7.07115">
        <ele>163</ele>
        <time>2015-03-31T17:15:42.000Z</time>
      </trkpt>
      <trkpt lat="43.6706" lon="7.07132">
        <ele>161.80000305176</ele>
        <time>2015-03-31T17:15:43.000Z</time>
      </trkpt>
      <trkpt lat="43.67062" lon="7.07148">
        <ele>163.19999694824</ele>
        <time>2015-03-31T17:15:44.000Z</time>
      </trkpt>
      <trkpt lat="43.67064" lon="7.07165">
        <ele>164.39999389648</ele>
        <time>2015-03-31T17:15:45.000Z</time>
      </trkpt>
      <trkpt lat="43.67064" lon="7.07178">
        <ele>165.60000610352</ele>
        <time>2015-03-31T17:15:47.000Z</time>
      </trkpt>
      <trkpt lat="43.67066" lon="7.07191">
        <ele>166.60000610352</ele>
        <time>2015-03-31T17:15:47.000Z</time>
      </trkpt>
      <trkpt lat="43.67066" lon="7.07207">
        <ele>167.80000305176</ele>
        <time>2015-03-31T17:15:49.000Z</time>
      </trkpt>
      <trkpt lat="43.67075" lon="7.07214">
        <ele>169.19999694824</ele>
        <time>2015-03-31T17:15:52.000Z</time>
      </trkpt>
      <trkpt lat="43.67085" lon="7.07221">
        <ele>169.39999389648</ele>
        <time>2015-03-31T17:15:55.000Z</time>
      </trkpt>
      <trkpt lat="43.67092" lon="7.07227">
        <ele>169.60000610352</ele>
        <time>2015-03-31T17:15:58.000Z</time>
      </trkpt>
      <trkpt lat="43.67102" lon="7.07233">
        <ele>169.60000610352</ele>
        <time>2015-03-31T17:16:03.000Z</time>
      </trkpt>
      <trkpt lat="43.67115" lon="7.07238">
        <ele>169.80000305176</ele>
        <time>2015-03-31T17:16:05.000Z</time>
      </trkpt>
      <trkpt lat="43.67127" lon="7.07241">
        <ele>170.19999694824</ele>
        <time>2015-03-31T17:16:07.000Z</time>
      </trkpt>
      <trkpt lat="43.67136" lon="7.07249">
        <ele>168.80000305176</ele>
        <time>2015-03-31T17:16:09.000Z</time>
      </trkpt>
      <trkpt lat="43.67145" lon="7.07255">
        <ele>167.60000610352</ele>
        <time>2015-03-31T17:16:11.000Z</time>
      </trkpt>
      <trkpt lat="43.67154" lon="7.07259">
        <ele>166.60000610352</ele>
        <time>2015-03-31T17:16:13.000Z</time>
      </trkpt>
      <trkpt lat="43.67161" lon="7.07266">
        <ele>166.60000610352</ele>
        <time>2015-03-31T17:16:15.000Z</time>
      </trkpt>
      <trkpt lat="43.67168" lon="7.07274">
        <ele>166.60000610352</ele>
        <time>2015-03-31T17:16:17.000Z</time>
      </trkpt>
      <trkpt lat="43.67177" lon="7.0728">
        <ele>164.60000610352</ele>
        <time>2015-03-31T17:16:19.000Z</time>
      </trkpt>
      <trkpt lat="43.67185" lon="7.07288">
        <ele>164.19999694824</ele>
        <time>2015-03-31T17:16:21.000Z</time>
      </trkpt>
      <trkpt lat="43.67192" lon="7.07294">
        <ele>163.60000610352</ele>
        <time>2015-03-31T17:16:23.000Z</time>
      </trkpt>
      <trkpt lat="43.672" lon="7.07301">
        <ele>162.80000305176</ele>
        <time>2015-03-31T17:16:25.000Z</time>
      </trkpt>
      <trkpt lat="43.67206" lon="7.0731">
        <ele>162.19999694824</ele>
        <time>2015-03-31T17:16:27.000Z</time>
      </trkpt>
      <trkpt lat="43.67212" lon="7.07316">
        <ele>161.60000610352</ele>
        <time>2015-03-31T17:16:29.000Z</time>
      </trkpt>
      <trkpt lat="43.67219" lon="7.07324">
        <ele>161.60000610352</ele>
        <time>2015-03-31T17:16:31.000Z</time>
      </trkpt>
      <trkpt lat="43.67226" lon="7.07332">
        <ele>161.80000305176</ele>
        <time>2015-03-31T17:16:33.000Z</time>
      </trkpt>
      <trkpt lat="43.67237" lon="7.07343">
        <ele>162.19999694824</ele>
        <time>2015-03-31T17:16:35.000Z</time>
      </trkpt>
      <trkpt lat="43.67247" lon="7.07355">
        <ele>161.19999694824</ele>
        <time>2015-03-31T17:16:37.000Z</time>
      </trkpt>
      <trkpt lat="43.67257" lon="7.07369">
        <ele>160.19999694824</ele>
        <time>2015-03-31T17:16:39.000Z</time>
      </trkpt>
      <trkpt lat="43.67265" lon="7.07383">
        <ele>160.80000305176</ele>
        <time>2015-03-31T17:16:41.000Z</time>
      </trkpt>
      <trkpt lat="43.67276" lon="7.07397">
        <ele>160.39999389648</ele>
        <time>2015-03-31T17:16:43.000Z</time>
      </trkpt>
      <trkpt lat="43.67283" lon="7.07406">
        <ele>159.60000610352</ele>
        <time>2015-03-31T17:16:44.000Z</time>
      </trkpt>
      <trkpt lat="43.6729" lon="7.07414">
        <ele>159.19999694824</ele>
        <time>2015-03-31T17:16:45.000Z</time>
      </trkpt>
      <trkpt lat="43.67295" lon="7.07424">
        <ele>158.60000610352</ele>
        <time>2015-03-31T17:16:46.000Z</time>
      </trkpt>
      <trkpt lat="43.67297" lon="7.07435">
        <ele>158.39999389648</ele>
        <time>2015-03-31T17:16:47.000Z</time>
      </trkpt>
      <trkpt lat="43.673" lon="7.07446">
        <ele>157</ele>
        <time>2015-03-31T17:16:48.000Z</time>
      </trkpt>
      <trkpt lat="43.67302" lon="7.07458">
        <ele>155.60000610352</ele>
        <time>2015-03-31T17:16:49.000Z</time>
      </trkpt>
      <trkpt lat="43.67305" lon="7.0747">
        <ele>154.60000610352</ele>
        <time>2015-03-31T17:16:50.000Z</time>
      </trkpt>
      <trkpt lat="43.67306" lon="7.07481">
        <ele>153.60000610352</ele>
        <time>2015-03-31T17:16:51.000Z</time>
      </trkpt>
      <trkpt lat="43.67309" lon="7.07493">
        <ele>152.60000610352</ele>
        <time>2015-03-31T17:16:52.000Z</time>
      </trkpt>
      <trkpt lat="43.6731" lon="7.07505">
        <ele>151.60000610352</ele>
        <time>2015-03-31T17:16:53.000Z</time>
      </trkpt>
      <trkpt lat="43.67313" lon="7.07516">
        <ele>152.39999389648</ele>
        <time>2015-03-31T17:16:54.000Z</time>
      </trkpt>
      <trkpt lat="43.67317" lon="7.07537">
        <ele>152.80000305176</ele>
        <time>2015-03-31T17:16:56.000Z</time>
      </trkpt>
      <trkpt lat="43.67321" lon="7.07547">
        <ele>153.19999694824</ele>
        <time>2015-03-31T17:16:58.000Z</time>
      </trkpt>
      <trkpt lat="43.67327" lon="7.07566">
        <ele>153.39999389648</ele>
        <time>2015-03-31T17:16:59.000Z</time>
      </trkpt>
      <trkpt lat="43.67332" lon="7.07585">
        <ele>153.60000610352</ele>
        <time>2015-03-31T17:17:02.000Z</time>
      </trkpt>
      <trkpt lat="43.67339" lon="7.07604">
        <ele>153.60000610352</ele>
        <time>2015-03-31T17:17:04.000Z</time>
      </trkpt>
      <trkpt lat="43.67346" lon="7.07625">
        <ele>153.80000305176</ele>
        <time>2015-03-31T17:17:05.000Z</time>
      </trkpt>
      <trkpt lat="43.67349" lon="7.07635">
        <ele>154.19999694824</ele>
        <time>2015-03-31T17:17:06.000Z</time>
      </trkpt>
      <trkpt lat="43.67353" lon="7.07645">
        <ele>153.80000305176</ele>
        <time>2015-03-31T17:17:07.000Z</time>
      </trkpt>
      <trkpt lat="43.67357" lon="7.07656">
        <ele>153.60000610352</ele>
        <time>2015-03-31T17:17:08.000Z</time>
      </trkpt>
      <trkpt lat="43.67361" lon="7.07666">
        <ele>153.39999389648</ele>
        <time>2015-03-31T17:17:09.000Z</time>
      </trkpt>
      <trkpt lat="43.67368" lon="7.07687">
        <ele>153.19999694824</ele>
        <time>2015-03-31T17:17:12.000Z</time>
      </trkpt>
      <trkpt lat="43.67372" lon="7.07697">
        <ele>152.80000305176</ele>
        <time>2015-03-31T17:17:14.000Z</time>
      </trkpt>
      <trkpt lat="43.67378" lon="7.07715">
        <ele>152.60000610352</ele>
        <time>2015-03-31T17:17:14.000Z</time>
      </trkpt>
      <trkpt lat="43.67386" lon="7.07729">
        <ele>152.60000610352</ele>
        <time>2015-03-31T17:17:16.000Z</time>
      </trkpt>
      <trkpt lat="43.67395" lon="7.07733">
        <ele>152.39999389648</ele>
        <time>2015-03-31T17:17:18.000Z</time>
      </trkpt>
      <trkpt lat="43.67406" lon="7.07736">
        <ele>152.39999389648</ele>
        <time>2015-03-31T17:17:20.000Z</time>
      </trkpt>
      <trkpt lat="43.67416" lon="7.07739">
        <ele>152.19999694824</ele>
        <time>2015-03-31T17:17:22.000Z</time>
      </trkpt>
      <trkpt lat="43.67425" lon="7.07743">
        <ele>152.19999694824</ele>
        <time>2015-03-31T17:17:24.000Z</time>
      </trkpt>
      <trkpt lat="43.67434" lon="7.07745">
        <ele>152</ele>
        <time>2015-03-31T17:17:26.000Z</time>
      </trkpt>
      <trkpt lat="43.67445" lon="7.07744">
        <ele>152</ele>
        <time>2015-03-31T17:17:29.000Z</time>
      </trkpt>
      <trkpt lat="43.67455" lon="7.07741">
        <ele>152</ele>
        <time>2015-03-31T17:17:32.000Z</time>
      </trkpt>
      <trkpt lat="43.67463" lon="7.07741">
        <ele>152</ele>
        <time>2015-03-31T17:17:35.000Z</time>
      </trkpt>
      <trkpt lat="43.67473" lon="7.07741">
        <ele>152</ele>
        <time>2015-03-31T17:17:38.000Z</time>
      </trkpt>
      <trkpt lat="43.67481" lon="7.07742">
        <ele>152</ele>
        <time>2015-03-31T17:17:41.000Z</time>
      </trkpt>
      <trkpt lat="43.6749" lon="7.07744">
        <ele>152</ele>
        <time>2015-03-31T17:17:44.000Z</time>
      </trkpt>
      <trkpt lat="43.67498" lon="7.07745">
        <ele>152</ele>
        <time>2015-03-31T17:17:47.000Z</time>
      </trkpt>
      <trkpt lat="43.67507" lon="7.07748">
        <ele>151.60000610352</ele>
        <time>2015-03-31T17:17:50.000Z</time>
      </trkpt>
      <trkpt lat="43.67515" lon="7.07753">
        <ele>150.80000305176</ele>
        <time>2015-03-31T17:17:53.000Z</time>
      </trkpt>
      <trkpt lat="43.67523" lon="7.07757">
        <ele>150.39999389648</ele>
        <time>2015-03-31T17:17:56.000Z</time>
      </trkpt>
      <trkpt lat="43.67532" lon="7.07761">
        <ele>149.80000305176</ele>
        <time>2015-03-31T17:18:00.000Z</time>
      </trkpt>
      <trkpt lat="43.6754" lon="7.07767">
        <ele>149.39999389648</ele>
        <time>2015-03-31T17:18:04.000Z</time>
      </trkpt>
      <trkpt lat="43.67549" lon="7.07772">
        <ele>148.60000610352</ele>
        <time>2015-03-31T17:18:08.000Z</time>
      </trkpt>
      <trkpt lat="43.67559" lon="7.07778">
        <ele>148.19999694824</ele>
        <time>2015-03-31T17:18:12.000Z</time>
      </trkpt>
      <trkpt lat="43.67567" lon="7.07783">
        <ele>147.60000610352</ele>
        <time>2015-03-31T17:18:15.000Z</time>
      </trkpt>
      <trkpt lat="43.67576" lon="7.07788">
        <ele>147.19999694824</ele>
        <time>2015-03-31T17:18:19.000Z</time>
      </trkpt>
      <trkpt lat="43.67584" lon="7.07791">
        <ele>147.19999694824</ele>
        <time>2015-03-31T17:18:22.000Z</time>
      </trkpt>
      <trkpt lat="43.67595" lon="7.07792">
        <ele>147.39999389648</ele>
        <time>2015-03-31T17:18:25.000Z</time>
      </trkpt>
      <trkpt lat="43.67607" lon="7.07794">
        <ele>147.80000305176</ele>
        <time>2015-03-31T17:18:28.000Z</time>
      </trkpt>
      <trkpt lat="43.67618" lon="7.07796">
        <ele>148.60000610352</ele>
        <time>2015-03-31T17:18:31.000Z</time>
      </trkpt>
      <trkpt lat="43.67628" lon="7.07801">
        <ele>149.19999694824</ele>
        <time>2015-03-31T17:18:34.000Z</time>
      </trkpt>
      <trkpt lat="43.67637" lon="7.07804">
        <ele>149.80000305176</ele>
        <time>2015-03-31T17:18:56.000Z</time>
      </trkpt>
      <trkpt lat="43.67647" lon="7.07805">
        <ele>150.60000610352</ele>
        <time>2015-03-31T17:21:04.000Z</time>
      </trkpt>
      <trkpt lat="43.67658" lon="7.07808">
        <ele>151.19999694824</ele>
        <time>2015-03-31T17:21:07.000Z</time>
      </trkpt>
      <trkpt lat="43.67665" lon="7.07812">
        <ele>151.60000610352</ele>
        <time>2015-03-31T17:21:09.000Z</time>
      </trkpt>
      <trkpt lat="43.67673" lon="7.07817">
        <ele>151.39999389648</ele>
        <time>2015-03-31T17:21:11.000Z</time>
      </trkpt>
      <trkpt lat="43.67682" lon="7.0783">
        <ele>150.80000305176</ele>
        <time>2015-03-31T17:21:13.000Z</time>
      </trkpt>
      <trkpt lat="43.67688" lon="7.07843">
        <ele>149.60000610352</ele>
        <time>2015-03-31T17:21:15.000Z</time>
      </trkpt>
      <trkpt lat="43.67694" lon="7.07857">
        <ele>148.60000610352</ele>
        <time>2015-03-31T17:21:17.000Z</time>
      </trkpt>
      <trkpt lat="43.67702" lon="7.07872">
        <ele>147.60000610352</ele>
        <time>2015-03-31T17:21:20.000Z</time>
      </trkpt>
      <trkpt lat="43.67711" lon="7.0789">
        <ele>146.60000610352</ele>
        <time>2015-03-31T17:21:21.000Z</time>
      </trkpt>
      <trkpt lat="43.67715" lon="7.079">
        <ele>144.80000305176</ele>
        <time>2015-03-31T17:21:22.000Z</time>
      </trkpt>
      <trkpt lat="43.67718" lon="7.07911">
        <ele>143.19999694824</ele>
        <time>2015-03-31T17:21:23.000Z</time>
      </trkpt>
      <trkpt lat="43.67717" lon="7.07924">
        <ele>141.60000610352</ele>
        <time>2015-03-31T17:21:24.000Z</time>
      </trkpt>
      <trkpt lat="43.67716" lon="7.07937">
        <ele>139.80000305176</ele>
        <time>2015-03-31T17:21:25.000Z</time>
      </trkpt>
      <trkpt lat="43.67716" lon="7.07949">
        <ele>138.39999389648</ele>
        <time>2015-03-31T17:21:26.000Z</time>
      </trkpt>
      <trkpt lat="43.67717" lon="7.07967">
        <ele>137.60000610352</ele>
        <time>2015-03-31T17:21:28.000Z</time>
      </trkpt>
      <trkpt lat="43.67718" lon="7.07982">
        <ele>137.19999694824</ele>
        <time>2015-03-31T17:21:30.000Z</time>
      </trkpt>
      <trkpt lat="43.67719" lon="7.07995">
        <ele>136.80000305176</ele>
        <time>2015-03-31T17:21:32.000Z</time>
      </trkpt>
      <trkpt lat="43.67724" lon="7.08011">
        <ele>136.60000610352</ele>
        <time>2015-03-31T17:21:34.000Z</time>
      </trkpt>
      <trkpt lat="43.67728" lon="7.08025">
        <ele>136.19999694824</ele>
        <time>2015-03-31T17:21:36.000Z</time>
      </trkpt>
      <trkpt lat="43.67733" lon="7.08036">
        <ele>135.60000610352</ele>
        <time>2015-03-31T17:21:39.000Z</time>
      </trkpt>
      <trkpt lat="43.6774" lon="7.08045">
        <ele>135.80000305176</ele>
        <time>2015-03-31T17:21:43.000Z</time>
      </trkpt>
      <trkpt lat="43.67746" lon="7.08055">
        <ele>136.19999694824</ele>
        <time>2015-03-31T17:21:46.000Z</time>
      </trkpt>
      <trkpt lat="43.67753" lon="7.08064">
        <ele>136.39999389648</ele>
        <time>2015-03-31T17:21:49.000Z</time>
      </trkpt>
      <trkpt lat="43.6776" lon="7.08073">
        <ele>136.60000610352</ele>
        <time>2015-03-31T17:21:52.000Z</time>
      </trkpt>
      <trkpt lat="43.67767" lon="7.08082">
        <ele>137.60000610352</ele>
        <time>2015-03-31T17:21:55.000Z</time>
      </trkpt>
      <trkpt lat="43.67774" lon="7.08091">
        <ele>134.60000610352</ele>
        <time>2015-03-31T17:21:58.000Z</time>
      </trkpt>
      <trkpt lat="43.67781" lon="7.08101">
        <ele>131.80000305176</ele>
        <time>2015-03-31T17:22:02.000Z</time>
      </trkpt>
      <trkpt lat="43.67786" lon="7.08111">
        <ele>128.80000305176</ele>
        <time>2015-03-31T17:22:05.000Z</time>
      </trkpt>
      <trkpt lat="43.67791" lon="7.08124">
        <ele>126</ele>
        <time>2015-03-31T17:22:08.000Z</time>
      </trkpt>
      <trkpt lat="43.67796" lon="7.08134">
        <ele>123</ele>
        <time>2015-03-31T17:22:10.000Z</time>
      </trkpt>
      <trkpt lat="43.67802" lon="7.08143">
        <ele>120</ele>
        <time>2015-03-31T17:22:12.000Z</time>
      </trkpt>
      <trkpt lat="43.67807" lon="7.08153">
        <ele>117</ele>
        <time>2015-03-31T17:22:14.000Z</time>
      </trkpt>
      <trkpt lat="43.67812" lon="7.08164">
        <ele>114</ele>
        <time>2015-03-31T17:22:17.000Z</time>
      </trkpt>
      <trkpt lat="43.67818" lon="7.08172">
        <ele>111.19999694824</ele>
        <time>2015-03-31T17:22:23.000Z</time>
      </trkpt>
      <trkpt lat="43.67823" lon="7.08182">
        <ele>108.59999847412</ele>
        <time>2015-03-31T17:22:36.000Z</time>
      </trkpt>
      <trkpt lat="43.6783" lon="7.08194">
        <ele>104.80000305176</ele>
        <time>2015-03-31T17:22:46.000Z</time>
      </trkpt>
      <trkpt lat="43.67835" lon="7.08204">
        <ele>105</ele>
        <time>2015-03-31T17:22:48.000Z</time>
      </trkpt>
      <trkpt lat="43.67841" lon="7.08213">
        <ele>105.40000152588</ele>
        <time>2015-03-31T17:22:50.000Z</time>
      </trkpt>
      <trkpt lat="43.67848" lon="7.08225">
        <ele>105.59999847412</ele>
        <time>2015-03-31T17:22:53.000Z</time>
      </trkpt>
      <trkpt lat="43.67854" lon="7.08239">
        <ele>106</ele>
        <time>2015-03-31T17:22:56.000Z</time>
      </trkpt>
      <trkpt lat="43.67859" lon="7.08253">
        <ele>106.40000152588</ele>
        <time>2015-03-31T17:22:58.000Z</time>
      </trkpt>
      <trkpt lat="43.67862" lon="7.08265">
        <ele>106.59999847412</ele>
        <time>2015-03-31T17:23:00.000Z</time>
      </trkpt>
      <trkpt lat="43.67866" lon="7.08276">
        <ele>107</ele>
        <time>2015-03-31T17:23:02.000Z</time>
      </trkpt>
      <trkpt lat="43.6787" lon="7.08288">
        <ele>107.59999847412</ele>
        <time>2015-03-31T17:23:05.000Z</time>
      </trkpt>
      <trkpt lat="43.6787" lon="7.08302">
        <ele>104.59999847412</ele>
        <time>2015-03-31T17:23:10.000Z</time>
      </trkpt>
      <trkpt lat="43.6787" lon="7.08315">
        <ele>102.59999847412</ele>
        <time>2015-03-31T17:23:45.000Z</time>
      </trkpt>
      <trkpt lat="43.67873" lon="7.08328">
        <ele>101</ele>
        <time>2015-03-31T17:23:46.000Z</time>
      </trkpt>
      <trkpt lat="43.67879" lon="7.08345">
        <ele>99</ele>
        <time>2015-03-31T17:23:48.000Z</time>
      </trkpt>
      <trkpt lat="43.67879" lon="7.08357">
        <ele>97.400001525879</ele>
        <time>2015-03-31T17:23:51.000Z</time>
      </trkpt>
      <trkpt lat="43.67886" lon="7.08369">
        <ele>95.599998474121</ele>
        <time>2015-03-31T17:23:55.000Z</time>
      </trkpt>
      <trkpt lat="43.67891" lon="7.08382">
        <ele>93.599998474121</ele>
        <time>2015-03-31T17:23:59.000Z</time>
      </trkpt>
      <trkpt lat="43.67894" lon="7.08396">
        <ele>91.599998474121</ele>
        <time>2015-03-31T17:24:02.000Z</time>
      </trkpt>
      <trkpt lat="43.67894" lon="7.08408">
        <ele>89.599998474121</ele>
        <time>2015-03-31T17:24:05.000Z</time>
      </trkpt>
      <trkpt lat="43.67897" lon="7.0842">
        <ele>87.800003051758</ele>
        <time>2015-03-31T17:24:08.000Z</time>
      </trkpt>
      <trkpt lat="43.67903" lon="7.0843">
        <ele>86</ele>
        <time>2015-03-31T17:24:11.000Z</time>
      </trkpt>
      <trkpt lat="43.67905" lon="7.08442">
        <ele>87</ele>
        <time>2015-03-31T17:24:14.000Z</time>
      </trkpt>
      <trkpt lat="43.67911" lon="7.0845">
        <ele>87</ele>
        <time>2015-03-31T17:24:17.000Z</time>
      </trkpt>
      <trkpt lat="43.67921" lon="7.08451">
        <ele>86.800003051758</ele>
        <time>2015-03-31T17:24:22.000Z</time>
      </trkpt>
      <trkpt lat="43.67929" lon="7.08451">
        <ele>86</ele>
        <time>2015-03-31T17:24:25.000Z</time>
      </trkpt>
      <trkpt lat="43.67938" lon="7.08453">
        <ele>85</ele>
        <time>2015-03-31T17:24:28.000Z</time>
      </trkpt>
      <trkpt lat="43.67948" lon="7.08455">
        <ele>84</ele>
        <time>2015-03-31T17:24:32.000Z</time>
      </trkpt>
      <trkpt lat="43.67956" lon="7.08461">
        <ele>83.199996948242</ele>
        <time>2015-03-31T17:24:45.000Z</time>
      </trkpt>
      <trkpt lat="43.67961" lon="7.0847">
        <ele>82.400001525879</ele>
        <time>2015-03-31T17:24:55.000Z</time>
      </trkpt>
      <trkpt lat="43.67966" lon="7.08481">
        <ele>82.199996948242</ele>
        <time>2015-03-31T17:25:03.000Z</time>
      </trkpt>
      <trkpt lat="43.67974" lon="7.08485">
        <ele>82</ele>
        <time>2015-03-31T17:25:08.000Z</time>
      </trkpt>
      <trkpt lat="43.67978" lon="7.08496">
        <ele>82</ele>
        <time>2015-03-31T17:25:22.000Z</time>
      </trkpt>
      <trkpt lat="43.6797" lon="7.08501">
        <ele>82</ele>
        <time>2015-03-31T17:25:36.000Z</time>
      </trkpt>
      <trkpt lat="43.67963" lon="7.08508">
        <ele>82</ele>
        <time>2015-03-31T17:25:39.000Z</time>
      </trkpt>
      <trkpt lat="43.67958" lon="7.08517">
        <ele>82</ele>
        <time>2015-03-31T17:25:42.000Z</time>
      </trkpt>
      <trkpt lat="43.67951" lon="7.08524">
        <ele>82.599998474121</ele>
        <time>2015-03-31T17:25:45.000Z</time>
      </trkpt>
      <trkpt lat="43.67943" lon="7.08531">
        <ele>83.599998474121</ele>
        <time>2015-03-31T17:26:03.000Z</time>
      </trkpt>
      <trkpt lat="43.67933" lon="7.0853">
        <ele>84.400001525879</ele>
        <time>2015-03-31T17:26:07.000Z</time>
      </trkpt>
      <trkpt lat="43.67924" lon="7.08527">
        <ele>85.400001525879</ele>
        <time>2015-03-31T17:26:10.000Z</time>
      </trkpt>
      <trkpt lat="43.67914" lon="7.08524">
        <ele>86.400001525879</ele>
        <time>2015-03-31T17:26:13.000Z</time>
      </trkpt>
      <trkpt lat="43.67903" lon="7.08521">
        <ele>86.599998474121</ele>
        <time>2015-03-31T17:26:16.000Z</time>
      </trkpt>
      <trkpt lat="43.67892" lon="7.08518">
        <ele>86.599998474121</ele>
        <time>2015-03-31T17:26:19.000Z</time>
      </trkpt>
      <trkpt lat="43.67881" lon="7.08518">
        <ele>87</ele>
        <time>2015-03-31T17:26:22.000Z</time>
      </trkpt>
      <trkpt lat="43.67873" lon="7.08521">
        <ele>87</ele>
        <time>2015-03-31T17:26:26.000Z</time>
      </trkpt>
      <trkpt lat="43.67862" lon="7.08524">
        <ele>87.400001525879</ele>
        <time>2015-03-31T17:26:30.000Z</time>
      </trkpt>
      <trkpt lat="43.67854" lon="7.08522">
        <ele>87.599998474121</ele>
        <time>2015-03-31T17:26:32.000Z</time>
      </trkpt>
      <trkpt lat="43.67845" lon="7.0852">
        <ele>88.800003051758</ele>
        <time>2015-03-31T17:26:34.000Z</time>
      </trkpt>
      <trkpt lat="43.67834" lon="7.08518">
        <ele>90.199996948242</ele>
        <time>2015-03-31T17:26:36.000Z</time>
      </trkpt>
      <trkpt lat="43.67825" lon="7.08517">
        <ele>91.599998474121</ele>
        <time>2015-03-31T17:26:38.000Z</time>
      </trkpt>
      <trkpt lat="43.67813" lon="7.08517">
        <ele>92.599998474121</ele>
        <time>2015-03-31T17:26:41.000Z</time>
      </trkpt>
      <trkpt lat="43.67804" lon="7.08516">
        <ele>94</ele>
        <time>2015-03-31T17:26:45.000Z</time>
      </trkpt>
      <trkpt lat="43.67795" lon="7.08516">
        <ele>95</ele>
        <time>2015-03-31T17:26:49.000Z</time>
      </trkpt>
      <trkpt lat="43.67787" lon="7.08518">
        <ele>95</ele>
        <time>2015-03-31T17:26:53.000Z</time>
      </trkpt>
      <trkpt lat="43.67777" lon="7.08523">
        <ele>95</ele>
        <time>2015-03-31T17:26:57.000Z</time>
      </trkpt>
      <trkpt lat="43.67767" lon="7.08528">
        <ele>95</ele>
        <time>2015-03-31T17:27:01.000Z</time>
      </trkpt>
      <trkpt lat="43.67759" lon="7.08533">
        <ele>95</ele>
        <time>2015-03-31T17:27:04.000Z</time>
      </trkpt>
      <trkpt lat="43.67753" lon="7.08541">
        <ele>96</ele>
        <time>2015-03-31T17:27:07.000Z</time>
      </trkpt>
      <trkpt lat="43.67747" lon="7.08548">
        <ele>95.599998474121</ele>
        <time>2015-03-31T17:27:10.000Z</time>
      </trkpt>
      <trkpt lat="43.67733" lon="7.08555">
        <ele>95.199996948242</ele>
        <time>2015-03-31T17:27:17.000Z</time>
      </trkpt>
      <trkpt lat="43.67724" lon="7.08562">
        <ele>94.800003051758</ele>
        <time>2015-03-31T17:27:20.000Z</time>
      </trkpt>
      <trkpt lat="43.67715" lon="7.08568">
        <ele>94.599998474121</ele>
        <time>2015-03-31T17:27:23.000Z</time>
      </trkpt>
      <trkpt lat="43.67706" lon="7.08574">
        <ele>94</ele>
        <time>2015-03-31T17:27:26.000Z</time>
      </trkpt>
      <trkpt lat="43.67698" lon="7.08578">
        <ele>93.599998474121</ele>
        <time>2015-03-31T17:27:29.000Z</time>
      </trkpt>
      <trkpt lat="43.6769" lon="7.08578">
        <ele>94.599998474121</ele>
        <time>2015-03-31T17:27:32.000Z</time>
      </trkpt>
      <trkpt lat="43.67679" lon="7.08578">
        <ele>95.400001525879</ele>
        <time>2015-03-31T17:27:36.000Z</time>
      </trkpt>
      <trkpt lat="43.6767" lon="7.08583">
        <ele>96.199996948242</ele>
        <time>2015-03-31T17:27:40.000Z</time>
      </trkpt>
      <trkpt lat="43.67661" lon="7.08585">
        <ele>97</ele>
        <time>2015-03-31T17:27:44.000Z</time>
      </trkpt>
      <trkpt lat="43.67652" lon="7.08585">
        <ele>98</ele>
        <time>2015-03-31T17:27:50.000Z</time>
      </trkpt>
      <trkpt lat="43.6765" lon="7.08595">
        <ele>99</ele>
        <time>2015-03-31T17:27:55.000Z</time>
      </trkpt>
      <trkpt lat="43.6765" lon="7.08607">
        <ele>100</ele>
        <time>2015-03-31T17:28:10.000Z</time>
      </trkpt>
      <trkpt lat="43.67642" lon="7.08613">
        <ele>101</ele>
        <time>2015-03-31T17:28:33.000Z</time>
      </trkpt>
      <trkpt lat="43.67634" lon="7.08618">
        <ele>102</ele>
        <time>2015-03-31T17:28:38.000Z</time>
      </trkpt>
      <trkpt lat="43.67626" lon="7.0862">
        <ele>103</ele>
        <time>2015-03-31T17:28:43.000Z</time>
      </trkpt>
      <trkpt lat="43.67618" lon="7.08613">
        <ele>104</ele>
        <time>2015-03-31T17:28:49.000Z</time>
      </trkpt>
      <trkpt lat="43.67609" lon="7.08606">
        <ele>105</ele>
        <time>2015-03-31T17:28:54.000Z</time>
      </trkpt>
      <trkpt lat="43.676" lon="7.08602">
        <ele>106</ele>
        <time>2015-03-31T17:28:59.000Z</time>
      </trkpt>
      <trkpt lat="43.67591" lon="7.086">
        <ele>107</ele>
        <time>2015-03-31T17:29:03.000Z</time>
      </trkpt>
      <trkpt lat="43.67583" lon="7.08601">
        <ele>108.59999847412</ele>
        <time>2015-03-31T17:29:16.000Z</time>
      </trkpt>
      <trkpt lat="43.67575" lon="7.08603">
        <ele>109</ele>
        <time>2015-03-31T17:29:33.000Z</time>
      </trkpt>
      <trkpt lat="43.67565" lon="7.08603">
        <ele>109.59999847412</ele>
        <time>2015-03-31T17:29:44.000Z</time>
      </trkpt>
      <trkpt lat="43.67557" lon="7.08604">
        <ele>109.59999847412</ele>
        <time>2015-03-31T17:29:47.000Z</time>
      </trkpt>
      <trkpt lat="43.67547" lon="7.08605">
        <ele>109.59999847412</ele>
        <time>2015-03-31T17:29:51.000Z</time>
      </trkpt>
      <trkpt lat="43.67537" lon="7.08608">
        <ele>109.59999847412</ele>
        <time>2015-03-31T17:29:55.000Z</time>
      </trkpt>
      <trkpt lat="43.67531" lon="7.08619">
        <ele>109.59999847412</ele>
        <time>2015-03-31T17:29:59.000Z</time>
      </trkpt>
      <trkpt lat="43.67532" lon="7.0863">
        <ele>109.59999847412</ele>
        <time>2015-03-31T17:30:10.000Z</time>
      </trkpt>
      <trkpt lat="43.67528" lon="7.0864">
        <ele>109.59999847412</ele>
        <time>2015-03-31T17:30:18.000Z</time>
      </trkpt>
      <trkpt lat="43.67532" lon="7.08651">
        <ele>109.59999847412</ele>
        <time>2015-03-31T17:30:28.000Z</time>
      </trkpt>
      <trkpt lat="43.6754" lon="7.08655">
        <ele>109.59999847412</ele>
        <time>2015-03-31T17:30:38.000Z</time>
      </trkpt>
      <trkpt lat="43.67546" lon="7.08664">
        <ele>109.40000152588</ele>
        <time>2015-03-31T17:30:50.000Z</time>
      </trkpt>
      <trkpt lat="43.67553" lon="7.08671">
        <ele>109</ele>
        <time>2015-03-31T17:30:54.000Z</time>
      </trkpt>
      <trkpt lat="43.67554" lon="7.08686">
        <ele>109</ele>
        <time>2015-03-31T17:30:58.000Z</time>
      </trkpt>
      <trkpt lat="43.67555" lon="7.08701">
        <ele>109.40000152588</ele>
        <time>2015-03-31T17:31:01.000Z</time>
      </trkpt>
      <trkpt lat="43.67555" lon="7.08713">
        <ele>109.59999847412</ele>
        <time>2015-03-31T17:31:04.000Z</time>
      </trkpt>
      <trkpt lat="43.67554" lon="7.08727">
        <ele>110</ele>
        <time>2015-03-31T17:31:09.000Z</time>
      </trkpt>
      <trkpt lat="43.67545" lon="7.08727">
        <ele>110.40000152588</ele>
        <time>2015-03-31T17:31:12.000Z</time>
      </trkpt>
      <trkpt lat="43.67535" lon="7.08724">
        <ele>110.59999847412</ele>
        <time>2015-03-31T17:31:15.000Z</time>
      </trkpt>
      <trkpt lat="43.67529" lon="7.08732">
        <ele>111</ele>
        <time>2015-03-31T17:31:18.000Z</time>
      </trkpt>
      <trkpt lat="43.67528" lon="7.08745">
        <ele>111.59999847412</ele>
        <time>2015-03-31T17:31:21.000Z</time>
      </trkpt>
      <trkpt lat="43.67529" lon="7.08759">
        <ele>111.80000305176</ele>
        <time>2015-03-31T17:31:25.000Z</time>
      </trkpt>
      <trkpt lat="43.67528" lon="7.0877">
        <ele>112</ele>
        <time>2015-03-31T17:31:31.000Z</time>
      </trkpt>
      <trkpt lat="43.67519" lon="7.08775">
        <ele>112</ele>
        <time>2015-03-31T17:31:42.000Z</time>
      </trkpt>
      <trkpt lat="43.6751" lon="7.08775">
        <ele>112</ele>
        <time>2015-03-31T17:31:47.000Z</time>
      </trkpt>
      <trkpt lat="43.67501" lon="7.08775">
        <ele>112</ele>
        <time>2015-03-31T17:31:51.000Z</time>
      </trkpt>
      <trkpt lat="43.67493" lon="7.08778">
        <ele>112.59999847412</ele>
        <time>2015-03-31T17:31:55.000Z</time>
      </trkpt>
      <trkpt lat="43.67486" lon="7.08782">
        <ele>113.59999847412</ele>
        <time>2015-03-31T17:32:03.000Z</time>
      </trkpt>
      <trkpt lat="43.67487" lon="7.08794">
        <ele>114.59999847412</ele>
        <time>2015-03-31T17:32:12.000Z</time>
      </trkpt>
      <trkpt lat="43.67481" lon="7.08802">
        <ele>115.59999847412</ele>
        <time>2015-03-31T17:32:20.000Z</time>
      </trkpt>
      <trkpt lat="43.67472" lon="7.08802">
        <ele>116.40000152588</ele>
        <time>2015-03-31T17:32:28.000Z</time>
      </trkpt>
      <trkpt lat="43.67467" lon="7.08814">
        <ele>117.40000152588</ele>
        <time>2015-03-31T17:32:39.000Z</time>
      </trkpt>
      <trkpt lat="43.67461" lon="7.08823">
        <ele>118.19999694824</ele>
        <time>2015-03-31T17:32:44.000Z</time>
      </trkpt>
      <trkpt lat="43.67458" lon="7.08835">
        <ele>119</ele>
        <time>2015-03-31T17:32:49.000Z</time>
      </trkpt>
      <trkpt lat="43.67455" lon="7.08846">
        <ele>120</ele>
        <time>2015-03-31T17:33:02.000Z</time>
      </trkpt>
      <trkpt lat="43.67452" lon="7.08858">
        <ele>121</ele>
        <time>2015-03-31T17:33:18.000Z</time>
      </trkpt>
      <trkpt lat="43.6745" lon="7.08871">
        <ele>121.80000305176</ele>
        <time>2015-03-31T17:33:21.000Z</time>
      </trkpt>
      <trkpt lat="43.67448" lon="7.08884">
        <ele>122</ele>
        <time>2015-03-31T17:33:25.000Z</time>
      </trkpt>
      <trkpt lat="43.67444" lon="7.08896">
        <ele>122</ele>
        <time>2015-03-31T17:33:29.000Z</time>
      </trkpt>
      <trkpt lat="43.67444" lon="7.0891">
        <ele>122</ele>
        <time>2015-03-31T17:33:32.000Z</time>
      </trkpt>
      <trkpt lat="43.67444" lon="7.08925">
        <ele>122</ele>
        <time>2015-03-31T17:33:35.000Z</time>
      </trkpt>
      <trkpt lat="43.67443" lon="7.08939">
        <ele>122</ele>
        <time>2015-03-31T17:33:38.000Z</time>
      </trkpt>
      <trkpt lat="43.6744" lon="7.08951">
        <ele>122</ele>
        <time>2015-03-31T17:33:41.000Z</time>
      </trkpt>
      <trkpt lat="43.67436" lon="7.08964">
        <ele>122</ele>
        <time>2015-03-31T17:33:45.000Z</time>
      </trkpt>
      <trkpt lat="43.67433" lon="7.08979">
        <ele>122</ele>
        <time>2015-03-31T17:33:47.000Z</time>
      </trkpt>
      <trkpt lat="43.67429" lon="7.0899">
        <ele>122</ele>
        <time>2015-03-31T17:33:50.000Z</time>
      </trkpt>
      <trkpt lat="43.6742" lon="7.08992">
        <ele>122</ele>
        <time>2015-03-31T17:34:22.000Z</time>
      </trkpt>
      <trkpt lat="43.67416" lon="7.09003">
        <ele>122</ele>
        <time>2015-03-31T17:34:26.000Z</time>
      </trkpt>
      <trkpt lat="43.67417" lon="7.09018">
        <ele>121.80000305176</ele>
        <time>2015-03-31T17:34:29.000Z</time>
      </trkpt>
      <trkpt lat="43.67411" lon="7.09029">
        <ele>121.59999847412</ele>
        <time>2015-03-31T17:34:33.000Z</time>
      </trkpt>
      <trkpt lat="43.67402" lon="7.09035">
        <ele>121.59999847412</ele>
        <time>2015-03-31T17:34:38.000Z</time>
      </trkpt>
      <trkpt lat="43.67392" lon="7.09039">
        <ele>121.59999847412</ele>
        <time>2015-03-31T17:34:43.000Z</time>
      </trkpt>
      <trkpt lat="43.67386" lon="7.09049">
        <ele>121.59999847412</ele>
        <time>2015-03-31T17:34:48.000Z</time>
      </trkpt>
      <trkpt lat="43.67384" lon="7.09062">
        <ele>121.40000152588</ele>
        <time>2015-03-31T17:34:53.000Z</time>
      </trkpt>
      <trkpt lat="43.67378" lon="7.09072">
        <ele>121.40000152588</ele>
        <time>2015-03-31T17:34:58.000Z</time>
      </trkpt>
      <trkpt lat="43.6737" lon="7.09081">
        <ele>121.19999694824</ele>
        <time>2015-03-31T17:35:18.000Z</time>
      </trkpt>
      <trkpt lat="43.67362" lon="7.09087">
        <ele>121</ele>
        <time>2015-03-31T17:35:22.000Z</time>
      </trkpt>
      <trkpt lat="43.67355" lon="7.09094">
        <ele>121</ele>
        <time>2015-03-31T17:35:26.000Z</time>
      </trkpt>
      <trkpt lat="43.67347" lon="7.09101">
        <ele>120.59999847412</ele>
        <time>2015-03-31T17:35:30.000Z</time>
      </trkpt>
      <trkpt lat="43.67339" lon="7.09104">
        <ele>120.59999847412</ele>
        <time>2015-03-31T17:35:34.000Z</time>
      </trkpt>
      <trkpt lat="43.67332" lon="7.09113">
        <ele>120.19999694824</ele>
        <time>2015-03-31T17:35:37.000Z</time>
      </trkpt>
      <trkpt lat="43.67325" lon="7.09122">
        <ele>120.40000152588</ele>
        <time>2015-03-31T17:35:40.000Z</time>
      </trkpt>
      <trkpt lat="43.67318" lon="7.09128">
        <ele>120.40000152588</ele>
        <time>2015-03-31T17:35:43.000Z</time>
      </trkpt>
      <trkpt lat="43.67313" lon="7.09137">
        <ele>120.59999847412</ele>
        <time>2015-03-31T17:36:11.000Z</time>
      </trkpt>
      <trkpt lat="43.6731" lon="7.09149">
        <ele>120.59999847412</ele>
        <time>2015-03-31T17:36:15.000Z</time>
      </trkpt>
      <trkpt lat="43.67305" lon="7.09158">
        <ele>120.59999847412</ele>
        <time>2015-03-31T17:36:18.000Z</time>
      </trkpt>
      <trkpt lat="43.67297" lon="7.09161">
        <ele>120.59999847412</ele>
        <time>2015-03-31T17:36:21.000Z</time>
      </trkpt>
      <trkpt lat="43.67287" lon="7.09164">
        <ele>120.80000305176</ele>
        <time>2015-03-31T17:36:25.000Z</time>
      </trkpt>
      <trkpt lat="43.67279" lon="7.09171">
        <ele>121</ele>
        <time>2015-03-31T17:36:29.000Z</time>
      </trkpt>
      <trkpt lat="43.67271" lon="7.09178">
        <ele>120.80000305176</ele>
        <time>2015-03-31T17:36:32.000Z</time>
      </trkpt>
      <trkpt lat="43.67264" lon="7.09183">
        <ele>120.59999847412</ele>
        <time>2015-03-31T17:36:35.000Z</time>
      </trkpt>
      <trkpt lat="43.67256" lon="7.0919">
        <ele>120.59999847412</ele>
        <time>2015-03-31T17:36:39.000Z</time>
      </trkpt>
      <trkpt lat="43.67257" lon="7.09202">
        <ele>120.19999694824</ele>
        <time>2015-03-31T17:36:43.000Z</time>
      </trkpt>
      <trkpt lat="43.6725" lon="7.09212">
        <ele>119.59999847412</ele>
        <time>2015-03-31T17:36:47.000Z</time>
      </trkpt>
      <trkpt lat="43.67241" lon="7.09219">
        <ele>119.40000152588</ele>
        <time>2015-03-31T17:36:50.000Z</time>
      </trkpt>
      <trkpt lat="43.67234" lon="7.09228">
        <ele>118.80000305176</ele>
        <time>2015-03-31T17:36:53.000Z</time>
      </trkpt>
      <trkpt lat="43.67227" lon="7.09235">
        <ele>118.40000152588</ele>
        <time>2015-03-31T17:36:56.000Z</time>
      </trkpt>
      <trkpt lat="43.67219" lon="7.09245">
        <ele>118</ele>
        <time>2015-03-31T17:37:00.000Z</time>
      </trkpt>
      <trkpt lat="43.67212" lon="7.0925">
        <ele>117</ele>
        <time>2015-03-31T17:37:08.000Z</time>
      </trkpt>
      <trkpt lat="43.67212" lon="7.09262">
        <ele>116</ele>
        <time>2015-03-31T17:37:23.000Z</time>
      </trkpt>
      <trkpt lat="43.67219" lon="7.09271">
        <ele>115.59999847412</ele>
        <time>2015-03-31T17:37:27.000Z</time>
      </trkpt>
      <trkpt lat="43.67225" lon="7.09279">
        <ele>115.19999694824</ele>
        <time>2015-03-31T17:37:31.000Z</time>
      </trkpt>
      <trkpt lat="43.67231" lon="7.09288">
        <ele>114.59999847412</ele>
        <time>2015-03-31T17:37:39.000Z</time>
      </trkpt>
      <trkpt lat="43.67235" lon="7.09298">
        <ele>114.40000152588</ele>
        <time>2015-03-31T17:37:56.000Z</time>
      </trkpt>
      <trkpt lat="43.67239" lon="7.09309">
        <ele>113.80000305176</ele>
        <time>2015-03-31T17:38:08.000Z</time>
      </trkpt>
      <trkpt lat="43.67243" lon="7.0932">
        <ele>113.40000152588</ele>
        <time>2015-03-31T17:38:45.000Z</time>
      </trkpt>
      <trkpt lat="43.67247" lon="7.0933">
        <ele>112.59999847412</ele>
        <time>2015-03-31T17:38:56.000Z</time>
      </trkpt>
      <trkpt lat="43.67251" lon="7.0934">
        <ele>112</ele>
        <time>2015-03-31T17:39:02.000Z</time>
      </trkpt>
      <trkpt lat="43.67257" lon="7.0935">
        <ele>111.19999694824</ele>
        <time>2015-03-31T17:39:11.000Z</time>
      </trkpt>
      <trkpt lat="43.67255" lon="7.09362">
        <ele>111</ele>
        <time>2015-03-31T17:39:20.000Z</time>
      </trkpt>
      <trkpt lat="43.6726" lon="7.09372">
        <ele>110.59999847412</ele>
        <time>2015-03-31T17:39:30.000Z</time>
      </trkpt>
      <trkpt lat="43.67264" lon="7.09382">
        <ele>110.40000152588</ele>
        <time>2015-03-31T17:39:48.000Z</time>
      </trkpt>
      <trkpt lat="43.67267" lon="7.09392">
        <ele>110</ele>
        <time>2015-03-31T17:39:58.000Z</time>
      </trkpt>
      <trkpt lat="43.67268" lon="7.09404">
        <ele>109.80000305176</ele>
        <time>2015-03-31T17:40:05.000Z</time>
      </trkpt>
      <trkpt lat="43.67271" lon="7.09415">
        <ele>109.40000152588</ele>
        <time>2015-03-31T17:40:13.000Z</time>
      </trkpt>
      <trkpt lat="43.67272" lon="7.09426">
        <ele>108</ele>
        <time>2015-03-31T17:40:23.000Z</time>
      </trkpt>
      <trkpt lat="43.67273" lon="7.09438">
        <ele>106.59999847412</ele>
        <time>2015-03-31T17:40:54.000Z</time>
      </trkpt>
      <trkpt lat="43.67278" lon="7.0945">
        <ele>105.40000152588</ele>
        <time>2015-03-31T17:41:09.000Z</time>
      </trkpt>
      <trkpt lat="43.67285" lon="7.09456">
        <ele>104</ele>
        <time>2015-03-31T17:41:14.000Z</time>
      </trkpt>
      <trkpt lat="43.67293" lon="7.09461">
        <ele>103</ele>
        <time>2015-03-31T17:41:30.000Z</time>
      </trkpt>
      <trkpt lat="43.67298" lon="7.0947">
        <ele>101.59999847412</ele>
        <time>2015-03-31T17:41:51.000Z</time>
      </trkpt>
      <trkpt lat="43.67305" lon="7.09477">
        <ele>100.59999847412</ele>
        <time>2015-03-31T17:42:02.000Z</time>
      </trkpt>
      <trkpt lat="43.67313" lon="7.0948">
        <ele>99.400001525879</ele>
        <time>2015-03-31T17:42:06.000Z</time>
      </trkpt>
      <trkpt lat="43.67319" lon="7.09487">
        <ele>98.199996948242</ele>
        <time>2015-03-31T17:42:14.000Z</time>
      </trkpt>
      <trkpt lat="43.67326" lon="7.09498">
        <ele>97</ele>
        <time>2015-03-31T17:42:21.000Z</time>
      </trkpt>
      <trkpt lat="43.67333" lon="7.09506">
        <ele>96</ele>
        <time>2015-03-31T17:42:25.000Z</time>
      </trkpt>
      <trkpt lat="43.6734" lon="7.09512">
        <ele>95.199996948242</ele>
        <time>2015-03-31T17:42:29.000Z</time>
      </trkpt>
      <trkpt lat="43.67348" lon="7.09519">
        <ele>94.400001525879</ele>
        <time>2015-03-31T17:42:33.000Z</time>
      </trkpt>
      <trkpt lat="43.67355" lon="7.09526">
        <ele>91.400001525879</ele>
        <time>2015-03-31T17:42:37.000Z</time>
      </trkpt>
      <trkpt lat="43.67363" lon="7.0953">
        <ele>90.599998474121</ele>
        <time>2015-03-31T17:42:41.000Z</time>
      </trkpt>
      <trkpt lat="43.67372" lon="7.09533">
        <ele>90</ele>
        <time>2015-03-31T17:42:46.000Z</time>
      </trkpt>
      <trkpt lat="43.67381" lon="7.09535">
        <ele>89.400001525879</ele>
        <time>2015-03-31T17:42:51.000Z</time>
      </trkpt>
      <trkpt lat="43.67391" lon="7.09539">
        <ele>88.599998474121</ele>
        <time>2015-03-31T17:42:55.000Z</time>
      </trkpt>
      <trkpt lat="43.67387" lon="7.09551">
        <ele>88</ele>
        <time>2015-03-31T17:43:05.000Z</time>
      </trkpt>
      <trkpt lat="43.67378" lon="7.09558">
        <ele>87.599998474121</ele>
        <time>2015-03-31T17:43:10.000Z</time>
      </trkpt>
      <trkpt lat="43.67371" lon="7.09564">
        <ele>86.800003051758</ele>
        <time>2015-03-31T17:43:14.000Z</time>
      </trkpt>
      <trkpt lat="43.67364" lon="7.09571">
        <ele>86.199996948242</ele>
        <time>2015-03-31T17:43:18.000Z</time>
      </trkpt>
      <trkpt lat="43.67355" lon="7.09575">
        <ele>86.400001525879</ele>
        <time>2015-03-31T17:43:24.000Z</time>
      </trkpt>
      <trkpt lat="43.67348" lon="7.09582">
        <ele>86.599998474121</ele>
        <time>2015-03-31T17:43:30.000Z</time>
      </trkpt>
      <trkpt lat="43.67339" lon="7.09586">
        <ele>89</ele>
        <time>2015-03-31T17:43:40.000Z</time>
      </trkpt>
      <trkpt lat="43.67332" lon="7.09592">
        <ele>90.400001525879</ele>
        <time>2015-03-31T17:43:46.000Z</time>
      </trkpt>
      <trkpt lat="43.67326" lon="7.096">
        <ele>91.599998474121</ele>
        <time>2015-03-31T17:44:16.000Z</time>
      </trkpt>
      <trkpt lat="43.67318" lon="7.09605">
        <ele>93</ele>
        <time>2015-03-31T17:44:27.000Z</time>
      </trkpt>
      <trkpt lat="43.67311" lon="7.09609">
        <ele>93.800003051758</ele>
        <time>2015-03-31T17:44:48.000Z</time>
      </trkpt>
      <trkpt lat="43.67304" lon="7.09616">
        <ele>94.599998474121</ele>
        <time>2015-03-31T17:45:25.000Z</time>
      </trkpt>
      <trkpt lat="43.67297" lon="7.09622">
        <ele>96</ele>
        <time>2015-03-31T17:45:50.000Z</time>
      </trkpt>
      <trkpt lat="43.67289" lon="7.09625">
        <ele>97.400001525879</ele>
        <time>2015-03-31T17:46:09.000Z</time>
      </trkpt>
      <trkpt lat="43.67282" lon="7.09632">
        <ele>98.599998474121</ele>
        <time>2015-03-31T17:46:24.000Z</time>
      </trkpt>
      <trkpt lat="43.67276" lon="7.09641">
        <ele>100</ele>
        <time>2015-03-31T17:46:41.000Z</time>
      </trkpt>
      <trkpt lat="43.67268" lon="7.09644">
        <ele>101.40000152588</ele>
        <time>2015-03-31T17:46:59.000Z</time>
      </trkpt>
      <trkpt lat="43.67268" lon="7.09633">
        <ele>102.59999847412</ele>
        <time>2015-03-31T17:47:29.000Z</time>
      </trkpt>
      <trkpt lat="43.6727" lon="7.09622">
        <ele>102.59999847412</ele>
        <time>2015-03-31T17:47:44.000Z</time>
      </trkpt>
      <trkpt lat="43.67265" lon="7.09611">
        <ele>102.59999847412</ele>
        <time>2015-03-31T17:47:58.000Z</time>
      </trkpt>
      <trkpt lat="43.6726" lon="7.09602">
        <ele>102.59999847412</ele>
        <time>2015-03-31T17:48:05.000Z</time>
      </trkpt>
      <trkpt lat="43.67255" lon="7.09593">
        <ele>103.40000152588</ele>
        <time>2015-03-31T17:48:17.000Z</time>
      </trkpt>
      <trkpt lat="43.67246" lon="7.0959">
        <ele>104.59999847412</ele>
        <time>2015-03-31T17:48:43.000Z</time>
      </trkpt>
      <trkpt lat="43.67238" lon="7.0959">
        <ele>105.40000152588</ele>
        <time>2015-03-31T17:48:56.000Z</time>
      </trkpt>
      <trkpt lat="43.67229" lon="7.09594">
        <ele>106</ele>
        <time>2015-03-31T17:49:01.000Z</time>
      </trkpt>
      <trkpt lat="43.6722" lon="7.09597">
        <ele>106.59999847412</ele>
        <time>2015-03-31T17:49:05.000Z</time>
      </trkpt>
      <trkpt lat="43.67211" lon="7.09598">
        <ele>107.19999694824</ele>
        <time>2015-03-31T17:49:09.000Z</time>
      </trkpt>
      <trkpt lat="43.67202" lon="7.09603">
        <ele>107.80000305176</ele>
        <time>2015-03-31T17:49:14.000Z</time>
      </trkpt>
      <trkpt lat="43.67198" lon="7.09613">
        <ele>108.59999847412</ele>
        <time>2015-03-31T17:49:19.000Z</time>
      </trkpt>
      <trkpt lat="43.67189" lon="7.09615">
        <ele>108.59999847412</ele>
        <time>2015-03-31T17:49:24.000Z</time>
      </trkpt>
      <trkpt lat="43.6718" lon="7.09619">
        <ele>108.59999847412</ele>
        <time>2015-03-31T17:49:28.000Z</time>
      </trkpt>
      <trkpt lat="43.67171" lon="7.09623">
        <ele>108.59999847412</ele>
        <time>2015-03-31T17:49:33.000Z</time>
      </trkpt>
      <trkpt lat="43.67162" lon="7.09626">
        <ele>109</ele>
        <time>2015-03-31T17:49:37.000Z</time>
      </trkpt>
      <trkpt lat="43.67153" lon="7.0963">
        <ele>108.59999847412</ele>
        <time>2015-03-31T17:49:41.000Z</time>
      </trkpt>
      <trkpt lat="43.67147" lon="7.09639">
        <ele>108.40000152588</ele>
        <time>2015-03-31T17:49:45.000Z</time>
      </trkpt>
      <trkpt lat="43.6714" lon="7.09647">
        <ele>108</ele>
        <time>2015-03-31T17:49:49.000Z</time>
      </trkpt>
      <trkpt lat="43.67133" lon="7.09654">
        <ele>107.59999847412</ele>
        <time>2015-03-31T17:49:54.000Z</time>
      </trkpt>
      <trkpt lat="43.67124" lon="7.09656">
        <ele>107.19999694824</ele>
        <time>2015-03-31T17:50:00.000Z</time>
      </trkpt>
      <trkpt lat="43.67115" lon="7.09653">
        <ele>106.80000305176</ele>
        <time>2015-03-31T17:50:04.000Z</time>
      </trkpt>
      <trkpt lat="43.67105" lon="7.09653">
        <ele>106.59999847412</ele>
        <time>2015-03-31T17:50:08.000Z</time>
      </trkpt>
      <trkpt lat="43.67096" lon="7.09649">
        <ele>106.59999847412</ele>
        <time>2015-03-31T17:50:12.000Z</time>
      </trkpt>
      <trkpt lat="43.67086" lon="7.09648">
        <ele>106.59999847412</ele>
        <time>2015-03-31T17:50:16.000Z</time>
      </trkpt>
      <trkpt lat="43.67077" lon="7.09651">
        <ele>106.80000305176</ele>
        <time>2015-03-31T17:50:20.000Z</time>
      </trkpt>
      <trkpt lat="43.67067" lon="7.09655">
        <ele>106.59999847412</ele>
        <time>2015-03-31T17:50:24.000Z</time>
      </trkpt>
      <trkpt lat="43.67058" lon="7.09657">
        <ele>106.59999847412</ele>
        <time>2015-03-31T17:50:27.000Z</time>
      </trkpt>
      <trkpt lat="43.67048" lon="7.09657">
        <ele>106.59999847412</ele>
        <time>2015-03-31T17:50:31.000Z</time>
      </trkpt>
      <trkpt lat="43.67039" lon="7.09661">
        <ele>106.59999847412</ele>
        <time>2015-03-31T17:50:34.000Z</time>
      </trkpt>
      <trkpt lat="43.67031" lon="7.09667">
        <ele>106.40000152588</ele>
        <time>2015-03-31T17:50:37.000Z</time>
      </trkpt>
      <trkpt lat="43.67022" lon="7.09677">
        <ele>106.40000152588</ele>
        <time>2015-03-31T17:50:40.000Z</time>
      </trkpt>
      <trkpt lat="43.67017" lon="7.09685">
        <ele>106.19999694824</ele>
        <time>2015-03-31T17:50:42.000Z</time>
      </trkpt>
      <trkpt lat="43.67008" lon="7.09696">
        <ele>104.59999847412</ele>
        <time>2015-03-31T17:50:45.000Z</time>
      </trkpt>
      <trkpt lat="43.66997" lon="7.09702">
        <ele>103.40000152588</ele>
        <time>2015-03-31T17:50:48.000Z</time>
      </trkpt>
      <trkpt lat="43.66986" lon="7.09705">
        <ele>102.40000152588</ele>
        <time>2015-03-31T17:50:51.000Z</time>
      </trkpt>
      <trkpt lat="43.66975" lon="7.09713">
        <ele>101.59999847412</ele>
        <time>2015-03-31T17:50:54.000Z</time>
      </trkpt>
      <trkpt lat="43.66967" lon="7.09719">
        <ele>100.59999847412</ele>
        <time>2015-03-31T17:50:56.000Z</time>
      </trkpt>
      <trkpt lat="43.66959" lon="7.09724">
        <ele>99.599998474121</ele>
        <time>2015-03-31T17:50:58.000Z</time>
      </trkpt>
      <trkpt lat="43.66951" lon="7.09725">
        <ele>98.599998474121</ele>
        <time>2015-03-31T17:51:00.000Z</time>
      </trkpt>
      <trkpt lat="43.66942" lon="7.09718">
        <ele>97.800003051758</ele>
        <time>2015-03-31T17:51:03.000Z</time>
      </trkpt>
      <trkpt lat="43.66936" lon="7.09706">
        <ele>97</ele>
        <time>2015-03-31T17:51:06.000Z</time>
      </trkpt>
      <trkpt lat="43.66933" lon="7.09693">
        <ele>96</ele>
        <time>2015-03-31T17:51:09.000Z</time>
      </trkpt>
      <trkpt lat="43.66926" lon="7.09682">
        <ele>94.599998474121</ele>
        <time>2015-03-31T17:51:12.000Z</time>
      </trkpt>
      <trkpt lat="43.66916" lon="7.09675">
        <ele>94.800003051758</ele>
        <time>2015-03-31T17:51:16.000Z</time>
      </trkpt>
      <trkpt lat="43.66907" lon="7.09666">
        <ele>95</ele>
        <time>2015-03-31T17:51:19.000Z</time>
      </trkpt>
      <trkpt lat="43.66898" lon="7.09657">
        <ele>94.599998474121</ele>
        <time>2015-03-31T17:51:22.000Z</time>
      </trkpt>
      <trkpt lat="43.66892" lon="7.0965">
        <ele>94.199996948242</ele>
        <time>2015-03-31T17:51:25.000Z</time>
      </trkpt>
      <trkpt lat="43.66879" lon="7.09645">
        <ele>93.800003051758</ele>
        <time>2015-03-31T17:51:28.000Z</time>
      </trkpt>
      <trkpt lat="43.6687" lon="7.0965">
        <ele>93.599998474121</ele>
        <time>2015-03-31T17:51:31.000Z</time>
      </trkpt>
      <trkpt lat="43.66866" lon="7.09662">
        <ele>92.599998474121</ele>
        <time>2015-03-31T17:51:34.000Z</time>
      </trkpt>
      <trkpt lat="43.66863" lon="7.09677">
        <ele>91.599998474121</ele>
        <time>2015-03-31T17:51:37.000Z</time>
      </trkpt>
      <trkpt lat="43.66861" lon="7.0969">
        <ele>90.599998474121</ele>
        <time>2015-03-31T17:51:40.000Z</time>
      </trkpt>
      <trkpt lat="43.66859" lon="7.09703">
        <ele>89.800003051758</ele>
        <time>2015-03-31T17:51:44.000Z</time>
      </trkpt>
      <trkpt lat="43.66856" lon="7.09717">
        <ele>89.400001525879</ele>
        <time>2015-03-31T17:51:48.000Z</time>
      </trkpt>
      <trkpt lat="43.6685" lon="7.09727">
        <ele>88.599998474121</ele>
        <time>2015-03-31T17:51:52.000Z</time>
      </trkpt>
      <trkpt lat="43.66843" lon="7.09738">
        <ele>88.199996948242</ele>
        <time>2015-03-31T17:51:56.000Z</time>
      </trkpt>
      <trkpt lat="43.66836" lon="7.0975">
        <ele>87.800003051758</ele>
        <time>2015-03-31T17:52:00.000Z</time>
      </trkpt>
      <trkpt lat="43.66831" lon="7.0976">
        <ele>87.599998474121</ele>
        <time>2015-03-31T17:52:03.000Z</time>
      </trkpt>
      <trkpt lat="43.66823" lon="7.09766">
        <ele>87</ele>
        <time>2015-03-31T17:52:06.000Z</time>
      </trkpt>
      <trkpt lat="43.66813" lon="7.09764">
        <ele>86.599998474121</ele>
        <time>2015-03-31T17:52:09.000Z</time>
      </trkpt>
      <trkpt lat="43.66803" lon="7.0976">
        <ele>87</ele>
        <time>2015-03-31T17:52:12.000Z</time>
      </trkpt>
      <trkpt lat="43.66794" lon="7.09757">
        <ele>87</ele>
        <time>2015-03-31T17:52:15.000Z</time>
      </trkpt>
      <trkpt lat="43.66784" lon="7.09757">
        <ele>87.400001525879</ele>
        <time>2015-03-31T17:52:18.000Z</time>
      </trkpt>
      <trkpt lat="43.66774" lon="7.09755">
        <ele>87.599998474121</ele>
        <time>2015-03-31T17:52:21.000Z</time>
      </trkpt>
      <trkpt lat="43.66763" lon="7.09755">
        <ele>87.599998474121</ele>
        <time>2015-03-31T17:52:24.000Z</time>
      </trkpt>
      <trkpt lat="43.66753" lon="7.09755">
        <ele>87.800003051758</ele>
        <time>2015-03-31T17:52:27.000Z</time>
      </trkpt>
      <trkpt lat="43.66744" lon="7.0975">
        <ele>88</ele>
        <time>2015-03-31T17:52:30.000Z</time>
      </trkpt>
      <trkpt lat="43.66736" lon="7.09745">
        <ele>87.800003051758</ele>
        <time>2015-03-31T17:52:33.000Z</time>
      </trkpt>
      <trkpt lat="43.6673" lon="7.09737">
        <ele>87.599998474121</ele>
        <time>2015-03-31T17:52:36.000Z</time>
      </trkpt>
      <trkpt lat="43.66722" lon="7.09728">
        <ele>87.599998474121</ele>
        <time>2015-03-31T17:52:39.000Z</time>
      </trkpt>
      <trkpt lat="43.66715" lon="7.09724">
        <ele>87.599998474121</ele>
        <time>2015-03-31T17:52:44.000Z</time>
      </trkpt>
      <trkpt lat="43.66706" lon="7.09733">
        <ele>87.400001525879</ele>
        <time>2015-03-31T17:53:41.000Z</time>
      </trkpt>
      <trkpt lat="43.66696" lon="7.09753">
        <ele>87</ele>
        <time>2015-03-31T17:53:44.000Z</time>
      </trkpt>
      <trkpt lat="43.66694" lon="7.0977">
        <ele>87</ele>
        <time>2015-03-31T17:53:46.000Z</time>
      </trkpt>
      <trkpt lat="43.66693" lon="7.09792">
        <ele>86.599998474121</ele>
        <time>2015-03-31T17:53:48.000Z</time>
      </trkpt>
      <trkpt lat="43.66693" lon="7.09811">
        <ele>86.199996948242</ele>
        <time>2015-03-31T17:53:50.000Z</time>
      </trkpt>
      <trkpt lat="43.66686" lon="7.09828">
        <ele>85.599998474121</ele>
        <time>2015-03-31T17:53:52.000Z</time>
      </trkpt>
      <trkpt lat="43.66677" lon="7.09845">
        <ele>85.199996948242</ele>
        <time>2015-03-31T17:53:54.000Z</time>
      </trkpt>
      <trkpt lat="43.66667" lon="7.09863">
        <ele>84.599998474121</ele>
        <time>2015-03-31T17:53:56.000Z</time>
      </trkpt>
      <trkpt lat="43.66665" lon="7.09881">
        <ele>83.599998474121</ele>
        <time>2015-03-31T17:53:58.000Z</time>
      </trkpt>
      <trkpt lat="43.66664" lon="7.09899">
        <ele>82.199996948242</ele>
        <time>2015-03-31T17:54:00.000Z</time>
      </trkpt>
      <trkpt lat="43.66656" lon="7.09915">
        <ele>81</ele>
        <time>2015-03-31T17:54:02.000Z</time>
      </trkpt>
      <trkpt lat="43.66652" lon="7.09931">
        <ele>79.800003051758</ele>
        <time>2015-03-31T17:54:04.000Z</time>
      </trkpt>
      <trkpt lat="43.66648" lon="7.09951">
        <ele>78.599998474121</ele>
        <time>2015-03-31T17:54:06.000Z</time>
      </trkpt>
      <trkpt lat="43.66649" lon="7.0997">
        <ele>77.599998474121</ele>
        <time>2015-03-31T17:54:08.000Z</time>
      </trkpt>
      <trkpt lat="43.66646" lon="7.09984">
        <ele>76.400001525879</ele>
        <time>2015-03-31T17:54:10.000Z</time>
      </trkpt>
      <trkpt lat="43.66639" lon="7.09995">
        <ele>74.599998474121</ele>
        <time>2015-03-31T17:54:12.000Z</time>
      </trkpt>
      <trkpt lat="43.66639" lon="7.10011">
        <ele>72.599998474121</ele>
        <time>2015-03-31T17:54:14.000Z</time>
      </trkpt>
      <trkpt lat="43.66644" lon="7.10021">
        <ele>70.800003051758</ele>
        <time>2015-03-31T17:54:16.000Z</time>
      </trkpt>
      <trkpt lat="43.66648" lon="7.10032">
        <ele>69</ele>
        <time>2015-03-31T17:54:18.000Z</time>
      </trkpt>
      <trkpt lat="43.6665" lon="7.10043">
        <ele>68</ele>
        <time>2015-03-31T17:54:20.000Z</time>
      </trkpt>
      <trkpt lat="43.66649" lon="7.10055">
        <ele>67</ele>
        <time>2015-03-31T17:54:22.000Z</time>
      </trkpt>
      <trkpt lat="43.66651" lon="7.10069">
        <ele>66</ele>
        <time>2015-03-31T17:54:24.000Z</time>
      </trkpt>
      <trkpt lat="43.66651" lon="7.10085">
        <ele>64.599998474121</ele>
        <time>2015-03-31T17:54:27.000Z</time>
      </trkpt>
      <trkpt lat="43.66656" lon="7.10099">
        <ele>63</ele>
        <time>2015-03-31T17:54:29.000Z</time>
      </trkpt>
      <trkpt lat="43.66661" lon="7.10108">
        <ele>61.599998474121</ele>
        <time>2015-03-31T17:54:31.000Z</time>
      </trkpt>
      <trkpt lat="43.66667" lon="7.1012">
        <ele>60.200000762939</ele>
        <time>2015-03-31T17:54:34.000Z</time>
      </trkpt>
      <trkpt lat="43.66677" lon="7.10129">
        <ele>59.200000762939</ele>
        <time>2015-03-31T17:54:36.000Z</time>
      </trkpt>
      <trkpt lat="43.66686" lon="7.10141">
        <ele>58.400001525879</ele>
        <time>2015-03-31T17:54:38.000Z</time>
      </trkpt>
      <trkpt lat="43.66691" lon="7.10156">
        <ele>57.599998474121</ele>
        <time>2015-03-31T17:54:40.000Z</time>
      </trkpt>
      <trkpt lat="43.66697" lon="7.10171">
        <ele>55.799999237061</ele>
        <time>2015-03-31T17:54:42.000Z</time>
      </trkpt>
      <trkpt lat="43.66703" lon="7.10182">
        <ele>54</ele>
        <time>2015-03-31T17:54:44.000Z</time>
      </trkpt>
      <trkpt lat="43.66709" lon="7.10192">
        <ele>52.200000762939</ele>
        <time>2015-03-31T17:54:46.000Z</time>
      </trkpt>
      <trkpt lat="43.66718" lon="7.10202">
        <ele>50.599998474121</ele>
        <time>2015-03-31T17:54:49.000Z</time>
      </trkpt>
      <trkpt lat="43.66725" lon="7.10211">
        <ele>49.200000762939</ele>
        <time>2015-03-31T17:54:52.000Z</time>
      </trkpt>
      <trkpt lat="43.6673" lon="7.10224">
        <ele>48</ele>
        <time>2015-03-31T17:54:55.000Z</time>
      </trkpt>
      <trkpt lat="43.66736" lon="7.10233">
        <ele>46.799999237061</ele>
        <time>2015-03-31T17:54:59.000Z</time>
      </trkpt>
      <trkpt lat="43.66743" lon="7.1024">
        <ele>45.599998474121</ele>
        <time>2015-03-31T17:55:03.000Z</time>
      </trkpt>
      <trkpt lat="43.66746" lon="7.10251">
        <ele>44.799999237061</ele>
        <time>2015-03-31T17:55:05.000Z</time>
      </trkpt>
      <trkpt lat="43.66748" lon="7.10263">
        <ele>44.200000762939</ele>
        <time>2015-03-31T17:55:07.000Z</time>
      </trkpt>
      <trkpt lat="43.66753" lon="7.10272">
        <ele>43.599998474121</ele>
        <time>2015-03-31T17:55:09.000Z</time>
      </trkpt>
      <trkpt lat="43.66762" lon="7.10282">
        <ele>42.599998474121</ele>
        <time>2015-03-31T17:55:12.000Z</time>
      </trkpt>
      <trkpt lat="43.66771" lon="7.10293">
        <ele>41.799999237061</ele>
        <time>2015-03-31T17:55:15.000Z</time>
      </trkpt>
      <trkpt lat="43.66779" lon="7.10304">
        <ele>40.799999237061</ele>
        <time>2015-03-31T17:55:17.000Z</time>
      </trkpt>
      <trkpt lat="43.66789" lon="7.10314">
        <ele>40</ele>
        <time>2015-03-31T17:55:19.000Z</time>
      </trkpt>
      <trkpt lat="43.66795" lon="7.10323">
        <ele>38.599998474121</ele>
        <time>2015-03-31T17:55:21.000Z</time>
      </trkpt>
      <trkpt lat="43.66805" lon="7.10333">
        <ele>37.400001525879</ele>
        <time>2015-03-31T17:55:24.000Z</time>
      </trkpt>
      <trkpt lat="43.6681" lon="7.10348">
        <ele>36</ele>
        <time>2015-03-31T17:55:27.000Z</time>
      </trkpt>
      <trkpt lat="43.66815" lon="7.10358">
        <ele>34.799999237061</ele>
        <time>2015-03-31T17:55:30.000Z</time>
      </trkpt>
      <trkpt lat="43.66815" lon="7.10371">
        <ele>33.400001525879</ele>
        <time>2015-03-31T17:55:35.000Z</time>
      </trkpt>
      <trkpt lat="43.66817" lon="7.10385">
        <ele>31.799999237061</ele>
        <time>2015-03-31T17:55:38.000Z</time>
      </trkpt>
      <trkpt lat="43.66819" lon="7.10396">
        <ele>30.60000038147</ele>
        <time>2015-03-31T17:55:40.000Z</time>
      </trkpt>
      <trkpt lat="43.66823" lon="7.10409">
        <ele>30.200000762939</ele>
        <time>2015-03-31T17:55:43.000Z</time>
      </trkpt>
      <trkpt lat="43.66817" lon="7.10417">
        <ele>29.799999237061</ele>
        <time>2015-03-31T17:55:48.000Z</time>
      </trkpt>
      <trkpt lat="43.66827" lon="7.10417">
        <ele>29.39999961853</ele>
        <time>2015-03-31T17:56:43.000Z</time>
      </trkpt>
      <trkpt lat="43.66839" lon="7.10414">
        <ele>28.799999237061</ele>
        <time>2015-03-31T17:56:46.000Z</time>
      </trkpt>
      <trkpt lat="43.66847" lon="7.10412">
        <ele>28.60000038147</ele>
        <time>2015-03-31T17:56:48.000Z</time>
      </trkpt>
      <trkpt lat="43.66858" lon="7.1041">
        <ele>28.60000038147</ele>
        <time>2015-03-31T17:56:50.000Z</time>
      </trkpt>
      <trkpt lat="43.66868" lon="7.10408">
        <ele>28.200000762939</ele>
        <time>2015-03-31T17:56:52.000Z</time>
      </trkpt>
      <trkpt lat="43.66877" lon="7.10406">
        <ele>28.200000762939</ele>
        <time>2015-03-31T17:56:54.000Z</time>
      </trkpt>
      <trkpt lat="43.66887" lon="7.10406">
        <ele>27.799999237061</ele>
        <time>2015-03-31T17:56:56.000Z</time>
      </trkpt>
      <trkpt lat="43.66897" lon="7.1041">
        <ele>27.799999237061</ele>
        <time>2015-03-31T17:56:58.000Z</time>
      </trkpt>
      <trkpt lat="43.66905" lon="7.10417">
        <ele>27.60000038147</ele>
        <time>2015-03-31T17:57:00.000Z</time>
      </trkpt>
      <trkpt lat="43.66913" lon="7.10424">
        <ele>26.799999237061</ele>
        <time>2015-03-31T17:57:02.000Z</time>
      </trkpt>
      <trkpt lat="43.66922" lon="7.10429">
        <ele>26.200000762939</ele>
        <time>2015-03-31T17:57:04.000Z</time>
      </trkpt>
      <trkpt lat="43.66931" lon="7.10433">
        <ele>25.60000038147</ele>
        <time>2015-03-31T17:57:06.000Z</time>
      </trkpt>
      <trkpt lat="43.66939" lon="7.10438">
        <ele>25.200000762939</ele>
        <time>2015-03-31T17:57:08.000Z</time>
      </trkpt>
      <trkpt lat="43.66943" lon="7.10449">
        <ele>24.799999237061</ele>
        <time>2015-03-31T17:57:10.000Z</time>
      </trkpt>
      <trkpt lat="43.66945" lon="7.10461">
        <ele>24.200000762939</ele>
        <time>2015-03-31T17:57:12.000Z</time>
      </trkpt>
      <trkpt lat="43.66943" lon="7.10475">
        <ele>23.799999237061</ele>
        <time>2015-03-31T17:57:14.000Z</time>
      </trkpt>
      <trkpt lat="43.6694" lon="7.10487">
        <ele>23.39999961853</ele>
        <time>2015-03-31T17:57:16.000Z</time>
      </trkpt>
      <trkpt lat="43.66934" lon="7.10499">
        <ele>22.799999237061</ele>
        <time>2015-03-31T17:57:18.000Z</time>
      </trkpt>
      <trkpt lat="43.66928" lon="7.10513">
        <ele>22.60000038147</ele>
        <time>2015-03-31T17:57:20.000Z</time>
      </trkpt>
      <trkpt lat="43.66922" lon="7.10527">
        <ele>22</ele>
        <time>2015-03-31T17:57:22.000Z</time>
      </trkpt>
      <trkpt lat="43.66917" lon="7.1054">
        <ele>22</ele>
        <time>2015-03-31T17:57:24.000Z</time>
      </trkpt>
      <trkpt lat="43.66912" lon="7.10553">
        <ele>22</ele>
        <time>2015-03-31T17:57:26.000Z</time>
      </trkpt>
      <trkpt lat="43.66906" lon="7.1057">
        <ele>22</ele>
        <time>2015-03-31T17:57:30.000Z</time>
      </trkpt>
      <trkpt lat="43.66901" lon="7.10582">
        <ele>21.799999237061</ele>
        <time>2015-03-31T17:57:31.000Z</time>
      </trkpt>
      <trkpt lat="43.66897" lon="7.10596">
        <ele>21.60000038147</ele>
        <time>2015-03-31T17:57:33.000Z</time>
      </trkpt>
      <trkpt lat="43.66894" lon="7.1061">
        <ele>21.39999961853</ele>
        <time>2015-03-31T17:57:35.000Z</time>
      </trkpt>
      <trkpt lat="43.66892" lon="7.10624">
        <ele>21.200000762939</ele>
        <time>2015-03-31T17:57:37.000Z</time>
      </trkpt>
      <trkpt lat="43.6689" lon="7.10636">
        <ele>21.200000762939</ele>
        <time>2015-03-31T17:57:39.000Z</time>
      </trkpt>
      <trkpt lat="43.66887" lon="7.10651">
        <ele>21.200000762939</ele>
        <time>2015-03-31T17:57:41.000Z</time>
      </trkpt>
      <trkpt lat="43.66884" lon="7.10665">
        <ele>21</ele>
        <time>2015-03-31T17:57:43.000Z</time>
      </trkpt>
      <trkpt lat="43.66879" lon="7.10679">
        <ele>20.799999237061</ele>
        <time>2015-03-31T17:57:45.000Z</time>
      </trkpt>
      <trkpt lat="43.66877" lon="7.10693">
        <ele>20.799999237061</ele>
        <time>2015-03-31T17:57:47.000Z</time>
      </trkpt>
      <trkpt lat="43.66872" lon="7.10707">
        <ele>20.799999237061</ele>
        <time>2015-03-31T17:57:49.000Z</time>
      </trkpt>
      <trkpt lat="43.66867" lon="7.10723">
        <ele>20.60000038147</ele>
        <time>2015-03-31T17:57:51.000Z</time>
      </trkpt>
      <trkpt lat="43.66863" lon="7.10738">
        <ele>20.799999237061</ele>
        <time>2015-03-31T17:57:53.000Z</time>
      </trkpt>
      <trkpt lat="43.66858" lon="7.10754">
        <ele>21</ele>
        <time>2015-03-31T17:57:55.000Z</time>
      </trkpt>
      <trkpt lat="43.66854" lon="7.1077">
        <ele>21</ele>
        <time>2015-03-31T17:57:57.000Z</time>
      </trkpt>
      <trkpt lat="43.6685" lon="7.10785">
        <ele>21</ele>
        <time>2015-03-31T17:57:59.000Z</time>
      </trkpt>
      <trkpt lat="43.66847" lon="7.10801">
        <ele>21</ele>
        <time>2015-03-31T17:58:01.000Z</time>
      </trkpt>
      <trkpt lat="43.66845" lon="7.10818">
        <ele>21.200000762939</ele>
        <time>2015-03-31T17:58:03.000Z</time>
      </trkpt>
      <trkpt lat="43.66843" lon="7.10835">
        <ele>21.200000762939</ele>
        <time>2015-03-31T17:58:05.000Z</time>
      </trkpt>
      <trkpt lat="43.66839" lon="7.1085">
        <ele>21.200000762939</ele>
        <time>2015-03-31T17:58:07.000Z</time>
      </trkpt>
      <trkpt lat="43.66834" lon="7.10866">
        <ele>21.39999961853</ele>
        <time>2015-03-31T17:58:09.000Z</time>
      </trkpt>
      <trkpt lat="43.66828" lon="7.1088">
        <ele>21.60000038147</ele>
        <time>2015-03-31T17:58:11.000Z</time>
      </trkpt>
      <trkpt lat="43.66822" lon="7.10895">
        <ele>21.60000038147</ele>
        <time>2015-03-31T17:58:13.000Z</time>
      </trkpt>
      <trkpt lat="43.66817" lon="7.1091">
        <ele>22.60000038147</ele>
        <time>2015-03-31T17:58:15.000Z</time>
      </trkpt>
      <trkpt lat="43.66815" lon="7.10926">
        <ele>23.39999961853</ele>
        <time>2015-03-31T17:58:17.000Z</time>
      </trkpt>
      <trkpt lat="43.66813" lon="7.10942">
        <ele>24.200000762939</ele>
        <time>2015-03-31T17:58:19.000Z</time>
      </trkpt>
      <trkpt lat="43.66811" lon="7.10957">
        <ele>25.200000762939</ele>
        <time>2015-03-31T17:58:21.000Z</time>
      </trkpt>
      <trkpt lat="43.66806" lon="7.10971">
        <ele>26.200000762939</ele>
        <time>2015-03-31T17:58:23.000Z</time>
      </trkpt>
      <trkpt lat="43.66798" lon="7.10981">
        <ele>26.799999237061</ele>
        <time>2015-03-31T17:58:25.000Z</time>
      </trkpt>
      <trkpt lat="43.66791" lon="7.10994">
        <ele>26.799999237061</ele>
        <time>2015-03-31T17:58:27.000Z</time>
      </trkpt>
      <trkpt lat="43.66785" lon="7.11007">
        <ele>26.799999237061</ele>
        <time>2015-03-31T17:58:29.000Z</time>
      </trkpt>
      <trkpt lat="43.66784" lon="7.11018">
        <ele>26.60000038147</ele>
        <time>2015-03-31T17:58:31.000Z</time>
      </trkpt>
      <trkpt lat="43.6679" lon="7.11029">
        <ele>26.60000038147</ele>
        <time>2015-03-31T17:58:33.000Z</time>
      </trkpt>
      <trkpt lat="43.66793" lon="7.11045">
        <ele>26.60000038147</ele>
        <time>2015-03-31T17:58:35.000Z</time>
      </trkpt>
      <trkpt lat="43.66793" lon="7.11059">
        <ele>25.60000038147</ele>
        <time>2015-03-31T17:58:37.000Z</time>
      </trkpt>
      <trkpt lat="43.66789" lon="7.11072">
        <ele>24.60000038147</ele>
        <time>2015-03-31T17:58:39.000Z</time>
      </trkpt>
      <trkpt lat="43.66782" lon="7.11085">
        <ele>23.799999237061</ele>
        <time>2015-03-31T17:58:41.000Z</time>
      </trkpt>
      <trkpt lat="43.66774" lon="7.11097">
        <ele>22.799999237061</ele>
        <time>2015-03-31T17:58:43.000Z</time>
      </trkpt>
      <trkpt lat="43.66768" lon="7.11107">
        <ele>21.799999237061</ele>
        <time>2015-03-31T17:58:45.000Z</time>
      </trkpt>
      <trkpt lat="43.66759" lon="7.11117">
        <ele>21</ele>
        <time>2015-03-31T17:58:47.000Z</time>
      </trkpt>
      <trkpt lat="43.66749" lon="7.11126">
        <ele>21</ele>
        <time>2015-03-31T17:58:49.000Z</time>
      </trkpt>
      <trkpt lat="43.66738" lon="7.11133">
        <ele>21</ele>
        <time>2015-03-31T17:58:51.000Z</time>
      </trkpt>
      <trkpt lat="43.66728" lon="7.11142">
        <ele>21</ele>
        <time>2015-03-31T17:58:53.000Z</time>
      </trkpt>
      <trkpt lat="43.66719" lon="7.11154">
        <ele>21</ele>
        <time>2015-03-31T17:58:55.000Z</time>
      </trkpt>
      <trkpt lat="43.66711" lon="7.11167">
        <ele>21</ele>
        <time>2015-03-31T17:58:57.000Z</time>
      </trkpt>
      <trkpt lat="43.667" lon="7.11176">
        <ele>21</ele>
        <time>2015-03-31T17:58:59.000Z</time>
      </trkpt>
      <trkpt lat="43.66688" lon="7.11177">
        <ele>21</ele>
        <time>2015-03-31T17:59:01.000Z</time>
      </trkpt>
      <trkpt lat="43.66676" lon="7.1118">
        <ele>21</ele>
        <time>2015-03-31T17:59:03.000Z</time>
      </trkpt>
      <trkpt lat="43.66665" lon="7.11186">
        <ele>21.60000038147</ele>
        <time>2015-03-31T17:59:05.000Z</time>
      </trkpt>
      <trkpt lat="43.66657" lon="7.11188">
        <ele>22.200000762939</ele>
        <time>2015-03-31T17:59:07.000Z</time>
      </trkpt>
      <trkpt lat="43.66648" lon="7.11185">
        <ele>22.799999237061</ele>
        <time>2015-03-31T17:59:10.000Z</time>
      </trkpt>
      <trkpt lat="43.66639" lon="7.11182">
        <ele>23.200000762939</ele>
        <time>2015-03-31T17:59:13.000Z</time>
      </trkpt>
      <trkpt lat="43.66628" lon="7.11184">
        <ele>23.60000038147</ele>
        <time>2015-03-31T17:59:16.000Z</time>
      </trkpt>
      <trkpt lat="43.66618" lon="7.1119">
        <ele>23.799999237061</ele>
        <time>2015-03-31T17:59:19.000Z</time>
      </trkpt>
      <trkpt lat="43.66611" lon="7.11197">
        <ele>24</ele>
        <time>2015-03-31T17:59:21.000Z</time>
      </trkpt>
      <trkpt lat="43.66605" lon="7.11205">
        <ele>24.200000762939</ele>
        <time>2015-03-31T17:59:23.000Z</time>
      </trkpt>
      <trkpt lat="43.66596" lon="7.11213">
        <ele>24.60000038147</ele>
        <time>2015-03-31T17:59:25.000Z</time>
      </trkpt>
      <trkpt lat="43.66587" lon="7.11217">
        <ele>25.39999961853</ele>
        <time>2015-03-31T17:59:27.000Z</time>
      </trkpt>
      <trkpt lat="43.66578" lon="7.11225">
        <ele>26.200000762939</ele>
        <time>2015-03-31T17:59:29.000Z</time>
      </trkpt>
      <trkpt lat="43.6657" lon="7.11232">
        <ele>26.39999961853</ele>
        <time>2015-03-31T17:59:31.000Z</time>
      </trkpt>
      <trkpt lat="43.66562" lon="7.11236">
        <ele>26.60000038147</ele>
        <time>2015-03-31T17:59:33.000Z</time>
      </trkpt>
      <trkpt lat="43.66553" lon="7.11242">
        <ele>26.799999237061</ele>
        <time>2015-03-31T17:59:35.000Z</time>
      </trkpt>
      <trkpt lat="43.66543" lon="7.1125">
        <ele>27.200000762939</ele>
        <time>2015-03-31T17:59:37.000Z</time>
      </trkpt>
      <trkpt lat="43.66535" lon="7.11255">
        <ele>27.799999237061</ele>
        <time>2015-03-31T17:59:39.000Z</time>
      </trkpt>
      <trkpt lat="43.66523" lon="7.11255">
        <ele>28.39999961853</ele>
        <time>2015-03-31T17:59:41.000Z</time>
      </trkpt>
      <trkpt lat="43.66516" lon="7.11241">
        <ele>28.799999237061</ele>
        <time>2015-03-31T17:59:44.000Z</time>
      </trkpt>
      <trkpt lat="43.6651" lon="7.11227">
        <ele>29.60000038147</ele>
        <time>2015-03-31T17:59:47.000Z</time>
      </trkpt>
      <trkpt lat="43.66507" lon="7.11214">
        <ele>30.200000762939</ele>
        <time>2015-03-31T17:59:50.000Z</time>
      </trkpt>
      <trkpt lat="43.66499" lon="7.11214">
        <ele>30.39999961853</ele>
        <time>2015-03-31T18:00:17.000Z</time>
      </trkpt>
      <trkpt lat="43.66484" lon="7.11223">
        <ele>30.60000038147</ele>
        <time>2015-03-31T18:00:19.000Z</time>
      </trkpt>
      <trkpt lat="43.66476" lon="7.11228">
        <ele>30.799999237061</ele>
        <time>2015-03-31T18:00:21.000Z</time>
      </trkpt>
      <trkpt lat="43.66467" lon="7.11236">
        <ele>30.799999237061</ele>
        <time>2015-03-31T18:00:23.000Z</time>
      </trkpt>
      <trkpt lat="43.66459" lon="7.11246">
        <ele>31.200000762939</ele>
        <time>2015-03-31T18:00:25.000Z</time>
      </trkpt>
      <trkpt lat="43.66452" lon="7.11254">
        <ele>31.200000762939</ele>
        <time>2015-03-31T18:00:27.000Z</time>
      </trkpt>
      <trkpt lat="43.66445" lon="7.11266">
        <ele>30.799999237061</ele>
        <time>2015-03-31T18:00:29.000Z</time>
      </trkpt>
      <trkpt lat="43.66435" lon="7.11271">
        <ele>30.39999961853</ele>
        <time>2015-03-31T18:00:31.000Z</time>
      </trkpt>
      <trkpt lat="43.66424" lon="7.1127">
        <ele>30.200000762939</ele>
        <time>2015-03-31T18:00:33.000Z</time>
      </trkpt>
      <trkpt lat="43.66413" lon="7.11273">
        <ele>30</ele>
        <time>2015-03-31T18:00:36.000Z</time>
      </trkpt>
      <trkpt lat="43.66406" lon="7.11286">
        <ele>29.60000038147</ele>
        <time>2015-03-31T18:00:38.000Z</time>
      </trkpt>
      <trkpt lat="43.66396" lon="7.11297">
        <ele>29.200000762939</ele>
        <time>2015-03-31T18:00:40.000Z</time>
      </trkpt>
      <trkpt lat="43.66385" lon="7.11308">
        <ele>28.799999237061</ele>
        <time>2015-03-31T18:00:42.000Z</time>
      </trkpt>
      <trkpt lat="43.66372" lon="7.11313">
        <ele>28.60000038147</ele>
        <time>2015-03-31T18:00:44.000Z</time>
      </trkpt>
      <trkpt lat="43.6636" lon="7.11319">
        <ele>28.200000762939</ele>
        <time>2015-03-31T18:00:46.000Z</time>
      </trkpt>
      <trkpt lat="43.66348" lon="7.11325">
        <ele>28.200000762939</ele>
        <time>2015-03-31T18:00:48.000Z</time>
      </trkpt>
      <trkpt lat="43.66336" lon="7.1133">
        <ele>28.200000762939</ele>
        <time>2015-03-31T18:00:50.000Z</time>
      </trkpt>
      <trkpt lat="43.66323" lon="7.11337">
        <ele>28.799999237061</ele>
        <time>2015-03-31T18:00:52.000Z</time>
      </trkpt>
      <trkpt lat="43.66312" lon="7.11343">
        <ele>29.60000038147</ele>
        <time>2015-03-31T18:00:54.000Z</time>
      </trkpt>
      <trkpt lat="43.66299" lon="7.11346">
        <ele>29.799999237061</ele>
        <time>2015-03-31T18:00:56.000Z</time>
      </trkpt>
      <trkpt lat="43.66286" lon="7.11347">
        <ele>30.200000762939</ele>
        <time>2015-03-31T18:00:58.000Z</time>
      </trkpt>
      <trkpt lat="43.66273" lon="7.11351">
        <ele>30.60000038147</ele>
        <time>2015-03-31T18:01:00.000Z</time>
      </trkpt>
      <trkpt lat="43.66261" lon="7.11356">
        <ele>30.39999961853</ele>
        <time>2015-03-31T18:01:02.000Z</time>
      </trkpt>
      <trkpt lat="43.66248" lon="7.11358">
        <ele>30.200000762939</ele>
        <time>2015-03-31T18:01:04.000Z</time>
      </trkpt>
      <trkpt lat="43.66237" lon="7.11361">
        <ele>30</ele>
        <time>2015-03-31T18:01:06.000Z</time>
      </trkpt>
      <trkpt lat="43.66222" lon="7.11366">
        <ele>29.799999237061</ele>
        <time>2015-03-31T18:01:08.000Z</time>
      </trkpt>
      <trkpt lat="43.6621" lon="7.11375">
        <ele>29.200000762939</ele>
        <time>2015-03-31T18:01:10.000Z</time>
      </trkpt>
      <trkpt lat="43.66199" lon="7.11384">
        <ele>28.799999237061</ele>
        <time>2015-03-31T18:01:12.000Z</time>
      </trkpt>
      <trkpt lat="43.66188" lon="7.11392">
        <ele>28.200000762939</ele>
        <time>2015-03-31T18:01:14.000Z</time>
      </trkpt>
      <trkpt lat="43.66175" lon="7.11396">
        <ele>28.799999237061</ele>
        <time>2015-03-31T18:01:16.000Z</time>
      </trkpt>
      <trkpt lat="43.66165" lon="7.11401">
        <ele>29.60000038147</ele>
        <time>2015-03-31T18:01:18.000Z</time>
      </trkpt>
      <trkpt lat="43.66155" lon="7.1141">
        <ele>28.799999237061</ele>
        <time>2015-03-31T18:01:20.000Z</time>
      </trkpt>
      <trkpt lat="43.66144" lon="7.11418">
        <ele>28.39999961853</ele>
        <time>2015-03-31T18:01:22.000Z</time>
      </trkpt>
      <trkpt lat="43.66134" lon="7.1143">
        <ele>28.39999961853</ele>
        <time>2015-03-31T18:01:24.000Z</time>
      </trkpt>
      <trkpt lat="43.66124" lon="7.11441">
        <ele>28.39999961853</ele>
        <time>2015-03-31T18:01:26.000Z</time>
      </trkpt>
      <trkpt lat="43.66112" lon="7.11454">
        <ele>28.39999961853</ele>
        <time>2015-03-31T18:01:28.000Z</time>
      </trkpt>
      <trkpt lat="43.66105" lon="7.11461">
        <ele>28.39999961853</ele>
        <time>2015-03-31T18:01:29.000Z</time>
      </trkpt>
      <trkpt lat="43.66094" lon="7.11474">
        <ele>27.60000038147</ele>
        <time>2015-03-31T18:01:31.000Z</time>
      </trkpt>
      <trkpt lat="43.66084" lon="7.11486">
        <ele>26.60000038147</ele>
        <time>2015-03-31T18:01:33.000Z</time>
      </trkpt>
      <trkpt lat="43.66076" lon="7.11503">
        <ele>25.60000038147</ele>
        <time>2015-03-31T18:01:35.000Z</time>
      </trkpt>
      <trkpt lat="43.6607" lon="7.11517">
        <ele>26.200000762939</ele>
        <time>2015-03-31T18:01:37.000Z</time>
      </trkpt>
      <trkpt lat="43.66062" lon="7.11531">
        <ele>26.60000038147</ele>
        <time>2015-03-31T18:01:39.000Z</time>
      </trkpt>
      <trkpt lat="43.66059" lon="7.11548">
        <ele>28.200000762939</ele>
        <time>2015-03-31T18:01:41.000Z</time>
      </trkpt>
      <trkpt lat="43.66054" lon="7.11566">
        <ele>28.200000762939</ele>
        <time>2015-03-31T18:01:43.000Z</time>
      </trkpt>
      <trkpt lat="43.66048" lon="7.11583">
        <ele>28.200000762939</ele>
        <time>2015-03-31T18:01:45.000Z</time>
      </trkpt>
      <trkpt lat="43.66043" lon="7.11599">
        <ele>28.200000762939</ele>
        <time>2015-03-31T18:01:47.000Z</time>
      </trkpt>
      <trkpt lat="43.66037" lon="7.11615">
        <ele>28.200000762939</ele>
        <time>2015-03-31T18:01:49.000Z</time>
      </trkpt>
      <trkpt lat="43.66036" lon="7.11629">
        <ele>28.200000762939</ele>
        <time>2015-03-31T18:01:51.000Z</time>
      </trkpt>
      <trkpt lat="43.66031" lon="7.11644">
        <ele>29.200000762939</ele>
        <time>2015-03-31T18:01:53.000Z</time>
      </trkpt>
      <trkpt lat="43.66023" lon="7.11655">
        <ele>30</ele>
        <time>2015-03-31T18:01:55.000Z</time>
      </trkpt>
      <trkpt lat="43.66016" lon="7.11663">
        <ele>30.799999237061</ele>
        <time>2015-03-31T18:01:57.000Z</time>
      </trkpt>
      <trkpt lat="43.6601" lon="7.11672">
        <ele>28.60000038147</ele>
        <time>2015-03-31T18:01:59.000Z</time>
      </trkpt>
      <trkpt lat="43.66007" lon="7.11683">
        <ele>26.200000762939</ele>
        <time>2015-03-31T18:02:01.000Z</time>
      </trkpt>
      <trkpt lat="43.66" lon="7.11696">
        <ele>23.799999237061</ele>
        <time>2015-03-31T18:02:03.000Z</time>
      </trkpt>
      <trkpt lat="43.65992" lon="7.11705">
        <ele>23.60000038147</ele>
        <time>2015-03-31T18:02:06.000Z</time>
      </trkpt>
      <trkpt lat="43.65984" lon="7.11715">
        <ele>23.200000762939</ele>
        <time>2015-03-31T18:02:08.000Z</time>
      </trkpt>
      <trkpt lat="43.65978" lon="7.1173">
        <ele>22.799999237061</ele>
        <time>2015-03-31T18:02:10.000Z</time>
      </trkpt>
      <trkpt lat="43.65973" lon="7.11741">
        <ele>21.60000038147</ele>
        <time>2015-03-31T18:02:12.000Z</time>
      </trkpt>
      <trkpt lat="43.65966" lon="7.11758">
        <ele>20.39999961853</ele>
        <time>2015-03-31T18:02:14.000Z</time>
      </trkpt>
      <trkpt lat="43.65959" lon="7.11773">
        <ele>19.200000762939</ele>
        <time>2015-03-31T18:02:16.000Z</time>
      </trkpt>
      <trkpt lat="43.65953" lon="7.11788">
        <ele>18</ele>
        <time>2015-03-31T18:02:18.000Z</time>
      </trkpt>
      <trkpt lat="43.65946" lon="7.11795">
        <ele>16.799999237061</ele>
        <time>2015-03-31T18:02:20.000Z</time>
      </trkpt>
      <trkpt lat="43.6594" lon="7.11811">
        <ele>16.39999961853</ele>
        <time>2015-03-31T18:02:22.000Z</time>
      </trkpt>
      <trkpt lat="43.65934" lon="7.11827">
        <ele>15.800000190735</ele>
        <time>2015-03-31T18:02:24.000Z</time>
      </trkpt>
      <trkpt lat="43.65928" lon="7.11843">
        <ele>15.60000038147</ele>
        <time>2015-03-31T18:02:26.000Z</time>
      </trkpt>
      <trkpt lat="43.65923" lon="7.11859">
        <ele>14.60000038147</ele>
        <time>2015-03-31T18:02:28.000Z</time>
      </trkpt>
      <trkpt lat="43.65918" lon="7.11874">
        <ele>13.800000190735</ele>
        <time>2015-03-31T18:02:30.000Z</time>
      </trkpt>
      <trkpt lat="43.65908" lon="7.11889">
        <ele>13</ele>
        <time>2015-03-31T18:02:32.000Z</time>
      </trkpt>
      <trkpt lat="43.65899" lon="7.11903">
        <ele>13</ele>
        <time>2015-03-31T18:02:34.000Z</time>
      </trkpt>
      <trkpt lat="43.6589" lon="7.11912">
        <ele>13.199999809265</ele>
        <time>2015-03-31T18:02:36.000Z</time>
      </trkpt>
      <trkpt lat="43.65883" lon="7.11922">
        <ele>13.199999809265</ele>
        <time>2015-03-31T18:02:38.000Z</time>
      </trkpt>
      <trkpt lat="43.65877" lon="7.1193">
        <ele>13.39999961853</ele>
        <time>2015-03-31T18:02:40.000Z</time>
      </trkpt>
      <trkpt lat="43.65867" lon="7.11943">
        <ele>13.39999961853</ele>
        <time>2015-03-31T18:02:42.000Z</time>
      </trkpt>
      <trkpt lat="43.6586" lon="7.11957">
        <ele>13.60000038147</ele>
        <time>2015-03-31T18:02:44.000Z</time>
      </trkpt>
      <trkpt lat="43.65851" lon="7.11969">
        <ele>13.60000038147</ele>
        <time>2015-03-31T18:02:46.000Z</time>
      </trkpt>
      <trkpt lat="43.65842" lon="7.11981">
        <ele>14.199999809265</ele>
        <time>2015-03-31T18:02:48.000Z</time>
      </trkpt>
      <trkpt lat="43.65833" lon="7.11991">
        <ele>14.60000038147</ele>
        <time>2015-03-31T18:02:50.000Z</time>
      </trkpt>
      <trkpt lat="43.65824" lon="7.11999">
        <ele>15.199999809265</ele>
        <time>2015-03-31T18:02:52.000Z</time>
      </trkpt>
      <trkpt lat="43.65815" lon="7.12004">
        <ele>15.60000038147</ele>
        <time>2015-03-31T18:02:54.000Z</time>
      </trkpt>
      <trkpt lat="43.65806" lon="7.1201">
        <ele>16.200000762939</ele>
        <time>2015-03-31T18:02:56.000Z</time>
      </trkpt>
      <trkpt lat="43.65792" lon="7.12019">
        <ele>16.799999237061</ele>
        <time>2015-03-31T18:02:58.000Z</time>
      </trkpt>
      <trkpt lat="43.65782" lon="7.12027">
        <ele>17.200000762939</ele>
        <time>2015-03-31T18:03:00.000Z</time>
      </trkpt>
      <trkpt lat="43.65773" lon="7.12028">
        <ele>17.60000038147</ele>
        <time>2015-03-31T18:03:02.000Z</time>
      </trkpt>
      <trkpt lat="43.65761" lon="7.1203">
        <ele>18.200000762939</ele>
        <time>2015-03-31T18:03:04.000Z</time>
      </trkpt>
      <trkpt lat="43.6575" lon="7.12031">
        <ele>18.200000762939</ele>
        <time>2015-03-31T18:03:06.000Z</time>
      </trkpt>
      <trkpt lat="43.65741" lon="7.1203">
        <ele>18.200000762939</ele>
        <time>2015-03-31T18:03:08.000Z</time>
      </trkpt>
      <trkpt lat="43.65731" lon="7.12029">
        <ele>17.799999237061</ele>
        <time>2015-03-31T18:03:10.000Z</time>
      </trkpt>
      <trkpt lat="43.65722" lon="7.12025">
        <ele>17.60000038147</ele>
        <time>2015-03-31T18:03:12.000Z</time>
      </trkpt>
      <trkpt lat="43.65715" lon="7.12018">
        <ele>17.200000762939</ele>
        <time>2015-03-31T18:03:14.000Z</time>
      </trkpt>
      <trkpt lat="43.65706" lon="7.12016">
        <ele>16.799999237061</ele>
        <time>2015-03-31T18:03:17.000Z</time>
      </trkpt>
      <trkpt lat="43.65699" lon="7.12022">
        <ele>16.60000038147</ele>
        <time>2015-03-31T18:03:24.000Z</time>
      </trkpt>
      <trkpt lat="43.65691" lon="7.12017">
        <ele>16.200000762939</ele>
        <time>2015-03-31T18:03:29.000Z</time>
      </trkpt>
      <trkpt lat="43.6569" lon="7.12006">
        <ele>16</ele>
        <time>2015-03-31T18:03:32.000Z</time>
      </trkpt>
      <trkpt lat="43.65692" lon="7.11992">
        <ele>15.60000038147</ele>
        <time>2015-03-31T18:03:35.000Z</time>
      </trkpt>
      <trkpt lat="43.65693" lon="7.11977">
        <ele>15.60000038147</ele>
        <time>2015-03-31T18:03:38.000Z</time>
      </trkpt>
      <trkpt lat="43.65694" lon="7.11965">
        <ele>15.60000038147</ele>
        <time>2015-03-31T18:03:40.000Z</time>
      </trkpt>
      <trkpt lat="43.65696" lon="7.11953">
        <ele>15.60000038147</ele>
        <time>2015-03-31T18:03:42.000Z</time>
      </trkpt>
      <trkpt lat="43.65698" lon="7.11942">
        <ele>15.800000190735</ele>
        <time>2015-03-31T18:03:45.000Z</time>
      </trkpt>
      <trkpt lat="43.65699" lon="7.11927">
        <ele>16.200000762939</ele>
        <time>2015-03-31T18:03:46.000Z</time>
      </trkpt>
      <trkpt lat="43.65701" lon="7.11913">
        <ele>17.200000762939</ele>
        <time>2015-03-31T18:03:48.000Z</time>
      </trkpt>
      <trkpt lat="43.65703" lon="7.11899">
        <ele>18</ele>
        <time>2015-03-31T18:03:50.000Z</time>
      </trkpt>
      <trkpt lat="43.65705" lon="7.11888">
        <ele>18.799999237061</ele>
        <time>2015-03-31T18:03:52.000Z</time>
      </trkpt>
      <trkpt lat="43.65707" lon="7.11873">
        <ele>20</ele>
        <time>2015-03-31T18:03:54.000Z</time>
      </trkpt>
      <trkpt lat="43.65708" lon="7.11857">
        <ele>21.200000762939</ele>
        <time>2015-03-31T18:03:56.000Z</time>
      </trkpt>
      <trkpt lat="43.6571" lon="7.11845">
        <ele>22.39999961853</ele>
        <time>2015-03-31T18:03:58.000Z</time>
      </trkpt>
      <trkpt lat="43.65713" lon="7.11829">
        <ele>23.60000038147</ele>
        <time>2015-03-31T18:04:01.000Z</time>
      </trkpt>
      <trkpt lat="43.65715" lon="7.1181">
        <ele>24.799999237061</ele>
        <time>2015-03-31T18:04:02.000Z</time>
      </trkpt>
      <trkpt lat="43.65715" lon="7.11792">
        <ele>25.200000762939</ele>
        <time>2015-03-31T18:04:04.000Z</time>
      </trkpt>
      <trkpt lat="43.65716" lon="7.11775">
        <ele>25.60000038147</ele>
        <time>2015-03-31T18:04:06.000Z</time>
      </trkpt>
      <trkpt lat="43.65718" lon="7.11759">
        <ele>25.799999237061</ele>
        <time>2015-03-31T18:04:08.000Z</time>
      </trkpt>
      <trkpt lat="43.65719" lon="7.11741">
        <ele>25.39999961853</ele>
        <time>2015-03-31T18:04:10.000Z</time>
      </trkpt>
      <trkpt lat="43.6572" lon="7.11724">
        <ele>25</ele>
        <time>2015-03-31T18:04:12.000Z</time>
      </trkpt>
      <trkpt lat="43.65723" lon="7.11706">
        <ele>24.200000762939</ele>
        <time>2015-03-31T18:04:14.000Z</time>
      </trkpt>
      <trkpt lat="43.65727" lon="7.11688">
        <ele>23</ele>
        <time>2015-03-31T18:04:16.000Z</time>
      </trkpt>
      <trkpt lat="43.65731" lon="7.1167">
        <ele>21.799999237061</ele>
        <time>2015-03-31T18:04:18.000Z</time>
      </trkpt>
      <trkpt lat="43.65737" lon="7.11656">
        <ele>20.60000038147</ele>
        <time>2015-03-31T18:04:20.000Z</time>
      </trkpt>
      <trkpt lat="43.65745" lon="7.11643">
        <ele>19.60000038147</ele>
        <time>2015-03-31T18:04:22.000Z</time>
      </trkpt>
      <trkpt lat="43.65753" lon="7.11629">
        <ele>18.200000762939</ele>
        <time>2015-03-31T18:04:24.000Z</time>
      </trkpt>
      <trkpt lat="43.65763" lon="7.11618">
        <ele>17.799999237061</ele>
        <time>2015-03-31T18:04:26.000Z</time>
      </trkpt>
      <trkpt lat="43.65772" lon="7.11605">
        <ele>17.200000762939</ele>
        <time>2015-03-31T18:04:28.000Z</time>
      </trkpt>
      <trkpt lat="43.65779" lon="7.11593">
        <ele>16.60000038147</ele>
        <time>2015-03-31T18:04:30.000Z</time>
      </trkpt>
      <trkpt lat="43.65784" lon="7.11576">
        <ele>15.800000190735</ele>
        <time>2015-03-31T18:04:32.000Z</time>
      </trkpt>
      <trkpt lat="43.65788" lon="7.11562">
        <ele>15.39999961853</ele>
        <time>2015-03-31T18:04:34.000Z</time>
      </trkpt>
      <trkpt lat="43.65787" lon="7.1155">
        <ele>15.199999809265</ele>
        <time>2015-03-31T18:04:35.000Z</time>
      </trkpt>
      <trkpt lat="43.6579" lon="7.11529">
        <ele>16.60000038147</ele>
        <time>2015-03-31T18:04:37.000Z</time>
      </trkpt>
      <trkpt lat="43.65793" lon="7.11513">
        <ele>17.799999237061</ele>
        <time>2015-03-31T18:04:39.000Z</time>
      </trkpt>
      <trkpt lat="43.65794" lon="7.11493">
        <ele>19.200000762939</ele>
        <time>2015-03-31T18:04:41.000Z</time>
      </trkpt>
      <trkpt lat="43.65795" lon="7.11475">
        <ele>20.60000038147</ele>
        <time>2015-03-31T18:04:43.000Z</time>
      </trkpt>
      <trkpt lat="43.65797" lon="7.11457">
        <ele>22.200000762939</ele>
        <time>2015-03-31T18:04:45.000Z</time>
      </trkpt>
      <trkpt lat="43.658" lon="7.11438">
        <ele>22.200000762939</ele>
        <time>2015-03-31T18:04:47.000Z</time>
      </trkpt>
      <trkpt lat="43.65801" lon="7.11421">
        <ele>22.39999961853</ele>
        <time>2015-03-31T18:04:49.000Z</time>
      </trkpt>
      <trkpt lat="43.65801" lon="7.11403">
        <ele>22.60000038147</ele>
        <time>2015-03-31T18:04:51.000Z</time>
      </trkpt>
      <trkpt lat="43.658" lon="7.11387">
        <ele>22.799999237061</ele>
        <time>2015-03-31T18:04:53.000Z</time>
      </trkpt>
      <trkpt lat="43.658" lon="7.11367">
        <ele>23.200000762939</ele>
        <time>2015-03-31T18:04:55.000Z</time>
      </trkpt>
      <trkpt lat="43.65794" lon="7.11349">
        <ele>23.799999237061</ele>
        <time>2015-03-31T18:04:57.000Z</time>
      </trkpt>
      <trkpt lat="43.65789" lon="7.11331">
        <ele>22.799999237061</ele>
        <time>2015-03-31T18:04:59.000Z</time>
      </trkpt>
      <trkpt lat="43.65783" lon="7.11314">
        <ele>21.799999237061</ele>
        <time>2015-03-31T18:05:01.000Z</time>
      </trkpt>
      <trkpt lat="43.65776" lon="7.11297">
        <ele>20.799999237061</ele>
        <time>2015-03-31T18:05:03.000Z</time>
      </trkpt>
      <trkpt lat="43.65771" lon="7.11278">
        <ele>19.799999237061</ele>
        <time>2015-03-31T18:05:05.000Z</time>
      </trkpt>
      <trkpt lat="43.65767" lon="7.11259">
        <ele>18.60000038147</ele>
        <time>2015-03-31T18:05:07.000Z</time>
      </trkpt>
      <trkpt lat="43.65764" lon="7.1124">
        <ele>18.799999237061</ele>
        <time>2015-03-31T18:05:09.000Z</time>
      </trkpt>
      <trkpt lat="43.65763" lon="7.11222">
        <ele>19.200000762939</ele>
        <time>2015-03-31T18:05:11.000Z</time>
      </trkpt>
      <trkpt lat="43.65763" lon="7.11203">
        <ele>19.60000038147</ele>
        <time>2015-03-31T18:05:13.000Z</time>
      </trkpt>
      <trkpt lat="43.65763" lon="7.11186">
        <ele>20</ele>
        <time>2015-03-31T18:05:15.000Z</time>
      </trkpt>
      <trkpt lat="43.65763" lon="7.11168">
        <ele>20</ele>
        <time>2015-03-31T18:05:17.000Z</time>
      </trkpt>
      <trkpt lat="43.65764" lon="7.11151">
        <ele>20</ele>
        <time>2015-03-31T18:05:19.000Z</time>
      </trkpt>
      <trkpt lat="43.65766" lon="7.11135">
        <ele>20</ele>
        <time>2015-03-31T18:05:21.000Z</time>
      </trkpt>
      <trkpt lat="43.65768" lon="7.11118">
        <ele>20.200000762939</ele>
        <time>2015-03-31T18:05:23.000Z</time>
      </trkpt>
      <trkpt lat="43.65769" lon="7.11101">
        <ele>20.200000762939</ele>
        <time>2015-03-31T18:05:25.000Z</time>
      </trkpt>
      <trkpt lat="43.65771" lon="7.11087">
        <ele>20.200000762939</ele>
        <time>2015-03-31T18:05:27.000Z</time>
      </trkpt>
      <trkpt lat="43.65773" lon="7.11072">
        <ele>20.39999961853</ele>
        <time>2015-03-31T18:05:29.000Z</time>
      </trkpt>
      <trkpt lat="43.65773" lon="7.11057">
        <ele>20.60000038147</ele>
        <time>2015-03-31T18:05:31.000Z</time>
      </trkpt>
      <trkpt lat="43.65773" lon="7.11039">
        <ele>20.60000038147</ele>
        <time>2015-03-31T18:05:33.000Z</time>
      </trkpt>
      <trkpt lat="43.65774" lon="7.11023">
        <ele>20.799999237061</ele>
        <time>2015-03-31T18:05:35.000Z</time>
      </trkpt>
      <trkpt lat="43.65776" lon="7.11006">
        <ele>21</ele>
        <time>2015-03-31T18:05:37.000Z</time>
      </trkpt>
      <trkpt lat="43.65776" lon="7.10988">
        <ele>21.200000762939</ele>
        <time>2015-03-31T18:05:39.000Z</time>
      </trkpt>
      <trkpt lat="43.65777" lon="7.1097">
        <ele>22</ele>
        <time>2015-03-31T18:05:41.000Z</time>
      </trkpt>
      <trkpt lat="43.65778" lon="7.10952">
        <ele>22.799999237061</ele>
        <time>2015-03-31T18:05:43.000Z</time>
      </trkpt>
      <trkpt lat="43.65777" lon="7.10935">
        <ele>23.60000038147</ele>
        <time>2015-03-31T18:05:45.000Z</time>
      </trkpt>
      <trkpt lat="43.65774" lon="7.10916">
        <ele>24.200000762939</ele>
        <time>2015-03-31T18:05:47.000Z</time>
      </trkpt>
      <trkpt lat="43.65771" lon="7.10898">
        <ele>25</ele>
        <time>2015-03-31T18:05:49.000Z</time>
      </trkpt>
      <trkpt lat="43.65765" lon="7.1088">
        <ele>26.799999237061</ele>
        <time>2015-03-31T18:05:51.000Z</time>
      </trkpt>
      <trkpt lat="43.65758" lon="7.10862">
        <ele>28.60000038147</ele>
        <time>2015-03-31T18:05:54.000Z</time>
      </trkpt>
      <trkpt lat="43.65751" lon="7.10846">
        <ele>30.39999961853</ele>
        <time>2015-03-31T18:05:55.000Z</time>
      </trkpt>
      <trkpt lat="43.65744" lon="7.10829">
        <ele>30.799999237061</ele>
        <time>2015-03-31T18:05:57.000Z</time>
      </trkpt>
      <trkpt lat="43.65736" lon="7.10814">
        <ele>31.200000762939</ele>
        <time>2015-03-31T18:05:59.000Z</time>
      </trkpt>
      <trkpt lat="43.65728" lon="7.108">
        <ele>31.60000038147</ele>
        <time>2015-03-31T18:06:01.000Z</time>
      </trkpt>
      <trkpt lat="43.6572" lon="7.10786">
        <ele>31.200000762939</ele>
        <time>2015-03-31T18:06:03.000Z</time>
      </trkpt>
      <trkpt lat="43.65711" lon="7.10773">
        <ele>31</ele>
        <time>2015-03-31T18:06:05.000Z</time>
      </trkpt>
      <trkpt lat="43.65703" lon="7.1076">
        <ele>30.799999237061</ele>
        <time>2015-03-31T18:06:07.000Z</time>
      </trkpt>
      <trkpt lat="43.65695" lon="7.10747">
        <ele>30.60000038147</ele>
        <time>2015-03-31T18:06:09.000Z</time>
      </trkpt>
      <trkpt lat="43.65687" lon="7.10735">
        <ele>30.60000038147</ele>
        <time>2015-03-31T18:06:11.000Z</time>
      </trkpt>
      <trkpt lat="43.6568" lon="7.10723">
        <ele>29.200000762939</ele>
        <time>2015-03-31T18:06:13.000Z</time>
      </trkpt>
      <trkpt lat="43.65675" lon="7.10709">
        <ele>27.799999237061</ele>
        <time>2015-03-31T18:06:15.000Z</time>
      </trkpt>
      <trkpt lat="43.6567" lon="7.10694">
        <ele>26.200000762939</ele>
        <time>2015-03-31T18:06:17.000Z</time>
      </trkpt>
      <trkpt lat="43.65669" lon="7.10679">
        <ele>25.60000038147</ele>
        <time>2015-03-31T18:06:19.000Z</time>
      </trkpt>
      <trkpt lat="43.6567" lon="7.10666">
        <ele>25.200000762939</ele>
        <time>2015-03-31T18:06:21.000Z</time>
      </trkpt>
      <trkpt lat="43.65672" lon="7.10649">
        <ele>24.799999237061</ele>
        <time>2015-03-31T18:06:24.000Z</time>
      </trkpt>
      <trkpt lat="43.65678" lon="7.10638">
        <ele>25.200000762939</ele>
        <time>2015-03-31T18:06:26.000Z</time>
      </trkpt>
      <trkpt lat="43.65682" lon="7.10627">
        <ele>25.799999237061</ele>
        <time>2015-03-31T18:06:28.000Z</time>
      </trkpt>
      <trkpt lat="43.65687" lon="7.10618">
        <ele>26.200000762939</ele>
        <time>2015-03-31T18:06:30.000Z</time>
      </trkpt>
      <trkpt lat="43.65695" lon="7.10609">
        <ele>26.60000038147</ele>
        <time>2015-03-31T18:06:32.000Z</time>
      </trkpt>
      <trkpt lat="43.65702" lon="7.10601">
        <ele>27.200000762939</ele>
        <time>2015-03-31T18:06:34.000Z</time>
      </trkpt>
      <trkpt lat="43.65709" lon="7.10594">
        <ele>27.60000038147</ele>
        <time>2015-03-31T18:06:36.000Z</time>
      </trkpt>
      <trkpt lat="43.65717" lon="7.10588">
        <ele>28</ele>
        <time>2015-03-31T18:06:38.000Z</time>
      </trkpt>
      <trkpt lat="43.65725" lon="7.10581">
        <ele>29</ele>
        <time>2015-03-31T18:06:40.000Z</time>
      </trkpt>
      <trkpt lat="43.65735" lon="7.10574">
        <ele>29.200000762939</ele>
        <time>2015-03-31T18:06:42.000Z</time>
      </trkpt>
      <trkpt lat="43.65741" lon="7.10567">
        <ele>29.39999961853</ele>
        <time>2015-03-31T18:06:44.000Z</time>
      </trkpt>
      <trkpt lat="43.6575" lon="7.1056">
        <ele>30.200000762939</ele>
        <time>2015-03-31T18:06:46.000Z</time>
      </trkpt>
      <trkpt lat="43.65759" lon="7.10553">
        <ele>30</ele>
        <time>2015-03-31T18:06:48.000Z</time>
      </trkpt>
      <trkpt lat="43.65769" lon="7.10545">
        <ele>29.799999237061</ele>
        <time>2015-03-31T18:06:50.000Z</time>
      </trkpt>
      <trkpt lat="43.65778" lon="7.10535">
        <ele>29.60000038147</ele>
        <time>2015-03-31T18:06:52.000Z</time>
      </trkpt>
      <trkpt lat="43.65788" lon="7.10529">
        <ele>29.60000038147</ele>
        <time>2015-03-31T18:06:54.000Z</time>
      </trkpt>
      <trkpt lat="43.65799" lon="7.10521">
        <ele>29.200000762939</ele>
        <time>2015-03-31T18:06:56.000Z</time>
      </trkpt>
      <trkpt lat="43.65807" lon="7.10513">
        <ele>29.200000762939</ele>
        <time>2015-03-31T18:06:58.000Z</time>
      </trkpt>
      <trkpt lat="43.65817" lon="7.10505">
        <ele>28.799999237061</ele>
        <time>2015-03-31T18:07:00.000Z</time>
      </trkpt>
      <trkpt lat="43.65828" lon="7.105">
        <ele>28.799999237061</ele>
        <time>2015-03-31T18:07:02.000Z</time>
      </trkpt>
      <trkpt lat="43.65836" lon="7.10489">
        <ele>30.799999237061</ele>
        <time>2015-03-31T18:07:04.000Z</time>
      </trkpt>
      <trkpt lat="43.65845" lon="7.10484">
        <ele>31</ele>
        <time>2015-03-31T18:07:06.000Z</time>
      </trkpt>
      <trkpt lat="43.65856" lon="7.10476">
        <ele>30.60000038147</ele>
        <time>2015-03-31T18:07:08.000Z</time>
      </trkpt>
      <trkpt lat="43.65866" lon="7.1047">
        <ele>30.200000762939</ele>
        <time>2015-03-31T18:07:10.000Z</time>
      </trkpt>
      <trkpt lat="43.65876" lon="7.10466">
        <ele>29.799999237061</ele>
        <time>2015-03-31T18:07:12.000Z</time>
      </trkpt>
      <trkpt lat="43.65888" lon="7.1046">
        <ele>29.60000038147</ele>
        <time>2015-03-31T18:07:14.000Z</time>
      </trkpt>
      <trkpt lat="43.65898" lon="7.10452">
        <ele>29.200000762939</ele>
        <time>2015-03-31T18:07:16.000Z</time>
      </trkpt>
      <trkpt lat="43.65908" lon="7.10446">
        <ele>28.799999237061</ele>
        <time>2015-03-31T18:07:18.000Z</time>
      </trkpt>
      <trkpt lat="43.65917" lon="7.10435">
        <ele>28.60000038147</ele>
        <time>2015-03-31T18:07:20.000Z</time>
      </trkpt>
      <trkpt lat="43.65928" lon="7.10428">
        <ele>28.39999961853</ele>
        <time>2015-03-31T18:07:22.000Z</time>
      </trkpt>
      <trkpt lat="43.65936" lon="7.10418">
        <ele>28.200000762939</ele>
        <time>2015-03-31T18:07:24.000Z</time>
      </trkpt>
      <trkpt lat="43.65945" lon="7.10405">
        <ele>26.799999237061</ele>
        <time>2015-03-31T18:07:26.000Z</time>
      </trkpt>
      <trkpt lat="43.65952" lon="7.10392">
        <ele>27.200000762939</ele>
        <time>2015-03-31T18:07:28.000Z</time>
      </trkpt>
      <trkpt lat="43.65959" lon="7.10379">
        <ele>27.39999961853</ele>
        <time>2015-03-31T18:07:30.000Z</time>
      </trkpt>
      <trkpt lat="43.65972" lon="7.10355">
        <ele>27.200000762939</ele>
        <time>2015-03-31T18:07:35.000Z</time>
      </trkpt>
      <trkpt lat="43.65979" lon="7.10343">
        <ele>27</ele>
        <time>2015-03-31T18:07:36.000Z</time>
      </trkpt>
      <trkpt lat="43.65985" lon="7.10328">
        <ele>26.799999237061</ele>
        <time>2015-03-31T18:07:38.000Z</time>
      </trkpt>
      <trkpt lat="43.65989" lon="7.10313">
        <ele>26.60000038147</ele>
        <time>2015-03-31T18:07:40.000Z</time>
      </trkpt>
      <trkpt lat="43.65998" lon="7.10302">
        <ele>26.60000038147</ele>
        <time>2015-03-31T18:07:42.000Z</time>
      </trkpt>
      <trkpt lat="43.66004" lon="7.10291">
        <ele>26.200000762939</ele>
        <time>2015-03-31T18:07:44.000Z</time>
      </trkpt>
      <trkpt lat="43.66011" lon="7.10279">
        <ele>27.200000762939</ele>
        <time>2015-03-31T18:07:46.000Z</time>
      </trkpt>
      <trkpt lat="43.66017" lon="7.10267">
        <ele>27.60000038147</ele>
        <time>2015-03-31T18:07:48.000Z</time>
      </trkpt>
      <trkpt lat="43.66025" lon="7.10258">
        <ele>28</ele>
        <time>2015-03-31T18:07:50.000Z</time>
      </trkpt>
      <trkpt lat="43.66032" lon="7.10244">
        <ele>28.39999961853</ele>
        <time>2015-03-31T18:07:52.000Z</time>
      </trkpt>
      <trkpt lat="43.66039" lon="7.1023">
        <ele>28.799999237061</ele>
        <time>2015-03-31T18:07:54.000Z</time>
      </trkpt>
      <trkpt lat="43.66045" lon="7.10217">
        <ele>29.60000038147</ele>
        <time>2015-03-31T18:07:56.000Z</time>
      </trkpt>
      <trkpt lat="43.66049" lon="7.10203">
        <ele>30.39999961853</ele>
        <time>2015-03-31T18:07:58.000Z</time>
      </trkpt>
      <trkpt lat="43.66054" lon="7.10189">
        <ele>31</ele>
        <time>2015-03-31T18:08:00.000Z</time>
      </trkpt>
      <trkpt lat="43.66059" lon="7.10178">
        <ele>31.60000038147</ele>
        <time>2015-03-31T18:08:02.000Z</time>
      </trkpt>
      <trkpt lat="43.66062" lon="7.10163">
        <ele>32.200000762939</ele>
        <time>2015-03-31T18:08:04.000Z</time>
      </trkpt>
      <trkpt lat="43.66064" lon="7.10146">
        <ele>33</ele>
        <time>2015-03-31T18:08:06.000Z</time>
      </trkpt>
      <trkpt lat="43.66068" lon="7.10132">
        <ele>32</ele>
        <time>2015-03-31T18:08:08.000Z</time>
      </trkpt>
      <trkpt lat="43.66068" lon="7.10117">
        <ele>31.799999237061</ele>
        <time>2015-03-31T18:08:10.000Z</time>
      </trkpt>
      <trkpt lat="43.66068" lon="7.10102">
        <ele>31.39999961853</ele>
        <time>2015-03-31T18:08:12.000Z</time>
      </trkpt>
      <trkpt lat="43.66068" lon="7.10085">
        <ele>31</ele>
        <time>2015-03-31T18:08:14.000Z</time>
      </trkpt>
      <trkpt lat="43.66067" lon="7.10068">
        <ele>30.60000038147</ele>
        <time>2015-03-31T18:08:16.000Z</time>
      </trkpt>
      <trkpt lat="43.66065" lon="7.1005">
        <ele>29.799999237061</ele>
        <time>2015-03-31T18:08:18.000Z</time>
      </trkpt>
      <trkpt lat="43.66061" lon="7.10033">
        <ele>29.200000762939</ele>
        <time>2015-03-31T18:08:20.000Z</time>
      </trkpt>
      <trkpt lat="43.66057" lon="7.10015">
        <ele>28.60000038147</ele>
        <time>2015-03-31T18:08:22.000Z</time>
      </trkpt>
      <trkpt lat="43.66052" lon="7.09997">
        <ele>28.200000762939</ele>
        <time>2015-03-31T18:08:24.000Z</time>
      </trkpt>
      <trkpt lat="43.66047" lon="7.0998">
        <ele>27.60000038147</ele>
        <time>2015-03-31T18:08:26.000Z</time>
      </trkpt>
      <trkpt lat="43.66043" lon="7.09962">
        <ele>27.200000762939</ele>
        <time>2015-03-31T18:08:28.000Z</time>
      </trkpt>
      <trkpt lat="43.66038" lon="7.09943">
        <ele>27</ele>
        <time>2015-03-31T18:08:30.000Z</time>
      </trkpt>
      <trkpt lat="43.66033" lon="7.09925">
        <ele>26.799999237061</ele>
        <time>2015-03-31T18:08:33.000Z</time>
      </trkpt>
      <trkpt lat="43.66029" lon="7.09907">
        <ele>26.799999237061</ele>
        <time>2015-03-31T18:08:34.000Z</time>
      </trkpt>
      <trkpt lat="43.66024" lon="7.09889">
        <ele>26.799999237061</ele>
        <time>2015-03-31T18:08:36.000Z</time>
      </trkpt>
      <trkpt lat="43.66019" lon="7.09871">
        <ele>27</ele>
        <time>2015-03-31T18:08:38.000Z</time>
      </trkpt>
      <trkpt lat="43.66014" lon="7.09852">
        <ele>27.60000038147</ele>
        <time>2015-03-31T18:08:40.000Z</time>
      </trkpt>
      <trkpt lat="43.66009" lon="7.09833">
        <ele>27.799999237061</ele>
        <time>2015-03-31T18:08:42.000Z</time>
      </trkpt>
      <trkpt lat="43.66005" lon="7.09813">
        <ele>28.39999961853</ele>
        <time>2015-03-31T18:08:44.000Z</time>
      </trkpt>
      <trkpt lat="43.66" lon="7.09795">
        <ele>29.60000038147</ele>
        <time>2015-03-31T18:08:46.000Z</time>
      </trkpt>
      <trkpt lat="43.65997" lon="7.09777">
        <ele>30.60000038147</ele>
        <time>2015-03-31T18:08:48.000Z</time>
      </trkpt>
      <trkpt lat="43.65991" lon="7.09759">
        <ele>31.39999961853</ele>
        <time>2015-03-31T18:08:50.000Z</time>
      </trkpt>
      <trkpt lat="43.65986" lon="7.0974">
        <ele>32.200000762939</ele>
        <time>2015-03-31T18:08:52.000Z</time>
      </trkpt>
      <trkpt lat="43.65981" lon="7.09721">
        <ele>32</ele>
        <time>2015-03-31T18:08:54.000Z</time>
      </trkpt>
      <trkpt lat="43.65976" lon="7.09703">
        <ele>32</ele>
        <time>2015-03-31T18:08:56.000Z</time>
      </trkpt>
      <trkpt lat="43.65972" lon="7.09685">
        <ele>31.799999237061</ele>
        <time>2015-03-31T18:08:58.000Z</time>
      </trkpt>
      <trkpt lat="43.65967" lon="7.09668">
        <ele>31.60000038147</ele>
        <time>2015-03-31T18:09:00.000Z</time>
      </trkpt>
      <trkpt lat="43.65963" lon="7.09651">
        <ele>32</ele>
        <time>2015-03-31T18:09:02.000Z</time>
      </trkpt>
      <trkpt lat="43.65959" lon="7.09635">
        <ele>32.799999237061</ele>
        <time>2015-03-31T18:09:04.000Z</time>
      </trkpt>
      <trkpt lat="43.65955" lon="7.09622">
        <ele>33.400001525879</ele>
        <time>2015-03-31T18:09:06.000Z</time>
      </trkpt>
      <trkpt lat="43.65955" lon="7.09608">
        <ele>33.400001525879</ele>
        <time>2015-03-31T18:09:08.000Z</time>
      </trkpt>
      <trkpt lat="43.65962" lon="7.096">
        <ele>33.400001525879</ele>
        <time>2015-03-31T18:09:10.000Z</time>
      </trkpt>
      <trkpt lat="43.65968" lon="7.09593">
        <ele>33.400001525879</ele>
        <time>2015-03-31T18:09:13.000Z</time>
      </trkpt>
      <trkpt lat="43.65975" lon="7.09585">
        <ele>33.400001525879</ele>
        <time>2015-03-31T18:09:19.000Z</time>
      </trkpt>
      <trkpt lat="43.65982" lon="7.09578">
        <ele>34.200000762939</ele>
        <time>2015-03-31T18:09:24.000Z</time>
      </trkpt>
      <trkpt lat="43.6599" lon="7.09572">
        <ele>35.200000762939</ele>
        <time>2015-03-31T18:09:30.000Z</time>
      </trkpt>
      <trkpt lat="43.65998" lon="7.09568">
        <ele>36</ele>
        <time>2015-03-31T18:09:35.000Z</time>
      </trkpt>
      <trkpt lat="43.66007" lon="7.09566">
        <ele>37.599998474121</ele>
        <time>2015-03-31T18:09:40.000Z</time>
      </trkpt>
      <trkpt lat="43.66015" lon="7.09563">
        <ele>38.200000762939</ele>
        <time>2015-03-31T18:09:45.000Z</time>
      </trkpt>
      <trkpt lat="43.66023" lon="7.09559">
        <ele>39</ele>
        <time>2015-03-31T18:09:50.000Z</time>
      </trkpt>
      <trkpt lat="43.66031" lon="7.09554">
        <ele>39.599998474121</ele>
        <time>2015-03-31T18:09:54.000Z</time>
      </trkpt>
      <trkpt lat="43.66039" lon="7.09551">
        <ele>40.200000762939</ele>
        <time>2015-03-31T18:09:59.000Z</time>
      </trkpt>
      <trkpt lat="43.66047" lon="7.09548">
        <ele>40.799999237061</ele>
        <time>2015-03-31T18:10:03.000Z</time>
      </trkpt>
      <trkpt lat="43.66055" lon="7.09543">
        <ele>41.599998474121</ele>
        <time>2015-03-31T18:10:07.000Z</time>
      </trkpt>
      <trkpt lat="43.66064" lon="7.09543">
        <ele>42</ele>
        <time>2015-03-31T18:10:11.000Z</time>
      </trkpt>
      <trkpt lat="43.66074" lon="7.09546">
        <ele>42.799999237061</ele>
        <time>2015-03-31T18:10:16.000Z</time>
      </trkpt>
      <trkpt lat="43.66081" lon="7.09552">
        <ele>43.200000762939</ele>
        <time>2015-03-31T18:10:22.000Z</time>
      </trkpt>
      <trkpt lat="43.66089" lon="7.0956">
        <ele>44</ele>
        <time>2015-03-31T18:10:28.000Z</time>
      </trkpt>
      <trkpt lat="43.66094" lon="7.0957">
        <ele>44</ele>
        <time>2015-03-31T18:10:33.000Z</time>
      </trkpt>
      <trkpt lat="43.66092" lon="7.09581">
        <ele>44</ele>
        <time>2015-03-31T18:10:39.000Z</time>
      </trkpt>
      <trkpt lat="43.66084" lon="7.09578">
        <ele>44</ele>
        <time>2015-03-31T18:10:44.000Z</time>
      </trkpt>
    </trkseg>
  </trk>
</gpx>